<?xml version="1.0" encoding="UTF-8" standalone="no" ?>
<gpx xmlns="http://www.topografix.com/GPX/1/1" xmlns:xsi="http://www.w3.org/2001/XMLSchema-instance" xsi:schemaLocation="http://www.topografix.com/GPX/1/1 http://www.topografix.com/GPX/1/1/gpx.xsd" version="1.1" creator="VisuGPX - https://www.visugpx.com">
  <metadata>
    <name>Randonnée du 17/07/2020 à 11:08</name>
    <desc><![CDATA[De Caen à Clécy par la Voie Verte de la Vallée de l'Orne]]></desc>
  </metadata>
  <trk>
    <name><![CDATA[Randonnée du 17/07/2020 à 11:08]]></name>
    <trkseg>
      <trkpt lat="49.18682" lon="-0.35762">
        <ele>27</ele>
        <time>2021-10-06T20:28:18+02:00</time>
      </trkpt>
      <trkpt lat="49.18692" lon="-0.35728">
        <ele>28</ele>
        <time>2021-10-06T20:28:18+02:00</time>
      </trkpt>
      <trkpt lat="49.187" lon="-0.35689">
        <ele>28</ele>
        <time>2021-10-06T20:28:18+02:00</time>
      </trkpt>
      <trkpt lat="49.18708" lon="-0.35653">
        <ele>28</ele>
        <time>2021-10-06T20:28:18+02:00</time>
      </trkpt>
      <trkpt lat="49.18718" lon="-0.3562">
        <ele>28</ele>
        <time>2021-10-06T20:28:18+02:00</time>
      </trkpt>
      <trkpt lat="49.18719" lon="-0.35583">
        <ele>28</ele>
        <time>2021-10-06T20:28:18+02:00</time>
      </trkpt>
      <trkpt lat="49.18695" lon="-0.35572">
        <ele>27</ele>
        <time>2021-10-06T20:28:18+02:00</time>
      </trkpt>
      <trkpt lat="49.18671" lon="-0.35565">
        <ele>27</ele>
        <time>2021-10-06T20:28:18+02:00</time>
      </trkpt>
      <trkpt lat="49.18645" lon="-0.35555">
        <ele>27</ele>
        <time>2021-10-06T20:28:18+02:00</time>
      </trkpt>
      <trkpt lat="49.18621" lon="-0.35549">
        <ele>26</ele>
        <time>2021-10-06T20:28:18+02:00</time>
      </trkpt>
      <trkpt lat="49.18621" lon="-0.35511">
        <ele>24</ele>
        <time>2021-10-06T20:28:18+02:00</time>
      </trkpt>
      <trkpt lat="49.18629" lon="-0.35475">
        <ele>24</ele>
        <time>2021-10-06T20:28:18+02:00</time>
      </trkpt>
      <trkpt lat="49.18638" lon="-0.35442">
        <ele>24</ele>
        <time>2021-10-06T20:28:18+02:00</time>
      </trkpt>
      <trkpt lat="49.18649" lon="-0.35408">
        <ele>24</ele>
        <time>2021-10-06T20:28:18+02:00</time>
      </trkpt>
      <trkpt lat="49.18627" lon="-0.35386">
        <ele>23</ele>
        <time>2021-10-06T20:28:18+02:00</time>
      </trkpt>
      <trkpt lat="49.18603" lon="-0.354">
        <ele>22</ele>
        <time>2021-10-06T20:28:18+02:00</time>
      </trkpt>
      <trkpt lat="49.18582" lon="-0.3542">
        <ele>19</ele>
        <time>2021-10-06T20:28:18+02:00</time>
      </trkpt>
      <trkpt lat="49.18563" lon="-0.35445">
        <ele>18</ele>
        <time>2021-10-06T20:28:18+02:00</time>
      </trkpt>
      <trkpt lat="49.18544" lon="-0.35475">
        <ele>16</ele>
        <time>2021-10-06T20:28:18+02:00</time>
      </trkpt>
      <trkpt lat="49.18531" lon="-0.35507">
        <ele>15</ele>
        <time>2021-10-06T20:28:18+02:00</time>
      </trkpt>
      <trkpt lat="49.18504" lon="-0.35499">
        <ele>11</ele>
        <time>2021-10-06T20:28:18+02:00</time>
      </trkpt>
      <trkpt lat="49.18481" lon="-0.35477">
        <ele>9</ele>
        <time>2021-10-06T20:28:18+02:00</time>
      </trkpt>
      <trkpt lat="49.18464" lon="-0.35443">
        <ele>8</ele>
        <time>2021-10-06T20:28:18+02:00</time>
      </trkpt>
      <trkpt lat="49.1845" lon="-0.35415">
        <ele>7</ele>
        <time>2021-10-06T20:28:18+02:00</time>
      </trkpt>
      <trkpt lat="49.18434" lon="-0.35382">
        <ele>7</ele>
        <time>2021-10-06T20:28:18+02:00</time>
      </trkpt>
      <trkpt lat="49.18419" lon="-0.35353">
        <ele>6</ele>
        <time>2021-10-06T20:28:18+02:00</time>
      </trkpt>
      <trkpt lat="49.18401" lon="-0.35317">
        <ele>6</ele>
        <time>2021-10-06T20:28:18+02:00</time>
      </trkpt>
      <trkpt lat="49.18385" lon="-0.35285">
        <ele>6</ele>
        <time>2021-10-06T20:28:18+02:00</time>
      </trkpt>
      <trkpt lat="49.18369" lon="-0.35252">
        <ele>6</ele>
        <time>2021-10-06T20:28:18+02:00</time>
      </trkpt>
      <trkpt lat="49.18354" lon="-0.35222">
        <ele>5</ele>
        <time>2021-10-06T20:28:18+02:00</time>
      </trkpt>
      <trkpt lat="49.18331" lon="-0.35243">
        <ele>8</ele>
        <time>2021-10-06T20:28:18+02:00</time>
      </trkpt>
      <trkpt lat="49.18307" lon="-0.35255">
        <ele>13</ele>
        <time>2021-10-06T20:28:18+02:00</time>
      </trkpt>
      <trkpt lat="49.18295" lon="-0.35219">
        <ele>12</ele>
        <time>2021-10-06T20:28:18+02:00</time>
      </trkpt>
      <trkpt lat="49.18277" lon="-0.35192">
        <ele>12</ele>
        <time>2021-10-06T20:28:18+02:00</time>
      </trkpt>
      <trkpt lat="49.18252" lon="-0.35195">
        <ele>12</ele>
        <time>2021-10-06T20:28:18+02:00</time>
      </trkpt>
      <trkpt lat="49.1823" lon="-0.35173">
        <ele>5</ele>
        <time>2021-10-06T20:28:18+02:00</time>
      </trkpt>
      <trkpt lat="49.18213" lon="-0.35148">
        <ele>5</ele>
        <time>2021-10-06T20:28:18+02:00</time>
      </trkpt>
      <trkpt lat="49.18203" lon="-0.35111">
        <ele>5</ele>
        <time>2021-10-06T20:28:18+02:00</time>
      </trkpt>
      <trkpt lat="49.18185" lon="-0.35087">
        <ele>5</ele>
        <time>2021-10-06T20:28:18+02:00</time>
      </trkpt>
      <trkpt lat="49.18172" lon="-0.35058">
        <ele>6</ele>
        <time>2021-10-06T20:28:18+02:00</time>
      </trkpt>
      <trkpt lat="49.18158" lon="-0.35025">
        <ele>6</ele>
        <time>2021-10-06T20:28:18+02:00</time>
      </trkpt>
      <trkpt lat="49.18142" lon="-0.34992">
        <ele>6</ele>
        <time>2021-10-06T20:28:18+02:00</time>
      </trkpt>
      <trkpt lat="49.18126" lon="-0.34961">
        <ele>6</ele>
        <time>2021-10-06T20:28:18+02:00</time>
      </trkpt>
      <trkpt lat="49.18109" lon="-0.34935">
        <ele>6</ele>
        <time>2021-10-06T20:28:18+02:00</time>
      </trkpt>
      <trkpt lat="49.18089" lon="-0.34911">
        <ele>11</ele>
        <time>2021-10-06T20:28:18+02:00</time>
      </trkpt>
      <trkpt lat="49.1807" lon="-0.34941">
        <ele>6</ele>
        <time>2021-10-06T20:28:18+02:00</time>
      </trkpt>
      <trkpt lat="49.18048" lon="-0.34968">
        <ele>6</ele>
        <time>2021-10-06T20:28:18+02:00</time>
      </trkpt>
      <trkpt lat="49.18025" lon="-0.34972">
        <ele>5</ele>
        <time>2021-10-06T20:28:18+02:00</time>
      </trkpt>
      <trkpt lat="49.18003" lon="-0.3498">
        <ele>5</ele>
        <time>2021-10-06T20:28:18+02:00</time>
      </trkpt>
      <trkpt lat="49.1798" lon="-0.34982">
        <ele>5</ele>
        <time>2021-10-06T20:28:18+02:00</time>
      </trkpt>
      <trkpt lat="49.17966" lon="-0.35011">
        <ele>5</ele>
        <time>2021-10-06T20:28:18+02:00</time>
      </trkpt>
      <trkpt lat="49.17951" lon="-0.35037">
        <ele>5</ele>
        <time>2021-10-06T20:28:18+02:00</time>
      </trkpt>
      <trkpt lat="49.17935" lon="-0.3507">
        <ele>5</ele>
        <time>2021-10-06T20:28:18+02:00</time>
      </trkpt>
      <trkpt lat="49.17922" lon="-0.35098">
        <ele>5</ele>
        <time>2021-10-06T20:28:18+02:00</time>
      </trkpt>
      <trkpt lat="49.17909" lon="-0.35129">
        <ele>5</ele>
        <time>2021-10-06T20:28:18+02:00</time>
      </trkpt>
      <trkpt lat="49.17895" lon="-0.35161">
        <ele>5</ele>
        <time>2021-10-06T20:28:18+02:00</time>
      </trkpt>
      <trkpt lat="49.17882" lon="-0.35191">
        <ele>5</ele>
        <time>2021-10-06T20:28:18+02:00</time>
      </trkpt>
      <trkpt lat="49.17865" lon="-0.35219">
        <ele>5</ele>
        <time>2021-10-06T20:28:18+02:00</time>
      </trkpt>
      <trkpt lat="49.17851" lon="-0.35249">
        <ele>5</ele>
        <time>2021-10-06T20:28:18+02:00</time>
      </trkpt>
      <trkpt lat="49.17839" lon="-0.35278">
        <ele>5</ele>
        <time>2021-10-06T20:28:18+02:00</time>
      </trkpt>
      <trkpt lat="49.17826" lon="-0.35307">
        <ele>4</ele>
        <time>2021-10-06T20:28:18+02:00</time>
      </trkpt>
      <trkpt lat="49.17814" lon="-0.35341">
        <ele>5</ele>
        <time>2021-10-06T20:28:18+02:00</time>
      </trkpt>
      <trkpt lat="49.17799" lon="-0.35373">
        <ele>5</ele>
        <time>2021-10-06T20:28:18+02:00</time>
      </trkpt>
      <trkpt lat="49.17786" lon="-0.35404">
        <ele>5</ele>
        <time>2021-10-06T20:28:18+02:00</time>
      </trkpt>
      <trkpt lat="49.17771" lon="-0.35438">
        <ele>5</ele>
        <time>2021-10-06T20:28:18+02:00</time>
      </trkpt>
      <trkpt lat="49.17758" lon="-0.35467">
        <ele>5</ele>
        <time>2021-10-06T20:28:18+02:00</time>
      </trkpt>
      <trkpt lat="49.17744" lon="-0.35495">
        <ele>2</ele>
        <time>2021-10-06T20:28:18+02:00</time>
      </trkpt>
      <trkpt lat="49.17729" lon="-0.35523">
        <ele>-4</ele>
        <time>2021-10-06T20:28:18+02:00</time>
      </trkpt>
      <trkpt lat="49.17717" lon="-0.35557">
        <ele>-2</ele>
        <time>2021-10-06T20:28:18+02:00</time>
      </trkpt>
      <trkpt lat="49.17704" lon="-0.35586">
        <ele>5.8</ele>
        <time>2021-10-06T20:28:18+02:00</time>
      </trkpt>
      <trkpt lat="49.17687" lon="-0.35618">
        <ele>-2</ele>
        <time>2021-10-06T20:28:18+02:00</time>
      </trkpt>
      <trkpt lat="49.17674" lon="-0.35649">
        <ele>4</ele>
        <time>2021-10-06T20:28:18+02:00</time>
      </trkpt>
      <trkpt lat="49.1766" lon="-0.3568">
        <ele>5</ele>
        <time>2021-10-06T20:28:18+02:00</time>
      </trkpt>
      <trkpt lat="49.17648" lon="-0.35709">
        <ele>5</ele>
        <time>2021-10-06T20:28:18+02:00</time>
      </trkpt>
      <trkpt lat="49.17634" lon="-0.35739">
        <ele>-3</ele>
        <time>2021-10-06T20:28:18+02:00</time>
      </trkpt>
      <trkpt lat="49.17617" lon="-0.35763">
        <ele>5</ele>
        <time>2021-10-06T20:28:18+02:00</time>
      </trkpt>
      <trkpt lat="49.17607" lon="-0.35803">
        <ele>5</ele>
        <time>2021-10-06T20:28:18+02:00</time>
      </trkpt>
      <trkpt lat="49.17593" lon="-0.35836">
        <ele>5</ele>
        <time>2021-10-06T20:28:18+02:00</time>
      </trkpt>
      <trkpt lat="49.17576" lon="-0.3586">
        <ele>5</ele>
        <time>2021-10-06T20:28:18+02:00</time>
      </trkpt>
      <trkpt lat="49.1756" lon="-0.35888">
        <ele>5</ele>
        <time>2021-10-06T20:28:18+02:00</time>
      </trkpt>
      <trkpt lat="49.17541" lon="-0.35918">
        <ele>5</ele>
        <time>2021-10-06T20:28:18+02:00</time>
      </trkpt>
      <trkpt lat="49.17524" lon="-0.35945">
        <ele>5</ele>
        <time>2021-10-06T20:28:18+02:00</time>
      </trkpt>
      <trkpt lat="49.17507" lon="-0.35968">
        <ele>5</ele>
        <time>2021-10-06T20:28:18+02:00</time>
      </trkpt>
      <trkpt lat="49.17491" lon="-0.35995">
        <ele>5</ele>
        <time>2021-10-06T20:28:18+02:00</time>
      </trkpt>
      <trkpt lat="49.17473" lon="-0.36022">
        <ele>5</ele>
        <time>2021-10-06T20:28:18+02:00</time>
      </trkpt>
      <trkpt lat="49.17455" lon="-0.36052">
        <ele>5</ele>
        <time>2021-10-06T20:28:18+02:00</time>
      </trkpt>
      <trkpt lat="49.1744" lon="-0.36079">
        <ele>5</ele>
        <time>2021-10-06T20:28:18+02:00</time>
      </trkpt>
      <trkpt lat="49.17424" lon="-0.36109">
        <ele>5</ele>
        <time>2021-10-06T20:28:18+02:00</time>
      </trkpt>
      <trkpt lat="49.17405" lon="-0.36137">
        <ele>5</ele>
        <time>2021-10-06T20:28:18+02:00</time>
      </trkpt>
      <trkpt lat="49.17388" lon="-0.36169">
        <ele>5</ele>
        <time>2021-10-06T20:28:18+02:00</time>
      </trkpt>
      <trkpt lat="49.17369" lon="-0.36197">
        <ele>5</ele>
        <time>2021-10-06T20:28:18+02:00</time>
      </trkpt>
      <trkpt lat="49.17352" lon="-0.36226">
        <ele>5</ele>
        <time>2021-10-06T20:28:18+02:00</time>
      </trkpt>
      <trkpt lat="49.17334" lon="-0.36254">
        <ele>5</ele>
        <time>2021-10-06T20:28:18+02:00</time>
      </trkpt>
      <trkpt lat="49.17317" lon="-0.36279">
        <ele>5</ele>
        <time>2021-10-06T20:28:18+02:00</time>
      </trkpt>
      <trkpt lat="49.17299" lon="-0.36308">
        <ele>5</ele>
        <time>2021-10-06T20:28:18+02:00</time>
      </trkpt>
      <trkpt lat="49.17282" lon="-0.36334">
        <ele>5</ele>
        <time>2021-10-06T20:28:18+02:00</time>
      </trkpt>
      <trkpt lat="49.17263" lon="-0.3636">
        <ele>5</ele>
        <time>2021-10-06T20:28:18+02:00</time>
      </trkpt>
      <trkpt lat="49.17247" lon="-0.36386">
        <ele>5</ele>
        <time>2021-10-06T20:28:18+02:00</time>
      </trkpt>
      <trkpt lat="49.17229" lon="-0.36414">
        <ele>5</ele>
        <time>2021-10-06T20:28:18+02:00</time>
      </trkpt>
      <trkpt lat="49.17211" lon="-0.36445">
        <ele>5</ele>
        <time>2021-10-06T20:28:18+02:00</time>
      </trkpt>
      <trkpt lat="49.17198" lon="-0.3648">
        <ele>5</ele>
        <time>2021-10-06T20:28:18+02:00</time>
      </trkpt>
      <trkpt lat="49.1719" lon="-0.36515">
        <ele>5</ele>
        <time>2021-10-06T20:28:18+02:00</time>
      </trkpt>
      <trkpt lat="49.1718" lon="-0.36555">
        <ele>5</ele>
        <time>2021-10-06T20:28:18+02:00</time>
      </trkpt>
      <trkpt lat="49.17178" lon="-0.3659">
        <ele>6</ele>
        <time>2021-10-06T20:28:18+02:00</time>
      </trkpt>
      <trkpt lat="49.17167" lon="-0.36626">
        <ele>5</ele>
        <time>2021-10-06T20:28:18+02:00</time>
      </trkpt>
      <trkpt lat="49.17141" lon="-0.36625">
        <ele>5</ele>
        <time>2021-10-06T20:28:18+02:00</time>
      </trkpt>
      <trkpt lat="49.17119" lon="-0.36643">
        <ele>5</ele>
        <time>2021-10-06T20:28:18+02:00</time>
      </trkpt>
      <trkpt lat="49.17104" lon="-0.36677">
        <ele>5</ele>
        <time>2021-10-06T20:28:18+02:00</time>
      </trkpt>
      <trkpt lat="49.17082" lon="-0.36699">
        <ele>5</ele>
        <time>2021-10-06T20:28:18+02:00</time>
      </trkpt>
      <trkpt lat="49.17057" lon="-0.36713">
        <ele>5.9</ele>
        <time>2021-10-06T20:28:18+02:00</time>
      </trkpt>
      <trkpt lat="49.17024" lon="-0.3671">
        <ele>4.6</ele>
        <time>2021-10-06T20:28:18+02:00</time>
      </trkpt>
      <trkpt lat="49.16959" lon="-0.3671">
        <ele>3</ele>
        <time>2021-10-06T20:28:18+02:00</time>
      </trkpt>
      <trkpt lat="49.16994" lon="-0.36757">
        <ele>4</ele>
        <time>2021-10-06T20:28:18+02:00</time>
      </trkpt>
      <trkpt lat="49.16984" lon="-0.36793">
        <ele>7</ele>
        <time>2021-10-06T20:28:18+02:00</time>
      </trkpt>
      <trkpt lat="49.16977" lon="-0.36833">
        <ele>7</ele>
        <time>2021-10-06T20:28:18+02:00</time>
      </trkpt>
      <trkpt lat="49.16954" lon="-0.36856">
        <ele>6</ele>
        <time>2021-10-06T20:28:18+02:00</time>
      </trkpt>
      <trkpt lat="49.16948" lon="-0.3689">
        <ele>6</ele>
        <time>2021-10-06T20:28:18+02:00</time>
      </trkpt>
      <trkpt lat="49.16943" lon="-0.36925">
        <ele>6</ele>
        <time>2021-10-06T20:28:18+02:00</time>
      </trkpt>
      <trkpt lat="49.16941" lon="-0.36965">
        <ele>7</ele>
        <time>2021-10-06T20:28:18+02:00</time>
      </trkpt>
      <trkpt lat="49.16939" lon="-0.37001">
        <ele>7</ele>
        <time>2021-10-06T20:28:18+02:00</time>
      </trkpt>
      <trkpt lat="49.16937" lon="-0.37042">
        <ele>6</ele>
        <time>2021-10-06T20:28:18+02:00</time>
      </trkpt>
      <trkpt lat="49.16935" lon="-0.37078">
        <ele>5</ele>
        <time>2021-10-06T20:28:18+02:00</time>
      </trkpt>
      <trkpt lat="49.16934" lon="-0.37115">
        <ele>5</ele>
        <time>2021-10-06T20:28:18+02:00</time>
      </trkpt>
      <trkpt lat="49.16933" lon="-0.37154">
        <ele>5</ele>
        <time>2021-10-06T20:28:18+02:00</time>
      </trkpt>
      <trkpt lat="49.16911" lon="-0.37175">
        <ele>6</ele>
        <time>2021-10-06T20:28:18+02:00</time>
      </trkpt>
      <trkpt lat="49.16888" lon="-0.37165">
        <ele>5</ele>
        <time>2021-10-06T20:28:18+02:00</time>
      </trkpt>
      <trkpt lat="49.16867" lon="-0.37146">
        <ele>6</ele>
        <time>2021-10-06T20:28:18+02:00</time>
      </trkpt>
      <trkpt lat="49.16846" lon="-0.37131">
        <ele>9</ele>
        <time>2021-10-06T20:28:18+02:00</time>
      </trkpt>
      <trkpt lat="49.1683" lon="-0.3716">
        <ele>10</ele>
        <time>2021-10-06T20:28:18+02:00</time>
      </trkpt>
      <trkpt lat="49.1681" lon="-0.37186">
        <ele>8</ele>
        <time>2021-10-06T20:28:18+02:00</time>
      </trkpt>
      <trkpt lat="49.16795" lon="-0.37211">
        <ele>8</ele>
        <time>2021-10-06T20:28:18+02:00</time>
      </trkpt>
      <trkpt lat="49.1678" lon="-0.37238">
        <ele>8</ele>
        <time>2021-10-06T20:28:18+02:00</time>
      </trkpt>
      <trkpt lat="49.16763" lon="-0.37264">
        <ele>8</ele>
        <time>2021-10-06T20:28:18+02:00</time>
      </trkpt>
      <trkpt lat="49.16742" lon="-0.3729">
        <ele>7</ele>
        <time>2021-10-06T20:28:18+02:00</time>
      </trkpt>
      <trkpt lat="49.16724" lon="-0.37314">
        <ele>7</ele>
        <time>2021-10-06T20:28:18+02:00</time>
      </trkpt>
      <trkpt lat="49.16701" lon="-0.37337">
        <ele>7</ele>
        <time>2021-10-06T20:28:18+02:00</time>
      </trkpt>
      <trkpt lat="49.1668" lon="-0.37361">
        <ele>7</ele>
        <time>2021-10-06T20:28:18+02:00</time>
      </trkpt>
      <trkpt lat="49.1666" lon="-0.3738">
        <ele>7</ele>
        <time>2021-10-06T20:28:18+02:00</time>
      </trkpt>
      <trkpt lat="49.16639" lon="-0.374">
        <ele>7</ele>
        <time>2021-10-06T20:28:18+02:00</time>
      </trkpt>
      <trkpt lat="49.16619" lon="-0.37419">
        <ele>7</ele>
        <time>2021-10-06T20:28:18+02:00</time>
      </trkpt>
      <trkpt lat="49.16596" lon="-0.37438">
        <ele>7</ele>
        <time>2021-10-06T20:28:18+02:00</time>
      </trkpt>
      <trkpt lat="49.16572" lon="-0.37454">
        <ele>7</ele>
        <time>2021-10-06T20:28:18+02:00</time>
      </trkpt>
      <trkpt lat="49.16547" lon="-0.37469">
        <ele>7</ele>
        <time>2021-10-06T20:28:18+02:00</time>
      </trkpt>
      <trkpt lat="49.16523" lon="-0.37487">
        <ele>6</ele>
        <time>2021-10-06T20:28:18+02:00</time>
      </trkpt>
      <trkpt lat="49.16501" lon="-0.37498">
        <ele>7</ele>
        <time>2021-10-06T20:28:18+02:00</time>
      </trkpt>
      <trkpt lat="49.16478" lon="-0.37512">
        <ele>7</ele>
        <time>2021-10-06T20:28:18+02:00</time>
      </trkpt>
      <trkpt lat="49.16455" lon="-0.37527">
        <ele>7</ele>
        <time>2021-10-06T20:28:18+02:00</time>
      </trkpt>
      <trkpt lat="49.16434" lon="-0.3754">
        <ele>7</ele>
        <time>2021-10-06T20:28:18+02:00</time>
      </trkpt>
      <trkpt lat="49.16409" lon="-0.37555">
        <ele>7</ele>
        <time>2021-10-06T20:28:18+02:00</time>
      </trkpt>
      <trkpt lat="49.16386" lon="-0.37569">
        <ele>7</ele>
        <time>2021-10-06T20:28:18+02:00</time>
      </trkpt>
      <trkpt lat="49.16361" lon="-0.37585">
        <ele>8</ele>
        <time>2021-10-06T20:28:18+02:00</time>
      </trkpt>
      <trkpt lat="49.1634" lon="-0.37599">
        <ele>7</ele>
        <time>2021-10-06T20:28:18+02:00</time>
      </trkpt>
      <trkpt lat="49.16315" lon="-0.37614">
        <ele>7</ele>
        <time>2021-10-06T20:28:18+02:00</time>
      </trkpt>
      <trkpt lat="49.16288" lon="-0.37629">
        <ele>7</ele>
        <time>2021-10-06T20:28:18+02:00</time>
      </trkpt>
      <trkpt lat="49.16266" lon="-0.37644">
        <ele>7</ele>
        <time>2021-10-06T20:28:18+02:00</time>
      </trkpt>
      <trkpt lat="49.16239" lon="-0.3766">
        <ele>7</ele>
        <time>2021-10-06T20:28:18+02:00</time>
      </trkpt>
      <trkpt lat="49.16217" lon="-0.37674">
        <ele>8</ele>
        <time>2021-10-06T20:28:18+02:00</time>
      </trkpt>
      <trkpt lat="49.16191" lon="-0.3769">
        <ele>7</ele>
        <time>2021-10-06T20:28:18+02:00</time>
      </trkpt>
      <trkpt lat="49.16166" lon="-0.37705">
        <ele>8</ele>
        <time>2021-10-06T20:28:18+02:00</time>
      </trkpt>
      <trkpt lat="49.16143" lon="-0.3772">
        <ele>7</ele>
        <time>2021-10-06T20:28:18+02:00</time>
      </trkpt>
      <trkpt lat="49.16119" lon="-0.37731">
        <ele>7</ele>
        <time>2021-10-06T20:28:18+02:00</time>
      </trkpt>
      <trkpt lat="49.16098" lon="-0.37746">
        <ele>7</ele>
        <time>2021-10-06T20:28:18+02:00</time>
      </trkpt>
      <trkpt lat="49.16076" lon="-0.37759">
        <ele>7</ele>
        <time>2021-10-06T20:28:18+02:00</time>
      </trkpt>
      <trkpt lat="49.16049" lon="-0.37773">
        <ele>7</ele>
        <time>2021-10-06T20:28:18+02:00</time>
      </trkpt>
      <trkpt lat="49.16028" lon="-0.37785">
        <ele>8</ele>
        <time>2021-10-06T20:28:18+02:00</time>
      </trkpt>
      <trkpt lat="49.16004" lon="-0.378">
        <ele>7</ele>
        <time>2021-10-06T20:28:18+02:00</time>
      </trkpt>
      <trkpt lat="49.15981" lon="-0.37815">
        <ele>7</ele>
        <time>2021-10-06T20:28:18+02:00</time>
      </trkpt>
      <trkpt lat="49.15958" lon="-0.37832">
        <ele>7</ele>
        <time>2021-10-06T20:28:18+02:00</time>
      </trkpt>
      <trkpt lat="49.15934" lon="-0.3785">
        <ele>7</ele>
        <time>2021-10-06T20:28:18+02:00</time>
      </trkpt>
      <trkpt lat="49.15912" lon="-0.37867">
        <ele>6</ele>
        <time>2021-10-06T20:28:18+02:00</time>
      </trkpt>
      <trkpt lat="49.15888" lon="-0.3788">
        <ele>6</ele>
        <time>2021-10-06T20:28:18+02:00</time>
      </trkpt>
      <trkpt lat="49.15863" lon="-0.37896">
        <ele>6</ele>
        <time>2021-10-06T20:28:18+02:00</time>
      </trkpt>
      <trkpt lat="49.15841" lon="-0.37909">
        <ele>6</ele>
        <time>2021-10-06T20:28:18+02:00</time>
      </trkpt>
      <trkpt lat="49.15817" lon="-0.37925">
        <ele>6</ele>
        <time>2021-10-06T20:28:18+02:00</time>
      </trkpt>
      <trkpt lat="49.15791" lon="-0.37937">
        <ele>6</ele>
        <time>2021-10-06T20:28:18+02:00</time>
      </trkpt>
      <trkpt lat="49.15764" lon="-0.37953">
        <ele>6</ele>
        <time>2021-10-06T20:28:18+02:00</time>
      </trkpt>
      <trkpt lat="49.15739" lon="-0.37969">
        <ele>7</ele>
        <time>2021-10-06T20:28:18+02:00</time>
      </trkpt>
      <trkpt lat="49.15712" lon="-0.37985">
        <ele>6</ele>
        <time>2021-10-06T20:28:18+02:00</time>
      </trkpt>
      <trkpt lat="49.1569" lon="-0.37999">
        <ele>6</ele>
        <time>2021-10-06T20:28:18+02:00</time>
      </trkpt>
      <trkpt lat="49.15668" lon="-0.38012">
        <ele>6</ele>
        <time>2021-10-06T20:28:18+02:00</time>
      </trkpt>
      <trkpt lat="49.15647" lon="-0.38025">
        <ele>6</ele>
        <time>2021-10-06T20:28:18+02:00</time>
      </trkpt>
      <trkpt lat="49.15618" lon="-0.38021">
        <ele>6</ele>
        <time>2021-10-06T20:28:18+02:00</time>
      </trkpt>
      <trkpt lat="49.1559" lon="-0.38015">
        <ele>6</ele>
        <time>2021-10-06T20:28:18+02:00</time>
      </trkpt>
      <trkpt lat="49.15568" lon="-0.38008">
        <ele>6</ele>
        <time>2021-10-06T20:28:18+02:00</time>
      </trkpt>
      <trkpt lat="49.15541" lon="-0.37998">
        <ele>6</ele>
        <time>2021-10-06T20:28:18+02:00</time>
      </trkpt>
      <trkpt lat="49.15514" lon="-0.37987">
        <ele>5</ele>
        <time>2021-10-06T20:28:18+02:00</time>
      </trkpt>
      <trkpt lat="49.15492" lon="-0.37995">
        <ele>5</ele>
        <time>2021-10-06T20:28:18+02:00</time>
      </trkpt>
      <trkpt lat="49.15478" lon="-0.38031">
        <ele>5</ele>
        <time>2021-10-06T20:28:18+02:00</time>
      </trkpt>
      <trkpt lat="49.15464" lon="-0.38068">
        <ele>5</ele>
        <time>2021-10-06T20:28:18+02:00</time>
      </trkpt>
      <trkpt lat="49.15453" lon="-0.38098">
        <ele>5</ele>
        <time>2021-10-06T20:28:18+02:00</time>
      </trkpt>
      <trkpt lat="49.1544" lon="-0.38126">
        <ele>6</ele>
        <time>2021-10-06T20:28:18+02:00</time>
      </trkpt>
      <trkpt lat="49.15423" lon="-0.38154">
        <ele>5</ele>
        <time>2021-10-06T20:28:18+02:00</time>
      </trkpt>
      <trkpt lat="49.15403" lon="-0.38171">
        <ele>6</ele>
        <time>2021-10-06T20:28:18+02:00</time>
      </trkpt>
      <trkpt lat="49.15377" lon="-0.38163">
        <ele>6</ele>
        <time>2021-10-06T20:28:18+02:00</time>
      </trkpt>
      <trkpt lat="49.15351" lon="-0.38176">
        <ele>7</ele>
        <time>2021-10-06T20:28:18+02:00</time>
      </trkpt>
      <trkpt lat="49.15328" lon="-0.38189">
        <ele>8</ele>
        <time>2021-10-06T20:28:18+02:00</time>
      </trkpt>
      <trkpt lat="49.15322" lon="-0.38231">
        <ele>8</ele>
        <time>2021-10-06T20:28:18+02:00</time>
      </trkpt>
      <trkpt lat="49.15299" lon="-0.38248">
        <ele>8</ele>
        <time>2021-10-06T20:28:18+02:00</time>
      </trkpt>
      <trkpt lat="49.15277" lon="-0.38262">
        <ele>9</ele>
        <time>2021-10-06T20:28:18+02:00</time>
      </trkpt>
      <trkpt lat="49.15251" lon="-0.38272">
        <ele>7</ele>
        <time>2021-10-06T20:28:18+02:00</time>
      </trkpt>
      <trkpt lat="49.15229" lon="-0.38285">
        <ele>5</ele>
        <time>2021-10-06T20:28:18+02:00</time>
      </trkpt>
      <trkpt lat="49.15206" lon="-0.38303">
        <ele>6</ele>
        <time>2021-10-06T20:28:18+02:00</time>
      </trkpt>
      <trkpt lat="49.15187" lon="-0.38325">
        <ele>9</ele>
        <time>2021-10-06T20:28:18+02:00</time>
      </trkpt>
      <trkpt lat="49.15163" lon="-0.38342">
        <ele>8</ele>
        <time>2021-10-06T20:28:18+02:00</time>
      </trkpt>
      <trkpt lat="49.15141" lon="-0.38355">
        <ele>8</ele>
        <time>2021-10-06T20:28:18+02:00</time>
      </trkpt>
      <trkpt lat="49.15114" lon="-0.3837">
        <ele>8</ele>
        <time>2021-10-06T20:28:18+02:00</time>
      </trkpt>
      <trkpt lat="49.15092" lon="-0.38383">
        <ele>8</ele>
        <time>2021-10-06T20:28:18+02:00</time>
      </trkpt>
      <trkpt lat="49.15067" lon="-0.38399">
        <ele>8</ele>
        <time>2021-10-06T20:28:18+02:00</time>
      </trkpt>
      <trkpt lat="49.15043" lon="-0.38419">
        <ele>7</ele>
        <time>2021-10-06T20:28:18+02:00</time>
      </trkpt>
      <trkpt lat="49.15022" lon="-0.38431">
        <ele>7</ele>
        <time>2021-10-06T20:28:18+02:00</time>
      </trkpt>
      <trkpt lat="49.15" lon="-0.38447">
        <ele>6</ele>
        <time>2021-10-06T20:28:18+02:00</time>
      </trkpt>
      <trkpt lat="49.14975" lon="-0.38463">
        <ele>6</ele>
        <time>2021-10-06T20:28:18+02:00</time>
      </trkpt>
      <trkpt lat="49.14949" lon="-0.3848">
        <ele>6</ele>
        <time>2021-10-06T20:28:18+02:00</time>
      </trkpt>
      <trkpt lat="49.14926" lon="-0.38493">
        <ele>6</ele>
        <time>2021-10-06T20:28:18+02:00</time>
      </trkpt>
      <trkpt lat="49.14902" lon="-0.38505">
        <ele>6</ele>
        <time>2021-10-06T20:28:18+02:00</time>
      </trkpt>
      <trkpt lat="49.14877" lon="-0.38523">
        <ele>6</ele>
        <time>2021-10-06T20:28:18+02:00</time>
      </trkpt>
      <trkpt lat="49.14856" lon="-0.38538">
        <ele>6</ele>
        <time>2021-10-06T20:28:18+02:00</time>
      </trkpt>
      <trkpt lat="49.14833" lon="-0.38554">
        <ele>6</ele>
        <time>2021-10-06T20:28:18+02:00</time>
      </trkpt>
      <trkpt lat="49.14811" lon="-0.38567">
        <ele>5</ele>
        <time>2021-10-06T20:28:18+02:00</time>
      </trkpt>
      <trkpt lat="49.14787" lon="-0.38584">
        <ele>6</ele>
        <time>2021-10-06T20:28:18+02:00</time>
      </trkpt>
      <trkpt lat="49.14766" lon="-0.38599">
        <ele>7</ele>
        <time>2021-10-06T20:28:18+02:00</time>
      </trkpt>
      <trkpt lat="49.14744" lon="-0.38613">
        <ele>6</ele>
        <time>2021-10-06T20:28:18+02:00</time>
      </trkpt>
      <trkpt lat="49.14722" lon="-0.38629">
        <ele>6</ele>
        <time>2021-10-06T20:28:18+02:00</time>
      </trkpt>
      <trkpt lat="49.14701" lon="-0.38644">
        <ele>6</ele>
        <time>2021-10-06T20:28:18+02:00</time>
      </trkpt>
      <trkpt lat="49.1468" lon="-0.3866">
        <ele>6</ele>
        <time>2021-10-06T20:28:18+02:00</time>
      </trkpt>
      <trkpt lat="49.14659" lon="-0.38676">
        <ele>7</ele>
        <time>2021-10-06T20:28:18+02:00</time>
      </trkpt>
      <trkpt lat="49.1464" lon="-0.38693">
        <ele>6</ele>
        <time>2021-10-06T20:28:18+02:00</time>
      </trkpt>
      <trkpt lat="49.14615" lon="-0.38712">
        <ele>6</ele>
        <time>2021-10-06T20:28:18+02:00</time>
      </trkpt>
      <trkpt lat="49.14595" lon="-0.38728">
        <ele>6</ele>
        <time>2021-10-06T20:28:18+02:00</time>
      </trkpt>
      <trkpt lat="49.14571" lon="-0.38746">
        <ele>6</ele>
        <time>2021-10-06T20:28:18+02:00</time>
      </trkpt>
      <trkpt lat="49.14548" lon="-0.38766">
        <ele>7</ele>
        <time>2021-10-06T20:28:18+02:00</time>
      </trkpt>
      <trkpt lat="49.14528" lon="-0.38784">
        <ele>7</ele>
        <time>2021-10-06T20:28:18+02:00</time>
      </trkpt>
      <trkpt lat="49.14504" lon="-0.38803">
        <ele>6</ele>
        <time>2021-10-06T20:28:18+02:00</time>
      </trkpt>
      <trkpt lat="49.14484" lon="-0.38821">
        <ele>6</ele>
        <time>2021-10-06T20:28:18+02:00</time>
      </trkpt>
      <trkpt lat="49.14466" lon="-0.3885">
        <ele>6</ele>
        <time>2021-10-06T20:28:18+02:00</time>
      </trkpt>
      <trkpt lat="49.14442" lon="-0.38859">
        <ele>5</ele>
        <time>2021-10-06T20:28:18+02:00</time>
      </trkpt>
      <trkpt lat="49.14423" lon="-0.38886">
        <ele>5</ele>
        <time>2021-10-06T20:28:18+02:00</time>
      </trkpt>
      <trkpt lat="49.14392" lon="-0.38902">
        <ele>6</ele>
        <time>2021-10-06T20:28:18+02:00</time>
      </trkpt>
      <trkpt lat="49.14366" lon="-0.3892">
        <ele>7</ele>
        <time>2021-10-06T20:28:18+02:00</time>
      </trkpt>
      <trkpt lat="49.14346" lon="-0.38938">
        <ele>7</ele>
        <time>2021-10-06T20:28:18+02:00</time>
      </trkpt>
      <trkpt lat="49.14322" lon="-0.38962">
        <ele>7</ele>
        <time>2021-10-06T20:28:18+02:00</time>
      </trkpt>
      <trkpt lat="49.143" lon="-0.38984">
        <ele>7</ele>
        <time>2021-10-06T20:28:18+02:00</time>
      </trkpt>
      <trkpt lat="49.1428" lon="-0.39005">
        <ele>7</ele>
        <time>2021-10-06T20:28:18+02:00</time>
      </trkpt>
      <trkpt lat="49.14261" lon="-0.39025">
        <ele>6</ele>
        <time>2021-10-06T20:28:18+02:00</time>
      </trkpt>
      <trkpt lat="49.1424" lon="-0.39047">
        <ele>7</ele>
        <time>2021-10-06T20:28:18+02:00</time>
      </trkpt>
      <trkpt lat="49.14219" lon="-0.39069">
        <ele>7</ele>
        <time>2021-10-06T20:28:18+02:00</time>
      </trkpt>
      <trkpt lat="49.14198" lon="-0.3909">
        <ele>6</ele>
        <time>2021-10-06T20:28:18+02:00</time>
      </trkpt>
      <trkpt lat="49.14176" lon="-0.39113">
        <ele>6</ele>
        <time>2021-10-06T20:28:18+02:00</time>
      </trkpt>
      <trkpt lat="49.14154" lon="-0.39137">
        <ele>7</ele>
        <time>2021-10-06T20:28:18+02:00</time>
      </trkpt>
      <trkpt lat="49.14134" lon="-0.39157">
        <ele>7</ele>
        <time>2021-10-06T20:28:18+02:00</time>
      </trkpt>
      <trkpt lat="49.14111" lon="-0.39179">
        <ele>7</ele>
        <time>2021-10-06T20:28:18+02:00</time>
      </trkpt>
      <trkpt lat="49.1409" lon="-0.392">
        <ele>6</ele>
        <time>2021-10-06T20:28:18+02:00</time>
      </trkpt>
      <trkpt lat="49.1407" lon="-0.3922">
        <ele>6</ele>
        <time>2021-10-06T20:28:18+02:00</time>
      </trkpt>
      <trkpt lat="49.14049" lon="-0.3924">
        <ele>7</ele>
        <time>2021-10-06T20:28:18+02:00</time>
      </trkpt>
      <trkpt lat="49.14027" lon="-0.39264">
        <ele>7</ele>
        <time>2021-10-06T20:28:18+02:00</time>
      </trkpt>
      <trkpt lat="49.14003" lon="-0.39289">
        <ele>7</ele>
        <time>2021-10-06T20:28:18+02:00</time>
      </trkpt>
      <trkpt lat="49.13981" lon="-0.39312">
        <ele>8</ele>
        <time>2021-10-06T20:28:18+02:00</time>
      </trkpt>
      <trkpt lat="49.13964" lon="-0.39338">
        <ele>8</ele>
        <time>2021-10-06T20:28:18+02:00</time>
      </trkpt>
      <trkpt lat="49.13939" lon="-0.39357">
        <ele>7</ele>
        <time>2021-10-06T20:28:18+02:00</time>
      </trkpt>
      <trkpt lat="49.13919" lon="-0.39378">
        <ele>8</ele>
        <time>2021-10-06T20:28:18+02:00</time>
      </trkpt>
      <trkpt lat="49.13897" lon="-0.394">
        <ele>8</ele>
        <time>2021-10-06T20:28:18+02:00</time>
      </trkpt>
      <trkpt lat="49.13872" lon="-0.39426">
        <ele>6</ele>
        <time>2021-10-06T20:28:18+02:00</time>
      </trkpt>
      <trkpt lat="49.13854" lon="-0.39447">
        <ele>4</ele>
        <time>2021-10-06T20:28:18+02:00</time>
      </trkpt>
      <trkpt lat="49.13835" lon="-0.39467">
        <ele>1</ele>
        <time>2021-10-06T20:28:18+02:00</time>
      </trkpt>
      <trkpt lat="49.13816" lon="-0.39493">
        <ele>2</ele>
        <time>2021-10-06T20:28:18+02:00</time>
      </trkpt>
      <trkpt lat="49.13791" lon="-0.39507">
        <ele>5</ele>
        <time>2021-10-06T20:28:18+02:00</time>
      </trkpt>
      <trkpt lat="49.13772" lon="-0.39526">
        <ele>8</ele>
        <time>2021-10-06T20:28:18+02:00</time>
      </trkpt>
      <trkpt lat="49.13753" lon="-0.39546">
        <ele>8</ele>
        <time>2021-10-06T20:28:18+02:00</time>
      </trkpt>
      <trkpt lat="49.13735" lon="-0.39566">
        <ele>8</ele>
        <time>2021-10-06T20:28:18+02:00</time>
      </trkpt>
      <trkpt lat="49.13714" lon="-0.3959">
        <ele>8</ele>
        <time>2021-10-06T20:28:18+02:00</time>
      </trkpt>
      <trkpt lat="49.13693" lon="-0.39615">
        <ele>8</ele>
        <time>2021-10-06T20:28:18+02:00</time>
      </trkpt>
      <trkpt lat="49.13674" lon="-0.39636">
        <ele>8</ele>
        <time>2021-10-06T20:28:18+02:00</time>
      </trkpt>
      <trkpt lat="49.13654" lon="-0.39655">
        <ele>8</ele>
        <time>2021-10-06T20:28:18+02:00</time>
      </trkpt>
      <trkpt lat="49.13632" lon="-0.39679">
        <ele>8</ele>
        <time>2021-10-06T20:28:18+02:00</time>
      </trkpt>
      <trkpt lat="49.13612" lon="-0.39701">
        <ele>8</ele>
        <time>2021-10-06T20:28:18+02:00</time>
      </trkpt>
      <trkpt lat="49.13591" lon="-0.3972">
        <ele>8</ele>
        <time>2021-10-06T20:28:18+02:00</time>
      </trkpt>
      <trkpt lat="49.1357" lon="-0.39741">
        <ele>9</ele>
        <time>2021-10-06T20:28:18+02:00</time>
      </trkpt>
      <trkpt lat="49.13548" lon="-0.39765">
        <ele>9</ele>
        <time>2021-10-06T20:28:18+02:00</time>
      </trkpt>
      <trkpt lat="49.13529" lon="-0.39787">
        <ele>9</ele>
        <time>2021-10-06T20:28:18+02:00</time>
      </trkpt>
      <trkpt lat="49.13508" lon="-0.39807">
        <ele>9</ele>
        <time>2021-10-06T20:28:18+02:00</time>
      </trkpt>
      <trkpt lat="49.13487" lon="-0.39827">
        <ele>10</ele>
        <time>2021-10-06T20:28:18+02:00</time>
      </trkpt>
      <trkpt lat="49.13468" lon="-0.39847">
        <ele>10</ele>
        <time>2021-10-06T20:28:18+02:00</time>
      </trkpt>
      <trkpt lat="49.1345" lon="-0.39869">
        <ele>10</ele>
        <time>2021-10-06T20:28:18+02:00</time>
      </trkpt>
      <trkpt lat="49.13429" lon="-0.39892">
        <ele>11</ele>
        <time>2021-10-06T20:28:18+02:00</time>
      </trkpt>
      <trkpt lat="49.13409" lon="-0.39912">
        <ele>12</ele>
        <time>2021-10-06T20:28:18+02:00</time>
      </trkpt>
      <trkpt lat="49.13388" lon="-0.39931">
        <ele>12</ele>
        <time>2021-10-06T20:28:18+02:00</time>
      </trkpt>
      <trkpt lat="49.13369" lon="-0.39955">
        <ele>12</ele>
        <time>2021-10-06T20:28:18+02:00</time>
      </trkpt>
      <trkpt lat="49.1335" lon="-0.39975">
        <ele>11</ele>
        <time>2021-10-06T20:28:18+02:00</time>
      </trkpt>
      <trkpt lat="49.13327" lon="-0.39997">
        <ele>11</ele>
        <time>2021-10-06T20:28:18+02:00</time>
      </trkpt>
      <trkpt lat="49.13306" lon="-0.40019">
        <ele>10</ele>
        <time>2021-10-06T20:28:18+02:00</time>
      </trkpt>
      <trkpt lat="49.13285" lon="-0.40043">
        <ele>11</ele>
        <time>2021-10-06T20:28:18+02:00</time>
      </trkpt>
      <trkpt lat="49.13263" lon="-0.40062">
        <ele>10</ele>
        <time>2021-10-06T20:28:18+02:00</time>
      </trkpt>
      <trkpt lat="49.13244" lon="-0.40083">
        <ele>10</ele>
        <time>2021-10-06T20:28:18+02:00</time>
      </trkpt>
      <trkpt lat="49.13223" lon="-0.40104">
        <ele>10</ele>
        <time>2021-10-06T20:28:18+02:00</time>
      </trkpt>
      <trkpt lat="49.13198" lon="-0.40125">
        <ele>9</ele>
        <time>2021-10-06T20:28:18+02:00</time>
      </trkpt>
      <trkpt lat="49.13176" lon="-0.40141">
        <ele>9</ele>
        <time>2021-10-06T20:28:18+02:00</time>
      </trkpt>
      <trkpt lat="49.13155" lon="-0.40155">
        <ele>9</ele>
        <time>2021-10-06T20:28:18+02:00</time>
      </trkpt>
      <trkpt lat="49.13134" lon="-0.40168">
        <ele>8</ele>
        <time>2021-10-06T20:28:18+02:00</time>
      </trkpt>
      <trkpt lat="49.13112" lon="-0.40182">
        <ele>9</ele>
        <time>2021-10-06T20:28:18+02:00</time>
      </trkpt>
      <trkpt lat="49.13085" lon="-0.40194">
        <ele>8</ele>
        <time>2021-10-06T20:28:18+02:00</time>
      </trkpt>
      <trkpt lat="49.13062" lon="-0.40204">
        <ele>8</ele>
        <time>2021-10-06T20:28:18+02:00</time>
      </trkpt>
      <trkpt lat="49.1304" lon="-0.40213">
        <ele>8</ele>
        <time>2021-10-06T20:28:18+02:00</time>
      </trkpt>
      <trkpt lat="49.13016" lon="-0.40222">
        <ele>8</ele>
        <time>2021-10-06T20:28:18+02:00</time>
      </trkpt>
      <trkpt lat="49.12992" lon="-0.40228">
        <ele>8</ele>
        <time>2021-10-06T20:28:18+02:00</time>
      </trkpt>
      <trkpt lat="49.12963" lon="-0.40235">
        <ele>8</ele>
        <time>2021-10-06T20:28:18+02:00</time>
      </trkpt>
      <trkpt lat="49.12935" lon="-0.4024">
        <ele>8</ele>
        <time>2021-10-06T20:28:18+02:00</time>
      </trkpt>
      <trkpt lat="49.12907" lon="-0.40245">
        <ele>8</ele>
        <time>2021-10-06T20:28:18+02:00</time>
      </trkpt>
      <trkpt lat="49.12883" lon="-0.40248">
        <ele>9</ele>
        <time>2021-10-06T20:28:18+02:00</time>
      </trkpt>
      <trkpt lat="49.12857" lon="-0.40248">
        <ele>9</ele>
        <time>2021-10-06T20:28:18+02:00</time>
      </trkpt>
      <trkpt lat="49.12833" lon="-0.40246">
        <ele>9</ele>
        <time>2021-10-06T20:28:18+02:00</time>
      </trkpt>
      <trkpt lat="49.12806" lon="-0.40242">
        <ele>9</ele>
        <time>2021-10-06T20:28:18+02:00</time>
      </trkpt>
      <trkpt lat="49.12779" lon="-0.40234">
        <ele>9</ele>
        <time>2021-10-06T20:28:18+02:00</time>
      </trkpt>
      <trkpt lat="49.12754" lon="-0.40231">
        <ele>9</ele>
        <time>2021-10-06T20:28:18+02:00</time>
      </trkpt>
      <trkpt lat="49.12728" lon="-0.40224">
        <ele>10</ele>
        <time>2021-10-06T20:28:18+02:00</time>
      </trkpt>
      <trkpt lat="49.12706" lon="-0.40216">
        <ele>9</ele>
        <time>2021-10-06T20:28:18+02:00</time>
      </trkpt>
      <trkpt lat="49.12679" lon="-0.40204">
        <ele>9</ele>
        <time>2021-10-06T20:28:18+02:00</time>
      </trkpt>
      <trkpt lat="49.12654" lon="-0.40193">
        <ele>9</ele>
        <time>2021-10-06T20:28:18+02:00</time>
      </trkpt>
      <trkpt lat="49.12631" lon="-0.40179">
        <ele>9</ele>
        <time>2021-10-06T20:28:18+02:00</time>
      </trkpt>
      <trkpt lat="49.1261" lon="-0.40166">
        <ele>9</ele>
        <time>2021-10-06T20:28:18+02:00</time>
      </trkpt>
      <trkpt lat="49.12585" lon="-0.4015">
        <ele>9</ele>
        <time>2021-10-06T20:28:18+02:00</time>
      </trkpt>
      <trkpt lat="49.12561" lon="-0.40136">
        <ele>9</ele>
        <time>2021-10-06T20:28:18+02:00</time>
      </trkpt>
      <trkpt lat="49.12539" lon="-0.40122">
        <ele>8</ele>
        <time>2021-10-06T20:28:18+02:00</time>
      </trkpt>
      <trkpt lat="49.12515" lon="-0.40108">
        <ele>7</ele>
        <time>2021-10-06T20:28:18+02:00</time>
      </trkpt>
      <trkpt lat="49.1249" lon="-0.4009">
        <ele>8</ele>
        <time>2021-10-06T20:28:18+02:00</time>
      </trkpt>
      <trkpt lat="49.12467" lon="-0.40074">
        <ele>10</ele>
        <time>2021-10-06T20:28:18+02:00</time>
      </trkpt>
      <trkpt lat="49.12445" lon="-0.40064">
        <ele>12</ele>
        <time>2021-10-06T20:28:18+02:00</time>
      </trkpt>
      <trkpt lat="49.12424" lon="-0.40043">
        <ele>13</ele>
        <time>2021-10-06T20:28:18+02:00</time>
      </trkpt>
      <trkpt lat="49.12402" lon="-0.40027">
        <ele>13</ele>
        <time>2021-10-06T20:28:18+02:00</time>
      </trkpt>
      <trkpt lat="49.12378" lon="-0.4001">
        <ele>14</ele>
        <time>2021-10-06T20:28:18+02:00</time>
      </trkpt>
      <trkpt lat="49.12357" lon="-0.39994">
        <ele>14</ele>
        <time>2021-10-06T20:28:18+02:00</time>
      </trkpt>
      <trkpt lat="49.12336" lon="-0.39975">
        <ele>15</ele>
        <time>2021-10-06T20:28:18+02:00</time>
      </trkpt>
      <trkpt lat="49.12316" lon="-0.39957">
        <ele>16</ele>
        <time>2021-10-06T20:28:18+02:00</time>
      </trkpt>
      <trkpt lat="49.1229" lon="-0.39952">
        <ele>17</ele>
        <time>2021-10-06T20:28:18+02:00</time>
      </trkpt>
      <trkpt lat="49.12268" lon="-0.39926">
        <ele>18</ele>
        <time>2021-10-06T20:28:18+02:00</time>
      </trkpt>
      <trkpt lat="49.12245" lon="-0.39904">
        <ele>19</ele>
        <time>2021-10-06T20:28:18+02:00</time>
      </trkpt>
      <trkpt lat="49.12231" lon="-0.39877">
        <ele>19</ele>
        <time>2021-10-06T20:28:18+02:00</time>
      </trkpt>
      <trkpt lat="49.12207" lon="-0.3985">
        <ele>20</ele>
        <time>2021-10-06T20:28:18+02:00</time>
      </trkpt>
      <trkpt lat="49.12187" lon="-0.39829">
        <ele>21</ele>
        <time>2021-10-06T20:28:18+02:00</time>
      </trkpt>
      <trkpt lat="49.12165" lon="-0.39803">
        <ele>21</ele>
        <time>2021-10-06T20:28:18+02:00</time>
      </trkpt>
      <trkpt lat="49.12143" lon="-0.39776">
        <ele>21</ele>
        <time>2021-10-06T20:28:18+02:00</time>
      </trkpt>
      <trkpt lat="49.12125" lon="-0.39753">
        <ele>21</ele>
        <time>2021-10-06T20:28:18+02:00</time>
      </trkpt>
      <trkpt lat="49.121" lon="-0.39736">
        <ele>22</ele>
        <time>2021-10-06T20:28:18+02:00</time>
      </trkpt>
      <trkpt lat="49.1208" lon="-0.39708">
        <ele>21</ele>
        <time>2021-10-06T20:28:18+02:00</time>
      </trkpt>
      <trkpt lat="49.12057" lon="-0.39683">
        <ele>21</ele>
        <time>2021-10-06T20:28:18+02:00</time>
      </trkpt>
      <trkpt lat="49.12037" lon="-0.39654">
        <ele>20</ele>
        <time>2021-10-06T20:28:18+02:00</time>
      </trkpt>
      <trkpt lat="49.12017" lon="-0.39624">
        <ele>20</ele>
        <time>2021-10-06T20:28:18+02:00</time>
      </trkpt>
      <trkpt lat="49.12002" lon="-0.39594">
        <ele>19</ele>
        <time>2021-10-06T20:28:18+02:00</time>
      </trkpt>
      <trkpt lat="49.11986" lon="-0.39569">
        <ele>18</ele>
        <time>2021-10-06T20:28:18+02:00</time>
      </trkpt>
      <trkpt lat="49.11965" lon="-0.39538">
        <ele>19</ele>
        <time>2021-10-06T20:28:18+02:00</time>
      </trkpt>
      <trkpt lat="49.11953" lon="-0.39504">
        <ele>20</ele>
        <time>2021-10-06T20:28:18+02:00</time>
      </trkpt>
      <trkpt lat="49.11937" lon="-0.3948">
        <ele>20</ele>
        <time>2021-10-06T20:28:18+02:00</time>
      </trkpt>
      <trkpt lat="49.11919" lon="-0.39453">
        <ele>20</ele>
        <time>2021-10-06T20:28:18+02:00</time>
      </trkpt>
      <trkpt lat="49.119" lon="-0.39431">
        <ele>20</ele>
        <time>2021-10-06T20:28:18+02:00</time>
      </trkpt>
      <trkpt lat="49.11885" lon="-0.39403">
        <ele>20</ele>
        <time>2021-10-06T20:28:18+02:00</time>
      </trkpt>
      <trkpt lat="49.11866" lon="-0.39374">
        <ele>19</ele>
        <time>2021-10-06T20:28:18+02:00</time>
      </trkpt>
      <trkpt lat="49.11845" lon="-0.39343">
        <ele>19</ele>
        <time>2021-10-06T20:28:18+02:00</time>
      </trkpt>
      <trkpt lat="49.11829" lon="-0.39319">
        <ele>19</ele>
        <time>2021-10-06T20:28:18+02:00</time>
      </trkpt>
      <trkpt lat="49.11813" lon="-0.39295">
        <ele>18</ele>
        <time>2021-10-06T20:28:18+02:00</time>
      </trkpt>
      <trkpt lat="49.11796" lon="-0.3927">
        <ele>17</ele>
        <time>2021-10-06T20:28:18+02:00</time>
      </trkpt>
      <trkpt lat="49.11778" lon="-0.39247">
        <ele>16</ele>
        <time>2021-10-06T20:28:18+02:00</time>
      </trkpt>
      <trkpt lat="49.11757" lon="-0.39222">
        <ele>15</ele>
        <time>2021-10-06T20:28:18+02:00</time>
      </trkpt>
      <trkpt lat="49.11738" lon="-0.39199">
        <ele>13</ele>
        <time>2021-10-06T20:28:18+02:00</time>
      </trkpt>
      <trkpt lat="49.11716" lon="-0.39173">
        <ele>10</ele>
        <time>2021-10-06T20:28:18+02:00</time>
      </trkpt>
      <trkpt lat="49.11694" lon="-0.39146">
        <ele>8</ele>
        <time>2021-10-06T20:28:18+02:00</time>
      </trkpt>
      <trkpt lat="49.11674" lon="-0.39123">
        <ele>8</ele>
        <time>2021-10-06T20:28:18+02:00</time>
      </trkpt>
      <trkpt lat="49.11654" lon="-0.39099">
        <ele>8</ele>
        <time>2021-10-06T20:28:18+02:00</time>
      </trkpt>
      <trkpt lat="49.11632" lon="-0.39076">
        <ele>7</ele>
        <time>2021-10-06T20:28:18+02:00</time>
      </trkpt>
      <trkpt lat="49.11609" lon="-0.39052">
        <ele>7</ele>
        <time>2021-10-06T20:28:18+02:00</time>
      </trkpt>
      <trkpt lat="49.11585" lon="-0.3903">
        <ele>6</ele>
        <time>2021-10-06T20:28:18+02:00</time>
      </trkpt>
      <trkpt lat="49.11564" lon="-0.3901">
        <ele>6</ele>
        <time>2021-10-06T20:28:18+02:00</time>
      </trkpt>
      <trkpt lat="49.11542" lon="-0.3899">
        <ele>7</ele>
        <time>2021-10-06T20:28:18+02:00</time>
      </trkpt>
      <trkpt lat="49.11522" lon="-0.38975">
        <ele>8</ele>
        <time>2021-10-06T20:28:18+02:00</time>
      </trkpt>
      <trkpt lat="49.11501" lon="-0.38958">
        <ele>9</ele>
        <time>2021-10-06T20:28:18+02:00</time>
      </trkpt>
      <trkpt lat="49.1148" lon="-0.38942">
        <ele>8</ele>
        <time>2021-10-06T20:28:18+02:00</time>
      </trkpt>
      <trkpt lat="49.11457" lon="-0.38925">
        <ele>8</ele>
        <time>2021-10-06T20:28:18+02:00</time>
      </trkpt>
      <trkpt lat="49.11436" lon="-0.38909">
        <ele>7</ele>
        <time>2021-10-06T20:28:18+02:00</time>
      </trkpt>
      <trkpt lat="49.11415" lon="-0.38893">
        <ele>7</ele>
        <time>2021-10-06T20:28:18+02:00</time>
      </trkpt>
      <trkpt lat="49.11394" lon="-0.38877">
        <ele>7</ele>
        <time>2021-10-06T20:28:18+02:00</time>
      </trkpt>
      <trkpt lat="49.11371" lon="-0.3886">
        <ele>7</ele>
        <time>2021-10-06T20:28:18+02:00</time>
      </trkpt>
      <trkpt lat="49.11347" lon="-0.38841">
        <ele>7</ele>
        <time>2021-10-06T20:28:18+02:00</time>
      </trkpt>
      <trkpt lat="49.11325" lon="-0.38824">
        <ele>7</ele>
        <time>2021-10-06T20:28:18+02:00</time>
      </trkpt>
      <trkpt lat="49.11303" lon="-0.38808">
        <ele>7</ele>
        <time>2021-10-06T20:28:18+02:00</time>
      </trkpt>
      <trkpt lat="49.11278" lon="-0.3879">
        <ele>7</ele>
        <time>2021-10-06T20:28:18+02:00</time>
      </trkpt>
      <trkpt lat="49.11256" lon="-0.38774">
        <ele>7</ele>
        <time>2021-10-06T20:28:18+02:00</time>
      </trkpt>
      <trkpt lat="49.1123" lon="-0.38754">
        <ele>7</ele>
        <time>2021-10-06T20:28:18+02:00</time>
      </trkpt>
      <trkpt lat="49.11207" lon="-0.38738">
        <ele>7</ele>
        <time>2021-10-06T20:28:18+02:00</time>
      </trkpt>
      <trkpt lat="49.11183" lon="-0.38723">
        <ele>7</ele>
        <time>2021-10-06T20:28:18+02:00</time>
      </trkpt>
      <trkpt lat="49.1116" lon="-0.3871">
        <ele>7</ele>
        <time>2021-10-06T20:28:18+02:00</time>
      </trkpt>
      <trkpt lat="49.11134" lon="-0.38697">
        <ele>7</ele>
        <time>2021-10-06T20:28:18+02:00</time>
      </trkpt>
      <trkpt lat="49.11112" lon="-0.38685">
        <ele>8</ele>
        <time>2021-10-06T20:28:18+02:00</time>
      </trkpt>
      <trkpt lat="49.11086" lon="-0.38674">
        <ele>8</ele>
        <time>2021-10-06T20:28:18+02:00</time>
      </trkpt>
      <trkpt lat="49.11032" lon="-0.38644">
        <ele>8</ele>
        <time>2021-10-06T20:28:18+02:00</time>
      </trkpt>
      <trkpt lat="49.11008" lon="-0.38622">
        <ele>8</ele>
        <time>2021-10-06T20:28:18+02:00</time>
      </trkpt>
      <trkpt lat="49.10984" lon="-0.38614">
        <ele>8</ele>
        <time>2021-10-06T20:28:18+02:00</time>
      </trkpt>
      <trkpt lat="49.1096" lon="-0.38607">
        <ele>8</ele>
        <time>2021-10-06T20:28:18+02:00</time>
      </trkpt>
      <trkpt lat="49.10935" lon="-0.38596">
        <ele>8</ele>
        <time>2021-10-06T20:28:18+02:00</time>
      </trkpt>
      <trkpt lat="49.10913" lon="-0.38585">
        <ele>8</ele>
        <time>2021-10-06T20:28:18+02:00</time>
      </trkpt>
      <trkpt lat="49.10885" lon="-0.38575">
        <ele>9</ele>
        <time>2021-10-06T20:28:18+02:00</time>
      </trkpt>
      <trkpt lat="49.10857" lon="-0.3857">
        <ele>9</ele>
        <time>2021-10-06T20:28:18+02:00</time>
      </trkpt>
      <trkpt lat="49.10834" lon="-0.38566">
        <ele>10</ele>
        <time>2021-10-06T20:28:18+02:00</time>
      </trkpt>
      <trkpt lat="49.1081" lon="-0.3856">
        <ele>10</ele>
        <time>2021-10-06T20:28:18+02:00</time>
      </trkpt>
      <trkpt lat="49.10788" lon="-0.38553">
        <ele>10</ele>
        <time>2021-10-06T20:28:18+02:00</time>
      </trkpt>
      <trkpt lat="49.10764" lon="-0.38552">
        <ele>9</ele>
        <time>2021-10-06T20:28:18+02:00</time>
      </trkpt>
      <trkpt lat="49.10736" lon="-0.38547">
        <ele>9</ele>
        <time>2021-10-06T20:28:18+02:00</time>
      </trkpt>
      <trkpt lat="49.10711" lon="-0.38536">
        <ele>8</ele>
        <time>2021-10-06T20:28:18+02:00</time>
      </trkpt>
      <trkpt lat="49.10685" lon="-0.38517">
        <ele>8</ele>
        <time>2021-10-06T20:28:18+02:00</time>
      </trkpt>
      <trkpt lat="49.10666" lon="-0.38498">
        <ele>8</ele>
        <time>2021-10-06T20:28:18+02:00</time>
      </trkpt>
      <trkpt lat="49.10639" lon="-0.38518">
        <ele>9</ele>
        <time>2021-10-06T20:28:18+02:00</time>
      </trkpt>
      <trkpt lat="49.10615" lon="-0.38519">
        <ele>9</ele>
        <time>2021-10-06T20:28:18+02:00</time>
      </trkpt>
      <trkpt lat="49.1059" lon="-0.38513">
        <ele>8</ele>
        <time>2021-10-06T20:28:18+02:00</time>
      </trkpt>
      <trkpt lat="49.10566" lon="-0.3851">
        <ele>8</ele>
        <time>2021-10-06T20:28:18+02:00</time>
      </trkpt>
      <trkpt lat="49.10543" lon="-0.38509">
        <ele>8</ele>
        <time>2021-10-06T20:28:18+02:00</time>
      </trkpt>
      <trkpt lat="49.10515" lon="-0.3851">
        <ele>8</ele>
        <time>2021-10-06T20:28:18+02:00</time>
      </trkpt>
      <trkpt lat="49.1049" lon="-0.38512">
        <ele>8</ele>
        <time>2021-10-06T20:28:18+02:00</time>
      </trkpt>
      <trkpt lat="49.10467" lon="-0.38515">
        <ele>8</ele>
        <time>2021-10-06T20:28:18+02:00</time>
      </trkpt>
      <trkpt lat="49.10442" lon="-0.38519">
        <ele>8</ele>
        <time>2021-10-06T20:28:18+02:00</time>
      </trkpt>
      <trkpt lat="49.10414" lon="-0.38525">
        <ele>8</ele>
        <time>2021-10-06T20:28:18+02:00</time>
      </trkpt>
      <trkpt lat="49.10386" lon="-0.38534">
        <ele>10</ele>
        <time>2021-10-06T20:28:18+02:00</time>
      </trkpt>
      <trkpt lat="49.10363" lon="-0.38543">
        <ele>10</ele>
        <time>2021-10-06T20:28:18+02:00</time>
      </trkpt>
      <trkpt lat="49.1034" lon="-0.38553">
        <ele>11</ele>
        <time>2021-10-06T20:28:18+02:00</time>
      </trkpt>
      <trkpt lat="49.10318" lon="-0.38565">
        <ele>11</ele>
        <time>2021-10-06T20:28:18+02:00</time>
      </trkpt>
      <trkpt lat="49.10296" lon="-0.38577">
        <ele>10</ele>
        <time>2021-10-06T20:28:18+02:00</time>
      </trkpt>
      <trkpt lat="49.10275" lon="-0.38592">
        <ele>10</ele>
        <time>2021-10-06T20:28:18+02:00</time>
      </trkpt>
      <trkpt lat="49.1025" lon="-0.38609">
        <ele>9</ele>
        <time>2021-10-06T20:28:18+02:00</time>
      </trkpt>
      <trkpt lat="49.10227" lon="-0.38627">
        <ele>9</ele>
        <time>2021-10-06T20:28:18+02:00</time>
      </trkpt>
      <trkpt lat="49.10206" lon="-0.38646">
        <ele>9</ele>
        <time>2021-10-06T20:28:18+02:00</time>
      </trkpt>
      <trkpt lat="49.10187" lon="-0.38664">
        <ele>9</ele>
        <time>2021-10-06T20:28:18+02:00</time>
      </trkpt>
      <trkpt lat="49.10166" lon="-0.38687">
        <ele>9</ele>
        <time>2021-10-06T20:28:18+02:00</time>
      </trkpt>
      <trkpt lat="49.10156" lon="-0.38734">
        <ele>10</ele>
        <time>2021-10-06T20:28:18+02:00</time>
      </trkpt>
      <trkpt lat="49.10135" lon="-0.38756">
        <ele>11</ele>
        <time>2021-10-06T20:28:18+02:00</time>
      </trkpt>
      <trkpt lat="49.10114" lon="-0.38779">
        <ele>10</ele>
        <time>2021-10-06T20:28:18+02:00</time>
      </trkpt>
      <trkpt lat="49.10095" lon="-0.38805">
        <ele>10</ele>
        <time>2021-10-06T20:28:18+02:00</time>
      </trkpt>
      <trkpt lat="49.10075" lon="-0.38833">
        <ele>11</ele>
        <time>2021-10-06T20:28:18+02:00</time>
      </trkpt>
      <trkpt lat="49.10056" lon="-0.38858">
        <ele>11</ele>
        <time>2021-10-06T20:28:18+02:00</time>
      </trkpt>
      <trkpt lat="49.1005" lon="-0.38906">
        <ele>11</ele>
        <time>2021-10-06T20:28:18+02:00</time>
      </trkpt>
      <trkpt lat="49.10032" lon="-0.38935">
        <ele>11</ele>
        <time>2021-10-06T20:28:18+02:00</time>
      </trkpt>
      <trkpt lat="49.10017" lon="-0.38962">
        <ele>11</ele>
        <time>2021-10-06T20:28:18+02:00</time>
      </trkpt>
      <trkpt lat="49.1" lon="-0.38995">
        <ele>12</ele>
        <time>2021-10-06T20:28:18+02:00</time>
      </trkpt>
      <trkpt lat="49.09987" lon="-0.39025">
        <ele>12</ele>
        <time>2021-10-06T20:28:18+02:00</time>
      </trkpt>
      <trkpt lat="49.09975" lon="-0.39058">
        <ele>13</ele>
        <time>2021-10-06T20:28:18+02:00</time>
      </trkpt>
      <trkpt lat="49.09963" lon="-0.39089">
        <ele>14</ele>
        <time>2021-10-06T20:28:18+02:00</time>
      </trkpt>
      <trkpt lat="49.09952" lon="-0.3912">
        <ele>15</ele>
        <time>2021-10-06T20:28:18+02:00</time>
      </trkpt>
      <trkpt lat="49.0994" lon="-0.39154">
        <ele>15</ele>
        <time>2021-10-06T20:28:18+02:00</time>
      </trkpt>
      <trkpt lat="49.09929" lon="-0.39186">
        <ele>15</ele>
        <time>2021-10-06T20:28:18+02:00</time>
      </trkpt>
      <trkpt lat="49.09919" lon="-0.39219">
        <ele>16</ele>
        <time>2021-10-06T20:28:18+02:00</time>
      </trkpt>
      <trkpt lat="49.09907" lon="-0.39256">
        <ele>16</ele>
        <time>2021-10-06T20:28:18+02:00</time>
      </trkpt>
      <trkpt lat="49.09896" lon="-0.3929">
        <ele>16</ele>
        <time>2021-10-06T20:28:18+02:00</time>
      </trkpt>
      <trkpt lat="49.09886" lon="-0.39324">
        <ele>17</ele>
        <time>2021-10-06T20:28:18+02:00</time>
      </trkpt>
      <trkpt lat="49.09867" lon="-0.39346">
        <ele>17</ele>
        <time>2021-10-06T20:28:18+02:00</time>
      </trkpt>
      <trkpt lat="49.0987" lon="-0.39384">
        <ele>17</ele>
        <time>2021-10-06T20:28:18+02:00</time>
      </trkpt>
      <trkpt lat="49.09861" lon="-0.39421">
        <ele>18</ele>
        <time>2021-10-06T20:28:18+02:00</time>
      </trkpt>
      <trkpt lat="49.09853" lon="-0.39455">
        <ele>17</ele>
        <time>2021-10-06T20:28:18+02:00</time>
      </trkpt>
      <trkpt lat="49.09846" lon="-0.39494">
        <ele>17</ele>
        <time>2021-10-06T20:28:18+02:00</time>
      </trkpt>
      <trkpt lat="49.09841" lon="-0.39531">
        <ele>17</ele>
        <time>2021-10-06T20:28:18+02:00</time>
      </trkpt>
      <trkpt lat="49.09837" lon="-0.39565">
        <ele>14</ele>
        <time>2021-10-06T20:28:18+02:00</time>
      </trkpt>
      <trkpt lat="49.09801" lon="-0.39601">
        <ele>12</ele>
        <time>2021-10-06T20:28:18+02:00</time>
      </trkpt>
      <trkpt lat="49.09791" lon="-0.39634">
        <ele>10</ele>
        <time>2021-10-06T20:28:18+02:00</time>
      </trkpt>
      <trkpt lat="49.09779" lon="-0.39664">
        <ele>8</ele>
        <time>2021-10-06T20:28:18+02:00</time>
      </trkpt>
      <trkpt lat="49.0977" lon="-0.39697">
        <ele>8</ele>
        <time>2021-10-06T20:28:18+02:00</time>
      </trkpt>
      <trkpt lat="49.09756" lon="-0.39734">
        <ele>9</ele>
        <time>2021-10-06T20:28:18+02:00</time>
      </trkpt>
      <trkpt lat="49.09746" lon="-0.39778">
        <ele>13</ele>
        <time>2021-10-06T20:28:18+02:00</time>
      </trkpt>
      <trkpt lat="49.09738" lon="-0.39817">
        <ele>12</ele>
        <time>2021-10-06T20:28:18+02:00</time>
      </trkpt>
      <trkpt lat="49.09735" lon="-0.39853">
        <ele>12</ele>
        <time>2021-10-06T20:28:18+02:00</time>
      </trkpt>
      <trkpt lat="49.09731" lon="-0.39892">
        <ele>13</ele>
        <time>2021-10-06T20:28:18+02:00</time>
      </trkpt>
      <trkpt lat="49.09729" lon="-0.3993">
        <ele>14</ele>
        <time>2021-10-06T20:28:18+02:00</time>
      </trkpt>
      <trkpt lat="49.09727" lon="-0.39965">
        <ele>14</ele>
        <time>2021-10-06T20:28:18+02:00</time>
      </trkpt>
      <trkpt lat="49.09726" lon="-0.4">
        <ele>14</ele>
        <time>2021-10-06T20:28:18+02:00</time>
      </trkpt>
      <trkpt lat="49.09725" lon="-0.40035">
        <ele>14</ele>
        <time>2021-10-06T20:28:18+02:00</time>
      </trkpt>
      <trkpt lat="49.09725" lon="-0.4007">
        <ele>15</ele>
        <time>2021-10-06T20:28:18+02:00</time>
      </trkpt>
      <trkpt lat="49.09725" lon="-0.40106">
        <ele>15</ele>
        <time>2021-10-06T20:28:18+02:00</time>
      </trkpt>
      <trkpt lat="49.09726" lon="-0.40147">
        <ele>16</ele>
        <time>2021-10-06T20:28:18+02:00</time>
      </trkpt>
      <trkpt lat="49.09726" lon="-0.40188">
        <ele>16</ele>
        <time>2021-10-06T20:28:18+02:00</time>
      </trkpt>
      <trkpt lat="49.09726" lon="-0.4023">
        <ele>16</ele>
        <time>2021-10-06T20:28:18+02:00</time>
      </trkpt>
      <trkpt lat="49.09726" lon="-0.40271">
        <ele>15</ele>
        <time>2021-10-06T20:28:18+02:00</time>
      </trkpt>
      <trkpt lat="49.09726" lon="-0.40307">
        <ele>14</ele>
        <time>2021-10-06T20:28:18+02:00</time>
      </trkpt>
      <trkpt lat="49.09726" lon="-0.4035">
        <ele>13</ele>
        <time>2021-10-06T20:28:18+02:00</time>
      </trkpt>
      <trkpt lat="49.09726" lon="-0.40387">
        <ele>13</ele>
        <time>2021-10-06T20:28:18+02:00</time>
      </trkpt>
      <trkpt lat="49.09726" lon="-0.40423">
        <ele>13</ele>
        <time>2021-10-06T20:28:18+02:00</time>
      </trkpt>
      <trkpt lat="49.09724" lon="-0.40465">
        <ele>12</ele>
        <time>2021-10-06T20:28:18+02:00</time>
      </trkpt>
      <trkpt lat="49.09723" lon="-0.405">
        <ele>12</ele>
        <time>2021-10-06T20:28:18+02:00</time>
      </trkpt>
      <trkpt lat="49.09721" lon="-0.40534">
        <ele>12</ele>
        <time>2021-10-06T20:28:18+02:00</time>
      </trkpt>
      <trkpt lat="49.09719" lon="-0.40569">
        <ele>12</ele>
        <time>2021-10-06T20:28:18+02:00</time>
      </trkpt>
      <trkpt lat="49.09716" lon="-0.40609">
        <ele>12</ele>
        <time>2021-10-06T20:28:18+02:00</time>
      </trkpt>
      <trkpt lat="49.09712" lon="-0.40646">
        <ele>13</ele>
        <time>2021-10-06T20:28:18+02:00</time>
      </trkpt>
      <trkpt lat="49.09707" lon="-0.40687">
        <ele>13</ele>
        <time>2021-10-06T20:28:18+02:00</time>
      </trkpt>
      <trkpt lat="49.09703" lon="-0.40721">
        <ele>13</ele>
        <time>2021-10-06T20:28:18+02:00</time>
      </trkpt>
      <trkpt lat="49.09698" lon="-0.40757">
        <ele>14</ele>
        <time>2021-10-06T20:28:18+02:00</time>
      </trkpt>
      <trkpt lat="49.0969" lon="-0.40796">
        <ele>14</ele>
        <time>2021-10-06T20:28:18+02:00</time>
      </trkpt>
      <trkpt lat="49.09682" lon="-0.40836">
        <ele>14</ele>
        <time>2021-10-06T20:28:18+02:00</time>
      </trkpt>
      <trkpt lat="49.09673" lon="-0.40871">
        <ele>15</ele>
        <time>2021-10-06T20:28:18+02:00</time>
      </trkpt>
      <trkpt lat="49.09664" lon="-0.40906">
        <ele>15</ele>
        <time>2021-10-06T20:28:18+02:00</time>
      </trkpt>
      <trkpt lat="49.09677" lon="-0.40938">
        <ele>15</ele>
        <time>2021-10-06T20:28:18+02:00</time>
      </trkpt>
      <trkpt lat="49.09667" lon="-0.4097">
        <ele>15</ele>
        <time>2021-10-06T20:28:18+02:00</time>
      </trkpt>
      <trkpt lat="49.09638" lon="-0.40984">
        <ele>15</ele>
        <time>2021-10-06T20:28:18+02:00</time>
      </trkpt>
      <trkpt lat="49.09625" lon="-0.41019">
        <ele>15</ele>
        <time>2021-10-06T20:28:18+02:00</time>
      </trkpt>
      <trkpt lat="49.09612" lon="-0.41051">
        <ele>15</ele>
        <time>2021-10-06T20:28:18+02:00</time>
      </trkpt>
      <trkpt lat="49.096" lon="-0.41083">
        <ele>14</ele>
        <time>2021-10-06T20:28:18+02:00</time>
      </trkpt>
      <trkpt lat="49.09586" lon="-0.41118">
        <ele>14</ele>
        <time>2021-10-06T20:28:18+02:00</time>
      </trkpt>
      <trkpt lat="49.09572" lon="-0.41149">
        <ele>14</ele>
        <time>2021-10-06T20:28:18+02:00</time>
      </trkpt>
      <trkpt lat="49.09577" lon="-0.41184">
        <ele>14</ele>
        <time>2021-10-06T20:28:18+02:00</time>
      </trkpt>
      <trkpt lat="49.0956" lon="-0.41215">
        <ele>14</ele>
        <time>2021-10-06T20:28:18+02:00</time>
      </trkpt>
      <trkpt lat="49.09537" lon="-0.41219">
        <ele>14</ele>
        <time>2021-10-06T20:28:18+02:00</time>
      </trkpt>
      <trkpt lat="49.09521" lon="-0.41248">
        <ele>15</ele>
        <time>2021-10-06T20:28:18+02:00</time>
      </trkpt>
      <trkpt lat="49.09504" lon="-0.41281">
        <ele>15</ele>
        <time>2021-10-06T20:28:18+02:00</time>
      </trkpt>
      <trkpt lat="49.09486" lon="-0.41314">
        <ele>16</ele>
        <time>2021-10-06T20:28:18+02:00</time>
      </trkpt>
      <trkpt lat="49.09472" lon="-0.41342">
        <ele>16</ele>
        <time>2021-10-06T20:28:18+02:00</time>
      </trkpt>
      <trkpt lat="49.09457" lon="-0.41371">
        <ele>16</ele>
        <time>2021-10-06T20:28:18+02:00</time>
      </trkpt>
      <trkpt lat="49.09441" lon="-0.41401">
        <ele>17</ele>
        <time>2021-10-06T20:28:18+02:00</time>
      </trkpt>
      <trkpt lat="49.09424" lon="-0.41433">
        <ele>16</ele>
        <time>2021-10-06T20:28:18+02:00</time>
      </trkpt>
      <trkpt lat="49.09407" lon="-0.41465">
        <ele>15</ele>
        <time>2021-10-06T20:28:18+02:00</time>
      </trkpt>
      <trkpt lat="49.09389" lon="-0.41496">
        <ele>13</ele>
        <time>2021-10-06T20:28:18+02:00</time>
      </trkpt>
      <trkpt lat="49.09372" lon="-0.41528">
        <ele>14</ele>
        <time>2021-10-06T20:28:18+02:00</time>
      </trkpt>
      <trkpt lat="49.09357" lon="-0.41555">
        <ele>14</ele>
        <time>2021-10-06T20:28:18+02:00</time>
      </trkpt>
      <trkpt lat="49.09339" lon="-0.41586">
        <ele>14</ele>
        <time>2021-10-06T20:28:18+02:00</time>
      </trkpt>
      <trkpt lat="49.09324" lon="-0.41614">
        <ele>14</ele>
        <time>2021-10-06T20:28:18+02:00</time>
      </trkpt>
      <trkpt lat="49.09309" lon="-0.41641">
        <ele>15</ele>
        <time>2021-10-06T20:28:18+02:00</time>
      </trkpt>
      <trkpt lat="49.09294" lon="-0.41666">
        <ele>15</ele>
        <time>2021-10-06T20:28:18+02:00</time>
      </trkpt>
      <trkpt lat="49.09278" lon="-0.41692">
        <ele>15</ele>
        <time>2021-10-06T20:28:18+02:00</time>
      </trkpt>
      <trkpt lat="49.09261" lon="-0.41718">
        <ele>15</ele>
        <time>2021-10-06T20:28:18+02:00</time>
      </trkpt>
      <trkpt lat="49.09244" lon="-0.41744">
        <ele>14</ele>
        <time>2021-10-06T20:28:18+02:00</time>
      </trkpt>
      <trkpt lat="49.09229" lon="-0.41769">
        <ele>13</ele>
        <time>2021-10-06T20:28:18+02:00</time>
      </trkpt>
      <trkpt lat="49.09209" lon="-0.41799">
        <ele>12</ele>
        <time>2021-10-06T20:28:18+02:00</time>
      </trkpt>
      <trkpt lat="49.09193" lon="-0.41824">
        <ele>13</ele>
        <time>2021-10-06T20:28:18+02:00</time>
      </trkpt>
      <trkpt lat="49.09177" lon="-0.4185">
        <ele>13</ele>
        <time>2021-10-06T20:28:18+02:00</time>
      </trkpt>
      <trkpt lat="49.09161" lon="-0.41875">
        <ele>13</ele>
        <time>2021-10-06T20:28:18+02:00</time>
      </trkpt>
      <trkpt lat="49.09145" lon="-0.419">
        <ele>13</ele>
        <time>2021-10-06T20:28:18+02:00</time>
      </trkpt>
      <trkpt lat="49.09127" lon="-0.41929">
        <ele>13</ele>
        <time>2021-10-06T20:28:18+02:00</time>
      </trkpt>
      <trkpt lat="49.0911" lon="-0.41953">
        <ele>13</ele>
        <time>2021-10-06T20:28:18+02:00</time>
      </trkpt>
      <trkpt lat="49.09093" lon="-0.41978">
        <ele>13</ele>
        <time>2021-10-06T20:28:18+02:00</time>
      </trkpt>
      <trkpt lat="49.09076" lon="-0.42004">
        <ele>13</ele>
        <time>2021-10-06T20:28:18+02:00</time>
      </trkpt>
      <trkpt lat="49.09058" lon="-0.42032">
        <ele>13</ele>
        <time>2021-10-06T20:28:18+02:00</time>
      </trkpt>
      <trkpt lat="49.0904" lon="-0.42057">
        <ele>14</ele>
        <time>2021-10-06T20:28:18+02:00</time>
      </trkpt>
      <trkpt lat="49.09019" lon="-0.42087">
        <ele>14</ele>
        <time>2021-10-06T20:28:18+02:00</time>
      </trkpt>
      <trkpt lat="49.08999" lon="-0.42116">
        <ele>15</ele>
        <time>2021-10-06T20:28:18+02:00</time>
      </trkpt>
      <trkpt lat="49.0898" lon="-0.42137">
        <ele>16</ele>
        <time>2021-10-06T20:28:18+02:00</time>
      </trkpt>
      <trkpt lat="49.0896" lon="-0.42156">
        <ele>16</ele>
        <time>2021-10-06T20:28:18+02:00</time>
      </trkpt>
      <trkpt lat="49.08937" lon="-0.42179">
        <ele>16</ele>
        <time>2021-10-06T20:28:18+02:00</time>
      </trkpt>
      <trkpt lat="49.08916" lon="-0.42197">
        <ele>16</ele>
        <time>2021-10-06T20:28:18+02:00</time>
      </trkpt>
      <trkpt lat="49.08894" lon="-0.42215">
        <ele>16</ele>
        <time>2021-10-06T20:28:18+02:00</time>
      </trkpt>
      <trkpt lat="49.08872" lon="-0.42226">
        <ele>16</ele>
        <time>2021-10-06T20:28:18+02:00</time>
      </trkpt>
      <trkpt lat="49.0885" lon="-0.42239">
        <ele>15</ele>
        <time>2021-10-06T20:28:18+02:00</time>
      </trkpt>
      <trkpt lat="49.08826" lon="-0.42253">
        <ele>15</ele>
        <time>2021-10-06T20:28:18+02:00</time>
      </trkpt>
      <trkpt lat="49.08802" lon="-0.42267">
        <ele>14</ele>
        <time>2021-10-06T20:28:18+02:00</time>
      </trkpt>
      <trkpt lat="49.08779" lon="-0.4228">
        <ele>14</ele>
        <time>2021-10-06T20:28:18+02:00</time>
      </trkpt>
      <trkpt lat="49.08755" lon="-0.42293">
        <ele>13</ele>
        <time>2021-10-06T20:28:18+02:00</time>
      </trkpt>
      <trkpt lat="49.08734" lon="-0.42304">
        <ele>13</ele>
        <time>2021-10-06T20:28:18+02:00</time>
      </trkpt>
      <trkpt lat="49.0871" lon="-0.42316">
        <ele>13</ele>
        <time>2021-10-06T20:28:18+02:00</time>
      </trkpt>
      <trkpt lat="49.08684" lon="-0.42323">
        <ele>14</ele>
        <time>2021-10-06T20:28:18+02:00</time>
      </trkpt>
      <trkpt lat="49.08662" lon="-0.4234">
        <ele>13</ele>
        <time>2021-10-06T20:28:18+02:00</time>
      </trkpt>
      <trkpt lat="49.0864" lon="-0.42347">
        <ele>13</ele>
        <time>2021-10-06T20:28:18+02:00</time>
      </trkpt>
      <trkpt lat="49.08615" lon="-0.42356">
        <ele>13</ele>
        <time>2021-10-06T20:28:18+02:00</time>
      </trkpt>
      <trkpt lat="49.08591" lon="-0.42365">
        <ele>13</ele>
        <time>2021-10-06T20:28:18+02:00</time>
      </trkpt>
      <trkpt lat="49.08569" lon="-0.42373">
        <ele>13</ele>
        <time>2021-10-06T20:28:18+02:00</time>
      </trkpt>
      <trkpt lat="49.08544" lon="-0.4237">
        <ele>6</ele>
        <time>2021-10-06T20:28:18+02:00</time>
      </trkpt>
      <trkpt lat="49.08521" lon="-0.42375">
        <ele>13</ele>
        <time>2021-10-06T20:28:18+02:00</time>
      </trkpt>
      <trkpt lat="49.08497" lon="-0.42383">
        <ele>13</ele>
        <time>2021-10-06T20:28:18+02:00</time>
      </trkpt>
      <trkpt lat="49.08476" lon="-0.42396">
        <ele>12</ele>
        <time>2021-10-06T20:28:18+02:00</time>
      </trkpt>
      <trkpt lat="49.08453" lon="-0.42405">
        <ele>11</ele>
        <time>2021-10-06T20:28:18+02:00</time>
      </trkpt>
      <trkpt lat="49.08431" lon="-0.4242">
        <ele>11</ele>
        <time>2021-10-06T20:28:18+02:00</time>
      </trkpt>
      <trkpt lat="49.08408" lon="-0.42417">
        <ele>11</ele>
        <time>2021-10-06T20:28:18+02:00</time>
      </trkpt>
      <trkpt lat="49.08387" lon="-0.42434">
        <ele>11</ele>
        <time>2021-10-06T20:28:18+02:00</time>
      </trkpt>
      <trkpt lat="49.08362" lon="-0.42445">
        <ele>10</ele>
        <time>2021-10-06T20:28:18+02:00</time>
      </trkpt>
      <trkpt lat="49.08339" lon="-0.42454">
        <ele>10</ele>
        <time>2021-10-06T20:28:18+02:00</time>
      </trkpt>
      <trkpt lat="49.08315" lon="-0.42464">
        <ele>11</ele>
        <time>2021-10-06T20:28:18+02:00</time>
      </trkpt>
      <trkpt lat="49.08293" lon="-0.42473">
        <ele>11</ele>
        <time>2021-10-06T20:28:18+02:00</time>
      </trkpt>
      <trkpt lat="49.08269" lon="-0.42483">
        <ele>12</ele>
        <time>2021-10-06T20:28:18+02:00</time>
      </trkpt>
      <trkpt lat="49.08245" lon="-0.42493">
        <ele>12</ele>
        <time>2021-10-06T20:28:18+02:00</time>
      </trkpt>
      <trkpt lat="49.08221" lon="-0.42505">
        <ele>12</ele>
        <time>2021-10-06T20:28:18+02:00</time>
      </trkpt>
      <trkpt lat="49.08197" lon="-0.42516">
        <ele>12</ele>
        <time>2021-10-06T20:28:18+02:00</time>
      </trkpt>
      <trkpt lat="49.08173" lon="-0.42528">
        <ele>12</ele>
        <time>2021-10-06T20:28:18+02:00</time>
      </trkpt>
      <trkpt lat="49.08156" lon="-0.42551">
        <ele>13</ele>
        <time>2021-10-06T20:28:18+02:00</time>
      </trkpt>
      <trkpt lat="49.08133" lon="-0.42564">
        <ele>14</ele>
        <time>2021-10-06T20:28:18+02:00</time>
      </trkpt>
      <trkpt lat="49.0811" lon="-0.42578">
        <ele>14</ele>
        <time>2021-10-06T20:28:18+02:00</time>
      </trkpt>
      <trkpt lat="49.08086" lon="-0.42591">
        <ele>14</ele>
        <time>2021-10-06T20:28:18+02:00</time>
      </trkpt>
      <trkpt lat="49.08061" lon="-0.42605">
        <ele>15</ele>
        <time>2021-10-06T20:28:18+02:00</time>
      </trkpt>
      <trkpt lat="49.0804" lon="-0.42618">
        <ele>15</ele>
        <time>2021-10-06T20:28:18+02:00</time>
      </trkpt>
      <trkpt lat="49.08013" lon="-0.42631">
        <ele>15</ele>
        <time>2021-10-06T20:28:18+02:00</time>
      </trkpt>
      <trkpt lat="49.07992" lon="-0.42644">
        <ele>15</ele>
        <time>2021-10-06T20:28:18+02:00</time>
      </trkpt>
      <trkpt lat="49.07965" lon="-0.4266">
        <ele>15</ele>
        <time>2021-10-06T20:28:18+02:00</time>
      </trkpt>
      <trkpt lat="49.07944" lon="-0.42674">
        <ele>14</ele>
        <time>2021-10-06T20:28:18+02:00</time>
      </trkpt>
      <trkpt lat="49.0792" lon="-0.42688">
        <ele>14</ele>
        <time>2021-10-06T20:28:18+02:00</time>
      </trkpt>
      <trkpt lat="49.07895" lon="-0.42701">
        <ele>13</ele>
        <time>2021-10-06T20:28:18+02:00</time>
      </trkpt>
      <trkpt lat="49.07869" lon="-0.42715">
        <ele>14</ele>
        <time>2021-10-06T20:28:18+02:00</time>
      </trkpt>
      <trkpt lat="49.07846" lon="-0.42729">
        <ele>14</ele>
        <time>2021-10-06T20:28:18+02:00</time>
      </trkpt>
      <trkpt lat="49.07822" lon="-0.42745">
        <ele>14</ele>
        <time>2021-10-06T20:28:18+02:00</time>
      </trkpt>
      <trkpt lat="49.07798" lon="-0.42766">
        <ele>14</ele>
        <time>2021-10-06T20:28:18+02:00</time>
      </trkpt>
      <trkpt lat="49.07774" lon="-0.42778">
        <ele>14</ele>
        <time>2021-10-06T20:28:18+02:00</time>
      </trkpt>
      <trkpt lat="49.07751" lon="-0.42792">
        <ele>14</ele>
        <time>2021-10-06T20:28:18+02:00</time>
      </trkpt>
      <trkpt lat="49.07729" lon="-0.42803">
        <ele>14</ele>
        <time>2021-10-06T20:28:18+02:00</time>
      </trkpt>
      <trkpt lat="49.07704" lon="-0.42818">
        <ele>14</ele>
        <time>2021-10-06T20:28:18+02:00</time>
      </trkpt>
      <trkpt lat="49.07682" lon="-0.42833">
        <ele>15</ele>
        <time>2021-10-06T20:28:18+02:00</time>
      </trkpt>
      <trkpt lat="49.07657" lon="-0.42848">
        <ele>15</ele>
        <time>2021-10-06T20:28:18+02:00</time>
      </trkpt>
      <trkpt lat="49.07632" lon="-0.4286">
        <ele>16</ele>
        <time>2021-10-06T20:28:18+02:00</time>
      </trkpt>
      <trkpt lat="49.07605" lon="-0.42873">
        <ele>16</ele>
        <time>2021-10-06T20:28:18+02:00</time>
      </trkpt>
      <trkpt lat="49.07583" lon="-0.42888">
        <ele>16</ele>
        <time>2021-10-06T20:28:18+02:00</time>
      </trkpt>
      <trkpt lat="49.07562" lon="-0.42901">
        <ele>15</ele>
        <time>2021-10-06T20:28:18+02:00</time>
      </trkpt>
      <trkpt lat="49.0754" lon="-0.42915">
        <ele>15</ele>
        <time>2021-10-06T20:28:18+02:00</time>
      </trkpt>
      <trkpt lat="49.07519" lon="-0.42931">
        <ele>17</ele>
        <time>2021-10-06T20:28:18+02:00</time>
      </trkpt>
      <trkpt lat="49.07493" lon="-0.42947">
        <ele>17</ele>
        <time>2021-10-06T20:28:18+02:00</time>
      </trkpt>
      <trkpt lat="49.07468" lon="-0.42961">
        <ele>18</ele>
        <time>2021-10-06T20:28:18+02:00</time>
      </trkpt>
      <trkpt lat="49.07444" lon="-0.42975">
        <ele>18</ele>
        <time>2021-10-06T20:28:18+02:00</time>
      </trkpt>
      <trkpt lat="49.07423" lon="-0.4299">
        <ele>17</ele>
        <time>2021-10-06T20:28:18+02:00</time>
      </trkpt>
      <trkpt lat="49.07401" lon="-0.43003">
        <ele>17</ele>
        <time>2021-10-06T20:28:18+02:00</time>
      </trkpt>
      <trkpt lat="49.07377" lon="-0.43016">
        <ele>18</ele>
        <time>2021-10-06T20:28:18+02:00</time>
      </trkpt>
      <trkpt lat="49.07355" lon="-0.4303">
        <ele>18</ele>
        <time>2021-10-06T20:28:18+02:00</time>
      </trkpt>
      <trkpt lat="49.07332" lon="-0.43051">
        <ele>18</ele>
        <time>2021-10-06T20:28:18+02:00</time>
      </trkpt>
      <trkpt lat="49.0731" lon="-0.4307">
        <ele>16</ele>
        <time>2021-10-06T20:28:18+02:00</time>
      </trkpt>
      <trkpt lat="49.07286" lon="-0.43088">
        <ele>15</ele>
        <time>2021-10-06T20:28:18+02:00</time>
      </trkpt>
      <trkpt lat="49.07262" lon="-0.43104">
        <ele>15</ele>
        <time>2021-10-06T20:28:18+02:00</time>
      </trkpt>
      <trkpt lat="49.0724" lon="-0.43121">
        <ele>16</ele>
        <time>2021-10-06T20:28:18+02:00</time>
      </trkpt>
      <trkpt lat="49.07218" lon="-0.4314">
        <ele>17</ele>
        <time>2021-10-06T20:28:18+02:00</time>
      </trkpt>
      <trkpt lat="49.07198" lon="-0.4316">
        <ele>18</ele>
        <time>2021-10-06T20:28:18+02:00</time>
      </trkpt>
      <trkpt lat="49.07179" lon="-0.43181">
        <ele>18</ele>
        <time>2021-10-06T20:28:18+02:00</time>
      </trkpt>
      <trkpt lat="49.0716" lon="-0.43203">
        <ele>16</ele>
        <time>2021-10-06T20:28:18+02:00</time>
      </trkpt>
      <trkpt lat="49.0714" lon="-0.43225">
        <ele>16</ele>
        <time>2021-10-06T20:28:18+02:00</time>
      </trkpt>
      <trkpt lat="49.07118" lon="-0.43247">
        <ele>17</ele>
        <time>2021-10-06T20:28:18+02:00</time>
      </trkpt>
      <trkpt lat="49.07097" lon="-0.43273">
        <ele>17</ele>
        <time>2021-10-06T20:28:18+02:00</time>
      </trkpt>
      <trkpt lat="49.07078" lon="-0.43293">
        <ele>18</ele>
        <time>2021-10-06T20:28:18+02:00</time>
      </trkpt>
      <trkpt lat="49.07059" lon="-0.43315">
        <ele>18</ele>
        <time>2021-10-06T20:28:18+02:00</time>
      </trkpt>
      <trkpt lat="49.07037" lon="-0.43338">
        <ele>18</ele>
        <time>2021-10-06T20:28:18+02:00</time>
      </trkpt>
      <trkpt lat="49.07019" lon="-0.43359">
        <ele>18</ele>
        <time>2021-10-06T20:28:18+02:00</time>
      </trkpt>
      <trkpt lat="49.07" lon="-0.43381">
        <ele>19</ele>
        <time>2021-10-06T20:28:18+02:00</time>
      </trkpt>
      <trkpt lat="49.06977" lon="-0.43397">
        <ele>19</ele>
        <time>2021-10-06T20:28:18+02:00</time>
      </trkpt>
      <trkpt lat="49.06959" lon="-0.43418">
        <ele>19</ele>
        <time>2021-10-06T20:28:18+02:00</time>
      </trkpt>
      <trkpt lat="49.06939" lon="-0.43441">
        <ele>17</ele>
        <time>2021-10-06T20:28:18+02:00</time>
      </trkpt>
      <trkpt lat="49.06918" lon="-0.43461">
        <ele>19</ele>
        <time>2021-10-06T20:28:18+02:00</time>
      </trkpt>
      <trkpt lat="49.06897" lon="-0.43478">
        <ele>21</ele>
        <time>2021-10-06T20:28:18+02:00</time>
      </trkpt>
      <trkpt lat="49.06875" lon="-0.43494">
        <ele>24</ele>
        <time>2021-10-06T20:28:18+02:00</time>
      </trkpt>
      <trkpt lat="49.06853" lon="-0.43515">
        <ele>25</ele>
        <time>2021-10-06T20:28:18+02:00</time>
      </trkpt>
      <trkpt lat="49.06837" lon="-0.43544">
        <ele>24</ele>
        <time>2021-10-06T20:28:18+02:00</time>
      </trkpt>
      <trkpt lat="49.06818" lon="-0.4357">
        <ele>22</ele>
        <time>2021-10-06T20:28:18+02:00</time>
      </trkpt>
      <trkpt lat="49.06798" lon="-0.43596">
        <ele>23</ele>
        <time>2021-10-06T20:28:18+02:00</time>
      </trkpt>
      <trkpt lat="49.06781" lon="-0.43624">
        <ele>24</ele>
        <time>2021-10-06T20:28:18+02:00</time>
      </trkpt>
      <trkpt lat="49.06765" lon="-0.43654">
        <ele>22</ele>
        <time>2021-10-06T20:28:18+02:00</time>
      </trkpt>
      <trkpt lat="49.0675" lon="-0.43687">
        <ele>21</ele>
        <time>2021-10-06T20:28:18+02:00</time>
      </trkpt>
      <trkpt lat="49.06733" lon="-0.43712">
        <ele>20</ele>
        <time>2021-10-06T20:28:18+02:00</time>
      </trkpt>
      <trkpt lat="49.06718" lon="-0.43737">
        <ele>21</ele>
        <time>2021-10-06T20:28:18+02:00</time>
      </trkpt>
      <trkpt lat="49.06699" lon="-0.43768">
        <ele>22</ele>
        <time>2021-10-06T20:28:18+02:00</time>
      </trkpt>
      <trkpt lat="49.06685" lon="-0.43795">
        <ele>22</ele>
        <time>2021-10-06T20:28:18+02:00</time>
      </trkpt>
      <trkpt lat="49.06667" lon="-0.43822">
        <ele>22</ele>
        <time>2021-10-06T20:28:18+02:00</time>
      </trkpt>
      <trkpt lat="49.0665" lon="-0.43848">
        <ele>22</ele>
        <time>2021-10-06T20:28:18+02:00</time>
      </trkpt>
      <trkpt lat="49.0663" lon="-0.43874">
        <ele>21</ele>
        <time>2021-10-06T20:28:18+02:00</time>
      </trkpt>
      <trkpt lat="49.06614" lon="-0.439">
        <ele>20</ele>
        <time>2021-10-06T20:28:18+02:00</time>
      </trkpt>
      <trkpt lat="49.06599" lon="-0.43931">
        <ele>17</ele>
        <time>2021-10-06T20:28:18+02:00</time>
      </trkpt>
      <trkpt lat="49.06581" lon="-0.43959">
        <ele>13</ele>
        <time>2021-10-06T20:28:18+02:00</time>
      </trkpt>
      <trkpt lat="49.06565" lon="-0.4399">
        <ele>10</ele>
        <time>2021-10-06T20:28:18+02:00</time>
      </trkpt>
      <trkpt lat="49.06548" lon="-0.44023">
        <ele>10</ele>
        <time>2021-10-06T20:28:18+02:00</time>
      </trkpt>
      <trkpt lat="49.06528" lon="-0.44045">
        <ele>16</ele>
        <time>2021-10-06T20:28:18+02:00</time>
      </trkpt>
      <trkpt lat="49.06511" lon="-0.44081">
        <ele>22</ele>
        <time>2021-10-06T20:28:18+02:00</time>
      </trkpt>
      <trkpt lat="49.06495" lon="-0.44122">
        <ele>24</ele>
        <time>2021-10-06T20:28:18+02:00</time>
      </trkpt>
      <trkpt lat="49.06483" lon="-0.44154">
        <ele>26</ele>
        <time>2021-10-06T20:28:18+02:00</time>
      </trkpt>
      <trkpt lat="49.06479" lon="-0.44197">
        <ele>26</ele>
        <time>2021-10-06T20:28:18+02:00</time>
      </trkpt>
      <trkpt lat="49.06469" lon="-0.44237">
        <ele>25</ele>
        <time>2021-10-06T20:28:18+02:00</time>
      </trkpt>
      <trkpt lat="49.06465" lon="-0.44271">
        <ele>27</ele>
        <time>2021-10-06T20:28:18+02:00</time>
      </trkpt>
      <trkpt lat="49.06462" lon="-0.44305">
        <ele>29</ele>
        <time>2021-10-06T20:28:18+02:00</time>
      </trkpt>
      <trkpt lat="49.06459" lon="-0.44339">
        <ele>30</ele>
        <time>2021-10-06T20:28:18+02:00</time>
      </trkpt>
      <trkpt lat="49.06442" lon="-0.44365">
        <ele>30</ele>
        <time>2021-10-06T20:28:18+02:00</time>
      </trkpt>
      <trkpt lat="49.06442" lon="-0.44401">
        <ele>29</ele>
        <time>2021-10-06T20:28:18+02:00</time>
      </trkpt>
      <trkpt lat="49.06441" lon="-0.44437">
        <ele>30</ele>
        <time>2021-10-06T20:28:18+02:00</time>
      </trkpt>
      <trkpt lat="49.06444" lon="-0.44489">
        <ele>31</ele>
        <time>2021-10-06T20:28:18+02:00</time>
      </trkpt>
      <trkpt lat="49.06446" lon="-0.44528">
        <ele>31</ele>
        <time>2021-10-06T20:28:18+02:00</time>
      </trkpt>
      <trkpt lat="49.0645" lon="-0.44565">
        <ele>28</ele>
        <time>2021-10-06T20:28:18+02:00</time>
      </trkpt>
      <trkpt lat="49.06461" lon="-0.44629">
        <ele>20</ele>
        <time>2021-10-06T20:28:18+02:00</time>
      </trkpt>
      <trkpt lat="49.0647" lon="-0.44678">
        <ele>17</ele>
        <time>2021-10-06T20:28:18+02:00</time>
      </trkpt>
      <trkpt lat="49.06476" lon="-0.44716">
        <ele>15</ele>
        <time>2021-10-06T20:28:18+02:00</time>
      </trkpt>
      <trkpt lat="49.06483" lon="-0.44749">
        <ele>15</ele>
        <time>2021-10-06T20:28:18+02:00</time>
      </trkpt>
      <trkpt lat="49.0649" lon="-0.44788">
        <ele>20</ele>
        <time>2021-10-06T20:28:18+02:00</time>
      </trkpt>
      <trkpt lat="49.06495" lon="-0.44823">
        <ele>21</ele>
        <time>2021-10-06T20:28:18+02:00</time>
      </trkpt>
      <trkpt lat="49.06501" lon="-0.44859">
        <ele>22</ele>
        <time>2021-10-06T20:28:18+02:00</time>
      </trkpt>
      <trkpt lat="49.06504" lon="-0.44899">
        <ele>23</ele>
        <time>2021-10-06T20:28:18+02:00</time>
      </trkpt>
      <trkpt lat="49.06508" lon="-0.44936">
        <ele>23</ele>
        <time>2021-10-06T20:28:18+02:00</time>
      </trkpt>
      <trkpt lat="49.06508" lon="-0.44978">
        <ele>24</ele>
        <time>2021-10-06T20:28:18+02:00</time>
      </trkpt>
      <trkpt lat="49.06512" lon="-0.45013">
        <ele>25</ele>
        <time>2021-10-06T20:28:18+02:00</time>
      </trkpt>
      <trkpt lat="49.06506" lon="-0.45051">
        <ele>25</ele>
        <time>2021-10-06T20:28:18+02:00</time>
      </trkpt>
      <trkpt lat="49.06501" lon="-0.45094">
        <ele>23</ele>
        <time>2021-10-06T20:28:18+02:00</time>
      </trkpt>
      <trkpt lat="49.06481" lon="-0.45122">
        <ele>21</ele>
        <time>2021-10-06T20:28:18+02:00</time>
      </trkpt>
      <trkpt lat="49.0647" lon="-0.4516">
        <ele>20</ele>
        <time>2021-10-06T20:28:18+02:00</time>
      </trkpt>
      <trkpt lat="49.06461" lon="-0.45192">
        <ele>20</ele>
        <time>2021-10-06T20:28:18+02:00</time>
      </trkpt>
      <trkpt lat="49.06451" lon="-0.45226">
        <ele>19</ele>
        <time>2021-10-06T20:28:18+02:00</time>
      </trkpt>
      <trkpt lat="49.06442" lon="-0.45263">
        <ele>19</ele>
        <time>2021-10-06T20:28:18+02:00</time>
      </trkpt>
      <trkpt lat="49.06431" lon="-0.45302">
        <ele>20</ele>
        <time>2021-10-06T20:28:18+02:00</time>
      </trkpt>
      <trkpt lat="49.06422" lon="-0.45335">
        <ele>19</ele>
        <time>2021-10-06T20:28:18+02:00</time>
      </trkpt>
      <trkpt lat="49.06413" lon="-0.4537">
        <ele>19</ele>
        <time>2021-10-06T20:28:18+02:00</time>
      </trkpt>
      <trkpt lat="49.06404" lon="-0.45405">
        <ele>21</ele>
        <time>2021-10-06T20:28:18+02:00</time>
      </trkpt>
      <trkpt lat="49.06394" lon="-0.45443">
        <ele>24</ele>
        <time>2021-10-06T20:28:18+02:00</time>
      </trkpt>
      <trkpt lat="49.06384" lon="-0.4548">
        <ele>25</ele>
        <time>2021-10-06T20:28:18+02:00</time>
      </trkpt>
      <trkpt lat="49.06373" lon="-0.45513">
        <ele>25</ele>
        <time>2021-10-06T20:28:18+02:00</time>
      </trkpt>
      <trkpt lat="49.06362" lon="-0.45544">
        <ele>25</ele>
        <time>2021-10-06T20:28:18+02:00</time>
      </trkpt>
      <trkpt lat="49.06351" lon="-0.45576">
        <ele>23</ele>
        <time>2021-10-06T20:28:18+02:00</time>
      </trkpt>
      <trkpt lat="49.06338" lon="-0.45613">
        <ele>23</ele>
        <time>2021-10-06T20:28:18+02:00</time>
      </trkpt>
      <trkpt lat="49.06323" lon="-0.45651">
        <ele>23</ele>
        <time>2021-10-06T20:28:18+02:00</time>
      </trkpt>
      <trkpt lat="49.0631" lon="-0.45683">
        <ele>23</ele>
        <time>2021-10-06T20:28:18+02:00</time>
      </trkpt>
      <trkpt lat="49.06293" lon="-0.45713">
        <ele>21</ele>
        <time>2021-10-06T20:28:18+02:00</time>
      </trkpt>
      <trkpt lat="49.06275" lon="-0.45743">
        <ele>20</ele>
        <time>2021-10-06T20:28:18+02:00</time>
      </trkpt>
      <trkpt lat="49.06255" lon="-0.45768">
        <ele>19</ele>
        <time>2021-10-06T20:28:18+02:00</time>
      </trkpt>
      <trkpt lat="49.06234" lon="-0.45789">
        <ele>18</ele>
        <time>2021-10-06T20:28:18+02:00</time>
      </trkpt>
      <trkpt lat="49.06212" lon="-0.45811">
        <ele>18</ele>
        <time>2021-10-06T20:28:18+02:00</time>
      </trkpt>
      <trkpt lat="49.0619" lon="-0.45831">
        <ele>17</ele>
        <time>2021-10-06T20:28:18+02:00</time>
      </trkpt>
      <trkpt lat="49.06167" lon="-0.45849">
        <ele>17</ele>
        <time>2021-10-06T20:28:18+02:00</time>
      </trkpt>
      <trkpt lat="49.06126" lon="-0.45873">
        <ele>17</ele>
        <time>2021-10-06T20:28:18+02:00</time>
      </trkpt>
      <trkpt lat="49.06105" lon="-0.45885">
        <ele>17</ele>
        <time>2021-10-06T20:28:18+02:00</time>
      </trkpt>
      <trkpt lat="49.06077" lon="-0.459">
        <ele>17</ele>
        <time>2021-10-06T20:28:18+02:00</time>
      </trkpt>
      <trkpt lat="49.06053" lon="-0.4591">
        <ele>17</ele>
        <time>2021-10-06T20:28:18+02:00</time>
      </trkpt>
      <trkpt lat="49.06029" lon="-0.45921">
        <ele>17</ele>
        <time>2021-10-06T20:28:18+02:00</time>
      </trkpt>
      <trkpt lat="49.06007" lon="-0.45937">
        <ele>17</ele>
        <time>2021-10-06T20:28:18+02:00</time>
      </trkpt>
      <trkpt lat="49.05981" lon="-0.45943">
        <ele>18</ele>
        <time>2021-10-06T20:28:18+02:00</time>
      </trkpt>
      <trkpt lat="49.05958" lon="-0.4595">
        <ele>18</ele>
        <time>2021-10-06T20:28:18+02:00</time>
      </trkpt>
      <trkpt lat="49.05935" lon="-0.45955">
        <ele>18</ele>
        <time>2021-10-06T20:28:18+02:00</time>
      </trkpt>
      <trkpt lat="49.05912" lon="-0.45961">
        <ele>18</ele>
        <time>2021-10-06T20:28:18+02:00</time>
      </trkpt>
      <trkpt lat="49.05887" lon="-0.45964">
        <ele>18</ele>
        <time>2021-10-06T20:28:18+02:00</time>
      </trkpt>
      <trkpt lat="49.05864" lon="-0.45967">
        <ele>18</ele>
        <time>2021-10-06T20:28:18+02:00</time>
      </trkpt>
      <trkpt lat="49.05842" lon="-0.45969">
        <ele>18</ele>
        <time>2021-10-06T20:28:18+02:00</time>
      </trkpt>
      <trkpt lat="49.05817" lon="-0.45969">
        <ele>17</ele>
        <time>2021-10-06T20:28:18+02:00</time>
      </trkpt>
      <trkpt lat="49.05794" lon="-0.45968">
        <ele>17</ele>
        <time>2021-10-06T20:28:18+02:00</time>
      </trkpt>
      <trkpt lat="49.05768" lon="-0.45966">
        <ele>18</ele>
        <time>2021-10-06T20:28:18+02:00</time>
      </trkpt>
      <trkpt lat="49.0574" lon="-0.45964">
        <ele>17</ele>
        <time>2021-10-06T20:28:18+02:00</time>
      </trkpt>
      <trkpt lat="49.05713" lon="-0.4596">
        <ele>17</ele>
        <time>2021-10-06T20:28:18+02:00</time>
      </trkpt>
      <trkpt lat="49.05686" lon="-0.45956">
        <ele>17</ele>
        <time>2021-10-06T20:28:18+02:00</time>
      </trkpt>
      <trkpt lat="49.05659" lon="-0.4595">
        <ele>17</ele>
        <time>2021-10-06T20:28:18+02:00</time>
      </trkpt>
      <trkpt lat="49.05636" lon="-0.45944">
        <ele>17</ele>
        <time>2021-10-06T20:28:18+02:00</time>
      </trkpt>
      <trkpt lat="49.05613" lon="-0.45938">
        <ele>18</ele>
        <time>2021-10-06T20:28:18+02:00</time>
      </trkpt>
      <trkpt lat="49.05586" lon="-0.45931">
        <ele>18</ele>
        <time>2021-10-06T20:28:18+02:00</time>
      </trkpt>
      <trkpt lat="49.05562" lon="-0.45926">
        <ele>19</ele>
        <time>2021-10-06T20:28:18+02:00</time>
      </trkpt>
      <trkpt lat="49.05538" lon="-0.45919">
        <ele>19</ele>
        <time>2021-10-06T20:28:18+02:00</time>
      </trkpt>
      <trkpt lat="49.05513" lon="-0.4591">
        <ele>19</ele>
        <time>2021-10-06T20:28:18+02:00</time>
      </trkpt>
      <trkpt lat="49.05489" lon="-0.45901">
        <ele>19</ele>
        <time>2021-10-06T20:28:18+02:00</time>
      </trkpt>
      <trkpt lat="49.05465" lon="-0.45896">
        <ele>20</ele>
        <time>2021-10-06T20:28:18+02:00</time>
      </trkpt>
      <trkpt lat="49.05443" lon="-0.45892">
        <ele>20</ele>
        <time>2021-10-06T20:28:18+02:00</time>
      </trkpt>
      <trkpt lat="49.05416" lon="-0.45886">
        <ele>21</ele>
        <time>2021-10-06T20:28:18+02:00</time>
      </trkpt>
      <trkpt lat="49.05394" lon="-0.45881">
        <ele>21</ele>
        <time>2021-10-06T20:28:18+02:00</time>
      </trkpt>
      <trkpt lat="49.05368" lon="-0.45874">
        <ele>21</ele>
        <time>2021-10-06T20:28:18+02:00</time>
      </trkpt>
      <trkpt lat="49.05345" lon="-0.45868">
        <ele>22</ele>
        <time>2021-10-06T20:28:18+02:00</time>
      </trkpt>
      <trkpt lat="49.05317" lon="-0.45863">
        <ele>22</ele>
        <time>2021-10-06T20:28:18+02:00</time>
      </trkpt>
      <trkpt lat="49.05293" lon="-0.45859">
        <ele>21</ele>
        <time>2021-10-06T20:28:18+02:00</time>
      </trkpt>
      <trkpt lat="49.05269" lon="-0.45857">
        <ele>20</ele>
        <time>2021-10-06T20:28:18+02:00</time>
      </trkpt>
      <trkpt lat="49.05244" lon="-0.45851">
        <ele>21</ele>
        <time>2021-10-06T20:28:18+02:00</time>
      </trkpt>
      <trkpt lat="49.0522" lon="-0.45848">
        <ele>22</ele>
        <time>2021-10-06T20:28:18+02:00</time>
      </trkpt>
      <trkpt lat="49.05191" lon="-0.45842">
        <ele>22</ele>
        <time>2021-10-06T20:28:18+02:00</time>
      </trkpt>
      <trkpt lat="49.05166" lon="-0.45838">
        <ele>22</ele>
        <time>2021-10-06T20:28:18+02:00</time>
      </trkpt>
      <trkpt lat="49.05142" lon="-0.45833">
        <ele>23</ele>
        <time>2021-10-06T20:28:18+02:00</time>
      </trkpt>
      <trkpt lat="49.05113" lon="-0.45829">
        <ele>22</ele>
        <time>2021-10-06T20:28:18+02:00</time>
      </trkpt>
      <trkpt lat="49.05088" lon="-0.45825">
        <ele>22</ele>
        <time>2021-10-06T20:28:18+02:00</time>
      </trkpt>
      <trkpt lat="49.05063" lon="-0.45819">
        <ele>21</ele>
        <time>2021-10-06T20:28:18+02:00</time>
      </trkpt>
      <trkpt lat="49.05039" lon="-0.45812">
        <ele>22</ele>
        <time>2021-10-06T20:28:18+02:00</time>
      </trkpt>
      <trkpt lat="49.05014" lon="-0.45809">
        <ele>21</ele>
        <time>2021-10-06T20:28:18+02:00</time>
      </trkpt>
      <trkpt lat="49.04986" lon="-0.45805">
        <ele>19</ele>
        <time>2021-10-06T20:28:18+02:00</time>
      </trkpt>
      <trkpt lat="49.0496" lon="-0.45803">
        <ele>18</ele>
        <time>2021-10-06T20:28:18+02:00</time>
      </trkpt>
      <trkpt lat="49.04935" lon="-0.45804">
        <ele>18</ele>
        <time>2021-10-06T20:28:18+02:00</time>
      </trkpt>
      <trkpt lat="49.04909" lon="-0.45805">
        <ele>17</ele>
        <time>2021-10-06T20:28:18+02:00</time>
      </trkpt>
      <trkpt lat="49.04885" lon="-0.4581">
        <ele>17</ele>
        <time>2021-10-06T20:28:18+02:00</time>
      </trkpt>
      <trkpt lat="49.04859" lon="-0.45815">
        <ele>17</ele>
        <time>2021-10-06T20:28:18+02:00</time>
      </trkpt>
      <trkpt lat="49.04837" lon="-0.45822">
        <ele>18</ele>
        <time>2021-10-06T20:28:18+02:00</time>
      </trkpt>
      <trkpt lat="49.04812" lon="-0.45833">
        <ele>18</ele>
        <time>2021-10-06T20:28:18+02:00</time>
      </trkpt>
      <trkpt lat="49.04787" lon="-0.45846">
        <ele>19</ele>
        <time>2021-10-06T20:28:18+02:00</time>
      </trkpt>
      <trkpt lat="49.04765" lon="-0.45862">
        <ele>20</ele>
        <time>2021-10-06T20:28:18+02:00</time>
      </trkpt>
      <trkpt lat="49.04742" lon="-0.45881">
        <ele>20</ele>
        <time>2021-10-06T20:28:18+02:00</time>
      </trkpt>
      <trkpt lat="49.04722" lon="-0.45901">
        <ele>20</ele>
        <time>2021-10-06T20:28:18+02:00</time>
      </trkpt>
      <trkpt lat="49.04702" lon="-0.45921">
        <ele>20</ele>
        <time>2021-10-06T20:28:18+02:00</time>
      </trkpt>
      <trkpt lat="49.04678" lon="-0.45941">
        <ele>20</ele>
        <time>2021-10-06T20:28:18+02:00</time>
      </trkpt>
      <trkpt lat="49.04659" lon="-0.4596">
        <ele>21</ele>
        <time>2021-10-06T20:28:18+02:00</time>
      </trkpt>
      <trkpt lat="49.0464" lon="-0.45982">
        <ele>21</ele>
        <time>2021-10-06T20:28:18+02:00</time>
      </trkpt>
      <trkpt lat="49.04619" lon="-0.46002">
        <ele>20</ele>
        <time>2021-10-06T20:28:18+02:00</time>
      </trkpt>
      <trkpt lat="49.04597" lon="-0.46025">
        <ele>21</ele>
        <time>2021-10-06T20:28:18+02:00</time>
      </trkpt>
      <trkpt lat="49.04577" lon="-0.46041">
        <ele>21</ele>
        <time>2021-10-06T20:28:18+02:00</time>
      </trkpt>
      <trkpt lat="49.04557" lon="-0.46061">
        <ele>22</ele>
        <time>2021-10-06T20:28:18+02:00</time>
      </trkpt>
      <trkpt lat="49.04536" lon="-0.46084">
        <ele>22</ele>
        <time>2021-10-06T20:28:18+02:00</time>
      </trkpt>
      <trkpt lat="49.04516" lon="-0.46107">
        <ele>21</ele>
        <time>2021-10-06T20:28:18+02:00</time>
      </trkpt>
      <trkpt lat="49.04493" lon="-0.46129">
        <ele>21</ele>
        <time>2021-10-06T20:28:18+02:00</time>
      </trkpt>
      <trkpt lat="49.04473" lon="-0.46151">
        <ele>20</ele>
        <time>2021-10-06T20:28:18+02:00</time>
      </trkpt>
      <trkpt lat="49.04448" lon="-0.46167">
        <ele>20</ele>
        <time>2021-10-06T20:28:18+02:00</time>
      </trkpt>
      <trkpt lat="49.04424" lon="-0.46187">
        <ele>20</ele>
        <time>2021-10-06T20:28:18+02:00</time>
      </trkpt>
      <trkpt lat="49.04403" lon="-0.46201">
        <ele>20</ele>
        <time>2021-10-06T20:28:18+02:00</time>
      </trkpt>
      <trkpt lat="49.04382" lon="-0.46215">
        <ele>20</ele>
        <time>2021-10-06T20:28:18+02:00</time>
      </trkpt>
      <trkpt lat="49.04356" lon="-0.4623">
        <ele>20</ele>
        <time>2021-10-06T20:28:18+02:00</time>
      </trkpt>
      <trkpt lat="49.04331" lon="-0.46243">
        <ele>19</ele>
        <time>2021-10-06T20:28:18+02:00</time>
      </trkpt>
      <trkpt lat="49.04305" lon="-0.46256">
        <ele>19</ele>
        <time>2021-10-06T20:28:18+02:00</time>
      </trkpt>
      <trkpt lat="49.04283" lon="-0.46267">
        <ele>20</ele>
        <time>2021-10-06T20:28:18+02:00</time>
      </trkpt>
      <trkpt lat="49.04258" lon="-0.46275">
        <ele>19</ele>
        <time>2021-10-06T20:28:18+02:00</time>
      </trkpt>
      <trkpt lat="49.04234" lon="-0.46284">
        <ele>19</ele>
        <time>2021-10-06T20:28:18+02:00</time>
      </trkpt>
      <trkpt lat="49.0421" lon="-0.46296">
        <ele>19</ele>
        <time>2021-10-06T20:28:18+02:00</time>
      </trkpt>
      <trkpt lat="49.04188" lon="-0.46305">
        <ele>19</ele>
        <time>2021-10-06T20:28:18+02:00</time>
      </trkpt>
      <trkpt lat="49.04164" lon="-0.46318">
        <ele>18</ele>
        <time>2021-10-06T20:28:18+02:00</time>
      </trkpt>
      <trkpt lat="49.04143" lon="-0.46328">
        <ele>18</ele>
        <time>2021-10-06T20:28:18+02:00</time>
      </trkpt>
      <trkpt lat="49.04121" lon="-0.46338">
        <ele>18</ele>
        <time>2021-10-06T20:28:18+02:00</time>
      </trkpt>
      <trkpt lat="49.04094" lon="-0.4635">
        <ele>18</ele>
        <time>2021-10-06T20:28:18+02:00</time>
      </trkpt>
      <trkpt lat="49.0407" lon="-0.4636">
        <ele>18</ele>
        <time>2021-10-06T20:28:18+02:00</time>
      </trkpt>
      <trkpt lat="49.04043" lon="-0.46373">
        <ele>19</ele>
        <time>2021-10-06T20:28:18+02:00</time>
      </trkpt>
      <trkpt lat="49.04019" lon="-0.46383">
        <ele>18</ele>
        <time>2021-10-06T20:28:18+02:00</time>
      </trkpt>
      <trkpt lat="49.03991" lon="-0.46394">
        <ele>18</ele>
        <time>2021-10-06T20:28:18+02:00</time>
      </trkpt>
      <trkpt lat="49.03967" lon="-0.46405">
        <ele>19</ele>
        <time>2021-10-06T20:28:18+02:00</time>
      </trkpt>
      <trkpt lat="49.03944" lon="-0.46413">
        <ele>19</ele>
        <time>2021-10-06T20:28:18+02:00</time>
      </trkpt>
      <trkpt lat="49.03918" lon="-0.46424">
        <ele>19</ele>
        <time>2021-10-06T20:28:18+02:00</time>
      </trkpt>
      <trkpt lat="49.03895" lon="-0.46435">
        <ele>19</ele>
        <time>2021-10-06T20:28:18+02:00</time>
      </trkpt>
      <trkpt lat="49.03871" lon="-0.46441">
        <ele>20</ele>
        <time>2021-10-06T20:28:18+02:00</time>
      </trkpt>
      <trkpt lat="49.03845" lon="-0.46451">
        <ele>20</ele>
        <time>2021-10-06T20:28:18+02:00</time>
      </trkpt>
      <trkpt lat="49.03819" lon="-0.46461">
        <ele>19</ele>
        <time>2021-10-06T20:28:18+02:00</time>
      </trkpt>
      <trkpt lat="49.03796" lon="-0.46471">
        <ele>18</ele>
        <time>2021-10-06T20:28:18+02:00</time>
      </trkpt>
      <trkpt lat="49.0377" lon="-0.46483">
        <ele>18</ele>
        <time>2021-10-06T20:28:18+02:00</time>
      </trkpt>
      <trkpt lat="49.03743" lon="-0.46496">
        <ele>18</ele>
        <time>2021-10-06T20:28:18+02:00</time>
      </trkpt>
      <trkpt lat="49.03717" lon="-0.46507">
        <ele>18</ele>
        <time>2021-10-06T20:28:18+02:00</time>
      </trkpt>
      <trkpt lat="49.03691" lon="-0.4652">
        <ele>19</ele>
        <time>2021-10-06T20:28:18+02:00</time>
      </trkpt>
      <trkpt lat="49.03664" lon="-0.46532">
        <ele>19</ele>
        <time>2021-10-06T20:28:18+02:00</time>
      </trkpt>
      <trkpt lat="49.03641" lon="-0.46541">
        <ele>19</ele>
        <time>2021-10-06T20:28:18+02:00</time>
      </trkpt>
      <trkpt lat="49.03615" lon="-0.4655">
        <ele>20</ele>
        <time>2021-10-06T20:28:18+02:00</time>
      </trkpt>
      <trkpt lat="49.03592" lon="-0.46559">
        <ele>20</ele>
        <time>2021-10-06T20:28:18+02:00</time>
      </trkpt>
      <trkpt lat="49.03569" lon="-0.46566">
        <ele>20</ele>
        <time>2021-10-06T20:28:18+02:00</time>
      </trkpt>
      <trkpt lat="49.03543" lon="-0.46574">
        <ele>20</ele>
        <time>2021-10-06T20:28:18+02:00</time>
      </trkpt>
      <trkpt lat="49.0352" lon="-0.46581">
        <ele>20</ele>
        <time>2021-10-06T20:28:18+02:00</time>
      </trkpt>
      <trkpt lat="49.03496" lon="-0.46589">
        <ele>20</ele>
        <time>2021-10-06T20:28:18+02:00</time>
      </trkpt>
      <trkpt lat="49.03474" lon="-0.46589">
        <ele>20</ele>
        <time>2021-10-06T20:28:18+02:00</time>
      </trkpt>
      <trkpt lat="49.03448" lon="-0.46588">
        <ele>20</ele>
        <time>2021-10-06T20:28:18+02:00</time>
      </trkpt>
      <trkpt lat="49.03426" lon="-0.46587">
        <ele>20</ele>
        <time>2021-10-06T20:28:18+02:00</time>
      </trkpt>
      <trkpt lat="49.03398" lon="-0.46586">
        <ele>20</ele>
        <time>2021-10-06T20:28:18+02:00</time>
      </trkpt>
      <trkpt lat="49.03373" lon="-0.46585">
        <ele>21</ele>
        <time>2021-10-06T20:28:18+02:00</time>
      </trkpt>
      <trkpt lat="49.03347" lon="-0.46589">
        <ele>20</ele>
        <time>2021-10-06T20:28:18+02:00</time>
      </trkpt>
      <trkpt lat="49.03322" lon="-0.46582">
        <ele>19</ele>
        <time>2021-10-06T20:28:18+02:00</time>
      </trkpt>
      <trkpt lat="49.03297" lon="-0.46571">
        <ele>19</ele>
        <time>2021-10-06T20:28:18+02:00</time>
      </trkpt>
      <trkpt lat="49.03275" lon="-0.46563">
        <ele>19</ele>
        <time>2021-10-06T20:28:18+02:00</time>
      </trkpt>
      <trkpt lat="49.03251" lon="-0.46556">
        <ele>18</ele>
        <time>2021-10-06T20:28:18+02:00</time>
      </trkpt>
      <trkpt lat="49.03224" lon="-0.46549">
        <ele>18</ele>
        <time>2021-10-06T20:28:18+02:00</time>
      </trkpt>
      <trkpt lat="49.03198" lon="-0.46541">
        <ele>18</ele>
        <time>2021-10-06T20:28:18+02:00</time>
      </trkpt>
      <trkpt lat="49.03175" lon="-0.46538">
        <ele>19</ele>
        <time>2021-10-06T20:28:18+02:00</time>
      </trkpt>
      <trkpt lat="49.03152" lon="-0.46528">
        <ele>21</ele>
        <time>2021-10-06T20:28:18+02:00</time>
      </trkpt>
      <trkpt lat="49.03125" lon="-0.46522">
        <ele>22</ele>
        <time>2021-10-06T20:28:18+02:00</time>
      </trkpt>
      <trkpt lat="49.031" lon="-0.46516">
        <ele>24</ele>
        <time>2021-10-06T20:28:18+02:00</time>
      </trkpt>
      <trkpt lat="49.03074" lon="-0.46509">
        <ele>25</ele>
        <time>2021-10-06T20:28:18+02:00</time>
      </trkpt>
      <trkpt lat="49.0305" lon="-0.46501">
        <ele>25</ele>
        <time>2021-10-06T20:28:18+02:00</time>
      </trkpt>
      <trkpt lat="49.03027" lon="-0.46494">
        <ele>25</ele>
        <time>2021-10-06T20:28:18+02:00</time>
      </trkpt>
      <trkpt lat="49.02999" lon="-0.46485">
        <ele>25</ele>
        <time>2021-10-06T20:28:18+02:00</time>
      </trkpt>
      <trkpt lat="49.02975" lon="-0.46477">
        <ele>25</ele>
        <time>2021-10-06T20:28:18+02:00</time>
      </trkpt>
      <trkpt lat="49.02951" lon="-0.46469">
        <ele>26</ele>
        <time>2021-10-06T20:28:18+02:00</time>
      </trkpt>
      <trkpt lat="49.02926" lon="-0.4646">
        <ele>28</ele>
        <time>2021-10-06T20:28:18+02:00</time>
      </trkpt>
      <trkpt lat="49.029" lon="-0.46451">
        <ele>28</ele>
        <time>2021-10-06T20:28:18+02:00</time>
      </trkpt>
      <trkpt lat="49.02876" lon="-0.46444">
        <ele>27</ele>
        <time>2021-10-06T20:28:18+02:00</time>
      </trkpt>
      <trkpt lat="49.02853" lon="-0.46438">
        <ele>27</ele>
        <time>2021-10-06T20:28:18+02:00</time>
      </trkpt>
      <trkpt lat="49.0283" lon="-0.46433">
        <ele>27</ele>
        <time>2021-10-06T20:28:18+02:00</time>
      </trkpt>
      <trkpt lat="49.02788" lon="-0.46427">
        <ele>26</ele>
        <time>2021-10-06T20:28:18+02:00</time>
      </trkpt>
      <trkpt lat="49.02761" lon="-0.46424">
        <ele>24</ele>
        <time>2021-10-06T20:28:18+02:00</time>
      </trkpt>
      <trkpt lat="49.02737" lon="-0.46423">
        <ele>23</ele>
        <time>2021-10-06T20:28:18+02:00</time>
      </trkpt>
      <trkpt lat="49.02711" lon="-0.46422">
        <ele>22</ele>
        <time>2021-10-06T20:28:18+02:00</time>
      </trkpt>
      <trkpt lat="49.02688" lon="-0.46422">
        <ele>22</ele>
        <time>2021-10-06T20:28:18+02:00</time>
      </trkpt>
      <trkpt lat="49.02658" lon="-0.46422">
        <ele>22</ele>
        <time>2021-10-06T20:28:18+02:00</time>
      </trkpt>
      <trkpt lat="49.02632" lon="-0.46425">
        <ele>22</ele>
        <time>2021-10-06T20:28:18+02:00</time>
      </trkpt>
      <trkpt lat="49.02609" lon="-0.46428">
        <ele>21</ele>
        <time>2021-10-06T20:28:18+02:00</time>
      </trkpt>
      <trkpt lat="49.02582" lon="-0.46431">
        <ele>21</ele>
        <time>2021-10-06T20:28:18+02:00</time>
      </trkpt>
      <trkpt lat="49.02558" lon="-0.46449">
        <ele>20</ele>
        <time>2021-10-06T20:28:18+02:00</time>
      </trkpt>
      <trkpt lat="49.0253" lon="-0.46453">
        <ele>20</ele>
        <time>2021-10-06T20:28:18+02:00</time>
      </trkpt>
      <trkpt lat="49.02503" lon="-0.46455">
        <ele>21</ele>
        <time>2021-10-06T20:28:18+02:00</time>
      </trkpt>
      <trkpt lat="49.02476" lon="-0.46455">
        <ele>23</ele>
        <time>2021-10-06T20:28:18+02:00</time>
      </trkpt>
      <trkpt lat="49.02454" lon="-0.46461">
        <ele>23</ele>
        <time>2021-10-06T20:28:18+02:00</time>
      </trkpt>
      <trkpt lat="49.02426" lon="-0.46468">
        <ele>23</ele>
        <time>2021-10-06T20:28:18+02:00</time>
      </trkpt>
      <trkpt lat="49.024" lon="-0.46473">
        <ele>23</ele>
        <time>2021-10-06T20:28:18+02:00</time>
      </trkpt>
      <trkpt lat="49.02377" lon="-0.46477">
        <ele>24</ele>
        <time>2021-10-06T20:28:18+02:00</time>
      </trkpt>
      <trkpt lat="49.02354" lon="-0.46481">
        <ele>24</ele>
        <time>2021-10-06T20:28:18+02:00</time>
      </trkpt>
      <trkpt lat="49.02326" lon="-0.46486">
        <ele>24</ele>
        <time>2021-10-06T20:28:18+02:00</time>
      </trkpt>
      <trkpt lat="49.02304" lon="-0.4649">
        <ele>24</ele>
        <time>2021-10-06T20:28:18+02:00</time>
      </trkpt>
      <trkpt lat="49.02281" lon="-0.46495">
        <ele>26</ele>
        <time>2021-10-06T20:28:18+02:00</time>
      </trkpt>
      <trkpt lat="49.02255" lon="-0.46502">
        <ele>27</ele>
        <time>2021-10-06T20:28:18+02:00</time>
      </trkpt>
      <trkpt lat="49.02229" lon="-0.46509">
        <ele>26</ele>
        <time>2021-10-06T20:28:18+02:00</time>
      </trkpt>
      <trkpt lat="49.022" lon="-0.46517">
        <ele>26</ele>
        <time>2021-10-06T20:28:18+02:00</time>
      </trkpt>
      <trkpt lat="49.02177" lon="-0.46523">
        <ele>26</ele>
        <time>2021-10-06T20:28:18+02:00</time>
      </trkpt>
      <trkpt lat="49.02151" lon="-0.4653">
        <ele>26</ele>
        <time>2021-10-06T20:28:18+02:00</time>
      </trkpt>
      <trkpt lat="49.02128" lon="-0.46536">
        <ele>25</ele>
        <time>2021-10-06T20:28:18+02:00</time>
      </trkpt>
      <trkpt lat="49.02105" lon="-0.46542">
        <ele>23</ele>
        <time>2021-10-06T20:28:18+02:00</time>
      </trkpt>
      <trkpt lat="49.02077" lon="-0.46549">
        <ele>21</ele>
        <time>2021-10-06T20:28:18+02:00</time>
      </trkpt>
      <trkpt lat="49.02053" lon="-0.46556">
        <ele>19</ele>
        <time>2021-10-06T20:28:18+02:00</time>
      </trkpt>
      <trkpt lat="49.02013" lon="-0.46568">
        <ele>18</ele>
        <time>2021-10-06T20:28:18+02:00</time>
      </trkpt>
      <trkpt lat="49.0199" lon="-0.46577">
        <ele>18</ele>
        <time>2021-10-06T20:28:18+02:00</time>
      </trkpt>
      <trkpt lat="49.01966" lon="-0.46587">
        <ele>19</ele>
        <time>2021-10-06T20:28:18+02:00</time>
      </trkpt>
      <trkpt lat="49.01942" lon="-0.46597">
        <ele>20</ele>
        <time>2021-10-06T20:28:18+02:00</time>
      </trkpt>
      <trkpt lat="49.01919" lon="-0.46608">
        <ele>21</ele>
        <time>2021-10-06T20:28:18+02:00</time>
      </trkpt>
      <trkpt lat="49.01895" lon="-0.46619">
        <ele>21</ele>
        <time>2021-10-06T20:28:18+02:00</time>
      </trkpt>
      <trkpt lat="49.01872" lon="-0.46633">
        <ele>20</ele>
        <time>2021-10-06T20:28:18+02:00</time>
      </trkpt>
      <trkpt lat="49.01854" lon="-0.46656">
        <ele>20</ele>
        <time>2021-10-06T20:28:18+02:00</time>
      </trkpt>
      <trkpt lat="49.01829" lon="-0.46676">
        <ele>20</ele>
        <time>2021-10-06T20:28:18+02:00</time>
      </trkpt>
      <trkpt lat="49.01805" lon="-0.46695">
        <ele>21</ele>
        <time>2021-10-06T20:28:18+02:00</time>
      </trkpt>
      <trkpt lat="49.01784" lon="-0.46712">
        <ele>21</ele>
        <time>2021-10-06T20:28:18+02:00</time>
      </trkpt>
      <trkpt lat="49.01761" lon="-0.4673">
        <ele>22</ele>
        <time>2021-10-06T20:28:18+02:00</time>
      </trkpt>
      <trkpt lat="49.0174" lon="-0.46749">
        <ele>22</ele>
        <time>2021-10-06T20:28:18+02:00</time>
      </trkpt>
      <trkpt lat="49.01717" lon="-0.46762">
        <ele>23</ele>
        <time>2021-10-06T20:28:18+02:00</time>
      </trkpt>
      <trkpt lat="49.01697" lon="-0.46785">
        <ele>24</ele>
        <time>2021-10-06T20:28:18+02:00</time>
      </trkpt>
      <trkpt lat="49.01675" lon="-0.468">
        <ele>24</ele>
        <time>2021-10-06T20:28:18+02:00</time>
      </trkpt>
      <trkpt lat="49.01656" lon="-0.4682">
        <ele>24</ele>
        <time>2021-10-06T20:28:18+02:00</time>
      </trkpt>
      <trkpt lat="49.01636" lon="-0.46838">
        <ele>24</ele>
        <time>2021-10-06T20:28:18+02:00</time>
      </trkpt>
      <trkpt lat="49.01614" lon="-0.46858">
        <ele>24</ele>
        <time>2021-10-06T20:28:18+02:00</time>
      </trkpt>
      <trkpt lat="49.01591" lon="-0.46874">
        <ele>25</ele>
        <time>2021-10-06T20:28:18+02:00</time>
      </trkpt>
      <trkpt lat="49.01571" lon="-0.46894">
        <ele>26</ele>
        <time>2021-10-06T20:28:18+02:00</time>
      </trkpt>
      <trkpt lat="49.0155" lon="-0.46914">
        <ele>27</ele>
        <time>2021-10-06T20:28:18+02:00</time>
      </trkpt>
      <trkpt lat="49.0153" lon="-0.46932">
        <ele>27</ele>
        <time>2021-10-06T20:28:18+02:00</time>
      </trkpt>
      <trkpt lat="49.01508" lon="-0.46953">
        <ele>27</ele>
        <time>2021-10-06T20:28:18+02:00</time>
      </trkpt>
      <trkpt lat="49.01487" lon="-0.46972">
        <ele>28</ele>
        <time>2021-10-06T20:28:18+02:00</time>
      </trkpt>
      <trkpt lat="49.01468" lon="-0.46993">
        <ele>27</ele>
        <time>2021-10-06T20:28:18+02:00</time>
      </trkpt>
      <trkpt lat="49.01449" lon="-0.47016">
        <ele>27</ele>
        <time>2021-10-06T20:28:18+02:00</time>
      </trkpt>
      <trkpt lat="49.01429" lon="-0.47037">
        <ele>26</ele>
        <time>2021-10-06T20:28:18+02:00</time>
      </trkpt>
      <trkpt lat="49.01407" lon="-0.47059">
        <ele>26</ele>
        <time>2021-10-06T20:28:18+02:00</time>
      </trkpt>
      <trkpt lat="49.01384" lon="-0.47079">
        <ele>26</ele>
        <time>2021-10-06T20:28:18+02:00</time>
      </trkpt>
      <trkpt lat="49.01363" lon="-0.47095">
        <ele>26</ele>
        <time>2021-10-06T20:28:18+02:00</time>
      </trkpt>
      <trkpt lat="49.01341" lon="-0.47104">
        <ele>26</ele>
        <time>2021-10-06T20:28:18+02:00</time>
      </trkpt>
      <trkpt lat="49.01315" lon="-0.47123">
        <ele>26</ele>
        <time>2021-10-06T20:28:18+02:00</time>
      </trkpt>
      <trkpt lat="49.01293" lon="-0.4714">
        <ele>26</ele>
        <time>2021-10-06T20:28:18+02:00</time>
      </trkpt>
      <trkpt lat="49.0127" lon="-0.47151">
        <ele>26</ele>
        <time>2021-10-06T20:28:18+02:00</time>
      </trkpt>
      <trkpt lat="49.01244" lon="-0.47163">
        <ele>26</ele>
        <time>2021-10-06T20:28:18+02:00</time>
      </trkpt>
      <trkpt lat="49.01218" lon="-0.47176">
        <ele>26</ele>
        <time>2021-10-06T20:28:18+02:00</time>
      </trkpt>
      <trkpt lat="49.01196" lon="-0.47186">
        <ele>25</ele>
        <time>2021-10-06T20:28:18+02:00</time>
      </trkpt>
      <trkpt lat="49.0117" lon="-0.47195">
        <ele>25</ele>
        <time>2021-10-06T20:28:18+02:00</time>
      </trkpt>
      <trkpt lat="49.01145" lon="-0.47199">
        <ele>25</ele>
        <time>2021-10-06T20:28:18+02:00</time>
      </trkpt>
      <trkpt lat="49.01117" lon="-0.47203">
        <ele>25</ele>
        <time>2021-10-06T20:28:18+02:00</time>
      </trkpt>
      <trkpt lat="49.01093" lon="-0.47205">
        <ele>25</ele>
        <time>2021-10-06T20:28:18+02:00</time>
      </trkpt>
      <trkpt lat="49.01069" lon="-0.47204">
        <ele>24</ele>
        <time>2021-10-06T20:28:18+02:00</time>
      </trkpt>
      <trkpt lat="49.01045" lon="-0.47202">
        <ele>23</ele>
        <time>2021-10-06T20:28:18+02:00</time>
      </trkpt>
      <trkpt lat="49.01021" lon="-0.47197">
        <ele>23</ele>
        <time>2021-10-06T20:28:18+02:00</time>
      </trkpt>
      <trkpt lat="49.00998" lon="-0.4719">
        <ele>23</ele>
        <time>2021-10-06T20:28:18+02:00</time>
      </trkpt>
      <trkpt lat="49.00971" lon="-0.47183">
        <ele>22</ele>
        <time>2021-10-06T20:28:18+02:00</time>
      </trkpt>
      <trkpt lat="49.00947" lon="-0.47176">
        <ele>22</ele>
        <time>2021-10-06T20:28:18+02:00</time>
      </trkpt>
      <trkpt lat="49.00925" lon="-0.47163">
        <ele>21</ele>
        <time>2021-10-06T20:28:18+02:00</time>
      </trkpt>
      <trkpt lat="49.009" lon="-0.47148">
        <ele>21</ele>
        <time>2021-10-06T20:28:18+02:00</time>
      </trkpt>
      <trkpt lat="49.00879" lon="-0.47134">
        <ele>20</ele>
        <time>2021-10-06T20:28:18+02:00</time>
      </trkpt>
      <trkpt lat="49.00858" lon="-0.47121">
        <ele>20</ele>
        <time>2021-10-06T20:28:18+02:00</time>
      </trkpt>
      <trkpt lat="49.00836" lon="-0.471">
        <ele>20</ele>
        <time>2021-10-06T20:28:18+02:00</time>
      </trkpt>
      <trkpt lat="49.00816" lon="-0.47077">
        <ele>20</ele>
        <time>2021-10-06T20:28:18+02:00</time>
      </trkpt>
      <trkpt lat="49.00796" lon="-0.47055">
        <ele>20</ele>
        <time>2021-10-06T20:28:18+02:00</time>
      </trkpt>
      <trkpt lat="49.00777" lon="-0.47033">
        <ele>20</ele>
        <time>2021-10-06T20:28:18+02:00</time>
      </trkpt>
      <trkpt lat="49.00758" lon="-0.47011">
        <ele>21</ele>
        <time>2021-10-06T20:28:18+02:00</time>
      </trkpt>
      <trkpt lat="49.00738" lon="-0.46987">
        <ele>20</ele>
        <time>2021-10-06T20:28:18+02:00</time>
      </trkpt>
      <trkpt lat="49.00716" lon="-0.46952">
        <ele>20</ele>
        <time>2021-10-06T20:28:18+02:00</time>
      </trkpt>
      <trkpt lat="49.00698" lon="-0.46925">
        <ele>20</ele>
        <time>2021-10-06T20:28:18+02:00</time>
      </trkpt>
      <trkpt lat="49.00683" lon="-0.46896">
        <ele>21</ele>
        <time>2021-10-06T20:28:18+02:00</time>
      </trkpt>
      <trkpt lat="49.00669" lon="-0.46868">
        <ele>23</ele>
        <time>2021-10-06T20:28:18+02:00</time>
      </trkpt>
      <trkpt lat="49.00655" lon="-0.46834">
        <ele>25</ele>
        <time>2021-10-06T20:28:18+02:00</time>
      </trkpt>
      <trkpt lat="49.00643" lon="-0.46799">
        <ele>27</ele>
        <time>2021-10-06T20:28:18+02:00</time>
      </trkpt>
      <trkpt lat="49.00628" lon="-0.46764">
        <ele>28</ele>
        <time>2021-10-06T20:28:18+02:00</time>
      </trkpt>
      <trkpt lat="49.00604" lon="-0.46753">
        <ele>29</ele>
        <time>2021-10-06T20:28:18+02:00</time>
      </trkpt>
      <trkpt lat="49.00588" lon="-0.46718">
        <ele>30</ele>
        <time>2021-10-06T20:28:18+02:00</time>
      </trkpt>
      <trkpt lat="49.00574" lon="-0.46684">
        <ele>30</ele>
        <time>2021-10-06T20:28:18+02:00</time>
      </trkpt>
      <trkpt lat="49.00559" lon="-0.46652">
        <ele>30</ele>
        <time>2021-10-06T20:28:18+02:00</time>
      </trkpt>
      <trkpt lat="49.00545" lon="-0.46624">
        <ele>30</ele>
        <time>2021-10-06T20:28:18+02:00</time>
      </trkpt>
      <trkpt lat="49.00528" lon="-0.46597">
        <ele>29</ele>
        <time>2021-10-06T20:28:18+02:00</time>
      </trkpt>
      <trkpt lat="49.00519" lon="-0.46557">
        <ele>29</ele>
        <time>2021-10-06T20:28:18+02:00</time>
      </trkpt>
      <trkpt lat="49.00498" lon="-0.46534">
        <ele>30</ele>
        <time>2021-10-06T20:28:18+02:00</time>
      </trkpt>
      <trkpt lat="49.00475" lon="-0.46513">
        <ele>30</ele>
        <time>2021-10-06T20:28:18+02:00</time>
      </trkpt>
      <trkpt lat="49.00453" lon="-0.46498">
        <ele>29</ele>
        <time>2021-10-06T20:28:18+02:00</time>
      </trkpt>
      <trkpt lat="49.00429" lon="-0.46487">
        <ele>29</ele>
        <time>2021-10-06T20:28:18+02:00</time>
      </trkpt>
      <trkpt lat="49.00406" lon="-0.46479">
        <ele>29</ele>
        <time>2021-10-06T20:28:18+02:00</time>
      </trkpt>
      <trkpt lat="49.00378" lon="-0.46473">
        <ele>30</ele>
        <time>2021-10-06T20:28:18+02:00</time>
      </trkpt>
      <trkpt lat="49.00355" lon="-0.46473">
        <ele>31</ele>
        <time>2021-10-06T20:28:18+02:00</time>
      </trkpt>
      <trkpt lat="49.0033" lon="-0.46471">
        <ele>32</ele>
        <time>2021-10-06T20:28:18+02:00</time>
      </trkpt>
      <trkpt lat="49.00302" lon="-0.46473">
        <ele>32</ele>
        <time>2021-10-06T20:28:18+02:00</time>
      </trkpt>
      <trkpt lat="49.00276" lon="-0.46475">
        <ele>31</ele>
        <time>2021-10-06T20:28:18+02:00</time>
      </trkpt>
      <trkpt lat="49.00252" lon="-0.46483">
        <ele>29</ele>
        <time>2021-10-06T20:28:18+02:00</time>
      </trkpt>
      <trkpt lat="49.0023" lon="-0.46494">
        <ele>28</ele>
        <time>2021-10-06T20:28:18+02:00</time>
      </trkpt>
      <trkpt lat="49.00218" lon="-0.46525">
        <ele>27</ele>
        <time>2021-10-06T20:28:18+02:00</time>
      </trkpt>
      <trkpt lat="49.00192" lon="-0.46537">
        <ele>29</ele>
        <time>2021-10-06T20:28:18+02:00</time>
      </trkpt>
      <trkpt lat="49.00174" lon="-0.46557">
        <ele>30</ele>
        <time>2021-10-06T20:28:18+02:00</time>
      </trkpt>
      <trkpt lat="49.00155" lon="-0.46582">
        <ele>30</ele>
        <time>2021-10-06T20:28:18+02:00</time>
      </trkpt>
      <trkpt lat="49.00135" lon="-0.46607">
        <ele>29</ele>
        <time>2021-10-06T20:28:18+02:00</time>
      </trkpt>
      <trkpt lat="49.00111" lon="-0.46615">
        <ele>29</ele>
        <time>2021-10-06T20:28:18+02:00</time>
      </trkpt>
      <trkpt lat="49.00095" lon="-0.46645">
        <ele>26</ele>
        <time>2021-10-06T20:28:18+02:00</time>
      </trkpt>
      <trkpt lat="49.00081" lon="-0.46676">
        <ele>24</ele>
        <time>2021-10-06T20:28:18+02:00</time>
      </trkpt>
      <trkpt lat="49.00068" lon="-0.4671">
        <ele>23</ele>
        <time>2021-10-06T20:28:18+02:00</time>
      </trkpt>
      <trkpt lat="49.00057" lon="-0.46746">
        <ele>23</ele>
        <time>2021-10-06T20:28:18+02:00</time>
      </trkpt>
      <trkpt lat="49.00047" lon="-0.46783">
        <ele>23</ele>
        <time>2021-10-06T20:28:18+02:00</time>
      </trkpt>
      <trkpt lat="49.00039" lon="-0.46816">
        <ele>23</ele>
        <time>2021-10-06T20:28:18+02:00</time>
      </trkpt>
      <trkpt lat="49.00029" lon="-0.46855">
        <ele>23</ele>
        <time>2021-10-06T20:28:18+02:00</time>
      </trkpt>
      <trkpt lat="49.00023" lon="-0.46892">
        <ele>23</ele>
        <time>2021-10-06T20:28:18+02:00</time>
      </trkpt>
      <trkpt lat="49.00017" lon="-0.46933">
        <ele>22</ele>
        <time>2021-10-06T20:28:18+02:00</time>
      </trkpt>
      <trkpt lat="49.00011" lon="-0.46974">
        <ele>22</ele>
        <time>2021-10-06T20:28:18+02:00</time>
      </trkpt>
      <trkpt lat="49.00005" lon="-0.47014">
        <ele>23</ele>
        <time>2021-10-06T20:28:18+02:00</time>
      </trkpt>
      <trkpt lat="48.99999" lon="-0.47054">
        <ele>22</ele>
        <time>2021-10-06T20:28:18+02:00</time>
      </trkpt>
      <trkpt lat="48.99993" lon="-0.47089">
        <ele>22</ele>
        <time>2021-10-06T20:28:18+02:00</time>
      </trkpt>
      <trkpt lat="48.99986" lon="-0.4713">
        <ele>23</ele>
        <time>2021-10-06T20:28:18+02:00</time>
      </trkpt>
      <trkpt lat="48.9998" lon="-0.47164">
        <ele>22</ele>
        <time>2021-10-06T20:28:18+02:00</time>
      </trkpt>
      <trkpt lat="48.99979" lon="-0.47198">
        <ele>23</ele>
        <time>2021-10-06T20:28:18+02:00</time>
      </trkpt>
      <trkpt lat="48.99974" lon="-0.47232">
        <ele>23</ele>
        <time>2021-10-06T20:28:18+02:00</time>
      </trkpt>
      <trkpt lat="48.99965" lon="-0.47269">
        <ele>23</ele>
        <time>2021-10-06T20:28:18+02:00</time>
      </trkpt>
      <trkpt lat="48.99959" lon="-0.47305">
        <ele>24</ele>
        <time>2021-10-06T20:28:18+02:00</time>
      </trkpt>
      <trkpt lat="48.99951" lon="-0.47339">
        <ele>24</ele>
        <time>2021-10-06T20:28:18+02:00</time>
      </trkpt>
      <trkpt lat="48.9994" lon="-0.47374">
        <ele>24</ele>
        <time>2021-10-06T20:28:18+02:00</time>
      </trkpt>
      <trkpt lat="48.99929" lon="-0.47412">
        <ele>24</ele>
        <time>2021-10-06T20:28:18+02:00</time>
      </trkpt>
      <trkpt lat="48.99916" lon="-0.47448">
        <ele>25</ele>
        <time>2021-10-06T20:28:18+02:00</time>
      </trkpt>
      <trkpt lat="48.99902" lon="-0.47484">
        <ele>24</ele>
        <time>2021-10-06T20:28:18+02:00</time>
      </trkpt>
      <trkpt lat="48.99888" lon="-0.47521">
        <ele>24</ele>
        <time>2021-10-06T20:28:18+02:00</time>
      </trkpt>
      <trkpt lat="48.99876" lon="-0.47554">
        <ele>24</ele>
        <time>2021-10-06T20:28:18+02:00</time>
      </trkpt>
      <trkpt lat="48.99853" lon="-0.476">
        <ele>23</ele>
        <time>2021-10-06T20:28:18+02:00</time>
      </trkpt>
      <trkpt lat="48.99839" lon="-0.47636">
        <ele>22</ele>
        <time>2021-10-06T20:28:18+02:00</time>
      </trkpt>
      <trkpt lat="48.99826" lon="-0.47668">
        <ele>21</ele>
        <time>2021-10-06T20:28:18+02:00</time>
      </trkpt>
      <trkpt lat="48.99813" lon="-0.47696">
        <ele>25</ele>
        <time>2021-10-06T20:28:18+02:00</time>
      </trkpt>
      <trkpt lat="48.99796" lon="-0.47731">
        <ele>21</ele>
        <time>2021-10-06T20:28:18+02:00</time>
      </trkpt>
      <trkpt lat="48.99781" lon="-0.4776">
        <ele>21</ele>
        <time>2021-10-06T20:28:18+02:00</time>
      </trkpt>
      <trkpt lat="48.99767" lon="-0.47786">
        <ele>21</ele>
        <time>2021-10-06T20:28:18+02:00</time>
      </trkpt>
      <trkpt lat="48.9975" lon="-0.47817">
        <ele>20</ele>
        <time>2021-10-06T20:28:18+02:00</time>
      </trkpt>
      <trkpt lat="48.99733" lon="-0.47844">
        <ele>21</ele>
        <time>2021-10-06T20:28:18+02:00</time>
      </trkpt>
      <trkpt lat="48.99716" lon="-0.4787">
        <ele>22</ele>
        <time>2021-10-06T20:28:18+02:00</time>
      </trkpt>
      <trkpt lat="48.99697" lon="-0.47898">
        <ele>23</ele>
        <time>2021-10-06T20:28:18+02:00</time>
      </trkpt>
      <trkpt lat="48.9968" lon="-0.47925">
        <ele>23</ele>
        <time>2021-10-06T20:28:18+02:00</time>
      </trkpt>
      <trkpt lat="48.99661" lon="-0.47953">
        <ele>23</ele>
        <time>2021-10-06T20:28:18+02:00</time>
      </trkpt>
      <trkpt lat="48.9963" lon="-0.47996">
        <ele>23</ele>
        <time>2021-10-06T20:28:18+02:00</time>
      </trkpt>
      <trkpt lat="48.99611" lon="-0.4802">
        <ele>22</ele>
        <time>2021-10-06T20:28:18+02:00</time>
      </trkpt>
      <trkpt lat="48.99591" lon="-0.48046">
        <ele>21</ele>
        <time>2021-10-06T20:28:18+02:00</time>
      </trkpt>
      <trkpt lat="48.9957" lon="-0.48072">
        <ele>21</ele>
        <time>2021-10-06T20:28:18+02:00</time>
      </trkpt>
      <trkpt lat="48.99551" lon="-0.48098">
        <ele>21</ele>
        <time>2021-10-06T20:28:18+02:00</time>
      </trkpt>
      <trkpt lat="48.99532" lon="-0.48123">
        <ele>22</ele>
        <time>2021-10-06T20:28:18+02:00</time>
      </trkpt>
      <trkpt lat="48.99523" lon="-0.48154">
        <ele>22</ele>
        <time>2021-10-06T20:28:18+02:00</time>
      </trkpt>
      <trkpt lat="48.99505" lon="-0.48176">
        <ele>23</ele>
        <time>2021-10-06T20:28:18+02:00</time>
      </trkpt>
      <trkpt lat="48.99485" lon="-0.48197">
        <ele>25</ele>
        <time>2021-10-06T20:28:18+02:00</time>
      </trkpt>
      <trkpt lat="48.99464" lon="-0.48215">
        <ele>29</ele>
        <time>2021-10-06T20:28:18+02:00</time>
      </trkpt>
      <trkpt lat="48.99441" lon="-0.48226">
        <ele>36</ele>
        <time>2021-10-06T20:28:18+02:00</time>
      </trkpt>
      <trkpt lat="48.99417" lon="-0.48228">
        <ele>41</ele>
        <time>2021-10-06T20:28:18+02:00</time>
      </trkpt>
      <trkpt lat="48.99312" lon="-0.48254">
        <ele>33</ele>
        <time>2021-10-06T20:28:18+02:00</time>
      </trkpt>
      <trkpt lat="48.99288" lon="-0.48247">
        <ele>29</ele>
        <time>2021-10-06T20:28:18+02:00</time>
      </trkpt>
      <trkpt lat="48.99263" lon="-0.48239">
        <ele>27</ele>
        <time>2021-10-06T20:28:18+02:00</time>
      </trkpt>
      <trkpt lat="48.99238" lon="-0.48233">
        <ele>26</ele>
        <time>2021-10-06T20:28:18+02:00</time>
      </trkpt>
      <trkpt lat="48.99212" lon="-0.48222">
        <ele>26</ele>
        <time>2021-10-06T20:28:18+02:00</time>
      </trkpt>
      <trkpt lat="48.99188" lon="-0.48217">
        <ele>26</ele>
        <time>2021-10-06T20:28:18+02:00</time>
      </trkpt>
      <trkpt lat="48.99164" lon="-0.48211">
        <ele>26</ele>
        <time>2021-10-06T20:28:18+02:00</time>
      </trkpt>
      <trkpt lat="48.99141" lon="-0.48208">
        <ele>26</ele>
        <time>2021-10-06T20:28:18+02:00</time>
      </trkpt>
      <trkpt lat="48.99116" lon="-0.482">
        <ele>26</ele>
        <time>2021-10-06T20:28:18+02:00</time>
      </trkpt>
      <trkpt lat="48.99091" lon="-0.4819">
        <ele>27</ele>
        <time>2021-10-06T20:28:18+02:00</time>
      </trkpt>
      <trkpt lat="48.99066" lon="-0.48182">
        <ele>27</ele>
        <time>2021-10-06T20:28:18+02:00</time>
      </trkpt>
      <trkpt lat="48.99042" lon="-0.48175">
        <ele>27</ele>
        <time>2021-10-06T20:28:18+02:00</time>
      </trkpt>
      <trkpt lat="48.99019" lon="-0.48169">
        <ele>28</ele>
        <time>2021-10-06T20:28:18+02:00</time>
      </trkpt>
      <trkpt lat="48.98995" lon="-0.48163">
        <ele>28</ele>
        <time>2021-10-06T20:28:18+02:00</time>
      </trkpt>
      <trkpt lat="48.98972" lon="-0.48162">
        <ele>28</ele>
        <time>2021-10-06T20:28:18+02:00</time>
      </trkpt>
      <trkpt lat="48.98948" lon="-0.48158">
        <ele>27</ele>
        <time>2021-10-06T20:28:18+02:00</time>
      </trkpt>
      <trkpt lat="48.98925" lon="-0.48154">
        <ele>34</ele>
        <time>2021-10-06T20:28:18+02:00</time>
      </trkpt>
      <trkpt lat="48.98901" lon="-0.48157">
        <ele>33</ele>
        <time>2021-10-06T20:28:18+02:00</time>
      </trkpt>
      <trkpt lat="48.98879" lon="-0.48164">
        <ele>29</ele>
        <time>2021-10-06T20:28:18+02:00</time>
      </trkpt>
      <trkpt lat="48.98902" lon="-0.48169">
        <ele>28</ele>
        <time>2021-10-06T20:28:18+02:00</time>
      </trkpt>
      <trkpt lat="48.98925" lon="-0.48165">
        <ele>29</ele>
        <time>2021-10-06T20:28:18+02:00</time>
      </trkpt>
      <trkpt lat="48.98942" lon="-0.48193">
        <ele>29</ele>
        <time>2021-10-06T20:28:18+02:00</time>
      </trkpt>
      <trkpt lat="48.98962" lon="-0.48166">
        <ele>29</ele>
        <time>2021-10-06T20:28:18+02:00</time>
      </trkpt>
      <trkpt lat="48.98985" lon="-0.48171">
        <ele>29</ele>
        <time>2021-10-06T20:28:18+02:00</time>
      </trkpt>
      <trkpt lat="48.99006" lon="-0.48186">
        <ele>26</ele>
        <time>2021-10-06T20:28:18+02:00</time>
      </trkpt>
      <trkpt lat="48.98987" lon="-0.48163">
        <ele>28</ele>
        <time>2021-10-06T20:28:18+02:00</time>
      </trkpt>
      <trkpt lat="48.98964" lon="-0.4816">
        <ele>28</ele>
        <time>2021-10-06T20:28:18+02:00</time>
      </trkpt>
      <trkpt lat="48.98941" lon="-0.48155">
        <ele>28</ele>
        <time>2021-10-06T20:28:18+02:00</time>
      </trkpt>
      <trkpt lat="48.98918" lon="-0.48155">
        <ele>28</ele>
        <time>2021-10-06T20:28:18+02:00</time>
      </trkpt>
      <trkpt lat="48.98895" lon="-0.48158">
        <ele>28</ele>
        <time>2021-10-06T20:28:18+02:00</time>
      </trkpt>
      <trkpt lat="48.98871" lon="-0.48162">
        <ele>29</ele>
        <time>2021-10-06T20:28:18+02:00</time>
      </trkpt>
      <trkpt lat="48.98848" lon="-0.4817">
        <ele>30</ele>
        <time>2021-10-06T20:28:18+02:00</time>
      </trkpt>
      <trkpt lat="48.98823" lon="-0.48174">
        <ele>32</ele>
        <time>2021-10-06T20:28:18+02:00</time>
      </trkpt>
      <trkpt lat="48.98799" lon="-0.48182">
        <ele>33</ele>
        <time>2021-10-06T20:28:18+02:00</time>
      </trkpt>
      <trkpt lat="48.98776" lon="-0.48191">
        <ele>33</ele>
        <time>2021-10-06T20:28:18+02:00</time>
      </trkpt>
      <trkpt lat="48.98754" lon="-0.48201">
        <ele>33</ele>
        <time>2021-10-06T20:28:18+02:00</time>
      </trkpt>
      <trkpt lat="48.98726" lon="-0.48209">
        <ele>33</ele>
        <time>2021-10-06T20:28:18+02:00</time>
      </trkpt>
      <trkpt lat="48.987" lon="-0.48217">
        <ele>32</ele>
        <time>2021-10-06T20:28:18+02:00</time>
      </trkpt>
      <trkpt lat="48.98676" lon="-0.48215">
        <ele>31</ele>
        <time>2021-10-06T20:28:18+02:00</time>
      </trkpt>
      <trkpt lat="48.98653" lon="-0.48221">
        <ele>30</ele>
        <time>2021-10-06T20:28:18+02:00</time>
      </trkpt>
      <trkpt lat="48.98631" lon="-0.48226">
        <ele>29</ele>
        <time>2021-10-06T20:28:18+02:00</time>
      </trkpt>
      <trkpt lat="48.98606" lon="-0.48231">
        <ele>28</ele>
        <time>2021-10-06T20:28:18+02:00</time>
      </trkpt>
      <trkpt lat="48.98579" lon="-0.48234">
        <ele>28</ele>
        <time>2021-10-06T20:28:18+02:00</time>
      </trkpt>
      <trkpt lat="48.98554" lon="-0.48236">
        <ele>27</ele>
        <time>2021-10-06T20:28:18+02:00</time>
      </trkpt>
      <trkpt lat="48.98529" lon="-0.48237">
        <ele>27</ele>
        <time>2021-10-06T20:28:18+02:00</time>
      </trkpt>
      <trkpt lat="48.98505" lon="-0.48237">
        <ele>26</ele>
        <time>2021-10-06T20:28:18+02:00</time>
      </trkpt>
      <trkpt lat="48.98482" lon="-0.48238">
        <ele>26</ele>
        <time>2021-10-06T20:28:18+02:00</time>
      </trkpt>
      <trkpt lat="48.98453" lon="-0.48237">
        <ele>26</ele>
        <time>2021-10-06T20:28:18+02:00</time>
      </trkpt>
      <trkpt lat="48.98427" lon="-0.48233">
        <ele>26</ele>
        <time>2021-10-06T20:28:18+02:00</time>
      </trkpt>
      <trkpt lat="48.98399" lon="-0.48228">
        <ele>26</ele>
        <time>2021-10-06T20:28:18+02:00</time>
      </trkpt>
      <trkpt lat="48.98376" lon="-0.48225">
        <ele>26</ele>
        <time>2021-10-06T20:28:18+02:00</time>
      </trkpt>
      <trkpt lat="48.98348" lon="-0.4822">
        <ele>26</ele>
        <time>2021-10-06T20:28:18+02:00</time>
      </trkpt>
      <trkpt lat="48.98326" lon="-0.48216">
        <ele>27</ele>
        <time>2021-10-06T20:28:18+02:00</time>
      </trkpt>
      <trkpt lat="48.98299" lon="-0.48211">
        <ele>27</ele>
        <time>2021-10-06T20:28:18+02:00</time>
      </trkpt>
      <trkpt lat="48.98272" lon="-0.48207">
        <ele>28</ele>
        <time>2021-10-06T20:28:18+02:00</time>
      </trkpt>
      <trkpt lat="48.9825" lon="-0.48203">
        <ele>28</ele>
        <time>2021-10-06T20:28:18+02:00</time>
      </trkpt>
      <trkpt lat="48.98221" lon="-0.48197">
        <ele>28</ele>
        <time>2021-10-06T20:28:18+02:00</time>
      </trkpt>
      <trkpt lat="48.98197" lon="-0.48193">
        <ele>28</ele>
        <time>2021-10-06T20:28:18+02:00</time>
      </trkpt>
      <trkpt lat="48.98175" lon="-0.48189">
        <ele>29</ele>
        <time>2021-10-06T20:28:18+02:00</time>
      </trkpt>
      <trkpt lat="48.98151" lon="-0.48184">
        <ele>29</ele>
        <time>2021-10-06T20:28:18+02:00</time>
      </trkpt>
      <trkpt lat="48.98127" lon="-0.48179">
        <ele>29</ele>
        <time>2021-10-06T20:28:18+02:00</time>
      </trkpt>
      <trkpt lat="48.981" lon="-0.48173">
        <ele>29</ele>
        <time>2021-10-06T20:28:18+02:00</time>
      </trkpt>
      <trkpt lat="48.98076" lon="-0.48167">
        <ele>29</ele>
        <time>2021-10-06T20:28:18+02:00</time>
      </trkpt>
      <trkpt lat="48.98052" lon="-0.48161">
        <ele>29</ele>
        <time>2021-10-06T20:28:18+02:00</time>
      </trkpt>
      <trkpt lat="48.98029" lon="-0.48156">
        <ele>29</ele>
        <time>2021-10-06T20:28:18+02:00</time>
      </trkpt>
      <trkpt lat="48.98005" lon="-0.48151">
        <ele>29</ele>
        <time>2021-10-06T20:28:18+02:00</time>
      </trkpt>
      <trkpt lat="48.97983" lon="-0.48146">
        <ele>29</ele>
        <time>2021-10-06T20:28:18+02:00</time>
      </trkpt>
      <trkpt lat="48.97955" lon="-0.4814">
        <ele>30</ele>
        <time>2021-10-06T20:28:18+02:00</time>
      </trkpt>
      <trkpt lat="48.97933" lon="-0.48135">
        <ele>30</ele>
        <time>2021-10-06T20:28:18+02:00</time>
      </trkpt>
      <trkpt lat="48.97906" lon="-0.48129">
        <ele>31</ele>
        <time>2021-10-06T20:28:18+02:00</time>
      </trkpt>
      <trkpt lat="48.97884" lon="-0.48125">
        <ele>31</ele>
        <time>2021-10-06T20:28:18+02:00</time>
      </trkpt>
      <trkpt lat="48.9786" lon="-0.48121">
        <ele>30</ele>
        <time>2021-10-06T20:28:18+02:00</time>
      </trkpt>
      <trkpt lat="48.97837" lon="-0.48116">
        <ele>31</ele>
        <time>2021-10-06T20:28:18+02:00</time>
      </trkpt>
      <trkpt lat="48.9781" lon="-0.48111">
        <ele>31</ele>
        <time>2021-10-06T20:28:18+02:00</time>
      </trkpt>
      <trkpt lat="48.97782" lon="-0.48106">
        <ele>31</ele>
        <time>2021-10-06T20:28:18+02:00</time>
      </trkpt>
      <trkpt lat="48.97741" lon="-0.48099">
        <ele>31</ele>
        <time>2021-10-06T20:28:18+02:00</time>
      </trkpt>
      <trkpt lat="48.97717" lon="-0.48095">
        <ele>30</ele>
        <time>2021-10-06T20:28:18+02:00</time>
      </trkpt>
      <trkpt lat="48.97692" lon="-0.48092">
        <ele>31</ele>
        <time>2021-10-06T20:28:18+02:00</time>
      </trkpt>
      <trkpt lat="48.97666" lon="-0.48091">
        <ele>31</ele>
        <time>2021-10-06T20:28:18+02:00</time>
      </trkpt>
      <trkpt lat="48.97638" lon="-0.4809">
        <ele>31</ele>
        <time>2021-10-06T20:28:18+02:00</time>
      </trkpt>
      <trkpt lat="48.97612" lon="-0.48094">
        <ele>32</ele>
        <time>2021-10-06T20:28:18+02:00</time>
      </trkpt>
      <trkpt lat="48.97583" lon="-0.48101">
        <ele>31</ele>
        <time>2021-10-06T20:28:18+02:00</time>
      </trkpt>
      <trkpt lat="48.97556" lon="-0.48113">
        <ele>31</ele>
        <time>2021-10-06T20:28:18+02:00</time>
      </trkpt>
      <trkpt lat="48.97534" lon="-0.48127">
        <ele>30</ele>
        <time>2021-10-06T20:28:18+02:00</time>
      </trkpt>
      <trkpt lat="48.97512" lon="-0.48144">
        <ele>26</ele>
        <time>2021-10-06T20:28:18+02:00</time>
      </trkpt>
      <trkpt lat="48.97475" lon="-0.48172">
        <ele>24</ele>
        <time>2021-10-06T20:28:18+02:00</time>
      </trkpt>
      <trkpt lat="48.9745" lon="-0.4819">
        <ele>25</ele>
        <time>2021-10-06T20:28:18+02:00</time>
      </trkpt>
      <trkpt lat="48.97429" lon="-0.48205">
        <ele>29</ele>
        <time>2021-10-06T20:28:18+02:00</time>
      </trkpt>
      <trkpt lat="48.97407" lon="-0.4822">
        <ele>31</ele>
        <time>2021-10-06T20:28:18+02:00</time>
      </trkpt>
      <trkpt lat="48.97377" lon="-0.48233">
        <ele>30</ele>
        <time>2021-10-06T20:28:18+02:00</time>
      </trkpt>
      <trkpt lat="48.97354" lon="-0.48242">
        <ele>31</ele>
        <time>2021-10-06T20:28:18+02:00</time>
      </trkpt>
      <trkpt lat="48.97328" lon="-0.48251">
        <ele>31</ele>
        <time>2021-10-06T20:28:18+02:00</time>
      </trkpt>
      <trkpt lat="48.973" lon="-0.48256">
        <ele>30</ele>
        <time>2021-10-06T20:28:18+02:00</time>
      </trkpt>
      <trkpt lat="48.97277" lon="-0.48259">
        <ele>30</ele>
        <time>2021-10-06T20:28:18+02:00</time>
      </trkpt>
      <trkpt lat="48.97253" lon="-0.48261">
        <ele>30</ele>
        <time>2021-10-06T20:28:18+02:00</time>
      </trkpt>
      <trkpt lat="48.97231" lon="-0.48261">
        <ele>30</ele>
        <time>2021-10-06T20:28:18+02:00</time>
      </trkpt>
      <trkpt lat="48.97206" lon="-0.48259">
        <ele>30</ele>
        <time>2021-10-06T20:28:18+02:00</time>
      </trkpt>
      <trkpt lat="48.97179" lon="-0.48253">
        <ele>30</ele>
        <time>2021-10-06T20:28:18+02:00</time>
      </trkpt>
      <trkpt lat="48.97154" lon="-0.48249">
        <ele>30</ele>
        <time>2021-10-06T20:28:18+02:00</time>
      </trkpt>
      <trkpt lat="48.97128" lon="-0.48244">
        <ele>30</ele>
        <time>2021-10-06T20:28:18+02:00</time>
      </trkpt>
      <trkpt lat="48.97106" lon="-0.48239">
        <ele>31</ele>
        <time>2021-10-06T20:28:18+02:00</time>
      </trkpt>
      <trkpt lat="48.97083" lon="-0.48235">
        <ele>32</ele>
        <time>2021-10-06T20:28:18+02:00</time>
      </trkpt>
      <trkpt lat="48.9706" lon="-0.4823">
        <ele>32</ele>
        <time>2021-10-06T20:28:18+02:00</time>
      </trkpt>
      <trkpt lat="48.97036" lon="-0.48225">
        <ele>33</ele>
        <time>2021-10-06T20:28:18+02:00</time>
      </trkpt>
      <trkpt lat="48.97014" lon="-0.48212">
        <ele>34</ele>
        <time>2021-10-06T20:28:18+02:00</time>
      </trkpt>
      <trkpt lat="48.96988" lon="-0.48205">
        <ele>34</ele>
        <time>2021-10-06T20:28:18+02:00</time>
      </trkpt>
      <trkpt lat="48.96965" lon="-0.48199">
        <ele>34</ele>
        <time>2021-10-06T20:28:18+02:00</time>
      </trkpt>
      <trkpt lat="48.96939" lon="-0.48188">
        <ele>34</ele>
        <time>2021-10-06T20:28:18+02:00</time>
      </trkpt>
      <trkpt lat="48.96914" lon="-0.48186">
        <ele>34</ele>
        <time>2021-10-06T20:28:18+02:00</time>
      </trkpt>
      <trkpt lat="48.9689" lon="-0.4818">
        <ele>35</ele>
        <time>2021-10-06T20:28:18+02:00</time>
      </trkpt>
      <trkpt lat="48.96868" lon="-0.48173">
        <ele>34</ele>
        <time>2021-10-06T20:28:18+02:00</time>
      </trkpt>
      <trkpt lat="48.96845" lon="-0.4817">
        <ele>34</ele>
        <time>2021-10-06T20:28:18+02:00</time>
      </trkpt>
      <trkpt lat="48.9682" lon="-0.48166">
        <ele>35</ele>
        <time>2021-10-06T20:28:18+02:00</time>
      </trkpt>
      <trkpt lat="48.96797" lon="-0.48158">
        <ele>35</ele>
        <time>2021-10-06T20:28:18+02:00</time>
      </trkpt>
      <trkpt lat="48.96773" lon="-0.48152">
        <ele>35</ele>
        <time>2021-10-06T20:28:18+02:00</time>
      </trkpt>
      <trkpt lat="48.96753" lon="-0.4813">
        <ele>34</ele>
        <time>2021-10-06T20:28:18+02:00</time>
      </trkpt>
      <trkpt lat="48.96726" lon="-0.48135">
        <ele>34</ele>
        <time>2021-10-06T20:28:18+02:00</time>
      </trkpt>
      <trkpt lat="48.96701" lon="-0.48125">
        <ele>34</ele>
        <time>2021-10-06T20:28:18+02:00</time>
      </trkpt>
      <trkpt lat="48.96678" lon="-0.48119">
        <ele>34</ele>
        <time>2021-10-06T20:28:18+02:00</time>
      </trkpt>
      <trkpt lat="48.96653" lon="-0.48112">
        <ele>34</ele>
        <time>2021-10-06T20:28:18+02:00</time>
      </trkpt>
      <trkpt lat="48.96627" lon="-0.48106">
        <ele>34</ele>
        <time>2021-10-06T20:28:18+02:00</time>
      </trkpt>
      <trkpt lat="48.96604" lon="-0.48104">
        <ele>35</ele>
        <time>2021-10-06T20:28:18+02:00</time>
      </trkpt>
      <trkpt lat="48.96581" lon="-0.48101">
        <ele>35</ele>
        <time>2021-10-06T20:28:18+02:00</time>
      </trkpt>
      <trkpt lat="48.96558" lon="-0.48097">
        <ele>35</ele>
        <time>2021-10-06T20:28:18+02:00</time>
      </trkpt>
      <trkpt lat="48.96532" lon="-0.48089">
        <ele>35</ele>
        <time>2021-10-06T20:28:18+02:00</time>
      </trkpt>
      <trkpt lat="48.96506" lon="-0.48083">
        <ele>35</ele>
        <time>2021-10-06T20:28:18+02:00</time>
      </trkpt>
      <trkpt lat="48.96479" lon="-0.4808">
        <ele>35</ele>
        <time>2021-10-06T20:28:18+02:00</time>
      </trkpt>
      <trkpt lat="48.96452" lon="-0.48071">
        <ele>35</ele>
        <time>2021-10-06T20:28:18+02:00</time>
      </trkpt>
      <trkpt lat="48.96426" lon="-0.48064">
        <ele>34</ele>
        <time>2021-10-06T20:28:18+02:00</time>
      </trkpt>
      <trkpt lat="48.96401" lon="-0.48056">
        <ele>34</ele>
        <time>2021-10-06T20:28:18+02:00</time>
      </trkpt>
      <trkpt lat="48.96377" lon="-0.48064">
        <ele>34</ele>
        <time>2021-10-06T20:28:18+02:00</time>
      </trkpt>
      <trkpt lat="48.96352" lon="-0.48063">
        <ele>34</ele>
        <time>2021-10-06T20:28:18+02:00</time>
      </trkpt>
      <trkpt lat="48.96324" lon="-0.48063">
        <ele>33</ele>
        <time>2021-10-06T20:28:18+02:00</time>
      </trkpt>
      <trkpt lat="48.96301" lon="-0.4807">
        <ele>33</ele>
        <time>2021-10-06T20:28:18+02:00</time>
      </trkpt>
      <trkpt lat="48.96278" lon="-0.4807">
        <ele>33</ele>
        <time>2021-10-06T20:28:18+02:00</time>
      </trkpt>
      <trkpt lat="48.96252" lon="-0.48072">
        <ele>32</ele>
        <time>2021-10-06T20:28:18+02:00</time>
      </trkpt>
      <trkpt lat="48.96227" lon="-0.48079">
        <ele>32</ele>
        <time>2021-10-06T20:28:18+02:00</time>
      </trkpt>
      <trkpt lat="48.96202" lon="-0.48086">
        <ele>32</ele>
        <time>2021-10-06T20:28:18+02:00</time>
      </trkpt>
      <trkpt lat="48.9618" lon="-0.48096">
        <ele>32</ele>
        <time>2021-10-06T20:28:18+02:00</time>
      </trkpt>
      <trkpt lat="48.96156" lon="-0.48109">
        <ele>32</ele>
        <time>2021-10-06T20:28:18+02:00</time>
      </trkpt>
      <trkpt lat="48.9613" lon="-0.48125">
        <ele>32</ele>
        <time>2021-10-06T20:28:18+02:00</time>
      </trkpt>
      <trkpt lat="48.96109" lon="-0.4814">
        <ele>33</ele>
        <time>2021-10-06T20:28:18+02:00</time>
      </trkpt>
      <trkpt lat="48.96089" lon="-0.48157">
        <ele>33</ele>
        <time>2021-10-06T20:28:18+02:00</time>
      </trkpt>
      <trkpt lat="48.96072" lon="-0.48179">
        <ele>33</ele>
        <time>2021-10-06T20:28:18+02:00</time>
      </trkpt>
      <trkpt lat="48.96053" lon="-0.48205">
        <ele>33</ele>
        <time>2021-10-06T20:28:18+02:00</time>
      </trkpt>
      <trkpt lat="48.96036" lon="-0.48231">
        <ele>34</ele>
        <time>2021-10-06T20:28:18+02:00</time>
      </trkpt>
      <trkpt lat="48.96019" lon="-0.48256">
        <ele>34</ele>
        <time>2021-10-06T20:28:18+02:00</time>
      </trkpt>
      <trkpt lat="48.96003" lon="-0.48281">
        <ele>34</ele>
        <time>2021-10-06T20:28:18+02:00</time>
      </trkpt>
      <trkpt lat="48.95984" lon="-0.48311">
        <ele>34</ele>
        <time>2021-10-06T20:28:18+02:00</time>
      </trkpt>
      <trkpt lat="48.95969" lon="-0.48336">
        <ele>34</ele>
        <time>2021-10-06T20:28:18+02:00</time>
      </trkpt>
      <trkpt lat="48.9595" lon="-0.48367">
        <ele>33</ele>
        <time>2021-10-06T20:28:18+02:00</time>
      </trkpt>
      <trkpt lat="48.95934" lon="-0.48394">
        <ele>32</ele>
        <time>2021-10-06T20:28:18+02:00</time>
      </trkpt>
      <trkpt lat="48.95918" lon="-0.4842">
        <ele>32</ele>
        <time>2021-10-06T20:28:18+02:00</time>
      </trkpt>
      <trkpt lat="48.95902" lon="-0.48446">
        <ele>31</ele>
        <time>2021-10-06T20:28:18+02:00</time>
      </trkpt>
      <trkpt lat="48.95884" lon="-0.48476">
        <ele>31</ele>
        <time>2021-10-06T20:28:18+02:00</time>
      </trkpt>
      <trkpt lat="48.95859" lon="-0.48518">
        <ele>31</ele>
        <time>2021-10-06T20:28:18+02:00</time>
      </trkpt>
      <trkpt lat="48.95841" lon="-0.48548">
        <ele>31</ele>
        <time>2021-10-06T20:28:18+02:00</time>
      </trkpt>
      <trkpt lat="48.95823" lon="-0.48578">
        <ele>31</ele>
        <time>2021-10-06T20:28:18+02:00</time>
      </trkpt>
      <trkpt lat="48.95806" lon="-0.48608">
        <ele>31</ele>
        <time>2021-10-06T20:28:18+02:00</time>
      </trkpt>
      <trkpt lat="48.95775" lon="-0.48659">
        <ele>31</ele>
        <time>2021-10-06T20:28:18+02:00</time>
      </trkpt>
      <trkpt lat="48.95758" lon="-0.48688">
        <ele>31</ele>
        <time>2021-10-06T20:28:18+02:00</time>
      </trkpt>
      <trkpt lat="48.9574" lon="-0.4872">
        <ele>31</ele>
        <time>2021-10-06T20:28:18+02:00</time>
      </trkpt>
      <trkpt lat="48.95721" lon="-0.48751">
        <ele>31</ele>
        <time>2021-10-06T20:28:18+02:00</time>
      </trkpt>
      <trkpt lat="48.95703" lon="-0.48781">
        <ele>32</ele>
        <time>2021-10-06T20:28:18+02:00</time>
      </trkpt>
      <trkpt lat="48.95686" lon="-0.4881">
        <ele>32</ele>
        <time>2021-10-06T20:28:18+02:00</time>
      </trkpt>
      <trkpt lat="48.95669" lon="-0.48841">
        <ele>33</ele>
        <time>2021-10-06T20:28:18+02:00</time>
      </trkpt>
      <trkpt lat="48.95651" lon="-0.48872">
        <ele>33</ele>
        <time>2021-10-06T20:28:18+02:00</time>
      </trkpt>
      <trkpt lat="48.95633" lon="-0.48904">
        <ele>33</ele>
        <time>2021-10-06T20:28:18+02:00</time>
      </trkpt>
      <trkpt lat="48.95615" lon="-0.48935">
        <ele>33</ele>
        <time>2021-10-06T20:28:18+02:00</time>
      </trkpt>
      <trkpt lat="48.956" lon="-0.48961">
        <ele>33</ele>
        <time>2021-10-06T20:28:18+02:00</time>
      </trkpt>
      <trkpt lat="48.95584" lon="-0.48993">
        <ele>32</ele>
        <time>2021-10-06T20:28:18+02:00</time>
      </trkpt>
      <trkpt lat="48.9557" lon="-0.49024">
        <ele>32</ele>
        <time>2021-10-06T20:28:18+02:00</time>
      </trkpt>
      <trkpt lat="48.95555" lon="-0.49058">
        <ele>32</ele>
        <time>2021-10-06T20:28:18+02:00</time>
      </trkpt>
      <trkpt lat="48.9554" lon="-0.4909">
        <ele>32</ele>
        <time>2021-10-06T20:28:18+02:00</time>
      </trkpt>
      <trkpt lat="48.95527" lon="-0.49119">
        <ele>31</ele>
        <time>2021-10-06T20:28:18+02:00</time>
      </trkpt>
      <trkpt lat="48.95516" lon="-0.49152">
        <ele>32</ele>
        <time>2021-10-06T20:28:18+02:00</time>
      </trkpt>
      <trkpt lat="48.95508" lon="-0.49184">
        <ele>31</ele>
        <time>2021-10-06T20:28:18+02:00</time>
      </trkpt>
      <trkpt lat="48.95499" lon="-0.49216">
        <ele>31</ele>
        <time>2021-10-06T20:28:18+02:00</time>
      </trkpt>
      <trkpt lat="48.95489" lon="-0.49256">
        <ele>32</ele>
        <time>2021-10-06T20:28:18+02:00</time>
      </trkpt>
      <trkpt lat="48.95481" lon="-0.49295">
        <ele>33</ele>
        <time>2021-10-06T20:28:18+02:00</time>
      </trkpt>
      <trkpt lat="48.95473" lon="-0.49332">
        <ele>33</ele>
        <time>2021-10-06T20:28:18+02:00</time>
      </trkpt>
      <trkpt lat="48.95465" lon="-0.49366">
        <ele>34</ele>
        <time>2021-10-06T20:28:18+02:00</time>
      </trkpt>
      <trkpt lat="48.9546" lon="-0.49401">
        <ele>35</ele>
        <time>2021-10-06T20:28:18+02:00</time>
      </trkpt>
      <trkpt lat="48.95455" lon="-0.49437">
        <ele>35</ele>
        <time>2021-10-06T20:28:18+02:00</time>
      </trkpt>
      <trkpt lat="48.95449" lon="-0.49476">
        <ele>35</ele>
        <time>2021-10-06T20:28:18+02:00</time>
      </trkpt>
      <trkpt lat="48.9546" lon="-0.49511">
        <ele>35</ele>
        <time>2021-10-06T20:28:18+02:00</time>
      </trkpt>
      <trkpt lat="48.95454" lon="-0.49547">
        <ele>35</ele>
        <time>2021-10-06T20:28:18+02:00</time>
      </trkpt>
      <trkpt lat="48.9545" lon="-0.49585">
        <ele>34</ele>
        <time>2021-10-06T20:28:18+02:00</time>
      </trkpt>
      <trkpt lat="48.95447" lon="-0.4962">
        <ele>34</ele>
        <time>2021-10-06T20:28:18+02:00</time>
      </trkpt>
      <trkpt lat="48.95441" lon="-0.49658">
        <ele>34</ele>
        <time>2021-10-06T20:28:18+02:00</time>
      </trkpt>
      <trkpt lat="48.95434" lon="-0.49694">
        <ele>33</ele>
        <time>2021-10-06T20:28:18+02:00</time>
      </trkpt>
      <trkpt lat="48.95426" lon="-0.49734">
        <ele>32</ele>
        <time>2021-10-06T20:28:18+02:00</time>
      </trkpt>
      <trkpt lat="48.95421" lon="-0.49768">
        <ele>32</ele>
        <time>2021-10-06T20:28:18+02:00</time>
      </trkpt>
      <trkpt lat="48.95415" lon="-0.49805">
        <ele>31</ele>
        <time>2021-10-06T20:28:18+02:00</time>
      </trkpt>
      <trkpt lat="48.95408" lon="-0.4984">
        <ele>31</ele>
        <time>2021-10-06T20:28:18+02:00</time>
      </trkpt>
      <trkpt lat="48.95402" lon="-0.49879">
        <ele>29</ele>
        <time>2021-10-06T20:28:18+02:00</time>
      </trkpt>
      <trkpt lat="48.95396" lon="-0.49913">
        <ele>28</ele>
        <time>2021-10-06T20:28:18+02:00</time>
      </trkpt>
      <trkpt lat="48.95392" lon="-0.49954">
        <ele>28</ele>
        <time>2021-10-06T20:28:18+02:00</time>
      </trkpt>
      <trkpt lat="48.95386" lon="-0.4999">
        <ele>29</ele>
        <time>2021-10-06T20:28:18+02:00</time>
      </trkpt>
      <trkpt lat="48.95381" lon="-0.50029">
        <ele>31</ele>
        <time>2021-10-06T20:28:18+02:00</time>
      </trkpt>
      <trkpt lat="48.95373" lon="-0.50066">
        <ele>33</ele>
        <time>2021-10-06T20:28:18+02:00</time>
      </trkpt>
      <trkpt lat="48.95364" lon="-0.50098">
        <ele>34</ele>
        <time>2021-10-06T20:28:18+02:00</time>
      </trkpt>
      <trkpt lat="48.95352" lon="-0.5013">
        <ele>35</ele>
        <time>2021-10-06T20:28:18+02:00</time>
      </trkpt>
      <trkpt lat="48.95339" lon="-0.50164">
        <ele>36</ele>
        <time>2021-10-06T20:28:18+02:00</time>
      </trkpt>
      <trkpt lat="48.95324" lon="-0.50194">
        <ele>40</ele>
        <time>2021-10-06T20:28:18+02:00</time>
      </trkpt>
      <trkpt lat="48.95308" lon="-0.50221">
        <ele>37</ele>
        <time>2021-10-06T20:28:18+02:00</time>
      </trkpt>
      <trkpt lat="48.95292" lon="-0.50246">
        <ele>37</ele>
        <time>2021-10-06T20:28:18+02:00</time>
      </trkpt>
      <trkpt lat="48.95276" lon="-0.50271">
        <ele>36</ele>
        <time>2021-10-06T20:28:18+02:00</time>
      </trkpt>
      <trkpt lat="48.95254" lon="-0.50294">
        <ele>36</ele>
        <time>2021-10-06T20:28:18+02:00</time>
      </trkpt>
      <trkpt lat="48.95231" lon="-0.50311">
        <ele>35</ele>
        <time>2021-10-06T20:28:18+02:00</time>
      </trkpt>
      <trkpt lat="48.9521" lon="-0.50324">
        <ele>35</ele>
        <time>2021-10-06T20:28:18+02:00</time>
      </trkpt>
      <trkpt lat="48.95188" lon="-0.50335">
        <ele>34</ele>
        <time>2021-10-06T20:28:18+02:00</time>
      </trkpt>
      <trkpt lat="48.95163" lon="-0.50346">
        <ele>34</ele>
        <time>2021-10-06T20:28:18+02:00</time>
      </trkpt>
      <trkpt lat="48.95138" lon="-0.50355">
        <ele>34</ele>
        <time>2021-10-06T20:28:18+02:00</time>
      </trkpt>
      <trkpt lat="48.95116" lon="-0.5036">
        <ele>35</ele>
        <time>2021-10-06T20:28:18+02:00</time>
      </trkpt>
      <trkpt lat="48.95093" lon="-0.50359">
        <ele>34</ele>
        <time>2021-10-06T20:28:18+02:00</time>
      </trkpt>
      <trkpt lat="48.95064" lon="-0.50352">
        <ele>32</ele>
        <time>2021-10-06T20:28:18+02:00</time>
      </trkpt>
      <trkpt lat="48.95038" lon="-0.50346">
        <ele>30</ele>
        <time>2021-10-06T20:28:18+02:00</time>
      </trkpt>
      <trkpt lat="48.9501" lon="-0.50335">
        <ele>28</ele>
        <time>2021-10-06T20:28:18+02:00</time>
      </trkpt>
      <trkpt lat="48.94982" lon="-0.50324">
        <ele>28</ele>
        <time>2021-10-06T20:28:18+02:00</time>
      </trkpt>
      <trkpt lat="48.94956" lon="-0.50313">
        <ele>28</ele>
        <time>2021-10-06T20:28:18+02:00</time>
      </trkpt>
      <trkpt lat="48.94931" lon="-0.50304">
        <ele>29</ele>
        <time>2021-10-06T20:28:18+02:00</time>
      </trkpt>
      <trkpt lat="48.94908" lon="-0.50298">
        <ele>30</ele>
        <time>2021-10-06T20:28:18+02:00</time>
      </trkpt>
      <trkpt lat="48.94883" lon="-0.50291">
        <ele>31</ele>
        <time>2021-10-06T20:28:18+02:00</time>
      </trkpt>
      <trkpt lat="48.94855" lon="-0.50285">
        <ele>29</ele>
        <time>2021-10-06T20:28:18+02:00</time>
      </trkpt>
      <trkpt lat="48.94832" lon="-0.50286">
        <ele>28</ele>
        <time>2021-10-06T20:28:18+02:00</time>
      </trkpt>
      <trkpt lat="48.94809" lon="-0.50284">
        <ele>28</ele>
        <time>2021-10-06T20:28:18+02:00</time>
      </trkpt>
      <trkpt lat="48.94782" lon="-0.50279">
        <ele>29</ele>
        <time>2021-10-06T20:28:18+02:00</time>
      </trkpt>
      <trkpt lat="48.94755" lon="-0.50279">
        <ele>30</ele>
        <time>2021-10-06T20:28:18+02:00</time>
      </trkpt>
      <trkpt lat="48.94731" lon="-0.5028">
        <ele>29</ele>
        <time>2021-10-06T20:28:18+02:00</time>
      </trkpt>
      <trkpt lat="48.94707" lon="-0.5027">
        <ele>29</ele>
        <time>2021-10-06T20:28:18+02:00</time>
      </trkpt>
      <trkpt lat="48.94685" lon="-0.50268">
        <ele>34</ele>
        <time>2021-10-06T20:28:18+02:00</time>
      </trkpt>
      <trkpt lat="48.94661" lon="-0.50261">
        <ele>35</ele>
        <time>2021-10-06T20:28:18+02:00</time>
      </trkpt>
      <trkpt lat="48.94637" lon="-0.5025">
        <ele>35</ele>
        <time>2021-10-06T20:28:18+02:00</time>
      </trkpt>
      <trkpt lat="48.94615" lon="-0.50236">
        <ele>35</ele>
        <time>2021-10-06T20:28:18+02:00</time>
      </trkpt>
      <trkpt lat="48.94594" lon="-0.50223">
        <ele>34</ele>
        <time>2021-10-06T20:28:18+02:00</time>
      </trkpt>
      <trkpt lat="48.94572" lon="-0.50208">
        <ele>32</ele>
        <time>2021-10-06T20:28:18+02:00</time>
      </trkpt>
      <trkpt lat="48.9455" lon="-0.50192">
        <ele>34</ele>
        <time>2021-10-06T20:28:18+02:00</time>
      </trkpt>
      <trkpt lat="48.94527" lon="-0.50181">
        <ele>34</ele>
        <time>2021-10-06T20:28:18+02:00</time>
      </trkpt>
      <trkpt lat="48.94503" lon="-0.50166">
        <ele>35</ele>
        <time>2021-10-06T20:28:18+02:00</time>
      </trkpt>
      <trkpt lat="48.94479" lon="-0.50156">
        <ele>35</ele>
        <time>2021-10-06T20:28:18+02:00</time>
      </trkpt>
      <trkpt lat="48.94457" lon="-0.50145">
        <ele>36</ele>
        <time>2021-10-06T20:28:18+02:00</time>
      </trkpt>
      <trkpt lat="48.94433" lon="-0.50145">
        <ele>36</ele>
        <time>2021-10-06T20:28:18+02:00</time>
      </trkpt>
      <trkpt lat="48.94409" lon="-0.50145">
        <ele>36</ele>
        <time>2021-10-06T20:28:18+02:00</time>
      </trkpt>
      <trkpt lat="48.94386" lon="-0.50144">
        <ele>37</ele>
        <time>2021-10-06T20:28:18+02:00</time>
      </trkpt>
      <trkpt lat="48.94382" lon="-0.5011">
        <ele>39</ele>
        <time>2021-10-06T20:28:18+02:00</time>
      </trkpt>
      <trkpt lat="48.94401" lon="-0.5009">
        <ele>41</ele>
        <time>2021-10-06T20:28:18+02:00</time>
      </trkpt>
      <trkpt lat="48.94425" lon="-0.50094">
        <ele>41</ele>
        <time>2021-10-06T20:28:18+02:00</time>
      </trkpt>
      <trkpt lat="48.94449" lon="-0.50091">
        <ele>42</ele>
        <time>2021-10-06T20:28:18+02:00</time>
      </trkpt>
      <trkpt lat="48.94468" lon="-0.50111">
        <ele>41</ele>
        <time>2021-10-06T20:28:18+02:00</time>
      </trkpt>
      <trkpt lat="48.94448" lon="-0.50093">
        <ele>42</ele>
        <time>2021-10-06T20:28:18+02:00</time>
      </trkpt>
      <trkpt lat="48.94425" lon="-0.50089">
        <ele>42</ele>
        <time>2021-10-06T20:28:18+02:00</time>
      </trkpt>
      <trkpt lat="48.944" lon="-0.50086">
        <ele>41</ele>
        <time>2021-10-06T20:28:18+02:00</time>
      </trkpt>
      <trkpt lat="48.94388" lon="-0.5012">
        <ele>39</ele>
        <time>2021-10-06T20:28:18+02:00</time>
      </trkpt>
      <trkpt lat="48.94371" lon="-0.50149">
        <ele>37</ele>
        <time>2021-10-06T20:28:18+02:00</time>
      </trkpt>
      <trkpt lat="48.94349" lon="-0.50158">
        <ele>38</ele>
        <time>2021-10-06T20:28:18+02:00</time>
      </trkpt>
      <trkpt lat="48.94325" lon="-0.50171">
        <ele>39</ele>
        <time>2021-10-06T20:28:18+02:00</time>
      </trkpt>
      <trkpt lat="48.94302" lon="-0.50178">
        <ele>39</ele>
        <time>2021-10-06T20:28:18+02:00</time>
      </trkpt>
      <trkpt lat="48.94282" lon="-0.50197">
        <ele>39</ele>
        <time>2021-10-06T20:28:18+02:00</time>
      </trkpt>
      <trkpt lat="48.94261" lon="-0.50219">
        <ele>39</ele>
        <time>2021-10-06T20:28:18+02:00</time>
      </trkpt>
      <trkpt lat="48.9424" lon="-0.50239">
        <ele>39</ele>
        <time>2021-10-06T20:28:18+02:00</time>
      </trkpt>
      <trkpt lat="48.94218" lon="-0.50262">
        <ele>38</ele>
        <time>2021-10-06T20:28:18+02:00</time>
      </trkpt>
      <trkpt lat="48.94197" lon="-0.50283">
        <ele>38</ele>
        <time>2021-10-06T20:28:18+02:00</time>
      </trkpt>
      <trkpt lat="48.94174" lon="-0.50306">
        <ele>38</ele>
        <time>2021-10-06T20:28:18+02:00</time>
      </trkpt>
      <trkpt lat="48.94154" lon="-0.50328">
        <ele>38</ele>
        <time>2021-10-06T20:28:18+02:00</time>
      </trkpt>
      <trkpt lat="48.94133" lon="-0.50349">
        <ele>38</ele>
        <time>2021-10-06T20:28:18+02:00</time>
      </trkpt>
      <trkpt lat="48.94114" lon="-0.50368">
        <ele>38</ele>
        <time>2021-10-06T20:28:18+02:00</time>
      </trkpt>
      <trkpt lat="48.94091" lon="-0.50392">
        <ele>39</ele>
        <time>2021-10-06T20:28:18+02:00</time>
      </trkpt>
      <trkpt lat="48.94069" lon="-0.50415">
        <ele>39</ele>
        <time>2021-10-06T20:28:18+02:00</time>
      </trkpt>
      <trkpt lat="48.94049" lon="-0.50435">
        <ele>39</ele>
        <time>2021-10-06T20:28:18+02:00</time>
      </trkpt>
      <trkpt lat="48.9403" lon="-0.50455">
        <ele>39</ele>
        <time>2021-10-06T20:28:18+02:00</time>
      </trkpt>
      <trkpt lat="48.94006" lon="-0.50479">
        <ele>39</ele>
        <time>2021-10-06T20:28:18+02:00</time>
      </trkpt>
      <trkpt lat="48.93983" lon="-0.50502">
        <ele>39</ele>
        <time>2021-10-06T20:28:18+02:00</time>
      </trkpt>
      <trkpt lat="48.93961" lon="-0.50524">
        <ele>39</ele>
        <time>2021-10-06T20:28:18+02:00</time>
      </trkpt>
      <trkpt lat="48.93941" lon="-0.50543">
        <ele>39</ele>
        <time>2021-10-06T20:28:18+02:00</time>
      </trkpt>
      <trkpt lat="48.93922" lon="-0.50562">
        <ele>39</ele>
        <time>2021-10-06T20:28:18+02:00</time>
      </trkpt>
      <trkpt lat="48.93903" lon="-0.50582">
        <ele>39</ele>
        <time>2021-10-06T20:28:18+02:00</time>
      </trkpt>
      <trkpt lat="48.93882" lon="-0.50603">
        <ele>39</ele>
        <time>2021-10-06T20:28:18+02:00</time>
      </trkpt>
      <trkpt lat="48.93859" lon="-0.50627">
        <ele>39</ele>
        <time>2021-10-06T20:28:18+02:00</time>
      </trkpt>
      <trkpt lat="48.93837" lon="-0.50649">
        <ele>39</ele>
        <time>2021-10-06T20:28:18+02:00</time>
      </trkpt>
      <trkpt lat="48.93817" lon="-0.50669">
        <ele>39</ele>
        <time>2021-10-06T20:28:18+02:00</time>
      </trkpt>
      <trkpt lat="48.93797" lon="-0.5069">
        <ele>39</ele>
        <time>2021-10-06T20:28:18+02:00</time>
      </trkpt>
      <trkpt lat="48.93783" lon="-0.5072">
        <ele>39</ele>
        <time>2021-10-06T20:28:18+02:00</time>
      </trkpt>
      <trkpt lat="48.93764" lon="-0.5074">
        <ele>38</ele>
        <time>2021-10-06T20:28:18+02:00</time>
      </trkpt>
      <trkpt lat="48.93746" lon="-0.50761">
        <ele>38</ele>
        <time>2021-10-06T20:28:18+02:00</time>
      </trkpt>
      <trkpt lat="48.93727" lon="-0.5078">
        <ele>38</ele>
        <time>2021-10-06T20:28:18+02:00</time>
      </trkpt>
      <trkpt lat="48.93704" lon="-0.50803">
        <ele>37</ele>
        <time>2021-10-06T20:28:18+02:00</time>
      </trkpt>
      <trkpt lat="48.93682" lon="-0.50823">
        <ele>36</ele>
        <time>2021-10-06T20:28:18+02:00</time>
      </trkpt>
      <trkpt lat="48.93661" lon="-0.50844">
        <ele>35</ele>
        <time>2021-10-06T20:28:18+02:00</time>
      </trkpt>
      <trkpt lat="48.93643" lon="-0.50864">
        <ele>34</ele>
        <time>2021-10-06T20:28:18+02:00</time>
      </trkpt>
      <trkpt lat="48.93624" lon="-0.50885">
        <ele>34</ele>
        <time>2021-10-06T20:28:18+02:00</time>
      </trkpt>
      <trkpt lat="48.93604" lon="-0.50904">
        <ele>33</ele>
        <time>2021-10-06T20:28:18+02:00</time>
      </trkpt>
      <trkpt lat="48.93584" lon="-0.50922">
        <ele>33</ele>
        <time>2021-10-06T20:28:18+02:00</time>
      </trkpt>
      <trkpt lat="48.93564" lon="-0.50943">
        <ele>33</ele>
        <time>2021-10-06T20:28:18+02:00</time>
      </trkpt>
      <trkpt lat="48.93542" lon="-0.50969">
        <ele>32</ele>
        <time>2021-10-06T20:28:18+02:00</time>
      </trkpt>
      <trkpt lat="48.93522" lon="-0.5099">
        <ele>32</ele>
        <time>2021-10-06T20:28:18+02:00</time>
      </trkpt>
      <trkpt lat="48.93499" lon="-0.51012">
        <ele>32</ele>
        <time>2021-10-06T20:28:18+02:00</time>
      </trkpt>
      <trkpt lat="48.93479" lon="-0.5103">
        <ele>32</ele>
        <time>2021-10-06T20:28:18+02:00</time>
      </trkpt>
      <trkpt lat="48.93456" lon="-0.51044">
        <ele>32</ele>
        <time>2021-10-06T20:28:18+02:00</time>
      </trkpt>
      <trkpt lat="48.93431" lon="-0.5106">
        <ele>32</ele>
        <time>2021-10-06T20:28:18+02:00</time>
      </trkpt>
      <trkpt lat="48.93406" lon="-0.51069">
        <ele>32</ele>
        <time>2021-10-06T20:28:18+02:00</time>
      </trkpt>
      <trkpt lat="48.93384" lon="-0.51073">
        <ele>32</ele>
        <time>2021-10-06T20:28:18+02:00</time>
      </trkpt>
      <trkpt lat="48.93357" lon="-0.51076">
        <ele>32</ele>
        <time>2021-10-06T20:28:18+02:00</time>
      </trkpt>
      <trkpt lat="48.93331" lon="-0.51079">
        <ele>32</ele>
        <time>2021-10-06T20:28:18+02:00</time>
      </trkpt>
      <trkpt lat="48.93305" lon="-0.51079">
        <ele>32</ele>
        <time>2021-10-06T20:28:18+02:00</time>
      </trkpt>
      <trkpt lat="48.93281" lon="-0.5108">
        <ele>32</ele>
        <time>2021-10-06T20:28:18+02:00</time>
      </trkpt>
      <trkpt lat="48.93258" lon="-0.51077">
        <ele>33</ele>
        <time>2021-10-06T20:28:18+02:00</time>
      </trkpt>
      <trkpt lat="48.93232" lon="-0.5107">
        <ele>33</ele>
        <time>2021-10-06T20:28:18+02:00</time>
      </trkpt>
      <trkpt lat="48.93208" lon="-0.51058">
        <ele>34</ele>
        <time>2021-10-06T20:28:18+02:00</time>
      </trkpt>
      <trkpt lat="48.93184" lon="-0.51047">
        <ele>35</ele>
        <time>2021-10-06T20:28:18+02:00</time>
      </trkpt>
      <trkpt lat="48.93162" lon="-0.51038">
        <ele>35</ele>
        <time>2021-10-06T20:28:18+02:00</time>
      </trkpt>
      <trkpt lat="48.93141" lon="-0.51025">
        <ele>36</ele>
        <time>2021-10-06T20:28:18+02:00</time>
      </trkpt>
      <trkpt lat="48.93123" lon="-0.51002">
        <ele>39</ele>
        <time>2021-10-06T20:28:18+02:00</time>
      </trkpt>
      <trkpt lat="48.93104" lon="-0.50984">
        <ele>40</ele>
        <time>2021-10-06T20:28:18+02:00</time>
      </trkpt>
      <trkpt lat="48.93084" lon="-0.50965">
        <ele>42</ele>
        <time>2021-10-06T20:28:18+02:00</time>
      </trkpt>
      <trkpt lat="48.93065" lon="-0.50942">
        <ele>44</ele>
        <time>2021-10-06T20:28:18+02:00</time>
      </trkpt>
      <trkpt lat="48.93046" lon="-0.50915">
        <ele>47</ele>
        <time>2021-10-06T20:28:18+02:00</time>
      </trkpt>
      <trkpt lat="48.93032" lon="-0.50888">
        <ele>48</ele>
        <time>2021-10-06T20:28:18+02:00</time>
      </trkpt>
      <trkpt lat="48.93017" lon="-0.50862">
        <ele>49</ele>
        <time>2021-10-06T20:28:18+02:00</time>
      </trkpt>
      <trkpt lat="48.93001" lon="-0.50828">
        <ele>50</ele>
        <time>2021-10-06T20:28:18+02:00</time>
      </trkpt>
      <trkpt lat="48.9299" lon="-0.50791">
        <ele>47</ele>
        <time>2021-10-06T20:28:18+02:00</time>
      </trkpt>
      <trkpt lat="48.92978" lon="-0.50761">
        <ele>44</ele>
        <time>2021-10-06T20:28:18+02:00</time>
      </trkpt>
      <trkpt lat="48.9297" lon="-0.50728">
        <ele>40</ele>
        <time>2021-10-06T20:28:18+02:00</time>
      </trkpt>
      <trkpt lat="48.92963" lon="-0.50692">
        <ele>36</ele>
        <time>2021-10-06T20:28:18+02:00</time>
      </trkpt>
      <trkpt lat="48.92958" lon="-0.50653">
        <ele>35</ele>
        <time>2021-10-06T20:28:18+02:00</time>
      </trkpt>
      <trkpt lat="48.92954" lon="-0.50619">
        <ele>33</ele>
        <time>2021-10-06T20:28:18+02:00</time>
      </trkpt>
      <trkpt lat="48.9295" lon="-0.50584">
        <ele>33</ele>
        <time>2021-10-06T20:28:18+02:00</time>
      </trkpt>
      <trkpt lat="48.92944" lon="-0.50544">
        <ele>34</ele>
        <time>2021-10-06T20:28:18+02:00</time>
      </trkpt>
      <trkpt lat="48.9294" lon="-0.5051">
        <ele>34</ele>
        <time>2021-10-06T20:28:18+02:00</time>
      </trkpt>
      <trkpt lat="48.92935" lon="-0.50476">
        <ele>35</ele>
        <time>2021-10-06T20:28:18+02:00</time>
      </trkpt>
      <trkpt lat="48.92931" lon="-0.50442">
        <ele>36</ele>
        <time>2021-10-06T20:28:18+02:00</time>
      </trkpt>
      <trkpt lat="48.92926" lon="-0.50406">
        <ele>36</ele>
        <time>2021-10-06T20:28:18+02:00</time>
      </trkpt>
      <trkpt lat="48.92921" lon="-0.50371">
        <ele>35</ele>
        <time>2021-10-06T20:28:18+02:00</time>
      </trkpt>
      <trkpt lat="48.92915" lon="-0.50331">
        <ele>34</ele>
        <time>2021-10-06T20:28:18+02:00</time>
      </trkpt>
      <trkpt lat="48.9291" lon="-0.50297">
        <ele>35</ele>
        <time>2021-10-06T20:28:18+02:00</time>
      </trkpt>
      <trkpt lat="48.92905" lon="-0.50263">
        <ele>38</ele>
        <time>2021-10-06T20:28:18+02:00</time>
      </trkpt>
      <trkpt lat="48.92901" lon="-0.50229">
        <ele>38</ele>
        <time>2021-10-06T20:28:18+02:00</time>
      </trkpt>
      <trkpt lat="48.92895" lon="-0.50193">
        <ele>37</ele>
        <time>2021-10-06T20:28:18+02:00</time>
      </trkpt>
      <trkpt lat="48.92889" lon="-0.50154">
        <ele>34</ele>
        <time>2021-10-06T20:28:18+02:00</time>
      </trkpt>
      <trkpt lat="48.92883" lon="-0.50112">
        <ele>36</ele>
        <time>2021-10-06T20:28:18+02:00</time>
      </trkpt>
      <trkpt lat="48.92876" lon="-0.50074">
        <ele>37</ele>
        <time>2021-10-06T20:28:18+02:00</time>
      </trkpt>
      <trkpt lat="48.92871" lon="-0.50036">
        <ele>38</ele>
        <time>2021-10-06T20:28:18+02:00</time>
      </trkpt>
      <trkpt lat="48.92866" lon="-0.49995">
        <ele>40</ele>
        <time>2021-10-06T20:28:18+02:00</time>
      </trkpt>
      <trkpt lat="48.92865" lon="-0.49957">
        <ele>41</ele>
        <time>2021-10-06T20:28:18+02:00</time>
      </trkpt>
      <trkpt lat="48.92863" lon="-0.49919">
        <ele>43</ele>
        <time>2021-10-06T20:28:18+02:00</time>
      </trkpt>
      <trkpt lat="48.9286" lon="-0.49883">
        <ele>43</ele>
        <time>2021-10-06T20:28:18+02:00</time>
      </trkpt>
      <trkpt lat="48.92856" lon="-0.49848">
        <ele>43</ele>
        <time>2021-10-06T20:28:18+02:00</time>
      </trkpt>
      <trkpt lat="48.92853" lon="-0.49812">
        <ele>42</ele>
        <time>2021-10-06T20:28:18+02:00</time>
      </trkpt>
      <trkpt lat="48.92851" lon="-0.49772">
        <ele>41</ele>
        <time>2021-10-06T20:28:18+02:00</time>
      </trkpt>
      <trkpt lat="48.92851" lon="-0.49737">
        <ele>41</ele>
        <time>2021-10-06T20:28:18+02:00</time>
      </trkpt>
      <trkpt lat="48.92843" lon="-0.49699">
        <ele>40</ele>
        <time>2021-10-06T20:28:18+02:00</time>
      </trkpt>
      <trkpt lat="48.9284" lon="-0.49659">
        <ele>40</ele>
        <time>2021-10-06T20:28:18+02:00</time>
      </trkpt>
      <trkpt lat="48.92838" lon="-0.49621">
        <ele>40</ele>
        <time>2021-10-06T20:28:18+02:00</time>
      </trkpt>
      <trkpt lat="48.92836" lon="-0.49582">
        <ele>40</ele>
        <time>2021-10-06T20:28:18+02:00</time>
      </trkpt>
      <trkpt lat="48.92835" lon="-0.49544">
        <ele>40</ele>
        <time>2021-10-06T20:28:18+02:00</time>
      </trkpt>
      <trkpt lat="48.92838" lon="-0.4951">
        <ele>40</ele>
        <time>2021-10-06T20:28:18+02:00</time>
      </trkpt>
      <trkpt lat="48.9284" lon="-0.49473">
        <ele>41</ele>
        <time>2021-10-06T20:28:18+02:00</time>
      </trkpt>
      <trkpt lat="48.92838" lon="-0.49439">
        <ele>41</ele>
        <time>2021-10-06T20:28:18+02:00</time>
      </trkpt>
      <trkpt lat="48.92836" lon="-0.49405">
        <ele>41</ele>
        <time>2021-10-06T20:28:18+02:00</time>
      </trkpt>
      <trkpt lat="48.92832" lon="-0.4937">
        <ele>41</ele>
        <time>2021-10-06T20:28:18+02:00</time>
      </trkpt>
      <trkpt lat="48.92829" lon="-0.49333">
        <ele>41</ele>
        <time>2021-10-06T20:28:18+02:00</time>
      </trkpt>
      <trkpt lat="48.92827" lon="-0.49299">
        <ele>41</ele>
        <time>2021-10-06T20:28:18+02:00</time>
      </trkpt>
      <trkpt lat="48.92823" lon="-0.49261">
        <ele>41</ele>
        <time>2021-10-06T20:28:18+02:00</time>
      </trkpt>
      <trkpt lat="48.92818" lon="-0.49221">
        <ele>42</ele>
        <time>2021-10-06T20:28:18+02:00</time>
      </trkpt>
      <trkpt lat="48.92813" lon="-0.49182">
        <ele>42</ele>
        <time>2021-10-06T20:28:18+02:00</time>
      </trkpt>
      <trkpt lat="48.92811" lon="-0.49144">
        <ele>43</ele>
        <time>2021-10-06T20:28:18+02:00</time>
      </trkpt>
      <trkpt lat="48.92808" lon="-0.49107">
        <ele>43</ele>
        <time>2021-10-06T20:28:18+02:00</time>
      </trkpt>
      <trkpt lat="48.92806" lon="-0.49067">
        <ele>44</ele>
        <time>2021-10-06T20:28:18+02:00</time>
      </trkpt>
      <trkpt lat="48.92804" lon="-0.49027">
        <ele>44</ele>
        <time>2021-10-06T20:28:18+02:00</time>
      </trkpt>
      <trkpt lat="48.92802" lon="-0.48991">
        <ele>44</ele>
        <time>2021-10-06T20:28:18+02:00</time>
      </trkpt>
      <trkpt lat="48.92799" lon="-0.48954">
        <ele>43</ele>
        <time>2021-10-06T20:28:18+02:00</time>
      </trkpt>
      <trkpt lat="48.92797" lon="-0.48912">
        <ele>43</ele>
        <time>2021-10-06T20:28:18+02:00</time>
      </trkpt>
      <trkpt lat="48.92795" lon="-0.48874">
        <ele>43</ele>
        <time>2021-10-06T20:28:18+02:00</time>
      </trkpt>
      <trkpt lat="48.92793" lon="-0.48836">
        <ele>43</ele>
        <time>2021-10-06T20:28:18+02:00</time>
      </trkpt>
      <trkpt lat="48.92791" lon="-0.488">
        <ele>43</ele>
        <time>2021-10-06T20:28:18+02:00</time>
      </trkpt>
      <trkpt lat="48.92788" lon="-0.48764">
        <ele>42</ele>
        <time>2021-10-06T20:28:18+02:00</time>
      </trkpt>
      <trkpt lat="48.92786" lon="-0.48727">
        <ele>41</ele>
        <time>2021-10-06T20:28:18+02:00</time>
      </trkpt>
      <trkpt lat="48.92784" lon="-0.48687">
        <ele>41</ele>
        <time>2021-10-06T20:28:18+02:00</time>
      </trkpt>
      <trkpt lat="48.92782" lon="-0.48647">
        <ele>39</ele>
        <time>2021-10-06T20:28:18+02:00</time>
      </trkpt>
      <trkpt lat="48.92779" lon="-0.48607">
        <ele>38</ele>
        <time>2021-10-06T20:28:18+02:00</time>
      </trkpt>
      <trkpt lat="48.92777" lon="-0.48571">
        <ele>38</ele>
        <time>2021-10-06T20:28:18+02:00</time>
      </trkpt>
      <trkpt lat="48.92776" lon="-0.48536">
        <ele>38</ele>
        <time>2021-10-06T20:28:18+02:00</time>
      </trkpt>
      <trkpt lat="48.92773" lon="-0.48499">
        <ele>38</ele>
        <time>2021-10-06T20:28:18+02:00</time>
      </trkpt>
      <trkpt lat="48.92771" lon="-0.48456">
        <ele>38</ele>
        <time>2021-10-06T20:28:18+02:00</time>
      </trkpt>
      <trkpt lat="48.92769" lon="-0.48422">
        <ele>38</ele>
        <time>2021-10-06T20:28:18+02:00</time>
      </trkpt>
      <trkpt lat="48.92767" lon="-0.48386">
        <ele>39</ele>
        <time>2021-10-06T20:28:18+02:00</time>
      </trkpt>
      <trkpt lat="48.92765" lon="-0.48346">
        <ele>39</ele>
        <time>2021-10-06T20:28:18+02:00</time>
      </trkpt>
      <trkpt lat="48.92763" lon="-0.4831">
        <ele>40</ele>
        <time>2021-10-06T20:28:18+02:00</time>
      </trkpt>
      <trkpt lat="48.92763" lon="-0.48274">
        <ele>40</ele>
        <time>2021-10-06T20:28:18+02:00</time>
      </trkpt>
      <trkpt lat="48.92764" lon="-0.48237">
        <ele>40</ele>
        <time>2021-10-06T20:28:18+02:00</time>
      </trkpt>
      <trkpt lat="48.92775" lon="-0.48204">
        <ele>40</ele>
        <time>2021-10-06T20:28:18+02:00</time>
      </trkpt>
      <trkpt lat="48.92761" lon="-0.48174">
        <ele>39</ele>
        <time>2021-10-06T20:28:18+02:00</time>
      </trkpt>
      <trkpt lat="48.92753" lon="-0.48138">
        <ele>37</ele>
        <time>2021-10-06T20:28:18+02:00</time>
      </trkpt>
      <trkpt lat="48.92752" lon="-0.48098">
        <ele>38</ele>
        <time>2021-10-06T20:28:18+02:00</time>
      </trkpt>
      <trkpt lat="48.9275" lon="-0.48059">
        <ele>38</ele>
        <time>2021-10-06T20:28:18+02:00</time>
      </trkpt>
      <trkpt lat="48.92735" lon="-0.48028">
        <ele>37</ele>
        <time>2021-10-06T20:28:18+02:00</time>
      </trkpt>
      <trkpt lat="48.92713" lon="-0.48032">
        <ele>37</ele>
        <time>2021-10-06T20:28:18+02:00</time>
      </trkpt>
      <trkpt lat="48.92686" lon="-0.48031">
        <ele>40</ele>
        <time>2021-10-06T20:28:18+02:00</time>
      </trkpt>
      <trkpt lat="48.92661" lon="-0.48031">
        <ele>40</ele>
        <time>2021-10-06T20:28:18+02:00</time>
      </trkpt>
      <trkpt lat="48.92636" lon="-0.48032">
        <ele>40</ele>
        <time>2021-10-06T20:28:18+02:00</time>
      </trkpt>
      <trkpt lat="48.92611" lon="-0.48035">
        <ele>38</ele>
        <time>2021-10-06T20:28:18+02:00</time>
      </trkpt>
      <trkpt lat="48.92585" lon="-0.48042">
        <ele>35</ele>
        <time>2021-10-06T20:28:18+02:00</time>
      </trkpt>
      <trkpt lat="48.9256" lon="-0.48055">
        <ele>33</ele>
        <time>2021-10-06T20:28:18+02:00</time>
      </trkpt>
      <trkpt lat="48.92538" lon="-0.48071">
        <ele>35</ele>
        <time>2021-10-06T20:28:18+02:00</time>
      </trkpt>
      <trkpt lat="48.92517" lon="-0.48088">
        <ele>36</ele>
        <time>2021-10-06T20:28:18+02:00</time>
      </trkpt>
      <trkpt lat="48.92494" lon="-0.48096">
        <ele>37</ele>
        <time>2021-10-06T20:28:18+02:00</time>
      </trkpt>
      <trkpt lat="48.92468" lon="-0.48096">
        <ele>38</ele>
        <time>2021-10-06T20:28:18+02:00</time>
      </trkpt>
      <trkpt lat="48.92445" lon="-0.4809">
        <ele>39</ele>
        <time>2021-10-06T20:28:18+02:00</time>
      </trkpt>
      <trkpt lat="48.92423" lon="-0.48085">
        <ele>40</ele>
        <time>2021-10-06T20:28:18+02:00</time>
      </trkpt>
      <trkpt lat="48.92398" lon="-0.48085">
        <ele>41</ele>
        <time>2021-10-06T20:28:18+02:00</time>
      </trkpt>
      <trkpt lat="48.92376" lon="-0.48091">
        <ele>42</ele>
        <time>2021-10-06T20:28:18+02:00</time>
      </trkpt>
      <trkpt lat="48.92352" lon="-0.48094">
        <ele>43</ele>
        <time>2021-10-06T20:28:18+02:00</time>
      </trkpt>
      <trkpt lat="48.92329" lon="-0.48097">
        <ele>44</ele>
        <time>2021-10-06T20:28:18+02:00</time>
      </trkpt>
      <trkpt lat="48.92304" lon="-0.48097">
        <ele>45</ele>
        <time>2021-10-06T20:28:18+02:00</time>
      </trkpt>
      <trkpt lat="48.92282" lon="-0.48102">
        <ele>46</ele>
        <time>2021-10-06T20:28:18+02:00</time>
      </trkpt>
      <trkpt lat="48.92257" lon="-0.48102">
        <ele>48</ele>
        <time>2021-10-06T20:28:18+02:00</time>
      </trkpt>
      <trkpt lat="48.92232" lon="-0.48104">
        <ele>50</ele>
        <time>2021-10-06T20:28:18+02:00</time>
      </trkpt>
      <trkpt lat="48.9221" lon="-0.4811">
        <ele>51</ele>
        <time>2021-10-06T20:28:18+02:00</time>
      </trkpt>
      <trkpt lat="48.92185" lon="-0.48115">
        <ele>52</ele>
        <time>2021-10-06T20:28:18+02:00</time>
      </trkpt>
      <trkpt lat="48.92162" lon="-0.48125">
        <ele>52</ele>
        <time>2021-10-06T20:28:18+02:00</time>
      </trkpt>
      <trkpt lat="48.92137" lon="-0.48135">
        <ele>52</ele>
        <time>2021-10-06T20:28:18+02:00</time>
      </trkpt>
      <trkpt lat="48.92115" lon="-0.48145">
        <ele>53</ele>
        <time>2021-10-06T20:28:18+02:00</time>
      </trkpt>
      <trkpt lat="48.92091" lon="-0.48153">
        <ele>55</ele>
        <time>2021-10-06T20:28:18+02:00</time>
      </trkpt>
      <trkpt lat="48.92067" lon="-0.48154">
        <ele>56</ele>
        <time>2021-10-06T20:28:18+02:00</time>
      </trkpt>
      <trkpt lat="48.92043" lon="-0.48159">
        <ele>58</ele>
        <time>2021-10-06T20:28:18+02:00</time>
      </trkpt>
      <trkpt lat="48.92022" lon="-0.48174">
        <ele>59</ele>
        <time>2021-10-06T20:28:18+02:00</time>
      </trkpt>
      <trkpt lat="48.92001" lon="-0.48196">
        <ele>59</ele>
        <time>2021-10-06T20:28:18+02:00</time>
      </trkpt>
      <trkpt lat="48.91982" lon="-0.48215">
        <ele>59</ele>
        <time>2021-10-06T20:28:18+02:00</time>
      </trkpt>
      <trkpt lat="48.91963" lon="-0.48234">
        <ele>60</ele>
        <time>2021-10-06T20:28:18+02:00</time>
      </trkpt>
      <trkpt lat="48.91941" lon="-0.48253">
        <ele>61</ele>
        <time>2021-10-06T20:28:18+02:00</time>
      </trkpt>
      <trkpt lat="48.91919" lon="-0.4827">
        <ele>60</ele>
        <time>2021-10-06T20:28:18+02:00</time>
      </trkpt>
      <trkpt lat="48.91898" lon="-0.48291">
        <ele>58</ele>
        <time>2021-10-06T20:28:18+02:00</time>
      </trkpt>
      <trkpt lat="48.91875" lon="-0.48303">
        <ele>57</ele>
        <time>2021-10-06T20:28:18+02:00</time>
      </trkpt>
      <trkpt lat="48.91852" lon="-0.48302">
        <ele>58</ele>
        <time>2021-10-06T20:28:18+02:00</time>
      </trkpt>
      <trkpt lat="48.91828" lon="-0.48295">
        <ele>61</ele>
        <time>2021-10-06T20:28:18+02:00</time>
      </trkpt>
      <trkpt lat="48.91805" lon="-0.48286">
        <ele>62</ele>
        <time>2021-10-06T20:28:18+02:00</time>
      </trkpt>
      <trkpt lat="48.91783" lon="-0.48275">
        <ele>64</ele>
        <time>2021-10-06T20:28:18+02:00</time>
      </trkpt>
      <trkpt lat="48.91759" lon="-0.48268">
        <ele>64</ele>
        <time>2021-10-06T20:28:18+02:00</time>
      </trkpt>
      <trkpt lat="48.91736" lon="-0.48274">
        <ele>64</ele>
        <time>2021-10-06T20:28:18+02:00</time>
      </trkpt>
      <trkpt lat="48.91712" lon="-0.48282">
        <ele>64</ele>
        <time>2021-10-06T20:28:18+02:00</time>
      </trkpt>
      <trkpt lat="48.9169" lon="-0.48292">
        <ele>62</ele>
        <time>2021-10-06T20:28:18+02:00</time>
      </trkpt>
      <trkpt lat="48.91669" lon="-0.48281">
        <ele>63</ele>
        <time>2021-10-06T20:28:18+02:00</time>
      </trkpt>
      <trkpt lat="48.91664" lon="-0.48243">
        <ele>66</ele>
        <time>2021-10-06T20:28:18+02:00</time>
      </trkpt>
      <trkpt lat="48.91653" lon="-0.48213">
        <ele>67</ele>
        <time>2021-10-06T20:28:18+02:00</time>
      </trkpt>
      <trkpt lat="48.91649" lon="-0.48179">
        <ele>70</ele>
        <time>2021-10-06T20:28:18+02:00</time>
      </trkpt>
      <trkpt lat="48.91667" lon="-0.48157">
        <ele>71</ele>
        <time>2021-10-06T20:28:18+02:00</time>
      </trkpt>
      <trkpt lat="48.91644" lon="-0.48151">
        <ele>71</ele>
        <time>2021-10-06T20:28:18+02:00</time>
      </trkpt>
      <trkpt lat="48.9163" lon="-0.48123">
        <ele>72</ele>
        <time>2021-10-06T20:28:18+02:00</time>
      </trkpt>
      <trkpt lat="48.9161" lon="-0.481">
        <ele>74</ele>
        <time>2021-10-06T20:28:18+02:00</time>
      </trkpt>
      <trkpt lat="48.91599" lon="-0.48067">
        <ele>76</ele>
        <time>2021-10-06T20:28:18+02:00</time>
      </trkpt>
      <trkpt lat="48.91592" lon="-0.48031">
        <ele>77</ele>
        <time>2021-10-06T20:28:18+02:00</time>
      </trkpt>
      <trkpt lat="48.91584" lon="-0.47994">
        <ele>77</ele>
        <time>2021-10-06T20:28:18+02:00</time>
      </trkpt>
      <trkpt lat="48.91575" lon="-0.47959">
        <ele>77</ele>
        <time>2021-10-06T20:28:18+02:00</time>
      </trkpt>
      <trkpt lat="48.91565" lon="-0.47928">
        <ele>77</ele>
        <time>2021-10-06T20:28:18+02:00</time>
      </trkpt>
      <trkpt lat="48.91548" lon="-0.47902">
        <ele>77</ele>
        <time>2021-10-06T20:28:18+02:00</time>
      </trkpt>
      <trkpt lat="48.91529" lon="-0.47881">
        <ele>78</ele>
        <time>2021-10-06T20:28:18+02:00</time>
      </trkpt>
      <trkpt lat="48.91544" lon="-0.47854">
        <ele>77</ele>
        <time>2021-10-06T20:28:18+02:00</time>
      </trkpt>
      <trkpt lat="48.91571" lon="-0.47838">
        <ele>73</ele>
        <time>2021-10-06T20:28:18+02:00</time>
      </trkpt>
      <trkpt lat="48.91599" lon="-0.47824">
        <ele>71</ele>
        <time>2021-10-06T20:28:18+02:00</time>
      </trkpt>
      <trkpt lat="48.91623" lon="-0.47814">
        <ele>69</ele>
        <time>2021-10-06T20:28:18+02:00</time>
      </trkpt>
      <trkpt lat="48.91648" lon="-0.47803">
        <ele>67</ele>
        <time>2021-10-06T20:28:18+02:00</time>
      </trkpt>
      <trkpt lat="48.9167" lon="-0.47793">
        <ele>65</ele>
        <time>2021-10-06T20:28:18+02:00</time>
      </trkpt>
      <trkpt lat="48.91692" lon="-0.47781">
        <ele>63</ele>
        <time>2021-10-06T20:28:18+02:00</time>
      </trkpt>
      <trkpt lat="48.91716" lon="-0.4777">
        <ele>61</ele>
        <time>2021-10-06T20:28:18+02:00</time>
      </trkpt>
      <trkpt lat="48.91741" lon="-0.47758">
        <ele>60</ele>
        <time>2021-10-06T20:28:18+02:00</time>
      </trkpt>
      <trkpt lat="48.91764" lon="-0.47747">
        <ele>58</ele>
        <time>2021-10-06T20:28:18+02:00</time>
      </trkpt>
      <trkpt lat="48.91786" lon="-0.47736">
        <ele>56</ele>
        <time>2021-10-06T20:28:18+02:00</time>
      </trkpt>
      <trkpt lat="48.91811" lon="-0.47723">
        <ele>55</ele>
        <time>2021-10-06T20:28:18+02:00</time>
      </trkpt>
      <trkpt lat="48.91832" lon="-0.47702">
        <ele>53</ele>
        <time>2021-10-06T20:28:18+02:00</time>
      </trkpt>
      <trkpt lat="48.91811" lon="-0.47676">
        <ele>49</ele>
        <time>2021-10-06T20:28:18+02:00</time>
      </trkpt>
      <trkpt lat="48.91786" lon="-0.47678">
        <ele>48</ele>
        <time>2021-10-06T20:28:18+02:00</time>
      </trkpt>
      <trkpt lat="48.91763" lon="-0.47675">
        <ele>48</ele>
        <time>2021-10-06T20:28:18+02:00</time>
      </trkpt>
      <trkpt lat="48.9174" lon="-0.47674">
        <ele>47</ele>
        <time>2021-10-06T20:28:18+02:00</time>
      </trkpt>
      <trkpt lat="48.91715" lon="-0.47675">
        <ele>47</ele>
        <time>2021-10-06T20:28:18+02:00</time>
      </trkpt>
      <trkpt lat="48.91692" lon="-0.47674">
        <ele>47</ele>
        <time>2021-10-06T20:28:18+02:00</time>
      </trkpt>
      <trkpt lat="48.9167" lon="-0.47664">
        <ele>46</ele>
        <time>2021-10-06T20:28:18+02:00</time>
      </trkpt>
      <trkpt lat="48.91641" lon="-0.47653">
        <ele>44</ele>
        <time>2021-10-06T20:28:18+02:00</time>
      </trkpt>
      <trkpt lat="48.91617" lon="-0.47646">
        <ele>43</ele>
        <time>2021-10-06T20:28:18+02:00</time>
      </trkpt>
      <trkpt lat="48.91591" lon="-0.47645">
        <ele>42</ele>
        <time>2021-10-06T20:28:18+02:00</time>
      </trkpt>
      <trkpt lat="48.91568" lon="-0.47641">
        <ele>41</ele>
        <time>2021-10-06T20:28:18+02:00</time>
      </trkpt>
      <trkpt lat="48.91546" lon="-0.47634">
        <ele>41</ele>
        <time>2021-10-06T20:28:18+02:00</time>
      </trkpt>
      <trkpt lat="48.9152" lon="-0.47626">
        <ele>40</ele>
        <time>2021-10-06T20:28:18+02:00</time>
      </trkpt>
      <trkpt lat="48.91493" lon="-0.47618">
        <ele>39</ele>
        <time>2021-10-06T20:28:18+02:00</time>
      </trkpt>
      <trkpt lat="48.91468" lon="-0.4761">
        <ele>38</ele>
        <time>2021-10-06T20:28:18+02:00</time>
      </trkpt>
      <trkpt lat="48.91442" lon="-0.47608">
        <ele>39</ele>
        <time>2021-10-06T20:28:18+02:00</time>
      </trkpt>
      <trkpt lat="48.91415" lon="-0.47606">
        <ele>39</ele>
        <time>2021-10-06T20:28:18+02:00</time>
      </trkpt>
      <trkpt lat="48.91392" lon="-0.47609">
        <ele>40</ele>
        <time>2021-10-06T20:28:18+02:00</time>
      </trkpt>
      <trkpt lat="48.91367" lon="-0.47614">
        <ele>40</ele>
        <time>2021-10-06T20:28:18+02:00</time>
      </trkpt>
      <trkpt lat="48.91343" lon="-0.47614">
        <ele>39</ele>
        <time>2021-10-06T20:28:18+02:00</time>
      </trkpt>
      <trkpt lat="48.91319" lon="-0.47609">
        <ele>38</ele>
        <time>2021-10-06T20:28:18+02:00</time>
      </trkpt>
      <trkpt lat="48.91295" lon="-0.47611">
        <ele>39</ele>
        <time>2021-10-06T20:28:18+02:00</time>
      </trkpt>
      <trkpt lat="48.91272" lon="-0.47615">
        <ele>42</ele>
        <time>2021-10-06T20:28:18+02:00</time>
      </trkpt>
      <trkpt lat="48.91246" lon="-0.47614">
        <ele>45</ele>
        <time>2021-10-06T20:28:18+02:00</time>
      </trkpt>
      <trkpt lat="48.9122" lon="-0.47611">
        <ele>45</ele>
        <time>2021-10-06T20:28:18+02:00</time>
      </trkpt>
      <trkpt lat="48.91196" lon="-0.47617">
        <ele>47</ele>
        <time>2021-10-06T20:28:18+02:00</time>
      </trkpt>
      <trkpt lat="48.91172" lon="-0.47621">
        <ele>48</ele>
        <time>2021-10-06T20:28:18+02:00</time>
      </trkpt>
      <trkpt lat="48.91147" lon="-0.47625">
        <ele>49</ele>
        <time>2021-10-06T20:28:18+02:00</time>
      </trkpt>
      <trkpt lat="48.9112" lon="-0.47628">
        <ele>50</ele>
        <time>2021-10-06T20:28:18+02:00</time>
      </trkpt>
      <trkpt lat="48.91092" lon="-0.4763">
        <ele>48</ele>
        <time>2021-10-06T20:28:18+02:00</time>
      </trkpt>
      <trkpt lat="48.91068" lon="-0.47632">
        <ele>48</ele>
        <time>2021-10-06T20:28:18+02:00</time>
      </trkpt>
      <trkpt lat="48.91044" lon="-0.47634">
        <ele>46</ele>
        <time>2021-10-06T20:28:18+02:00</time>
      </trkpt>
      <trkpt lat="48.9102" lon="-0.47636">
        <ele>45</ele>
        <time>2021-10-06T20:28:18+02:00</time>
      </trkpt>
      <trkpt lat="48.90995" lon="-0.47636">
        <ele>45</ele>
        <time>2021-10-06T20:28:18+02:00</time>
      </trkpt>
      <trkpt lat="48.9097" lon="-0.47632">
        <ele>46</ele>
        <time>2021-10-06T20:28:18+02:00</time>
      </trkpt>
      <trkpt lat="48.90949" lon="-0.47621">
        <ele>46</ele>
        <time>2021-10-06T20:28:18+02:00</time>
      </trkpt>
      <trkpt lat="48.90927" lon="-0.47593">
        <ele>45</ele>
        <time>2021-10-06T20:28:18+02:00</time>
      </trkpt>
      <trkpt lat="48.90912" lon="-0.47565">
        <ele>43</ele>
        <time>2021-10-06T20:28:18+02:00</time>
      </trkpt>
      <trkpt lat="48.90897" lon="-0.47534">
        <ele>43</ele>
        <time>2021-10-06T20:28:18+02:00</time>
      </trkpt>
      <trkpt lat="48.90892" lon="-0.47496">
        <ele>42</ele>
        <time>2021-10-06T20:28:18+02:00</time>
      </trkpt>
      <trkpt lat="48.90883" lon="-0.47464">
        <ele>43</ele>
        <time>2021-10-06T20:28:18+02:00</time>
      </trkpt>
      <trkpt lat="48.90878" lon="-0.47425">
        <ele>43</ele>
        <time>2021-10-06T20:28:18+02:00</time>
      </trkpt>
      <trkpt lat="48.90877" lon="-0.47388">
        <ele>43</ele>
        <time>2021-10-06T20:28:18+02:00</time>
      </trkpt>
      <trkpt lat="48.90877" lon="-0.47354">
        <ele>42</ele>
        <time>2021-10-06T20:28:18+02:00</time>
      </trkpt>
      <trkpt lat="48.90879" lon="-0.47319">
        <ele>41</ele>
        <time>2021-10-06T20:28:18+02:00</time>
      </trkpt>
      <trkpt lat="48.90884" lon="-0.47281">
        <ele>40</ele>
        <time>2021-10-06T20:28:18+02:00</time>
      </trkpt>
      <trkpt lat="48.90885" lon="-0.47236">
        <ele>39</ele>
        <time>2021-10-06T20:28:18+02:00</time>
      </trkpt>
      <trkpt lat="48.90887" lon="-0.47194">
        <ele>39</ele>
        <time>2021-10-06T20:28:18+02:00</time>
      </trkpt>
      <trkpt lat="48.90891" lon="-0.47157">
        <ele>39</ele>
        <time>2021-10-06T20:28:18+02:00</time>
      </trkpt>
      <trkpt lat="48.90896" lon="-0.47119">
        <ele>41</ele>
        <time>2021-10-06T20:28:18+02:00</time>
      </trkpt>
      <trkpt lat="48.9089" lon="-0.47085">
        <ele>44</ele>
        <time>2021-10-06T20:28:18+02:00</time>
      </trkpt>
      <trkpt lat="48.90882" lon="-0.4705">
        <ele>44</ele>
        <time>2021-10-06T20:28:18+02:00</time>
      </trkpt>
      <trkpt lat="48.90873" lon="-0.47014">
        <ele>46</ele>
        <time>2021-10-06T20:28:18+02:00</time>
      </trkpt>
      <trkpt lat="48.90852" lon="-0.47">
        <ele>49</ele>
        <time>2021-10-06T20:28:18+02:00</time>
      </trkpt>
      <trkpt lat="48.9083" lon="-0.46987">
        <ele>52</ele>
        <time>2021-10-06T20:28:18+02:00</time>
      </trkpt>
      <trkpt lat="48.9081" lon="-0.4697">
        <ele>54</ele>
        <time>2021-10-06T20:28:18+02:00</time>
      </trkpt>
      <trkpt lat="48.90788" lon="-0.46959">
        <ele>56</ele>
        <time>2021-10-06T20:28:18+02:00</time>
      </trkpt>
      <trkpt lat="48.90767" lon="-0.46947">
        <ele>58</ele>
        <time>2021-10-06T20:28:18+02:00</time>
      </trkpt>
      <trkpt lat="48.90745" lon="-0.46935">
        <ele>59</ele>
        <time>2021-10-06T20:28:18+02:00</time>
      </trkpt>
      <trkpt lat="48.90725" lon="-0.46922">
        <ele>61</ele>
        <time>2021-10-06T20:28:18+02:00</time>
      </trkpt>
      <trkpt lat="48.90703" lon="-0.46913">
        <ele>62</ele>
        <time>2021-10-06T20:28:18+02:00</time>
      </trkpt>
      <trkpt lat="48.9068" lon="-0.46902">
        <ele>63</ele>
        <time>2021-10-06T20:28:18+02:00</time>
      </trkpt>
      <trkpt lat="48.90657" lon="-0.46887">
        <ele>63</ele>
        <time>2021-10-06T20:28:18+02:00</time>
      </trkpt>
      <trkpt lat="48.90637" lon="-0.46872">
        <ele>64</ele>
        <time>2021-10-06T20:28:18+02:00</time>
      </trkpt>
      <trkpt lat="48.90617" lon="-0.46849">
        <ele>65</ele>
        <time>2021-10-06T20:28:18+02:00</time>
      </trkpt>
      <trkpt lat="48.90604" lon="-0.46821">
        <ele>65</ele>
        <time>2021-10-06T20:28:18+02:00</time>
      </trkpt>
      <trkpt lat="48.90591" lon="-0.46792">
        <ele>65</ele>
        <time>2021-10-06T20:28:18+02:00</time>
      </trkpt>
      <trkpt lat="48.90574" lon="-0.46769">
        <ele>66</ele>
        <time>2021-10-06T20:28:18+02:00</time>
      </trkpt>
      <trkpt lat="48.90552" lon="-0.46785">
        <ele>66</ele>
        <time>2021-10-06T20:28:18+02:00</time>
      </trkpt>
      <trkpt lat="48.90565" lon="-0.46815">
        <ele>66</ele>
        <time>2021-10-06T20:28:18+02:00</time>
      </trkpt>
      <trkpt lat="48.90583" lon="-0.46844">
        <ele>65</ele>
        <time>2021-10-06T20:28:18+02:00</time>
      </trkpt>
      <trkpt lat="48.90599" lon="-0.4687">
        <ele>64</ele>
        <time>2021-10-06T20:28:18+02:00</time>
      </trkpt>
      <trkpt lat="48.90615" lon="-0.46893">
        <ele>64</ele>
        <time>2021-10-06T20:28:18+02:00</time>
      </trkpt>
      <trkpt lat="48.90634" lon="-0.46922">
        <ele>63</ele>
        <time>2021-10-06T20:28:18+02:00</time>
      </trkpt>
      <trkpt lat="48.90653" lon="-0.46945">
        <ele>62</ele>
        <time>2021-10-06T20:28:18+02:00</time>
      </trkpt>
      <trkpt lat="48.90663" lon="-0.4698">
        <ele>61</ele>
        <time>2021-10-06T20:28:18+02:00</time>
      </trkpt>
      <trkpt lat="48.90682" lon="-0.47001">
        <ele>60</ele>
        <time>2021-10-06T20:28:18+02:00</time>
      </trkpt>
      <trkpt lat="48.90701" lon="-0.47022">
        <ele>60</ele>
        <time>2021-10-06T20:28:18+02:00</time>
      </trkpt>
      <trkpt lat="48.90722" lon="-0.47041">
        <ele>59</ele>
        <time>2021-10-06T20:28:18+02:00</time>
      </trkpt>
      <trkpt lat="48.90743" lon="-0.47058">
        <ele>59</ele>
        <time>2021-10-06T20:28:18+02:00</time>
      </trkpt>
      <trkpt lat="48.90764" lon="-0.47073">
        <ele>59</ele>
        <time>2021-10-06T20:28:18+02:00</time>
      </trkpt>
      <trkpt lat="48.90786" lon="-0.47088">
        <ele>56</ele>
        <time>2021-10-06T20:28:18+02:00</time>
      </trkpt>
      <trkpt lat="48.9081" lon="-0.47103">
        <ele>50</ele>
        <time>2021-10-06T20:28:18+02:00</time>
      </trkpt>
      <trkpt lat="48.90834" lon="-0.47116">
        <ele>48</ele>
        <time>2021-10-06T20:28:18+02:00</time>
      </trkpt>
      <trkpt lat="48.90856" lon="-0.47127">
        <ele>49</ele>
        <time>2021-10-06T20:28:18+02:00</time>
      </trkpt>
      <trkpt lat="48.90886" lon="-0.4714">
        <ele>41</ele>
        <time>2021-10-06T20:28:18+02:00</time>
      </trkpt>
      <trkpt lat="48.9091" lon="-0.47144">
        <ele>38</ele>
        <time>2021-10-06T20:28:18+02:00</time>
      </trkpt>
      <trkpt lat="48.90934" lon="-0.47151">
        <ele>36</ele>
        <time>2021-10-06T20:28:18+02:00</time>
      </trkpt>
      <trkpt lat="48.90957" lon="-0.47162">
        <ele>35</ele>
        <time>2021-10-06T20:28:18+02:00</time>
      </trkpt>
      <trkpt lat="48.90982" lon="-0.47172">
        <ele>37</ele>
        <time>2021-10-06T20:28:18+02:00</time>
      </trkpt>
      <trkpt lat="48.91005" lon="-0.47182">
        <ele>41</ele>
        <time>2021-10-06T20:28:18+02:00</time>
      </trkpt>
      <trkpt lat="48.91028" lon="-0.47192">
        <ele>47</ele>
        <time>2021-10-06T20:28:18+02:00</time>
      </trkpt>
      <trkpt lat="48.9105" lon="-0.47207">
        <ele>54</ele>
        <time>2021-10-06T20:28:18+02:00</time>
      </trkpt>
      <trkpt lat="48.91073" lon="-0.4722">
        <ele>59</ele>
        <time>2021-10-06T20:28:18+02:00</time>
      </trkpt>
      <trkpt lat="48.91098" lon="-0.47229">
        <ele>63</ele>
        <time>2021-10-06T20:28:18+02:00</time>
      </trkpt>
      <trkpt lat="48.91121" lon="-0.47241">
        <ele>64</ele>
        <time>2021-10-06T20:28:18+02:00</time>
      </trkpt>
      <trkpt lat="48.91146" lon="-0.4725">
        <ele>58</ele>
        <time>2021-10-06T20:28:18+02:00</time>
      </trkpt>
      <trkpt lat="48.91171" lon="-0.47256">
        <ele>59</ele>
        <time>2021-10-06T20:28:18+02:00</time>
      </trkpt>
      <trkpt lat="48.91195" lon="-0.4726">
        <ele>59</ele>
        <time>2021-10-06T20:28:18+02:00</time>
      </trkpt>
      <trkpt lat="48.91222" lon="-0.47262">
        <ele>58</ele>
        <time>2021-10-06T20:28:18+02:00</time>
      </trkpt>
      <trkpt lat="48.91248" lon="-0.47264">
        <ele>57</ele>
        <time>2021-10-06T20:28:18+02:00</time>
      </trkpt>
      <trkpt lat="48.91274" lon="-0.47263">
        <ele>55</ele>
        <time>2021-10-06T20:28:18+02:00</time>
      </trkpt>
      <trkpt lat="48.91301" lon="-0.4726">
        <ele>54</ele>
        <time>2021-10-06T20:28:18+02:00</time>
      </trkpt>
      <trkpt lat="48.91325" lon="-0.47257">
        <ele>54</ele>
        <time>2021-10-06T20:28:18+02:00</time>
      </trkpt>
      <trkpt lat="48.91348" lon="-0.47254">
        <ele>54</ele>
        <time>2021-10-06T20:28:18+02:00</time>
      </trkpt>
      <trkpt lat="48.91372" lon="-0.47251">
        <ele>55</ele>
        <time>2021-10-06T20:28:18+02:00</time>
      </trkpt>
      <trkpt lat="48.91399" lon="-0.47247">
        <ele>54</ele>
        <time>2021-10-06T20:28:18+02:00</time>
      </trkpt>
      <trkpt lat="48.91427" lon="-0.47244">
        <ele>50</ele>
        <time>2021-10-06T20:28:18+02:00</time>
      </trkpt>
      <trkpt lat="48.91451" lon="-0.4724">
        <ele>46</ele>
        <time>2021-10-06T20:28:18+02:00</time>
      </trkpt>
      <trkpt lat="48.91475" lon="-0.47235">
        <ele>46</ele>
        <time>2021-10-06T20:28:18+02:00</time>
      </trkpt>
      <trkpt lat="48.915" lon="-0.47234">
        <ele>47</ele>
        <time>2021-10-06T20:28:18+02:00</time>
      </trkpt>
      <trkpt lat="48.91526" lon="-0.4723">
        <ele>48</ele>
        <time>2021-10-06T20:28:18+02:00</time>
      </trkpt>
      <trkpt lat="48.91552" lon="-0.47224">
        <ele>50</ele>
        <time>2021-10-06T20:28:18+02:00</time>
      </trkpt>
      <trkpt lat="48.91575" lon="-0.47223">
        <ele>52</ele>
        <time>2021-10-06T20:28:18+02:00</time>
      </trkpt>
      <trkpt lat="48.91599" lon="-0.47221">
        <ele>52</ele>
        <time>2021-10-06T20:28:18+02:00</time>
      </trkpt>
      <trkpt lat="48.91624" lon="-0.47219">
        <ele>50</ele>
        <time>2021-10-06T20:28:18+02:00</time>
      </trkpt>
      <trkpt lat="48.91649" lon="-0.47215">
        <ele>48</ele>
        <time>2021-10-06T20:28:18+02:00</time>
      </trkpt>
      <trkpt lat="48.91674" lon="-0.47211">
        <ele>46</ele>
        <time>2021-10-06T20:28:18+02:00</time>
      </trkpt>
      <trkpt lat="48.91698" lon="-0.47208">
        <ele>45</ele>
        <time>2021-10-06T20:28:18+02:00</time>
      </trkpt>
      <trkpt lat="48.9172" lon="-0.47204">
        <ele>45</ele>
        <time>2021-10-06T20:28:18+02:00</time>
      </trkpt>
      <trkpt lat="48.91747" lon="-0.47201">
        <ele>46</ele>
        <time>2021-10-06T20:28:18+02:00</time>
      </trkpt>
      <trkpt lat="48.91772" lon="-0.47196">
        <ele>48</ele>
        <time>2021-10-06T20:28:18+02:00</time>
      </trkpt>
      <trkpt lat="48.91799" lon="-0.47194">
        <ele>49</ele>
        <time>2021-10-06T20:28:18+02:00</time>
      </trkpt>
      <trkpt lat="48.91826" lon="-0.4719">
        <ele>48</ele>
        <time>2021-10-06T20:28:18+02:00</time>
      </trkpt>
      <trkpt lat="48.91854" lon="-0.47189">
        <ele>47</ele>
        <time>2021-10-06T20:28:18+02:00</time>
      </trkpt>
      <trkpt lat="48.91878" lon="-0.47184">
        <ele>47</ele>
        <time>2021-10-06T20:28:18+02:00</time>
      </trkpt>
      <trkpt lat="48.91901" lon="-0.47182">
        <ele>46</ele>
        <time>2021-10-06T20:28:18+02:00</time>
      </trkpt>
      <trkpt lat="48.91929" lon="-0.47177">
        <ele>46</ele>
        <time>2021-10-06T20:28:18+02:00</time>
      </trkpt>
      <trkpt lat="48.91956" lon="-0.47172">
        <ele>47</ele>
        <time>2021-10-06T20:28:18+02:00</time>
      </trkpt>
      <trkpt lat="48.91983" lon="-0.47168">
        <ele>47</ele>
        <time>2021-10-06T20:28:18+02:00</time>
      </trkpt>
      <trkpt lat="48.92011" lon="-0.47165">
        <ele>47</ele>
        <time>2021-10-06T20:28:18+02:00</time>
      </trkpt>
      <trkpt lat="48.92034" lon="-0.4716">
        <ele>45</ele>
        <time>2021-10-06T20:28:18+02:00</time>
      </trkpt>
      <trkpt lat="48.92059" lon="-0.47154">
        <ele>44</ele>
        <time>2021-10-06T20:28:18+02:00</time>
      </trkpt>
      <trkpt lat="48.92084" lon="-0.47144">
        <ele>43</ele>
        <time>2021-10-06T20:28:18+02:00</time>
      </trkpt>
      <trkpt lat="48.92108" lon="-0.47136">
        <ele>44</ele>
        <time>2021-10-06T20:28:18+02:00</time>
      </trkpt>
      <trkpt lat="48.92133" lon="-0.47129">
        <ele>43</ele>
        <time>2021-10-06T20:28:18+02:00</time>
      </trkpt>
      <trkpt lat="48.92155" lon="-0.47121">
        <ele>43</ele>
        <time>2021-10-06T20:28:18+02:00</time>
      </trkpt>
      <trkpt lat="48.92179" lon="-0.47107">
        <ele>43</ele>
        <time>2021-10-06T20:28:18+02:00</time>
      </trkpt>
      <trkpt lat="48.92203" lon="-0.47099">
        <ele>44</ele>
        <time>2021-10-06T20:28:18+02:00</time>
      </trkpt>
      <trkpt lat="48.92227" lon="-0.47091">
        <ele>43</ele>
        <time>2021-10-06T20:28:18+02:00</time>
      </trkpt>
      <trkpt lat="48.92254" lon="-0.47081">
        <ele>43</ele>
        <time>2021-10-06T20:28:18+02:00</time>
      </trkpt>
      <trkpt lat="48.9228" lon="-0.47072">
        <ele>43</ele>
        <time>2021-10-06T20:28:18+02:00</time>
      </trkpt>
      <trkpt lat="48.92307" lon="-0.47064">
        <ele>43</ele>
        <time>2021-10-06T20:28:18+02:00</time>
      </trkpt>
      <trkpt lat="48.92332" lon="-0.47056">
        <ele>44</ele>
        <time>2021-10-06T20:28:18+02:00</time>
      </trkpt>
      <trkpt lat="48.92358" lon="-0.47048">
        <ele>44</ele>
        <time>2021-10-06T20:28:18+02:00</time>
      </trkpt>
      <trkpt lat="48.9238" lon="-0.47042">
        <ele>44</ele>
        <time>2021-10-06T20:28:18+02:00</time>
      </trkpt>
      <trkpt lat="48.92404" lon="-0.47034">
        <ele>44</ele>
        <time>2021-10-06T20:28:18+02:00</time>
      </trkpt>
      <trkpt lat="48.9243" lon="-0.47026">
        <ele>44</ele>
        <time>2021-10-06T20:28:18+02:00</time>
      </trkpt>
      <trkpt lat="48.92455" lon="-0.4702">
        <ele>44</ele>
        <time>2021-10-06T20:28:18+02:00</time>
      </trkpt>
      <trkpt lat="48.9248" lon="-0.4702">
        <ele>43</ele>
        <time>2021-10-06T20:28:18+02:00</time>
      </trkpt>
      <trkpt lat="48.92508" lon="-0.47022">
        <ele>43</ele>
        <time>2021-10-06T20:28:18+02:00</time>
      </trkpt>
      <trkpt lat="48.92535" lon="-0.47026">
        <ele>43</ele>
        <time>2021-10-06T20:28:18+02:00</time>
      </trkpt>
      <trkpt lat="48.92559" lon="-0.47031">
        <ele>43</ele>
        <time>2021-10-06T20:28:18+02:00</time>
      </trkpt>
      <trkpt lat="48.92584" lon="-0.47038">
        <ele>43</ele>
        <time>2021-10-06T20:28:18+02:00</time>
      </trkpt>
      <trkpt lat="48.92608" lon="-0.47047">
        <ele>43</ele>
        <time>2021-10-06T20:28:18+02:00</time>
      </trkpt>
      <trkpt lat="48.92631" lon="-0.47061">
        <ele>43</ele>
        <time>2021-10-06T20:28:18+02:00</time>
      </trkpt>
      <trkpt lat="48.92653" lon="-0.47075">
        <ele>42</ele>
        <time>2021-10-06T20:28:18+02:00</time>
      </trkpt>
      <trkpt lat="48.92677" lon="-0.47094">
        <ele>41</ele>
        <time>2021-10-06T20:28:18+02:00</time>
      </trkpt>
      <trkpt lat="48.92699" lon="-0.47115">
        <ele>41</ele>
        <time>2021-10-06T20:28:18+02:00</time>
      </trkpt>
      <trkpt lat="48.92717" lon="-0.47139">
        <ele>41</ele>
        <time>2021-10-06T20:28:18+02:00</time>
      </trkpt>
      <trkpt lat="48.92737" lon="-0.47168">
        <ele>40</ele>
        <time>2021-10-06T20:28:18+02:00</time>
      </trkpt>
      <trkpt lat="48.92755" lon="-0.472">
        <ele>39</ele>
        <time>2021-10-06T20:28:18+02:00</time>
      </trkpt>
      <trkpt lat="48.92768" lon="-0.47231">
        <ele>38</ele>
        <time>2021-10-06T20:28:18+02:00</time>
      </trkpt>
      <trkpt lat="48.9278" lon="-0.47263">
        <ele>37</ele>
        <time>2021-10-06T20:28:18+02:00</time>
      </trkpt>
      <trkpt lat="48.92791" lon="-0.473">
        <ele>37</ele>
        <time>2021-10-06T20:28:18+02:00</time>
      </trkpt>
      <trkpt lat="48.92805" lon="-0.47354">
        <ele>37</ele>
        <time>2021-10-06T20:28:18+02:00</time>
      </trkpt>
      <trkpt lat="48.92812" lon="-0.47393">
        <ele>37</ele>
        <time>2021-10-06T20:28:18+02:00</time>
      </trkpt>
      <trkpt lat="48.92815" lon="-0.47428">
        <ele>38</ele>
        <time>2021-10-06T20:28:18+02:00</time>
      </trkpt>
      <trkpt lat="48.92818" lon="-0.4747">
        <ele>41</ele>
        <time>2021-10-06T20:28:18+02:00</time>
      </trkpt>
      <trkpt lat="48.92818" lon="-0.47505">
        <ele>43</ele>
        <time>2021-10-06T20:28:18+02:00</time>
      </trkpt>
      <trkpt lat="48.92817" lon="-0.47547">
        <ele>46</ele>
        <time>2021-10-06T20:28:18+02:00</time>
      </trkpt>
      <trkpt lat="48.92813" lon="-0.47589">
        <ele>50</ele>
        <time>2021-10-06T20:28:18+02:00</time>
      </trkpt>
      <trkpt lat="48.92808" lon="-0.47629">
        <ele>49</ele>
        <time>2021-10-06T20:28:18+02:00</time>
      </trkpt>
      <trkpt lat="48.92801" lon="-0.47668">
        <ele>47</ele>
        <time>2021-10-06T20:28:18+02:00</time>
      </trkpt>
      <trkpt lat="48.92793" lon="-0.47707">
        <ele>47</ele>
        <time>2021-10-06T20:28:18+02:00</time>
      </trkpt>
      <trkpt lat="48.92784" lon="-0.47743">
        <ele>45</ele>
        <time>2021-10-06T20:28:18+02:00</time>
      </trkpt>
      <trkpt lat="48.92775" lon="-0.47784">
        <ele>44</ele>
        <time>2021-10-06T20:28:18+02:00</time>
      </trkpt>
      <trkpt lat="48.92767" lon="-0.47819">
        <ele>41</ele>
        <time>2021-10-06T20:28:18+02:00</time>
      </trkpt>
      <trkpt lat="48.92762" lon="-0.47855">
        <ele>40</ele>
        <time>2021-10-06T20:28:18+02:00</time>
      </trkpt>
      <trkpt lat="48.92758" lon="-0.47895">
        <ele>39</ele>
        <time>2021-10-06T20:28:18+02:00</time>
      </trkpt>
      <trkpt lat="48.92757" lon="-0.47935">
        <ele>37</ele>
        <time>2021-10-06T20:28:18+02:00</time>
      </trkpt>
      <trkpt lat="48.92756" lon="-0.47974">
        <ele>37</ele>
        <time>2021-10-06T20:28:18+02:00</time>
      </trkpt>
      <trkpt lat="48.92759" lon="-0.48014">
        <ele>37</ele>
        <time>2021-10-06T20:28:18+02:00</time>
      </trkpt>
      <trkpt lat="48.92766" lon="-0.48049">
        <ele>39</ele>
        <time>2021-10-06T20:28:18+02:00</time>
      </trkpt>
      <trkpt lat="48.9277" lon="-0.48084">
        <ele>40</ele>
        <time>2021-10-06T20:28:18+02:00</time>
      </trkpt>
      <trkpt lat="48.92766" lon="-0.48118">
        <ele>39</ele>
        <time>2021-10-06T20:28:18+02:00</time>
      </trkpt>
      <trkpt lat="48.92771" lon="-0.48152">
        <ele>40</ele>
        <time>2021-10-06T20:28:18+02:00</time>
      </trkpt>
      <trkpt lat="48.9277" lon="-0.48188">
        <ele>40</ele>
        <time>2021-10-06T20:28:18+02:00</time>
      </trkpt>
      <trkpt lat="48.92774" lon="-0.48223">
        <ele>40</ele>
        <time>2021-10-06T20:28:18+02:00</time>
      </trkpt>
      <trkpt lat="48.92779" lon="-0.48261">
        <ele>40</ele>
        <time>2021-10-06T20:28:18+02:00</time>
      </trkpt>
      <trkpt lat="48.92782" lon="-0.483">
        <ele>40</ele>
        <time>2021-10-06T20:28:18+02:00</time>
      </trkpt>
      <trkpt lat="48.92785" lon="-0.48338">
        <ele>41</ele>
        <time>2021-10-06T20:28:18+02:00</time>
      </trkpt>
      <trkpt lat="48.92786" lon="-0.48377">
        <ele>40</ele>
        <time>2021-10-06T20:28:18+02:00</time>
      </trkpt>
      <trkpt lat="48.92787" lon="-0.48412">
        <ele>40</ele>
        <time>2021-10-06T20:28:18+02:00</time>
      </trkpt>
      <trkpt lat="48.92787" lon="-0.4845">
        <ele>39</ele>
        <time>2021-10-06T20:28:18+02:00</time>
      </trkpt>
      <trkpt lat="48.92788" lon="-0.48491">
        <ele>38</ele>
        <time>2021-10-06T20:28:18+02:00</time>
      </trkpt>
      <trkpt lat="48.92789" lon="-0.48526">
        <ele>38</ele>
        <time>2021-10-06T20:28:18+02:00</time>
      </trkpt>
      <trkpt lat="48.92791" lon="-0.4856">
        <ele>38</ele>
        <time>2021-10-06T20:28:18+02:00</time>
      </trkpt>
      <trkpt lat="48.92795" lon="-0.48601">
        <ele>38</ele>
        <time>2021-10-06T20:28:18+02:00</time>
      </trkpt>
      <trkpt lat="48.92798" lon="-0.48636">
        <ele>39</ele>
        <time>2021-10-06T20:28:18+02:00</time>
      </trkpt>
      <trkpt lat="48.92801" lon="-0.48674">
        <ele>40</ele>
        <time>2021-10-06T20:28:18+02:00</time>
      </trkpt>
      <trkpt lat="48.928" lon="-0.48715">
        <ele>41</ele>
        <time>2021-10-06T20:28:18+02:00</time>
      </trkpt>
      <trkpt lat="48.92799" lon="-0.48756">
        <ele>41</ele>
        <time>2021-10-06T20:28:18+02:00</time>
      </trkpt>
      <trkpt lat="48.9279" lon="-0.48796">
        <ele>42</ele>
        <time>2021-10-06T20:28:18+02:00</time>
      </trkpt>
      <trkpt lat="48.92793" lon="-0.48839">
        <ele>42</ele>
        <time>2021-10-06T20:28:18+02:00</time>
      </trkpt>
      <trkpt lat="48.92795" lon="-0.48876">
        <ele>43</ele>
        <time>2021-10-06T20:28:18+02:00</time>
      </trkpt>
      <trkpt lat="48.92797" lon="-0.48915">
        <ele>43</ele>
        <time>2021-10-06T20:28:18+02:00</time>
      </trkpt>
      <trkpt lat="48.92799" lon="-0.48954">
        <ele>43</ele>
        <time>2021-10-06T20:28:18+02:00</time>
      </trkpt>
      <trkpt lat="48.92802" lon="-0.48993">
        <ele>43</ele>
        <time>2021-10-06T20:28:18+02:00</time>
      </trkpt>
      <trkpt lat="48.92812" lon="-0.49032">
        <ele>44</ele>
        <time>2021-10-06T20:28:18+02:00</time>
      </trkpt>
      <trkpt lat="48.92816" lon="-0.49069">
        <ele>44</ele>
        <time>2021-10-06T20:28:18+02:00</time>
      </trkpt>
      <trkpt lat="48.92818" lon="-0.49107">
        <ele>44</ele>
        <time>2021-10-06T20:28:18+02:00</time>
      </trkpt>
      <trkpt lat="48.9281" lon="-0.49141">
        <ele>43</ele>
        <time>2021-10-06T20:28:18+02:00</time>
      </trkpt>
      <trkpt lat="48.92813" lon="-0.49177">
        <ele>43</ele>
        <time>2021-10-06T20:28:18+02:00</time>
      </trkpt>
      <trkpt lat="48.92817" lon="-0.49212">
        <ele>43</ele>
        <time>2021-10-06T20:28:18+02:00</time>
      </trkpt>
      <trkpt lat="48.92821" lon="-0.49249">
        <ele>42</ele>
        <time>2021-10-06T20:28:18+02:00</time>
      </trkpt>
      <trkpt lat="48.92825" lon="-0.49283">
        <ele>42</ele>
        <time>2021-10-06T20:28:18+02:00</time>
      </trkpt>
      <trkpt lat="48.92829" lon="-0.49321">
        <ele>41</ele>
        <time>2021-10-06T20:28:18+02:00</time>
      </trkpt>
      <trkpt lat="48.92829" lon="-0.4936">
        <ele>41</ele>
        <time>2021-10-06T20:28:18+02:00</time>
      </trkpt>
      <trkpt lat="48.92829" lon="-0.49396">
        <ele>40</ele>
        <time>2021-10-06T20:28:18+02:00</time>
      </trkpt>
      <trkpt lat="48.92831" lon="-0.49435">
        <ele>41</ele>
        <time>2021-10-06T20:28:18+02:00</time>
      </trkpt>
      <trkpt lat="48.92836" lon="-0.49473">
        <ele>41</ele>
        <time>2021-10-06T20:28:18+02:00</time>
      </trkpt>
      <trkpt lat="48.92836" lon="-0.49514">
        <ele>41</ele>
        <time>2021-10-06T20:28:18+02:00</time>
      </trkpt>
      <trkpt lat="48.92835" lon="-0.4955">
        <ele>40</ele>
        <time>2021-10-06T20:28:18+02:00</time>
      </trkpt>
      <trkpt lat="48.92836" lon="-0.49586">
        <ele>40</ele>
        <time>2021-10-06T20:28:18+02:00</time>
      </trkpt>
      <trkpt lat="48.92838" lon="-0.4962">
        <ele>40</ele>
        <time>2021-10-06T20:28:18+02:00</time>
      </trkpt>
      <trkpt lat="48.9284" lon="-0.49657">
        <ele>40</ele>
        <time>2021-10-06T20:28:18+02:00</time>
      </trkpt>
      <trkpt lat="48.92842" lon="-0.49696">
        <ele>40</ele>
        <time>2021-10-06T20:28:18+02:00</time>
      </trkpt>
      <trkpt lat="48.92845" lon="-0.49733">
        <ele>40</ele>
        <time>2021-10-06T20:28:18+02:00</time>
      </trkpt>
      <trkpt lat="48.92847" lon="-0.49768">
        <ele>41</ele>
        <time>2021-10-06T20:28:18+02:00</time>
      </trkpt>
      <trkpt lat="48.92849" lon="-0.49805">
        <ele>41</ele>
        <time>2021-10-06T20:28:18+02:00</time>
      </trkpt>
      <trkpt lat="48.92851" lon="-0.49841">
        <ele>42</ele>
        <time>2021-10-06T20:28:18+02:00</time>
      </trkpt>
      <trkpt lat="48.92853" lon="-0.49878">
        <ele>43</ele>
        <time>2021-10-06T20:28:18+02:00</time>
      </trkpt>
      <trkpt lat="48.92855" lon="-0.49915">
        <ele>43</ele>
        <time>2021-10-06T20:28:18+02:00</time>
      </trkpt>
      <trkpt lat="48.92859" lon="-0.49952">
        <ele>43</ele>
        <time>2021-10-06T20:28:18+02:00</time>
      </trkpt>
      <trkpt lat="48.92863" lon="-0.49992">
        <ele>42</ele>
        <time>2021-10-06T20:28:18+02:00</time>
      </trkpt>
      <trkpt lat="48.92868" lon="-0.50025">
        <ele>41</ele>
        <time>2021-10-06T20:28:18+02:00</time>
      </trkpt>
      <trkpt lat="48.92874" lon="-0.50063">
        <ele>39</ele>
        <time>2021-10-06T20:28:18+02:00</time>
      </trkpt>
      <trkpt lat="48.92881" lon="-0.50102">
        <ele>38</ele>
        <time>2021-10-06T20:28:18+02:00</time>
      </trkpt>
      <trkpt lat="48.92887" lon="-0.50138">
        <ele>37</ele>
        <time>2021-10-06T20:28:18+02:00</time>
      </trkpt>
      <trkpt lat="48.92893" lon="-0.50179">
        <ele>36</ele>
        <time>2021-10-06T20:28:18+02:00</time>
      </trkpt>
      <trkpt lat="48.92899" lon="-0.50215">
        <ele>38</ele>
        <time>2021-10-06T20:28:18+02:00</time>
      </trkpt>
      <trkpt lat="48.92904" lon="-0.50254">
        <ele>39</ele>
        <time>2021-10-06T20:28:18+02:00</time>
      </trkpt>
      <trkpt lat="48.92909" lon="-0.50291">
        <ele>38</ele>
        <time>2021-10-06T20:28:18+02:00</time>
      </trkpt>
      <trkpt lat="48.92922" lon="-0.50328">
        <ele>37</ele>
        <time>2021-10-06T20:28:18+02:00</time>
      </trkpt>
      <trkpt lat="48.9292" lon="-0.50363">
        <ele>36</ele>
        <time>2021-10-06T20:28:18+02:00</time>
      </trkpt>
      <trkpt lat="48.92924" lon="-0.50396">
        <ele>37</ele>
        <time>2021-10-06T20:28:18+02:00</time>
      </trkpt>
      <trkpt lat="48.92929" lon="-0.5043">
        <ele>38</ele>
        <time>2021-10-06T20:28:18+02:00</time>
      </trkpt>
      <trkpt lat="48.92934" lon="-0.50469">
        <ele>37</ele>
        <time>2021-10-06T20:28:18+02:00</time>
      </trkpt>
      <trkpt lat="48.9294" lon="-0.50511">
        <ele>36</ele>
        <time>2021-10-06T20:28:18+02:00</time>
      </trkpt>
      <trkpt lat="48.92945" lon="-0.50549">
        <ele>36</ele>
        <time>2021-10-06T20:28:18+02:00</time>
      </trkpt>
      <trkpt lat="48.9295" lon="-0.50588">
        <ele>35</ele>
        <time>2021-10-06T20:28:18+02:00</time>
      </trkpt>
      <trkpt lat="48.92955" lon="-0.50629">
        <ele>35</ele>
        <time>2021-10-06T20:28:18+02:00</time>
      </trkpt>
      <trkpt lat="48.9296" lon="-0.5067">
        <ele>35</ele>
        <time>2021-10-06T20:28:18+02:00</time>
      </trkpt>
      <trkpt lat="48.92967" lon="-0.50711">
        <ele>37</ele>
        <time>2021-10-06T20:28:18+02:00</time>
      </trkpt>
      <trkpt lat="48.92975" lon="-0.50749">
        <ele>40</ele>
        <time>2021-10-06T20:28:18+02:00</time>
      </trkpt>
      <trkpt lat="48.92986" lon="-0.50783">
        <ele>43</ele>
        <time>2021-10-06T20:28:18+02:00</time>
      </trkpt>
      <trkpt lat="48.93" lon="-0.50815">
        <ele>47</ele>
        <time>2021-10-06T20:28:18+02:00</time>
      </trkpt>
      <trkpt lat="48.93014" lon="-0.50846">
        <ele>49</ele>
        <time>2021-10-06T20:28:18+02:00</time>
      </trkpt>
      <trkpt lat="48.93029" lon="-0.50876">
        <ele>50</ele>
        <time>2021-10-06T20:28:18+02:00</time>
      </trkpt>
      <trkpt lat="48.93046" lon="-0.50907">
        <ele>49</ele>
        <time>2021-10-06T20:28:18+02:00</time>
      </trkpt>
      <trkpt lat="48.93061" lon="-0.50933">
        <ele>48</ele>
        <time>2021-10-06T20:28:18+02:00</time>
      </trkpt>
      <trkpt lat="48.93081" lon="-0.50957">
        <ele>44</ele>
        <time>2021-10-06T20:28:18+02:00</time>
      </trkpt>
      <trkpt lat="48.931" lon="-0.5098">
        <ele>42</ele>
        <time>2021-10-06T20:28:18+02:00</time>
      </trkpt>
      <trkpt lat="48.93118" lon="-0.51007">
        <ele>40</ele>
        <time>2021-10-06T20:28:18+02:00</time>
      </trkpt>
      <trkpt lat="48.93141" lon="-0.51017">
        <ele>37</ele>
        <time>2021-10-06T20:28:18+02:00</time>
      </trkpt>
      <trkpt lat="48.93162" lon="-0.51037">
        <ele>36</ele>
        <time>2021-10-06T20:28:18+02:00</time>
      </trkpt>
      <trkpt lat="48.93184" lon="-0.51046">
        <ele>35</ele>
        <time>2021-10-06T20:28:18+02:00</time>
      </trkpt>
      <trkpt lat="48.93207" lon="-0.51061">
        <ele>34</ele>
        <time>2021-10-06T20:28:18+02:00</time>
      </trkpt>
      <trkpt lat="48.93229" lon="-0.5107">
        <ele>34</ele>
        <time>2021-10-06T20:28:18+02:00</time>
      </trkpt>
      <trkpt lat="48.93251" lon="-0.51075">
        <ele>33</ele>
        <time>2021-10-06T20:28:18+02:00</time>
      </trkpt>
      <trkpt lat="48.93277" lon="-0.51078">
        <ele>33</ele>
        <time>2021-10-06T20:28:18+02:00</time>
      </trkpt>
      <trkpt lat="48.93299" lon="-0.51083">
        <ele>32</ele>
        <time>2021-10-06T20:28:18+02:00</time>
      </trkpt>
      <trkpt lat="48.93323" lon="-0.5108">
        <ele>32</ele>
        <time>2021-10-06T20:28:18+02:00</time>
      </trkpt>
      <trkpt lat="48.93346" lon="-0.51073">
        <ele>32</ele>
        <time>2021-10-06T20:28:18+02:00</time>
      </trkpt>
      <trkpt lat="48.93373" lon="-0.51072">
        <ele>32</ele>
        <time>2021-10-06T20:28:18+02:00</time>
      </trkpt>
      <trkpt lat="48.934" lon="-0.51064">
        <ele>32</ele>
        <time>2021-10-06T20:28:18+02:00</time>
      </trkpt>
      <trkpt lat="48.93425" lon="-0.51052">
        <ele>32</ele>
        <time>2021-10-06T20:28:18+02:00</time>
      </trkpt>
      <trkpt lat="48.93447" lon="-0.5104">
        <ele>32</ele>
        <time>2021-10-06T20:28:18+02:00</time>
      </trkpt>
      <trkpt lat="48.9347" lon="-0.51024">
        <ele>32</ele>
        <time>2021-10-06T20:28:18+02:00</time>
      </trkpt>
      <trkpt lat="48.93493" lon="-0.51004">
        <ele>32</ele>
        <time>2021-10-06T20:28:18+02:00</time>
      </trkpt>
      <trkpt lat="48.93515" lon="-0.50985">
        <ele>32</ele>
        <time>2021-10-06T20:28:18+02:00</time>
      </trkpt>
      <trkpt lat="48.93536" lon="-0.50968">
        <ele>32</ele>
        <time>2021-10-06T20:28:18+02:00</time>
      </trkpt>
      <trkpt lat="48.93557" lon="-0.5095">
        <ele>32</ele>
        <time>2021-10-06T20:28:18+02:00</time>
      </trkpt>
      <trkpt lat="48.93576" lon="-0.50931">
        <ele>33</ele>
        <time>2021-10-06T20:28:18+02:00</time>
      </trkpt>
      <trkpt lat="48.93597" lon="-0.50909">
        <ele>33</ele>
        <time>2021-10-06T20:28:18+02:00</time>
      </trkpt>
      <trkpt lat="48.93616" lon="-0.50885">
        <ele>33</ele>
        <time>2021-10-06T20:28:18+02:00</time>
      </trkpt>
      <trkpt lat="48.93636" lon="-0.50864">
        <ele>34</ele>
        <time>2021-10-06T20:28:18+02:00</time>
      </trkpt>
      <trkpt lat="48.93654" lon="-0.50842">
        <ele>34</ele>
        <time>2021-10-06T20:28:18+02:00</time>
      </trkpt>
      <trkpt lat="48.93674" lon="-0.50819">
        <ele>35</ele>
        <time>2021-10-06T20:28:18+02:00</time>
      </trkpt>
      <trkpt lat="48.93694" lon="-0.50801">
        <ele>36</ele>
        <time>2021-10-06T20:28:18+02:00</time>
      </trkpt>
      <trkpt lat="48.93716" lon="-0.50778">
        <ele>37</ele>
        <time>2021-10-06T20:28:18+02:00</time>
      </trkpt>
      <trkpt lat="48.93738" lon="-0.50754">
        <ele>38</ele>
        <time>2021-10-06T20:28:18+02:00</time>
      </trkpt>
      <trkpt lat="48.93757" lon="-0.50732">
        <ele>38</ele>
        <time>2021-10-06T20:28:18+02:00</time>
      </trkpt>
      <trkpt lat="48.93778" lon="-0.5071">
        <ele>39</ele>
        <time>2021-10-06T20:28:18+02:00</time>
      </trkpt>
      <trkpt lat="48.93797" lon="-0.5069">
        <ele>39</ele>
        <time>2021-10-06T20:28:18+02:00</time>
      </trkpt>
      <trkpt lat="48.93818" lon="-0.50668">
        <ele>39</ele>
        <time>2021-10-06T20:28:18+02:00</time>
      </trkpt>
      <trkpt lat="48.93839" lon="-0.50647">
        <ele>39</ele>
        <time>2021-10-06T20:28:18+02:00</time>
      </trkpt>
      <trkpt lat="48.93859" lon="-0.50627">
        <ele>39</ele>
        <time>2021-10-06T20:28:18+02:00</time>
      </trkpt>
      <trkpt lat="48.93881" lon="-0.50605">
        <ele>39</ele>
        <time>2021-10-06T20:28:18+02:00</time>
      </trkpt>
      <trkpt lat="48.93904" lon="-0.50581">
        <ele>39</ele>
        <time>2021-10-06T20:28:18+02:00</time>
      </trkpt>
      <trkpt lat="48.93923" lon="-0.50561">
        <ele>39</ele>
        <time>2021-10-06T20:28:18+02:00</time>
      </trkpt>
      <trkpt lat="48.93944" lon="-0.50541">
        <ele>39</ele>
        <time>2021-10-06T20:28:18+02:00</time>
      </trkpt>
      <trkpt lat="48.93964" lon="-0.5052">
        <ele>39</ele>
        <time>2021-10-06T20:28:18+02:00</time>
      </trkpt>
      <trkpt lat="48.93984" lon="-0.50501">
        <ele>39</ele>
        <time>2021-10-06T20:28:18+02:00</time>
      </trkpt>
      <trkpt lat="48.94003" lon="-0.50482">
        <ele>39</ele>
        <time>2021-10-06T20:28:18+02:00</time>
      </trkpt>
      <trkpt lat="48.94023" lon="-0.50463">
        <ele>39</ele>
        <time>2021-10-06T20:28:18+02:00</time>
      </trkpt>
      <trkpt lat="48.94043" lon="-0.50442">
        <ele>39</ele>
        <time>2021-10-06T20:28:18+02:00</time>
      </trkpt>
      <trkpt lat="48.94066" lon="-0.50418">
        <ele>39</ele>
        <time>2021-10-06T20:28:18+02:00</time>
      </trkpt>
      <trkpt lat="48.94087" lon="-0.50396">
        <ele>39</ele>
        <time>2021-10-06T20:28:18+02:00</time>
      </trkpt>
      <trkpt lat="48.94106" lon="-0.50376">
        <ele>39</ele>
        <time>2021-10-06T20:28:18+02:00</time>
      </trkpt>
      <trkpt lat="48.94128" lon="-0.50354">
        <ele>39</ele>
        <time>2021-10-06T20:28:18+02:00</time>
      </trkpt>
      <trkpt lat="48.94149" lon="-0.50333">
        <ele>39</ele>
        <time>2021-10-06T20:28:18+02:00</time>
      </trkpt>
      <trkpt lat="48.94168" lon="-0.50313">
        <ele>39</ele>
        <time>2021-10-06T20:28:18+02:00</time>
      </trkpt>
      <trkpt lat="48.94188" lon="-0.50293">
        <ele>39</ele>
        <time>2021-10-06T20:28:18+02:00</time>
      </trkpt>
      <trkpt lat="48.94208" lon="-0.50273">
        <ele>39</ele>
        <time>2021-10-06T20:28:18+02:00</time>
      </trkpt>
      <trkpt lat="48.94227" lon="-0.50253">
        <ele>38</ele>
        <time>2021-10-06T20:28:18+02:00</time>
      </trkpt>
      <trkpt lat="48.94248" lon="-0.50231">
        <ele>39</ele>
        <time>2021-10-06T20:28:18+02:00</time>
      </trkpt>
      <trkpt lat="48.94268" lon="-0.50213">
        <ele>39</ele>
        <time>2021-10-06T20:28:18+02:00</time>
      </trkpt>
      <trkpt lat="48.94288" lon="-0.50195">
        <ele>39</ele>
        <time>2021-10-06T20:28:18+02:00</time>
      </trkpt>
      <trkpt lat="48.94308" lon="-0.50178">
        <ele>40</ele>
        <time>2021-10-06T20:28:18+02:00</time>
      </trkpt>
      <trkpt lat="48.94331" lon="-0.50163">
        <ele>39</ele>
        <time>2021-10-06T20:28:18+02:00</time>
      </trkpt>
      <trkpt lat="48.94355" lon="-0.50151">
        <ele>39</ele>
        <time>2021-10-06T20:28:18+02:00</time>
      </trkpt>
      <trkpt lat="48.94378" lon="-0.5014">
        <ele>38</ele>
        <time>2021-10-06T20:28:18+02:00</time>
      </trkpt>
      <trkpt lat="48.94403" lon="-0.50136">
        <ele>37</ele>
        <time>2021-10-06T20:28:18+02:00</time>
      </trkpt>
      <trkpt lat="48.94427" lon="-0.50134">
        <ele>36</ele>
        <time>2021-10-06T20:28:18+02:00</time>
      </trkpt>
      <trkpt lat="48.9445" lon="-0.50139">
        <ele>36</ele>
        <time>2021-10-06T20:28:18+02:00</time>
      </trkpt>
      <trkpt lat="48.94472" lon="-0.50149">
        <ele>36</ele>
        <time>2021-10-06T20:28:18+02:00</time>
      </trkpt>
      <trkpt lat="48.94495" lon="-0.5016">
        <ele>36</ele>
        <time>2021-10-06T20:28:18+02:00</time>
      </trkpt>
      <trkpt lat="48.94519" lon="-0.50173">
        <ele>35</ele>
        <time>2021-10-06T20:28:18+02:00</time>
      </trkpt>
      <trkpt lat="48.94539" lon="-0.5019">
        <ele>34</ele>
        <time>2021-10-06T20:28:18+02:00</time>
      </trkpt>
      <trkpt lat="48.94565" lon="-0.50202">
        <ele>34</ele>
        <time>2021-10-06T20:28:18+02:00</time>
      </trkpt>
      <trkpt lat="48.94588" lon="-0.5022">
        <ele>32</ele>
        <time>2021-10-06T20:28:18+02:00</time>
      </trkpt>
      <trkpt lat="48.94611" lon="-0.50234">
        <ele>31</ele>
        <time>2021-10-06T20:28:18+02:00</time>
      </trkpt>
      <trkpt lat="48.94637" lon="-0.5025">
        <ele>31</ele>
        <time>2021-10-06T20:28:18+02:00</time>
      </trkpt>
      <trkpt lat="48.9466" lon="-0.50261">
        <ele>32</ele>
        <time>2021-10-06T20:28:18+02:00</time>
      </trkpt>
      <trkpt lat="48.94683" lon="-0.50267">
        <ele>31</ele>
        <time>2021-10-06T20:28:18+02:00</time>
      </trkpt>
      <trkpt lat="48.94707" lon="-0.5027">
        <ele>31</ele>
        <time>2021-10-06T20:28:18+02:00</time>
      </trkpt>
      <trkpt lat="48.94731" lon="-0.50271">
        <ele>33</ele>
        <time>2021-10-06T20:28:18+02:00</time>
      </trkpt>
      <trkpt lat="48.94759" lon="-0.50272">
        <ele>34</ele>
        <time>2021-10-06T20:28:18+02:00</time>
      </trkpt>
      <trkpt lat="48.94789" lon="-0.50273">
        <ele>36</ele>
        <time>2021-10-06T20:28:18+02:00</time>
      </trkpt>
      <trkpt lat="48.94818" lon="-0.50273">
        <ele>35</ele>
        <time>2021-10-06T20:28:18+02:00</time>
      </trkpt>
      <trkpt lat="48.94845" lon="-0.50274">
        <ele>34</ele>
        <time>2021-10-06T20:28:18+02:00</time>
      </trkpt>
      <trkpt lat="48.94874" lon="-0.50276">
        <ele>34</ele>
        <time>2021-10-06T20:28:18+02:00</time>
      </trkpt>
      <trkpt lat="48.94902" lon="-0.50281">
        <ele>33</ele>
        <time>2021-10-06T20:28:18+02:00</time>
      </trkpt>
      <trkpt lat="48.94928" lon="-0.50289">
        <ele>33</ele>
        <time>2021-10-06T20:28:18+02:00</time>
      </trkpt>
      <trkpt lat="48.94953" lon="-0.50298">
        <ele>32</ele>
        <time>2021-10-06T20:28:18+02:00</time>
      </trkpt>
      <trkpt lat="48.94978" lon="-0.50308">
        <ele>31</ele>
        <time>2021-10-06T20:28:18+02:00</time>
      </trkpt>
      <trkpt lat="48.95004" lon="-0.50318">
        <ele>31</ele>
        <time>2021-10-06T20:28:18+02:00</time>
      </trkpt>
      <trkpt lat="48.95031" lon="-0.50328">
        <ele>30</ele>
        <time>2021-10-06T20:28:18+02:00</time>
      </trkpt>
      <trkpt lat="48.95054" lon="-0.50335">
        <ele>30</ele>
        <time>2021-10-06T20:28:18+02:00</time>
      </trkpt>
      <trkpt lat="48.95081" lon="-0.50344">
        <ele>31</ele>
        <time>2021-10-06T20:28:18+02:00</time>
      </trkpt>
      <trkpt lat="48.95107" lon="-0.50351">
        <ele>32</ele>
        <time>2021-10-06T20:28:18+02:00</time>
      </trkpt>
      <trkpt lat="48.95132" lon="-0.50353">
        <ele>32</ele>
        <time>2021-10-06T20:28:18+02:00</time>
      </trkpt>
      <trkpt lat="48.95159" lon="-0.5035">
        <ele>33</ele>
        <time>2021-10-06T20:28:18+02:00</time>
      </trkpt>
      <trkpt lat="48.95183" lon="-0.50346">
        <ele>33</ele>
        <time>2021-10-06T20:28:18+02:00</time>
      </trkpt>
      <trkpt lat="48.95208" lon="-0.50331">
        <ele>33</ele>
        <time>2021-10-06T20:28:18+02:00</time>
      </trkpt>
      <trkpt lat="48.9523" lon="-0.50315">
        <ele>35</ele>
        <time>2021-10-06T20:28:18+02:00</time>
      </trkpt>
      <trkpt lat="48.95252" lon="-0.50298">
        <ele>35</ele>
        <time>2021-10-06T20:28:18+02:00</time>
      </trkpt>
      <trkpt lat="48.9527" lon="-0.50273">
        <ele>36</ele>
        <time>2021-10-06T20:28:18+02:00</time>
      </trkpt>
      <trkpt lat="48.95287" lon="-0.50249">
        <ele>37</ele>
        <time>2021-10-06T20:28:18+02:00</time>
      </trkpt>
      <trkpt lat="48.95305" lon="-0.5022">
        <ele>37</ele>
        <time>2021-10-06T20:28:18+02:00</time>
      </trkpt>
      <trkpt lat="48.95324" lon="-0.50192">
        <ele>37</ele>
        <time>2021-10-06T20:28:18+02:00</time>
      </trkpt>
      <trkpt lat="48.95338" lon="-0.50159">
        <ele>36</ele>
        <time>2021-10-06T20:28:18+02:00</time>
      </trkpt>
      <trkpt lat="48.9535" lon="-0.50128">
        <ele>36</ele>
        <time>2021-10-06T20:28:18+02:00</time>
      </trkpt>
      <trkpt lat="48.95358" lon="-0.50088">
        <ele>35</ele>
        <time>2021-10-06T20:28:18+02:00</time>
      </trkpt>
      <trkpt lat="48.95365" lon="-0.50054">
        <ele>35</ele>
        <time>2021-10-06T20:28:18+02:00</time>
      </trkpt>
      <trkpt lat="48.95371" lon="-0.5002">
        <ele>34</ele>
        <time>2021-10-06T20:28:18+02:00</time>
      </trkpt>
      <trkpt lat="48.95378" lon="-0.4998">
        <ele>32</ele>
        <time>2021-10-06T20:28:18+02:00</time>
      </trkpt>
      <trkpt lat="48.95383" lon="-0.49941">
        <ele>30</ele>
        <time>2021-10-06T20:28:18+02:00</time>
      </trkpt>
      <trkpt lat="48.9539" lon="-0.49896">
        <ele>29</ele>
        <time>2021-10-06T20:28:18+02:00</time>
      </trkpt>
      <trkpt lat="48.95396" lon="-0.49854">
        <ele>28</ele>
        <time>2021-10-06T20:28:18+02:00</time>
      </trkpt>
      <trkpt lat="48.95404" lon="-0.49795">
        <ele>30</ele>
        <time>2021-10-06T20:28:18+02:00</time>
      </trkpt>
      <trkpt lat="48.9541" lon="-0.49755">
        <ele>30</ele>
        <time>2021-10-06T20:28:18+02:00</time>
      </trkpt>
      <trkpt lat="48.95415" lon="-0.49718">
        <ele>30</ele>
        <time>2021-10-06T20:28:18+02:00</time>
      </trkpt>
      <trkpt lat="48.9542" lon="-0.49682">
        <ele>31</ele>
        <time>2021-10-06T20:28:18+02:00</time>
      </trkpt>
      <trkpt lat="48.95425" lon="-0.49646">
        <ele>32</ele>
        <time>2021-10-06T20:28:18+02:00</time>
      </trkpt>
      <trkpt lat="48.9543" lon="-0.49609">
        <ele>32</ele>
        <time>2021-10-06T20:28:18+02:00</time>
      </trkpt>
      <trkpt lat="48.95436" lon="-0.49569">
        <ele>33</ele>
        <time>2021-10-06T20:28:18+02:00</time>
      </trkpt>
      <trkpt lat="48.95441" lon="-0.49533">
        <ele>33</ele>
        <time>2021-10-06T20:28:18+02:00</time>
      </trkpt>
      <trkpt lat="48.95446" lon="-0.495">
        <ele>34</ele>
        <time>2021-10-06T20:28:18+02:00</time>
      </trkpt>
      <trkpt lat="48.95451" lon="-0.49462">
        <ele>34</ele>
        <time>2021-10-06T20:28:18+02:00</time>
      </trkpt>
      <trkpt lat="48.95456" lon="-0.49425">
        <ele>35</ele>
        <time>2021-10-06T20:28:18+02:00</time>
      </trkpt>
      <trkpt lat="48.95461" lon="-0.4939">
        <ele>35</ele>
        <time>2021-10-06T20:28:18+02:00</time>
      </trkpt>
      <trkpt lat="48.95467" lon="-0.49355">
        <ele>34</ele>
        <time>2021-10-06T20:28:18+02:00</time>
      </trkpt>
      <trkpt lat="48.95475" lon="-0.49322">
        <ele>34</ele>
        <time>2021-10-06T20:28:18+02:00</time>
      </trkpt>
      <trkpt lat="48.95482" lon="-0.49289">
        <ele>33</ele>
        <time>2021-10-06T20:28:18+02:00</time>
      </trkpt>
      <trkpt lat="48.95489" lon="-0.49256">
        <ele>32</ele>
        <time>2021-10-06T20:28:18+02:00</time>
      </trkpt>
      <trkpt lat="48.95498" lon="-0.49219">
        <ele>32</ele>
        <time>2021-10-06T20:28:18+02:00</time>
      </trkpt>
      <trkpt lat="48.95507" lon="-0.49187">
        <ele>31</ele>
        <time>2021-10-06T20:28:18+02:00</time>
      </trkpt>
      <trkpt lat="48.95517" lon="-0.49148">
        <ele>31</ele>
        <time>2021-10-06T20:28:18+02:00</time>
      </trkpt>
      <trkpt lat="48.9553" lon="-0.49112">
        <ele>31</ele>
        <time>2021-10-06T20:28:18+02:00</time>
      </trkpt>
      <trkpt lat="48.95544" lon="-0.49082">
        <ele>31</ele>
        <time>2021-10-06T20:28:18+02:00</time>
      </trkpt>
      <trkpt lat="48.95557" lon="-0.49053">
        <ele>31</ele>
        <time>2021-10-06T20:28:18+02:00</time>
      </trkpt>
      <trkpt lat="48.95573" lon="-0.49018">
        <ele>32</ele>
        <time>2021-10-06T20:28:18+02:00</time>
      </trkpt>
      <trkpt lat="48.95586" lon="-0.48988">
        <ele>32</ele>
        <time>2021-10-06T20:28:18+02:00</time>
      </trkpt>
      <trkpt lat="48.95602" lon="-0.48959">
        <ele>32</ele>
        <time>2021-10-06T20:28:18+02:00</time>
      </trkpt>
      <trkpt lat="48.9562" lon="-0.48927">
        <ele>33</ele>
        <time>2021-10-06T20:28:18+02:00</time>
      </trkpt>
      <trkpt lat="48.95637" lon="-0.48898">
        <ele>33</ele>
        <time>2021-10-06T20:28:18+02:00</time>
      </trkpt>
      <trkpt lat="48.95652" lon="-0.4887">
        <ele>33</ele>
        <time>2021-10-06T20:28:18+02:00</time>
      </trkpt>
      <trkpt lat="48.95669" lon="-0.4884">
        <ele>33</ele>
        <time>2021-10-06T20:28:18+02:00</time>
      </trkpt>
      <trkpt lat="48.95685" lon="-0.48812">
        <ele>33</ele>
        <time>2021-10-06T20:28:18+02:00</time>
      </trkpt>
      <trkpt lat="48.957" lon="-0.48786">
        <ele>32</ele>
        <time>2021-10-06T20:28:18+02:00</time>
      </trkpt>
      <trkpt lat="48.95718" lon="-0.48756">
        <ele>32</ele>
        <time>2021-10-06T20:28:18+02:00</time>
      </trkpt>
      <trkpt lat="48.95734" lon="-0.48728">
        <ele>31</ele>
        <time>2021-10-06T20:28:18+02:00</time>
      </trkpt>
      <trkpt lat="48.9575" lon="-0.48701">
        <ele>31</ele>
        <time>2021-10-06T20:28:18+02:00</time>
      </trkpt>
      <trkpt lat="48.95769" lon="-0.48671">
        <ele>31</ele>
        <time>2021-10-06T20:28:18+02:00</time>
      </trkpt>
      <trkpt lat="48.95785" lon="-0.48643">
        <ele>31</ele>
        <time>2021-10-06T20:28:18+02:00</time>
      </trkpt>
      <trkpt lat="48.95807" lon="-0.48606">
        <ele>31</ele>
        <time>2021-10-06T20:28:18+02:00</time>
      </trkpt>
      <trkpt lat="48.95825" lon="-0.48576">
        <ele>31</ele>
        <time>2021-10-06T20:28:18+02:00</time>
      </trkpt>
      <trkpt lat="48.95841" lon="-0.48549">
        <ele>31</ele>
        <time>2021-10-06T20:28:18+02:00</time>
      </trkpt>
      <trkpt lat="48.95857" lon="-0.48524">
        <ele>31</ele>
        <time>2021-10-06T20:28:18+02:00</time>
      </trkpt>
      <trkpt lat="48.95874" lon="-0.48496">
        <ele>31</ele>
        <time>2021-10-06T20:28:18+02:00</time>
      </trkpt>
      <trkpt lat="48.95892" lon="-0.48463">
        <ele>31</ele>
        <time>2021-10-06T20:28:18+02:00</time>
      </trkpt>
      <trkpt lat="48.9591" lon="-0.48433">
        <ele>31</ele>
        <time>2021-10-06T20:28:18+02:00</time>
      </trkpt>
      <trkpt lat="48.95925" lon="-0.48408">
        <ele>32</ele>
        <time>2021-10-06T20:28:18+02:00</time>
      </trkpt>
      <trkpt lat="48.95944" lon="-0.48377">
        <ele>32</ele>
        <time>2021-10-06T20:28:18+02:00</time>
      </trkpt>
      <trkpt lat="48.95961" lon="-0.48349">
        <ele>33</ele>
        <time>2021-10-06T20:28:18+02:00</time>
      </trkpt>
      <trkpt lat="48.95979" lon="-0.48319">
        <ele>34</ele>
        <time>2021-10-06T20:28:18+02:00</time>
      </trkpt>
      <trkpt lat="48.95995" lon="-0.48293">
        <ele>34</ele>
        <time>2021-10-06T20:28:18+02:00</time>
      </trkpt>
      <trkpt lat="48.96014" lon="-0.48263">
        <ele>34</ele>
        <time>2021-10-06T20:28:18+02:00</time>
      </trkpt>
      <trkpt lat="48.96034" lon="-0.48233">
        <ele>34</ele>
        <time>2021-10-06T20:28:18+02:00</time>
      </trkpt>
      <trkpt lat="48.96052" lon="-0.48206">
        <ele>33</ele>
        <time>2021-10-06T20:28:18+02:00</time>
      </trkpt>
      <trkpt lat="48.96073" lon="-0.48177">
        <ele>33</ele>
        <time>2021-10-06T20:28:18+02:00</time>
      </trkpt>
      <trkpt lat="48.96094" lon="-0.48151">
        <ele>33</ele>
        <time>2021-10-06T20:28:18+02:00</time>
      </trkpt>
      <trkpt lat="48.96116" lon="-0.48136">
        <ele>32</ele>
        <time>2021-10-06T20:28:18+02:00</time>
      </trkpt>
      <trkpt lat="48.96137" lon="-0.48121">
        <ele>32</ele>
        <time>2021-10-06T20:28:18+02:00</time>
      </trkpt>
      <trkpt lat="48.96159" lon="-0.48108">
        <ele>32</ele>
        <time>2021-10-06T20:28:18+02:00</time>
      </trkpt>
      <trkpt lat="48.96186" lon="-0.48093">
        <ele>32</ele>
        <time>2021-10-06T20:28:18+02:00</time>
      </trkpt>
      <trkpt lat="48.9621" lon="-0.48084">
        <ele>32</ele>
        <time>2021-10-06T20:28:18+02:00</time>
      </trkpt>
      <trkpt lat="48.96234" lon="-0.48077">
        <ele>32</ele>
        <time>2021-10-06T20:28:18+02:00</time>
      </trkpt>
      <trkpt lat="48.96257" lon="-0.48071">
        <ele>32</ele>
        <time>2021-10-06T20:28:18+02:00</time>
      </trkpt>
      <trkpt lat="48.96283" lon="-0.4807">
        <ele>32</ele>
        <time>2021-10-06T20:28:18+02:00</time>
      </trkpt>
      <trkpt lat="48.96309" lon="-0.4807">
        <ele>32</ele>
        <time>2021-10-06T20:28:18+02:00</time>
      </trkpt>
      <trkpt lat="48.96336" lon="-0.48069">
        <ele>33</ele>
        <time>2021-10-06T20:28:18+02:00</time>
      </trkpt>
      <trkpt lat="48.96363" lon="-0.48072">
        <ele>33</ele>
        <time>2021-10-06T20:28:18+02:00</time>
      </trkpt>
      <trkpt lat="48.96387" lon="-0.48074">
        <ele>34</ele>
        <time>2021-10-06T20:28:18+02:00</time>
      </trkpt>
      <trkpt lat="48.96412" lon="-0.48082">
        <ele>34</ele>
        <time>2021-10-06T20:28:18+02:00</time>
      </trkpt>
      <trkpt lat="48.96433" lon="-0.48059">
        <ele>34</ele>
        <time>2021-10-06T20:28:18+02:00</time>
      </trkpt>
      <trkpt lat="48.96456" lon="-0.48064">
        <ele>34</ele>
        <time>2021-10-06T20:28:18+02:00</time>
      </trkpt>
      <trkpt lat="48.96479" lon="-0.48068">
        <ele>34</ele>
        <time>2021-10-06T20:28:18+02:00</time>
      </trkpt>
      <trkpt lat="48.96506" lon="-0.48072">
        <ele>35</ele>
        <time>2021-10-06T20:28:18+02:00</time>
      </trkpt>
      <trkpt lat="48.96534" lon="-0.48077">
        <ele>35</ele>
        <time>2021-10-06T20:28:18+02:00</time>
      </trkpt>
      <trkpt lat="48.96556" lon="-0.48084">
        <ele>35</ele>
        <time>2021-10-06T20:28:18+02:00</time>
      </trkpt>
      <trkpt lat="48.96583" lon="-0.4809">
        <ele>35</ele>
        <time>2021-10-06T20:28:18+02:00</time>
      </trkpt>
      <trkpt lat="48.96606" lon="-0.48098">
        <ele>34</ele>
        <time>2021-10-06T20:28:18+02:00</time>
      </trkpt>
      <trkpt lat="48.96632" lon="-0.48104">
        <ele>34</ele>
        <time>2021-10-06T20:28:18+02:00</time>
      </trkpt>
      <trkpt lat="48.96659" lon="-0.48111">
        <ele>34</ele>
        <time>2021-10-06T20:28:18+02:00</time>
      </trkpt>
      <trkpt lat="48.96687" lon="-0.48118">
        <ele>34</ele>
        <time>2021-10-06T20:28:18+02:00</time>
      </trkpt>
      <trkpt lat="48.96712" lon="-0.48124">
        <ele>34</ele>
        <time>2021-10-06T20:28:18+02:00</time>
      </trkpt>
      <trkpt lat="48.96738" lon="-0.48123">
        <ele>34</ele>
        <time>2021-10-06T20:28:18+02:00</time>
      </trkpt>
      <trkpt lat="48.96769" lon="-0.48128">
        <ele>34</ele>
        <time>2021-10-06T20:28:18+02:00</time>
      </trkpt>
      <trkpt lat="48.96791" lon="-0.4814">
        <ele>34</ele>
        <time>2021-10-06T20:28:18+02:00</time>
      </trkpt>
      <trkpt lat="48.96813" lon="-0.48147">
        <ele>35</ele>
        <time>2021-10-06T20:28:18+02:00</time>
      </trkpt>
      <trkpt lat="48.96839" lon="-0.48162">
        <ele>35</ele>
        <time>2021-10-06T20:28:18+02:00</time>
      </trkpt>
      <trkpt lat="48.96863" lon="-0.48167">
        <ele>34</ele>
        <time>2021-10-06T20:28:18+02:00</time>
      </trkpt>
      <trkpt lat="48.96891" lon="-0.48173">
        <ele>34</ele>
        <time>2021-10-06T20:28:18+02:00</time>
      </trkpt>
      <trkpt lat="48.96913" lon="-0.48182">
        <ele>34</ele>
        <time>2021-10-06T20:28:18+02:00</time>
      </trkpt>
      <trkpt lat="48.96933" lon="-0.48201">
        <ele>34</ele>
        <time>2021-10-06T20:28:18+02:00</time>
      </trkpt>
      <trkpt lat="48.96959" lon="-0.48207">
        <ele>34</ele>
        <time>2021-10-06T20:28:18+02:00</time>
      </trkpt>
      <trkpt lat="48.96981" lon="-0.48212">
        <ele>34</ele>
        <time>2021-10-06T20:28:18+02:00</time>
      </trkpt>
      <trkpt lat="48.97007" lon="-0.48218">
        <ele>34</ele>
        <time>2021-10-06T20:28:18+02:00</time>
      </trkpt>
      <trkpt lat="48.97034" lon="-0.48223">
        <ele>34</ele>
        <time>2021-10-06T20:28:18+02:00</time>
      </trkpt>
      <trkpt lat="48.97057" lon="-0.4823">
        <ele>33</ele>
        <time>2021-10-06T20:28:18+02:00</time>
      </trkpt>
      <trkpt lat="48.97081" lon="-0.48234">
        <ele>33</ele>
        <time>2021-10-06T20:28:18+02:00</time>
      </trkpt>
      <trkpt lat="48.97108" lon="-0.4824">
        <ele>32</ele>
        <time>2021-10-06T20:28:18+02:00</time>
      </trkpt>
      <trkpt lat="48.97131" lon="-0.48244">
        <ele>31</ele>
        <time>2021-10-06T20:28:18+02:00</time>
      </trkpt>
      <trkpt lat="48.97154" lon="-0.48249">
        <ele>31</ele>
        <time>2021-10-06T20:28:18+02:00</time>
      </trkpt>
      <trkpt lat="48.9718" lon="-0.48254">
        <ele>31</ele>
        <time>2021-10-06T20:28:18+02:00</time>
      </trkpt>
      <trkpt lat="48.97203" lon="-0.48258">
        <ele>30</ele>
        <time>2021-10-06T20:28:18+02:00</time>
      </trkpt>
      <trkpt lat="48.97226" lon="-0.48261">
        <ele>31</ele>
        <time>2021-10-06T20:28:18+02:00</time>
      </trkpt>
      <trkpt lat="48.97249" lon="-0.48261">
        <ele>30</ele>
        <time>2021-10-06T20:28:18+02:00</time>
      </trkpt>
      <trkpt lat="48.97272" lon="-0.4826">
        <ele>30</ele>
        <time>2021-10-06T20:28:18+02:00</time>
      </trkpt>
      <trkpt lat="48.97295" lon="-0.48257">
        <ele>30</ele>
        <time>2021-10-06T20:28:18+02:00</time>
      </trkpt>
      <trkpt lat="48.97317" lon="-0.48253">
        <ele>31</ele>
        <time>2021-10-06T20:28:18+02:00</time>
      </trkpt>
      <trkpt lat="48.97342" lon="-0.48246">
        <ele>31</ele>
        <time>2021-10-06T20:28:18+02:00</time>
      </trkpt>
      <trkpt lat="48.97367" lon="-0.48237">
        <ele>32</ele>
        <time>2021-10-06T20:28:18+02:00</time>
      </trkpt>
      <trkpt lat="48.97389" lon="-0.48229">
        <ele>31</ele>
        <time>2021-10-06T20:28:18+02:00</time>
      </trkpt>
      <trkpt lat="48.97422" lon="-0.4821">
        <ele>32</ele>
        <time>2021-10-06T20:28:18+02:00</time>
      </trkpt>
      <trkpt lat="48.97446" lon="-0.48193">
        <ele>31</ele>
        <time>2021-10-06T20:28:18+02:00</time>
      </trkpt>
      <trkpt lat="48.97469" lon="-0.48177">
        <ele>28</ele>
        <time>2021-10-06T20:28:18+02:00</time>
      </trkpt>
      <trkpt lat="48.97494" lon="-0.48158">
        <ele>24</ele>
        <time>2021-10-06T20:28:18+02:00</time>
      </trkpt>
      <trkpt lat="48.97517" lon="-0.48141">
        <ele>24</ele>
        <time>2021-10-06T20:28:18+02:00</time>
      </trkpt>
      <trkpt lat="48.97539" lon="-0.48121">
        <ele>28</ele>
        <time>2021-10-06T20:28:18+02:00</time>
      </trkpt>
      <trkpt lat="48.97565" lon="-0.48105">
        <ele>32</ele>
        <time>2021-10-06T20:28:18+02:00</time>
      </trkpt>
      <trkpt lat="48.97588" lon="-0.48094">
        <ele>31</ele>
        <time>2021-10-06T20:28:18+02:00</time>
      </trkpt>
      <trkpt lat="48.9761" lon="-0.48084">
        <ele>32</ele>
        <time>2021-10-06T20:28:18+02:00</time>
      </trkpt>
      <trkpt lat="48.97636" lon="-0.48078">
        <ele>32</ele>
        <time>2021-10-06T20:28:18+02:00</time>
      </trkpt>
      <trkpt lat="48.97663" lon="-0.48091">
        <ele>31</ele>
        <time>2021-10-06T20:28:18+02:00</time>
      </trkpt>
      <trkpt lat="48.97686" lon="-0.48092">
        <ele>31</ele>
        <time>2021-10-06T20:28:18+02:00</time>
      </trkpt>
      <trkpt lat="48.97711" lon="-0.48094">
        <ele>31</ele>
        <time>2021-10-06T20:28:18+02:00</time>
      </trkpt>
      <trkpt lat="48.97737" lon="-0.48098">
        <ele>31</ele>
        <time>2021-10-06T20:28:18+02:00</time>
      </trkpt>
      <trkpt lat="48.97764" lon="-0.48102">
        <ele>31</ele>
        <time>2021-10-06T20:28:18+02:00</time>
      </trkpt>
      <trkpt lat="48.97787" lon="-0.48106">
        <ele>31</ele>
        <time>2021-10-06T20:28:18+02:00</time>
      </trkpt>
      <trkpt lat="48.97811" lon="-0.48111">
        <ele>31</ele>
        <time>2021-10-06T20:28:18+02:00</time>
      </trkpt>
      <trkpt lat="48.97834" lon="-0.48116">
        <ele>31</ele>
        <time>2021-10-06T20:28:18+02:00</time>
      </trkpt>
      <trkpt lat="48.9786" lon="-0.48121">
        <ele>31</ele>
        <time>2021-10-06T20:28:18+02:00</time>
      </trkpt>
      <trkpt lat="48.97888" lon="-0.48126">
        <ele>30</ele>
        <time>2021-10-06T20:28:18+02:00</time>
      </trkpt>
      <trkpt lat="48.97911" lon="-0.4813">
        <ele>31</ele>
        <time>2021-10-06T20:28:18+02:00</time>
      </trkpt>
      <trkpt lat="48.97935" lon="-0.48135">
        <ele>31</ele>
        <time>2021-10-06T20:28:18+02:00</time>
      </trkpt>
      <trkpt lat="48.9796" lon="-0.48141">
        <ele>30</ele>
        <time>2021-10-06T20:28:18+02:00</time>
      </trkpt>
      <trkpt lat="48.97986" lon="-0.48146">
        <ele>30</ele>
        <time>2021-10-06T20:28:18+02:00</time>
      </trkpt>
      <trkpt lat="48.98011" lon="-0.48152">
        <ele>29</ele>
        <time>2021-10-06T20:28:18+02:00</time>
      </trkpt>
      <trkpt lat="48.98035" lon="-0.48158">
        <ele>29</ele>
        <time>2021-10-06T20:28:18+02:00</time>
      </trkpt>
      <trkpt lat="48.98062" lon="-0.48164">
        <ele>29</ele>
        <time>2021-10-06T20:28:18+02:00</time>
      </trkpt>
      <trkpt lat="48.98087" lon="-0.4817">
        <ele>30</ele>
        <time>2021-10-06T20:28:18+02:00</time>
      </trkpt>
      <trkpt lat="48.98113" lon="-0.48176">
        <ele>29</ele>
        <time>2021-10-06T20:28:18+02:00</time>
      </trkpt>
      <trkpt lat="48.98137" lon="-0.48181">
        <ele>29</ele>
        <time>2021-10-06T20:28:18+02:00</time>
      </trkpt>
      <trkpt lat="48.98165" lon="-0.48187">
        <ele>29</ele>
        <time>2021-10-06T20:28:18+02:00</time>
      </trkpt>
      <trkpt lat="48.98189" lon="-0.48191">
        <ele>29</ele>
        <time>2021-10-06T20:28:18+02:00</time>
      </trkpt>
      <trkpt lat="48.98212" lon="-0.48196">
        <ele>28</ele>
        <time>2021-10-06T20:28:18+02:00</time>
      </trkpt>
      <trkpt lat="48.98238" lon="-0.48201">
        <ele>28</ele>
        <time>2021-10-06T20:28:18+02:00</time>
      </trkpt>
      <trkpt lat="48.98266" lon="-0.48206">
        <ele>28</ele>
        <time>2021-10-06T20:28:18+02:00</time>
      </trkpt>
      <trkpt lat="48.9829" lon="-0.4821">
        <ele>28</ele>
        <time>2021-10-06T20:28:18+02:00</time>
      </trkpt>
      <trkpt lat="48.98315" lon="-0.48214">
        <ele>27</ele>
        <time>2021-10-06T20:28:18+02:00</time>
      </trkpt>
      <trkpt lat="48.98343" lon="-0.48219">
        <ele>27</ele>
        <time>2021-10-06T20:28:18+02:00</time>
      </trkpt>
      <trkpt lat="48.98366" lon="-0.48223">
        <ele>26</ele>
        <time>2021-10-06T20:28:18+02:00</time>
      </trkpt>
      <trkpt lat="48.98392" lon="-0.48227">
        <ele>26</ele>
        <time>2021-10-06T20:28:18+02:00</time>
      </trkpt>
      <trkpt lat="48.98416" lon="-0.48231">
        <ele>26</ele>
        <time>2021-10-06T20:28:18+02:00</time>
      </trkpt>
      <trkpt lat="48.98442" lon="-0.48236">
        <ele>26</ele>
        <time>2021-10-06T20:28:18+02:00</time>
      </trkpt>
      <trkpt lat="48.98469" lon="-0.48238">
        <ele>26</ele>
        <time>2021-10-06T20:28:18+02:00</time>
      </trkpt>
      <trkpt lat="48.98493" lon="-0.48238">
        <ele>26</ele>
        <time>2021-10-06T20:28:18+02:00</time>
      </trkpt>
      <trkpt lat="48.98521" lon="-0.48237">
        <ele>26</ele>
        <time>2021-10-06T20:28:18+02:00</time>
      </trkpt>
      <trkpt lat="48.98545" lon="-0.48236">
        <ele>26</ele>
        <time>2021-10-06T20:28:18+02:00</time>
      </trkpt>
      <trkpt lat="48.98569" lon="-0.48235">
        <ele>27</ele>
        <time>2021-10-06T20:28:18+02:00</time>
      </trkpt>
      <trkpt lat="48.98594" lon="-0.48232">
        <ele>28</ele>
        <time>2021-10-06T20:28:18+02:00</time>
      </trkpt>
      <trkpt lat="48.98618" lon="-0.48228">
        <ele>28</ele>
        <time>2021-10-06T20:28:18+02:00</time>
      </trkpt>
      <trkpt lat="48.98642" lon="-0.48224">
        <ele>28</ele>
        <time>2021-10-06T20:28:18+02:00</time>
      </trkpt>
      <trkpt lat="48.98665" lon="-0.48229">
        <ele>29</ele>
        <time>2021-10-06T20:28:18+02:00</time>
      </trkpt>
      <trkpt lat="48.98688" lon="-0.48224">
        <ele>30</ele>
        <time>2021-10-06T20:28:18+02:00</time>
      </trkpt>
      <trkpt lat="48.98714" lon="-0.48216">
        <ele>31</ele>
        <time>2021-10-06T20:28:18+02:00</time>
      </trkpt>
      <trkpt lat="48.98737" lon="-0.48209">
        <ele>32</ele>
        <time>2021-10-06T20:28:18+02:00</time>
      </trkpt>
      <trkpt lat="48.9876" lon="-0.48205">
        <ele>32</ele>
        <time>2021-10-06T20:28:18+02:00</time>
      </trkpt>
      <trkpt lat="48.98784" lon="-0.48203">
        <ele>31</ele>
        <time>2021-10-06T20:28:18+02:00</time>
      </trkpt>
      <trkpt lat="48.98807" lon="-0.48197">
        <ele>30</ele>
        <time>2021-10-06T20:28:18+02:00</time>
      </trkpt>
      <trkpt lat="48.98831" lon="-0.48186">
        <ele>30</ele>
        <time>2021-10-06T20:28:18+02:00</time>
      </trkpt>
      <trkpt lat="48.98854" lon="-0.48176">
        <ele>29</ele>
        <time>2021-10-06T20:28:18+02:00</time>
      </trkpt>
      <trkpt lat="48.98876" lon="-0.48161">
        <ele>29</ele>
        <time>2021-10-06T20:28:18+02:00</time>
      </trkpt>
      <trkpt lat="48.989" lon="-0.48161">
        <ele>28</ele>
        <time>2021-10-06T20:28:18+02:00</time>
      </trkpt>
      <trkpt lat="48.98923" lon="-0.48154">
        <ele>36</ele>
        <time>2021-10-06T20:28:18+02:00</time>
      </trkpt>
      <trkpt lat="48.98948" lon="-0.48154">
        <ele>33</ele>
        <time>2021-10-06T20:28:18+02:00</time>
      </trkpt>
      <trkpt lat="48.98971" lon="-0.4816">
        <ele>32</ele>
        <time>2021-10-06T20:28:18+02:00</time>
      </trkpt>
      <trkpt lat="48.98995" lon="-0.48166">
        <ele>31</ele>
        <time>2021-10-06T20:28:18+02:00</time>
      </trkpt>
      <trkpt lat="48.9902" lon="-0.48172">
        <ele>28</ele>
        <time>2021-10-06T20:28:18+02:00</time>
      </trkpt>
      <trkpt lat="48.99046" lon="-0.48175">
        <ele>28</ele>
        <time>2021-10-06T20:28:18+02:00</time>
      </trkpt>
      <trkpt lat="48.9907" lon="-0.4818">
        <ele>27</ele>
        <time>2021-10-06T20:28:18+02:00</time>
      </trkpt>
      <trkpt lat="48.99094" lon="-0.48187">
        <ele>27</ele>
        <time>2021-10-06T20:28:18+02:00</time>
      </trkpt>
      <trkpt lat="48.99117" lon="-0.48194">
        <ele>27</ele>
        <time>2021-10-06T20:28:18+02:00</time>
      </trkpt>
      <trkpt lat="48.99139" lon="-0.48198">
        <ele>27</ele>
        <time>2021-10-06T20:28:18+02:00</time>
      </trkpt>
      <trkpt lat="48.99163" lon="-0.48207">
        <ele>27</ele>
        <time>2021-10-06T20:28:18+02:00</time>
      </trkpt>
      <trkpt lat="48.99186" lon="-0.48217">
        <ele>26</ele>
        <time>2021-10-06T20:28:18+02:00</time>
      </trkpt>
      <trkpt lat="48.99208" lon="-0.4823">
        <ele>27</ele>
        <time>2021-10-06T20:28:18+02:00</time>
      </trkpt>
      <trkpt lat="48.99233" lon="-0.48237">
        <ele>27</ele>
        <time>2021-10-06T20:28:18+02:00</time>
      </trkpt>
      <trkpt lat="48.99256" lon="-0.48242">
        <ele>27</ele>
        <time>2021-10-06T20:28:18+02:00</time>
      </trkpt>
      <trkpt lat="48.9928" lon="-0.48246">
        <ele>28</ele>
        <time>2021-10-06T20:28:18+02:00</time>
      </trkpt>
      <trkpt lat="48.99305" lon="-0.48248">
        <ele>29</ele>
        <time>2021-10-06T20:28:18+02:00</time>
      </trkpt>
      <trkpt lat="48.99467" lon="-0.48239">
        <ele>55</ele>
        <time>2021-10-06T20:28:18+02:00</time>
      </trkpt>
      <trkpt lat="48.99484" lon="-0.48214">
        <ele>28</ele>
        <time>2021-10-06T20:28:18+02:00</time>
      </trkpt>
      <trkpt lat="48.99485" lon="-0.48176">
        <ele>25</ele>
        <time>2021-10-06T20:28:18+02:00</time>
      </trkpt>
      <trkpt lat="48.99503" lon="-0.48156">
        <ele>24</ele>
        <time>2021-10-06T20:28:18+02:00</time>
      </trkpt>
      <trkpt lat="48.99523" lon="-0.48134">
        <ele>23</ele>
        <time>2021-10-06T20:28:18+02:00</time>
      </trkpt>
      <trkpt lat="48.99541" lon="-0.4811">
        <ele>23</ele>
        <time>2021-10-06T20:28:18+02:00</time>
      </trkpt>
      <trkpt lat="48.99562" lon="-0.48083">
        <ele>23</ele>
        <time>2021-10-06T20:28:18+02:00</time>
      </trkpt>
      <trkpt lat="48.99582" lon="-0.48057">
        <ele>23</ele>
        <time>2021-10-06T20:28:18+02:00</time>
      </trkpt>
      <trkpt lat="48.99599" lon="-0.48035">
        <ele>22</ele>
        <time>2021-10-06T20:28:18+02:00</time>
      </trkpt>
      <trkpt lat="48.99617" lon="-0.48012">
        <ele>22</ele>
        <time>2021-10-06T20:28:18+02:00</time>
      </trkpt>
      <trkpt lat="48.99635" lon="-0.47989">
        <ele>23</ele>
        <time>2021-10-06T20:28:18+02:00</time>
      </trkpt>
      <trkpt lat="48.99666" lon="-0.47945">
        <ele>25</ele>
        <time>2021-10-06T20:28:18+02:00</time>
      </trkpt>
      <trkpt lat="48.99683" lon="-0.4792">
        <ele>25</ele>
        <time>2021-10-06T20:28:18+02:00</time>
      </trkpt>
      <trkpt lat="48.99699" lon="-0.47895">
        <ele>25</ele>
        <time>2021-10-06T20:28:18+02:00</time>
      </trkpt>
      <trkpt lat="48.99719" lon="-0.47865">
        <ele>24</ele>
        <time>2021-10-06T20:28:18+02:00</time>
      </trkpt>
      <trkpt lat="48.99739" lon="-0.47835">
        <ele>23</ele>
        <time>2021-10-06T20:28:18+02:00</time>
      </trkpt>
      <trkpt lat="48.99755" lon="-0.47809">
        <ele>23</ele>
        <time>2021-10-06T20:28:18+02:00</time>
      </trkpt>
      <trkpt lat="48.9977" lon="-0.47782">
        <ele>23</ele>
        <time>2021-10-06T20:28:18+02:00</time>
      </trkpt>
      <trkpt lat="48.99784" lon="-0.47755">
        <ele>23</ele>
        <time>2021-10-06T20:28:18+02:00</time>
      </trkpt>
      <trkpt lat="48.998" lon="-0.47721">
        <ele>23</ele>
        <time>2021-10-06T20:28:18+02:00</time>
      </trkpt>
      <trkpt lat="48.99816" lon="-0.47688">
        <ele>22</ele>
        <time>2021-10-06T20:28:18+02:00</time>
      </trkpt>
      <trkpt lat="48.99831" lon="-0.47659">
        <ele>21</ele>
        <time>2021-10-06T20:28:18+02:00</time>
      </trkpt>
      <trkpt lat="48.99842" lon="-0.47629">
        <ele>21</ele>
        <time>2021-10-06T20:28:18+02:00</time>
      </trkpt>
      <trkpt lat="48.99855" lon="-0.47596">
        <ele>22</ele>
        <time>2021-10-06T20:28:18+02:00</time>
      </trkpt>
      <trkpt lat="48.99873" lon="-0.47562">
        <ele>24</ele>
        <time>2021-10-06T20:28:18+02:00</time>
      </trkpt>
      <trkpt lat="48.99887" lon="-0.47525">
        <ele>25</ele>
        <time>2021-10-06T20:28:18+02:00</time>
      </trkpt>
      <trkpt lat="48.999" lon="-0.47491">
        <ele>25</ele>
        <time>2021-10-06T20:28:18+02:00</time>
      </trkpt>
      <trkpt lat="48.99911" lon="-0.47461">
        <ele>26</ele>
        <time>2021-10-06T20:28:18+02:00</time>
      </trkpt>
      <trkpt lat="48.99924" lon="-0.47425">
        <ele>25</ele>
        <time>2021-10-06T20:28:18+02:00</time>
      </trkpt>
      <trkpt lat="48.99935" lon="-0.47392">
        <ele>25</ele>
        <time>2021-10-06T20:28:18+02:00</time>
      </trkpt>
      <trkpt lat="48.99943" lon="-0.4736">
        <ele>25</ele>
        <time>2021-10-06T20:28:18+02:00</time>
      </trkpt>
      <trkpt lat="48.99951" lon="-0.47328">
        <ele>25</ele>
        <time>2021-10-06T20:28:18+02:00</time>
      </trkpt>
      <trkpt lat="48.99957" lon="-0.47295">
        <ele>25</ele>
        <time>2021-10-06T20:28:18+02:00</time>
      </trkpt>
      <trkpt lat="48.99965" lon="-0.47254">
        <ele>25</ele>
        <time>2021-10-06T20:28:18+02:00</time>
      </trkpt>
      <trkpt lat="48.99972" lon="-0.47212">
        <ele>24</ele>
        <time>2021-10-06T20:28:18+02:00</time>
      </trkpt>
      <trkpt lat="48.99978" lon="-0.47178">
        <ele>24</ele>
        <time>2021-10-06T20:28:18+02:00</time>
      </trkpt>
      <trkpt lat="48.99983" lon="-0.47144">
        <ele>23</ele>
        <time>2021-10-06T20:28:18+02:00</time>
      </trkpt>
      <trkpt lat="48.99991" lon="-0.47102">
        <ele>23</ele>
        <time>2021-10-06T20:28:18+02:00</time>
      </trkpt>
      <trkpt lat="48.99998" lon="-0.47061">
        <ele>24</ele>
        <time>2021-10-06T20:28:18+02:00</time>
      </trkpt>
      <trkpt lat="49.00004" lon="-0.47025">
        <ele>24</ele>
        <time>2021-10-06T20:28:18+02:00</time>
      </trkpt>
      <trkpt lat="49.00009" lon="-0.4699">
        <ele>24</ele>
        <time>2021-10-06T20:28:18+02:00</time>
      </trkpt>
      <trkpt lat="49.00014" lon="-0.46956">
        <ele>24</ele>
        <time>2021-10-06T20:28:18+02:00</time>
      </trkpt>
      <trkpt lat="49.00019" lon="-0.46921">
        <ele>24</ele>
        <time>2021-10-06T20:28:18+02:00</time>
      </trkpt>
      <trkpt lat="49.00025" lon="-0.4688">
        <ele>24</ele>
        <time>2021-10-06T20:28:18+02:00</time>
      </trkpt>
      <trkpt lat="49.00031" lon="-0.46845">
        <ele>24</ele>
        <time>2021-10-06T20:28:18+02:00</time>
      </trkpt>
      <trkpt lat="49.0004" lon="-0.46811">
        <ele>25</ele>
        <time>2021-10-06T20:28:18+02:00</time>
      </trkpt>
      <trkpt lat="49.00049" lon="-0.46775">
        <ele>24</ele>
        <time>2021-10-06T20:28:18+02:00</time>
      </trkpt>
      <trkpt lat="49.00059" lon="-0.4674">
        <ele>24</ele>
        <time>2021-10-06T20:28:18+02:00</time>
      </trkpt>
      <trkpt lat="49.0007" lon="-0.467">
        <ele>25</ele>
        <time>2021-10-06T20:28:18+02:00</time>
      </trkpt>
      <trkpt lat="49.00084" lon="-0.46669">
        <ele>27</ele>
        <time>2021-10-06T20:28:18+02:00</time>
      </trkpt>
      <trkpt lat="49.001" lon="-0.46633">
        <ele>31</ele>
        <time>2021-10-06T20:28:18+02:00</time>
      </trkpt>
      <trkpt lat="49.00116" lon="-0.46606">
        <ele>32</ele>
        <time>2021-10-06T20:28:18+02:00</time>
      </trkpt>
      <trkpt lat="49.00135" lon="-0.46582">
        <ele>32</ele>
        <time>2021-10-06T20:28:18+02:00</time>
      </trkpt>
      <trkpt lat="49.00154" lon="-0.46561">
        <ele>34</ele>
        <time>2021-10-06T20:28:18+02:00</time>
      </trkpt>
      <trkpt lat="49.00178" lon="-0.46537">
        <ele>33</ele>
        <time>2021-10-06T20:28:18+02:00</time>
      </trkpt>
      <trkpt lat="49.00199" lon="-0.46519">
        <ele>30</ele>
        <time>2021-10-06T20:28:18+02:00</time>
      </trkpt>
      <trkpt lat="49.00219" lon="-0.46502">
        <ele>28</ele>
        <time>2021-10-06T20:28:18+02:00</time>
      </trkpt>
      <trkpt lat="49.00244" lon="-0.46486">
        <ele>28</ele>
        <time>2021-10-06T20:28:18+02:00</time>
      </trkpt>
      <trkpt lat="49.0027" lon="-0.46477">
        <ele>28</ele>
        <time>2021-10-06T20:28:18+02:00</time>
      </trkpt>
      <trkpt lat="49.00292" lon="-0.46474">
        <ele>30</ele>
        <time>2021-10-06T20:28:18+02:00</time>
      </trkpt>
      <trkpt lat="49.00317" lon="-0.46483">
        <ele>30</ele>
        <time>2021-10-06T20:28:18+02:00</time>
      </trkpt>
      <trkpt lat="49.00341" lon="-0.46481">
        <ele>30</ele>
        <time>2021-10-06T20:28:18+02:00</time>
      </trkpt>
      <trkpt lat="49.00366" lon="-0.46481">
        <ele>29</ele>
        <time>2021-10-06T20:28:18+02:00</time>
      </trkpt>
      <trkpt lat="49.00388" lon="-0.46491">
        <ele>24</ele>
        <time>2021-10-06T20:28:18+02:00</time>
      </trkpt>
      <trkpt lat="49.00386" lon="-0.46494">
        <ele>23</ele>
        <time>2021-10-06T20:28:18+02:00</time>
      </trkpt>
      <trkpt lat="49.00409" lon="-0.46487">
        <ele>26</ele>
        <time>2021-10-06T20:28:18+02:00</time>
      </trkpt>
      <trkpt lat="49.00434" lon="-0.46499">
        <ele>25</ele>
        <time>2021-10-06T20:28:18+02:00</time>
      </trkpt>
      <trkpt lat="49.00455" lon="-0.46513">
        <ele>24</ele>
        <time>2021-10-06T20:28:18+02:00</time>
      </trkpt>
      <trkpt lat="49.00475" lon="-0.46529">
        <ele>24</ele>
        <time>2021-10-06T20:28:18+02:00</time>
      </trkpt>
      <trkpt lat="49.00496" lon="-0.4655">
        <ele>24</ele>
        <time>2021-10-06T20:28:18+02:00</time>
      </trkpt>
      <trkpt lat="49.00517" lon="-0.46576">
        <ele>23</ele>
        <time>2021-10-06T20:28:18+02:00</time>
      </trkpt>
      <trkpt lat="49.00537" lon="-0.46602">
        <ele>23</ele>
        <time>2021-10-06T20:28:18+02:00</time>
      </trkpt>
      <trkpt lat="49.00555" lon="-0.4663">
        <ele>25</ele>
        <time>2021-10-06T20:28:18+02:00</time>
      </trkpt>
      <trkpt lat="49.00566" lon="-0.46667">
        <ele>25</ele>
        <time>2021-10-06T20:28:18+02:00</time>
      </trkpt>
      <trkpt lat="49.00579" lon="-0.46697">
        <ele>25</ele>
        <time>2021-10-06T20:28:18+02:00</time>
      </trkpt>
      <trkpt lat="49.00593" lon="-0.46731">
        <ele>27</ele>
        <time>2021-10-06T20:28:18+02:00</time>
      </trkpt>
      <trkpt lat="49.00608" lon="-0.46762">
        <ele>26</ele>
        <time>2021-10-06T20:28:18+02:00</time>
      </trkpt>
      <trkpt lat="49.00626" lon="-0.46795">
        <ele>26</ele>
        <time>2021-10-06T20:28:18+02:00</time>
      </trkpt>
      <trkpt lat="49.0064" lon="-0.46822">
        <ele>25</ele>
        <time>2021-10-06T20:28:18+02:00</time>
      </trkpt>
      <trkpt lat="49.00655" lon="-0.4685">
        <ele>25</ele>
        <time>2021-10-06T20:28:18+02:00</time>
      </trkpt>
      <trkpt lat="49.00672" lon="-0.46883">
        <ele>23</ele>
        <time>2021-10-06T20:28:18+02:00</time>
      </trkpt>
      <trkpt lat="49.00686" lon="-0.4691">
        <ele>23</ele>
        <time>2021-10-06T20:28:18+02:00</time>
      </trkpt>
      <trkpt lat="49.00703" lon="-0.46942">
        <ele>20</ele>
        <time>2021-10-06T20:28:18+02:00</time>
      </trkpt>
      <trkpt lat="49.00722" lon="-0.46968">
        <ele>19</ele>
        <time>2021-10-06T20:28:18+02:00</time>
      </trkpt>
      <trkpt lat="49.00742" lon="-0.46993">
        <ele>20</ele>
        <time>2021-10-06T20:28:18+02:00</time>
      </trkpt>
      <trkpt lat="49.00763" lon="-0.47019">
        <ele>21</ele>
        <time>2021-10-06T20:28:18+02:00</time>
      </trkpt>
      <trkpt lat="49.00783" lon="-0.47042">
        <ele>21</ele>
        <time>2021-10-06T20:28:18+02:00</time>
      </trkpt>
      <trkpt lat="49.00802" lon="-0.47062">
        <ele>21</ele>
        <time>2021-10-06T20:28:18+02:00</time>
      </trkpt>
      <trkpt lat="49.00824" lon="-0.47086">
        <ele>21</ele>
        <time>2021-10-06T20:28:18+02:00</time>
      </trkpt>
      <trkpt lat="49.00842" lon="-0.47107">
        <ele>21</ele>
        <time>2021-10-06T20:28:18+02:00</time>
      </trkpt>
      <trkpt lat="49.00863" lon="-0.47124">
        <ele>21</ele>
        <time>2021-10-06T20:28:18+02:00</time>
      </trkpt>
      <trkpt lat="49.00887" lon="-0.4714">
        <ele>21</ele>
        <time>2021-10-06T20:28:18+02:00</time>
      </trkpt>
      <trkpt lat="49.00909" lon="-0.47153">
        <ele>21</ele>
        <time>2021-10-06T20:28:18+02:00</time>
      </trkpt>
      <trkpt lat="49.00934" lon="-0.47168">
        <ele>21</ele>
        <time>2021-10-06T20:28:18+02:00</time>
      </trkpt>
      <trkpt lat="49.00957" lon="-0.47179">
        <ele>21</ele>
        <time>2021-10-06T20:28:18+02:00</time>
      </trkpt>
      <trkpt lat="49.0098" lon="-0.47186">
        <ele>22</ele>
        <time>2021-10-06T20:28:18+02:00</time>
      </trkpt>
      <trkpt lat="49.01005" lon="-0.47193">
        <ele>22</ele>
        <time>2021-10-06T20:28:18+02:00</time>
      </trkpt>
      <trkpt lat="49.0103" lon="-0.47199">
        <ele>23</ele>
        <time>2021-10-06T20:28:18+02:00</time>
      </trkpt>
      <trkpt lat="49.01053" lon="-0.47203">
        <ele>23</ele>
        <time>2021-10-06T20:28:18+02:00</time>
      </trkpt>
      <trkpt lat="49.01079" lon="-0.47204">
        <ele>23</ele>
        <time>2021-10-06T20:28:18+02:00</time>
      </trkpt>
      <trkpt lat="49.01106" lon="-0.47198">
        <ele>24</ele>
        <time>2021-10-06T20:28:18+02:00</time>
      </trkpt>
      <trkpt lat="49.01131" lon="-0.47196">
        <ele>25</ele>
        <time>2021-10-06T20:28:18+02:00</time>
      </trkpt>
      <trkpt lat="49.01156" lon="-0.47194">
        <ele>25</ele>
        <time>2021-10-06T20:28:18+02:00</time>
      </trkpt>
      <trkpt lat="49.0118" lon="-0.4719">
        <ele>25</ele>
        <time>2021-10-06T20:28:18+02:00</time>
      </trkpt>
      <trkpt lat="49.01206" lon="-0.47185">
        <ele>25</ele>
        <time>2021-10-06T20:28:18+02:00</time>
      </trkpt>
      <trkpt lat="49.0123" lon="-0.4717">
        <ele>25</ele>
        <time>2021-10-06T20:28:18+02:00</time>
      </trkpt>
      <trkpt lat="49.01255" lon="-0.47158">
        <ele>26</ele>
        <time>2021-10-06T20:28:18+02:00</time>
      </trkpt>
      <trkpt lat="49.0128" lon="-0.47146">
        <ele>26</ele>
        <time>2021-10-06T20:28:18+02:00</time>
      </trkpt>
      <trkpt lat="49.01303" lon="-0.47133">
        <ele>26</ele>
        <time>2021-10-06T20:28:18+02:00</time>
      </trkpt>
      <trkpt lat="49.01327" lon="-0.47115">
        <ele>26</ele>
        <time>2021-10-06T20:28:18+02:00</time>
      </trkpt>
      <trkpt lat="49.0135" lon="-0.47097">
        <ele>26</ele>
        <time>2021-10-06T20:28:18+02:00</time>
      </trkpt>
      <trkpt lat="49.01373" lon="-0.47079">
        <ele>26</ele>
        <time>2021-10-06T20:28:18+02:00</time>
      </trkpt>
      <trkpt lat="49.01396" lon="-0.4706">
        <ele>26</ele>
        <time>2021-10-06T20:28:18+02:00</time>
      </trkpt>
      <trkpt lat="49.0142" lon="-0.47037">
        <ele>26</ele>
        <time>2021-10-06T20:28:18+02:00</time>
      </trkpt>
      <trkpt lat="49.01443" lon="-0.47015">
        <ele>26</ele>
        <time>2021-10-06T20:28:18+02:00</time>
      </trkpt>
      <trkpt lat="49.01464" lon="-0.46994">
        <ele>27</ele>
        <time>2021-10-06T20:28:18+02:00</time>
      </trkpt>
      <trkpt lat="49.01484" lon="-0.46976">
        <ele>27</ele>
        <time>2021-10-06T20:28:18+02:00</time>
      </trkpt>
      <trkpt lat="49.01503" lon="-0.46958">
        <ele>27</ele>
        <time>2021-10-06T20:28:18+02:00</time>
      </trkpt>
      <trkpt lat="49.01524" lon="-0.46938">
        <ele>28</ele>
        <time>2021-10-06T20:28:18+02:00</time>
      </trkpt>
      <trkpt lat="49.01544" lon="-0.46919">
        <ele>27</ele>
        <time>2021-10-06T20:28:18+02:00</time>
      </trkpt>
      <trkpt lat="49.01567" lon="-0.46897">
        <ele>27</ele>
        <time>2021-10-06T20:28:18+02:00</time>
      </trkpt>
      <trkpt lat="49.0159" lon="-0.46875">
        <ele>27</ele>
        <time>2021-10-06T20:28:18+02:00</time>
      </trkpt>
      <trkpt lat="49.01613" lon="-0.46854">
        <ele>25</ele>
        <time>2021-10-06T20:28:18+02:00</time>
      </trkpt>
      <trkpt lat="49.01633" lon="-0.46835">
        <ele>24</ele>
        <time>2021-10-06T20:28:18+02:00</time>
      </trkpt>
      <trkpt lat="49.01658" lon="-0.46819">
        <ele>24</ele>
        <time>2021-10-06T20:28:18+02:00</time>
      </trkpt>
      <trkpt lat="49.01678" lon="-0.468">
        <ele>24</ele>
        <time>2021-10-06T20:28:18+02:00</time>
      </trkpt>
      <trkpt lat="49.017" lon="-0.46777">
        <ele>24</ele>
        <time>2021-10-06T20:28:18+02:00</time>
      </trkpt>
      <trkpt lat="49.0172" lon="-0.4676">
        <ele>24</ele>
        <time>2021-10-06T20:28:18+02:00</time>
      </trkpt>
      <trkpt lat="49.01737" lon="-0.46736">
        <ele>23</ele>
        <time>2021-10-06T20:28:18+02:00</time>
      </trkpt>
      <trkpt lat="49.01758" lon="-0.46718">
        <ele>22</ele>
        <time>2021-10-06T20:28:18+02:00</time>
      </trkpt>
      <trkpt lat="49.01778" lon="-0.467">
        <ele>22</ele>
        <time>2021-10-06T20:28:18+02:00</time>
      </trkpt>
      <trkpt lat="49.01802" lon="-0.46682">
        <ele>22</ele>
        <time>2021-10-06T20:28:18+02:00</time>
      </trkpt>
      <trkpt lat="49.01823" lon="-0.46665">
        <ele>22</ele>
        <time>2021-10-06T20:28:18+02:00</time>
      </trkpt>
      <trkpt lat="49.01844" lon="-0.46651">
        <ele>21</ele>
        <time>2021-10-06T20:28:18+02:00</time>
      </trkpt>
      <trkpt lat="49.01867" lon="-0.46637">
        <ele>21</ele>
        <time>2021-10-06T20:28:18+02:00</time>
      </trkpt>
      <trkpt lat="49.01891" lon="-0.46622">
        <ele>21</ele>
        <time>2021-10-06T20:28:18+02:00</time>
      </trkpt>
      <trkpt lat="49.01913" lon="-0.4661">
        <ele>21</ele>
        <time>2021-10-06T20:28:18+02:00</time>
      </trkpt>
      <trkpt lat="49.01941" lon="-0.46598">
        <ele>20</ele>
        <time>2021-10-06T20:28:18+02:00</time>
      </trkpt>
      <trkpt lat="49.01968" lon="-0.46586">
        <ele>19</ele>
        <time>2021-10-06T20:28:18+02:00</time>
      </trkpt>
      <trkpt lat="49.01991" lon="-0.46577">
        <ele>19</ele>
        <time>2021-10-06T20:28:18+02:00</time>
      </trkpt>
      <trkpt lat="49.02014" lon="-0.46568">
        <ele>18</ele>
        <time>2021-10-06T20:28:18+02:00</time>
      </trkpt>
      <trkpt lat="49.02042" lon="-0.46558">
        <ele>18</ele>
        <time>2021-10-06T20:28:18+02:00</time>
      </trkpt>
      <trkpt lat="49.02066" lon="-0.46553">
        <ele>18</ele>
        <time>2021-10-06T20:28:18+02:00</time>
      </trkpt>
      <trkpt lat="49.02093" lon="-0.46545">
        <ele>20</ele>
        <time>2021-10-06T20:28:18+02:00</time>
      </trkpt>
      <trkpt lat="49.02118" lon="-0.46539">
        <ele>21</ele>
        <time>2021-10-06T20:28:18+02:00</time>
      </trkpt>
      <trkpt lat="49.02144" lon="-0.46532">
        <ele>23</ele>
        <time>2021-10-06T20:28:18+02:00</time>
      </trkpt>
      <trkpt lat="49.02168" lon="-0.46525">
        <ele>24</ele>
        <time>2021-10-06T20:28:18+02:00</time>
      </trkpt>
      <trkpt lat="49.02192" lon="-0.46519">
        <ele>24</ele>
        <time>2021-10-06T20:28:18+02:00</time>
      </trkpt>
      <trkpt lat="49.02217" lon="-0.46512">
        <ele>25</ele>
        <time>2021-10-06T20:28:18+02:00</time>
      </trkpt>
      <trkpt lat="49.02241" lon="-0.46506">
        <ele>25</ele>
        <time>2021-10-06T20:28:18+02:00</time>
      </trkpt>
      <trkpt lat="49.02278" lon="-0.46495">
        <ele>25</ele>
        <time>2021-10-06T20:28:18+02:00</time>
      </trkpt>
      <trkpt lat="49.02302" lon="-0.46491">
        <ele>25</ele>
        <time>2021-10-06T20:28:18+02:00</time>
      </trkpt>
      <trkpt lat="49.02326" lon="-0.46486">
        <ele>24</ele>
        <time>2021-10-06T20:28:18+02:00</time>
      </trkpt>
      <trkpt lat="49.02352" lon="-0.46482">
        <ele>24</ele>
        <time>2021-10-06T20:28:18+02:00</time>
      </trkpt>
      <trkpt lat="49.02377" lon="-0.46477">
        <ele>24</ele>
        <time>2021-10-06T20:28:18+02:00</time>
      </trkpt>
      <trkpt lat="49.02402" lon="-0.46473">
        <ele>24</ele>
        <time>2021-10-06T20:28:18+02:00</time>
      </trkpt>
      <trkpt lat="49.02426" lon="-0.46468">
        <ele>23</ele>
        <time>2021-10-06T20:28:18+02:00</time>
      </trkpt>
      <trkpt lat="49.0245" lon="-0.46462">
        <ele>23</ele>
        <time>2021-10-06T20:28:18+02:00</time>
      </trkpt>
      <trkpt lat="49.02473" lon="-0.46456">
        <ele>24</ele>
        <time>2021-10-06T20:28:18+02:00</time>
      </trkpt>
      <trkpt lat="49.02496" lon="-0.46449">
        <ele>22</ele>
        <time>2021-10-06T20:28:18+02:00</time>
      </trkpt>
      <trkpt lat="49.02537" lon="-0.46437">
        <ele>21</ele>
        <time>2021-10-06T20:28:18+02:00</time>
      </trkpt>
      <trkpt lat="49.02562" lon="-0.46433">
        <ele>20</ele>
        <time>2021-10-06T20:28:18+02:00</time>
      </trkpt>
      <trkpt lat="49.02586" lon="-0.4643">
        <ele>20</ele>
        <time>2021-10-06T20:28:18+02:00</time>
      </trkpt>
      <trkpt lat="49.02611" lon="-0.46427">
        <ele>20</ele>
        <time>2021-10-06T20:28:18+02:00</time>
      </trkpt>
      <trkpt lat="49.02635" lon="-0.46425">
        <ele>20</ele>
        <time>2021-10-06T20:28:18+02:00</time>
      </trkpt>
      <trkpt lat="49.02657" lon="-0.46422">
        <ele>21</ele>
        <time>2021-10-06T20:28:18+02:00</time>
      </trkpt>
      <trkpt lat="49.02685" lon="-0.46422">
        <ele>21</ele>
        <time>2021-10-06T20:28:18+02:00</time>
      </trkpt>
      <trkpt lat="49.02711" lon="-0.46422">
        <ele>21</ele>
        <time>2021-10-06T20:28:18+02:00</time>
      </trkpt>
      <trkpt lat="49.02734" lon="-0.46423">
        <ele>21</ele>
        <time>2021-10-06T20:28:18+02:00</time>
      </trkpt>
      <trkpt lat="49.02757" lon="-0.46424">
        <ele>21</ele>
        <time>2021-10-06T20:28:18+02:00</time>
      </trkpt>
      <trkpt lat="49.0278" lon="-0.46426">
        <ele>21</ele>
        <time>2021-10-06T20:28:18+02:00</time>
      </trkpt>
      <trkpt lat="49.02803" lon="-0.46429">
        <ele>22</ele>
        <time>2021-10-06T20:28:18+02:00</time>
      </trkpt>
      <trkpt lat="49.0283" lon="-0.46433">
        <ele>22</ele>
        <time>2021-10-06T20:28:18+02:00</time>
      </trkpt>
      <trkpt lat="49.02855" lon="-0.46438">
        <ele>23</ele>
        <time>2021-10-06T20:28:18+02:00</time>
      </trkpt>
      <trkpt lat="49.02878" lon="-0.46445">
        <ele>23</ele>
        <time>2021-10-06T20:28:18+02:00</time>
      </trkpt>
      <trkpt lat="49.02905" lon="-0.46453">
        <ele>24</ele>
        <time>2021-10-06T20:28:18+02:00</time>
      </trkpt>
      <trkpt lat="49.0293" lon="-0.46462">
        <ele>26</ele>
        <time>2021-10-06T20:28:18+02:00</time>
      </trkpt>
      <trkpt lat="49.02956" lon="-0.4647">
        <ele>27</ele>
        <time>2021-10-06T20:28:18+02:00</time>
      </trkpt>
      <trkpt lat="49.02981" lon="-0.46479">
        <ele>27</ele>
        <time>2021-10-06T20:28:18+02:00</time>
      </trkpt>
      <trkpt lat="49.03003" lon="-0.46486">
        <ele>27</ele>
        <time>2021-10-06T20:28:18+02:00</time>
      </trkpt>
      <trkpt lat="49.03026" lon="-0.46494">
        <ele>26</ele>
        <time>2021-10-06T20:28:18+02:00</time>
      </trkpt>
      <trkpt lat="49.03048" lon="-0.46501">
        <ele>25</ele>
        <time>2021-10-06T20:28:18+02:00</time>
      </trkpt>
      <trkpt lat="49.03074" lon="-0.46509">
        <ele>24</ele>
        <time>2021-10-06T20:28:18+02:00</time>
      </trkpt>
      <trkpt lat="49.03098" lon="-0.46516">
        <ele>24</ele>
        <time>2021-10-06T20:28:18+02:00</time>
      </trkpt>
      <trkpt lat="49.03125" lon="-0.46522">
        <ele>23</ele>
        <time>2021-10-06T20:28:18+02:00</time>
      </trkpt>
      <trkpt lat="49.03148" lon="-0.46527">
        <ele>22</ele>
        <time>2021-10-06T20:28:18+02:00</time>
      </trkpt>
      <trkpt lat="49.03174" lon="-0.46533">
        <ele>21</ele>
        <time>2021-10-06T20:28:18+02:00</time>
      </trkpt>
      <trkpt lat="49.032" lon="-0.46547">
        <ele>18</ele>
        <time>2021-10-06T20:28:18+02:00</time>
      </trkpt>
      <trkpt lat="49.03225" lon="-0.46554">
        <ele>17</ele>
        <time>2021-10-06T20:28:18+02:00</time>
      </trkpt>
      <trkpt lat="49.03248" lon="-0.46561">
        <ele>17</ele>
        <time>2021-10-06T20:28:18+02:00</time>
      </trkpt>
      <trkpt lat="49.03272" lon="-0.46571">
        <ele>18</ele>
        <time>2021-10-06T20:28:18+02:00</time>
      </trkpt>
      <trkpt lat="49.03295" lon="-0.46577">
        <ele>18</ele>
        <time>2021-10-06T20:28:18+02:00</time>
      </trkpt>
      <trkpt lat="49.03319" lon="-0.46582">
        <ele>19</ele>
        <time>2021-10-06T20:28:18+02:00</time>
      </trkpt>
      <trkpt lat="49.03345" lon="-0.46586">
        <ele>19</ele>
        <time>2021-10-06T20:28:18+02:00</time>
      </trkpt>
      <trkpt lat="49.03367" lon="-0.46595">
        <ele>20</ele>
        <time>2021-10-06T20:28:18+02:00</time>
      </trkpt>
      <trkpt lat="49.03394" lon="-0.46598">
        <ele>20</ele>
        <time>2021-10-06T20:28:18+02:00</time>
      </trkpt>
      <trkpt lat="49.03419" lon="-0.466">
        <ele>20</ele>
        <time>2021-10-06T20:28:18+02:00</time>
      </trkpt>
      <trkpt lat="49.03447" lon="-0.46596">
        <ele>19</ele>
        <time>2021-10-06T20:28:18+02:00</time>
      </trkpt>
      <trkpt lat="49.03473" lon="-0.46592">
        <ele>19</ele>
        <time>2021-10-06T20:28:18+02:00</time>
      </trkpt>
      <trkpt lat="49.03499" lon="-0.46592">
        <ele>19</ele>
        <time>2021-10-06T20:28:18+02:00</time>
      </trkpt>
      <trkpt lat="49.03524" lon="-0.46588">
        <ele>19</ele>
        <time>2021-10-06T20:28:18+02:00</time>
      </trkpt>
      <trkpt lat="49.03549" lon="-0.46584">
        <ele>19</ele>
        <time>2021-10-06T20:28:18+02:00</time>
      </trkpt>
      <trkpt lat="49.03574" lon="-0.46574">
        <ele>20</ele>
        <time>2021-10-06T20:28:18+02:00</time>
      </trkpt>
      <trkpt lat="49.03598" lon="-0.46565">
        <ele>20</ele>
        <time>2021-10-06T20:28:18+02:00</time>
      </trkpt>
      <trkpt lat="49.03623" lon="-0.46547">
        <ele>20</ele>
        <time>2021-10-06T20:28:18+02:00</time>
      </trkpt>
      <trkpt lat="49.03649" lon="-0.46538">
        <ele>19</ele>
        <time>2021-10-06T20:28:18+02:00</time>
      </trkpt>
      <trkpt lat="49.03673" lon="-0.46528">
        <ele>19</ele>
        <time>2021-10-06T20:28:18+02:00</time>
      </trkpt>
      <trkpt lat="49.03696" lon="-0.46517">
        <ele>19</ele>
        <time>2021-10-06T20:28:18+02:00</time>
      </trkpt>
      <trkpt lat="49.03723" lon="-0.46505">
        <ele>19</ele>
        <time>2021-10-06T20:28:18+02:00</time>
      </trkpt>
      <trkpt lat="49.03745" lon="-0.46495">
        <ele>18</ele>
        <time>2021-10-06T20:28:18+02:00</time>
      </trkpt>
      <trkpt lat="49.03771" lon="-0.46482">
        <ele>18</ele>
        <time>2021-10-06T20:28:18+02:00</time>
      </trkpt>
      <trkpt lat="49.03797" lon="-0.46471">
        <ele>18</ele>
        <time>2021-10-06T20:28:18+02:00</time>
      </trkpt>
      <trkpt lat="49.03819" lon="-0.46461">
        <ele>18</ele>
        <time>2021-10-06T20:28:18+02:00</time>
      </trkpt>
      <trkpt lat="49.03842" lon="-0.4645">
        <ele>18</ele>
        <time>2021-10-06T20:28:18+02:00</time>
      </trkpt>
      <trkpt lat="49.03867" lon="-0.46439">
        <ele>19</ele>
        <time>2021-10-06T20:28:18+02:00</time>
      </trkpt>
      <trkpt lat="49.03892" lon="-0.46428">
        <ele>19</ele>
        <time>2021-10-06T20:28:18+02:00</time>
      </trkpt>
      <trkpt lat="49.03919" lon="-0.46427">
        <ele>19</ele>
        <time>2021-10-06T20:28:18+02:00</time>
      </trkpt>
      <trkpt lat="49.03946" lon="-0.46415">
        <ele>19</ele>
        <time>2021-10-06T20:28:18+02:00</time>
      </trkpt>
      <trkpt lat="49.0397" lon="-0.46402">
        <ele>20</ele>
        <time>2021-10-06T20:28:18+02:00</time>
      </trkpt>
      <trkpt lat="49.03993" lon="-0.46393">
        <ele>19</ele>
        <time>2021-10-06T20:28:18+02:00</time>
      </trkpt>
      <trkpt lat="49.04019" lon="-0.46384">
        <ele>18</ele>
        <time>2021-10-06T20:28:18+02:00</time>
      </trkpt>
      <trkpt lat="49.04042" lon="-0.46372">
        <ele>18</ele>
        <time>2021-10-06T20:28:18+02:00</time>
      </trkpt>
      <trkpt lat="49.04064" lon="-0.46354">
        <ele>19</ele>
        <time>2021-10-06T20:28:18+02:00</time>
      </trkpt>
      <trkpt lat="49.04087" lon="-0.46344">
        <ele>18</ele>
        <time>2021-10-06T20:28:18+02:00</time>
      </trkpt>
      <trkpt lat="49.04113" lon="-0.46333">
        <ele>18</ele>
        <time>2021-10-06T20:28:18+02:00</time>
      </trkpt>
      <trkpt lat="49.04136" lon="-0.46323">
        <ele>18</ele>
        <time>2021-10-06T20:28:18+02:00</time>
      </trkpt>
      <trkpt lat="49.04163" lon="-0.46312">
        <ele>19</ele>
        <time>2021-10-06T20:28:18+02:00</time>
      </trkpt>
      <trkpt lat="49.04188" lon="-0.46304">
        <ele>19</ele>
        <time>2021-10-06T20:28:18+02:00</time>
      </trkpt>
      <trkpt lat="49.04212" lon="-0.46295">
        <ele>19</ele>
        <time>2021-10-06T20:28:18+02:00</time>
      </trkpt>
      <trkpt lat="49.04237" lon="-0.46284">
        <ele>19</ele>
        <time>2021-10-06T20:28:18+02:00</time>
      </trkpt>
      <trkpt lat="49.04261" lon="-0.46278">
        <ele>19</ele>
        <time>2021-10-06T20:28:18+02:00</time>
      </trkpt>
      <trkpt lat="49.04284" lon="-0.46269">
        <ele>19</ele>
        <time>2021-10-06T20:28:18+02:00</time>
      </trkpt>
      <trkpt lat="49.04308" lon="-0.46255">
        <ele>19</ele>
        <time>2021-10-06T20:28:18+02:00</time>
      </trkpt>
      <trkpt lat="49.0433" lon="-0.46241">
        <ele>19</ele>
        <time>2021-10-06T20:28:18+02:00</time>
      </trkpt>
      <trkpt lat="49.04352" lon="-0.46235">
        <ele>19</ele>
        <time>2021-10-06T20:28:18+02:00</time>
      </trkpt>
      <trkpt lat="49.04375" lon="-0.46222">
        <ele>19</ele>
        <time>2021-10-06T20:28:18+02:00</time>
      </trkpt>
      <trkpt lat="49.04396" lon="-0.46207">
        <ele>20</ele>
        <time>2021-10-06T20:28:18+02:00</time>
      </trkpt>
      <trkpt lat="49.04412" lon="-0.46176">
        <ele>21</ele>
        <time>2021-10-06T20:28:18+02:00</time>
      </trkpt>
      <trkpt lat="49.04439" lon="-0.46158">
        <ele>20</ele>
        <time>2021-10-06T20:28:18+02:00</time>
      </trkpt>
      <trkpt lat="49.0446" lon="-0.46143">
        <ele>20</ele>
        <time>2021-10-06T20:28:18+02:00</time>
      </trkpt>
      <trkpt lat="49.04482" lon="-0.46126">
        <ele>20</ele>
        <time>2021-10-06T20:28:18+02:00</time>
      </trkpt>
      <trkpt lat="49.04506" lon="-0.46108">
        <ele>20</ele>
        <time>2021-10-06T20:28:18+02:00</time>
      </trkpt>
      <trkpt lat="49.04531" lon="-0.4609">
        <ele>21</ele>
        <time>2021-10-06T20:28:18+02:00</time>
      </trkpt>
      <trkpt lat="49.04555" lon="-0.46071">
        <ele>21</ele>
        <time>2021-10-06T20:28:18+02:00</time>
      </trkpt>
      <trkpt lat="49.04579" lon="-0.46047">
        <ele>21</ele>
        <time>2021-10-06T20:28:18+02:00</time>
      </trkpt>
      <trkpt lat="49.046" lon="-0.46024">
        <ele>21</ele>
        <time>2021-10-06T20:28:18+02:00</time>
      </trkpt>
      <trkpt lat="49.0462" lon="-0.46004">
        <ele>21</ele>
        <time>2021-10-06T20:28:18+02:00</time>
      </trkpt>
      <trkpt lat="49.04642" lon="-0.45981">
        <ele>20</ele>
        <time>2021-10-06T20:28:18+02:00</time>
      </trkpt>
      <trkpt lat="49.04662" lon="-0.4596">
        <ele>20</ele>
        <time>2021-10-06T20:28:18+02:00</time>
      </trkpt>
      <trkpt lat="49.04681" lon="-0.45941">
        <ele>20</ele>
        <time>2021-10-06T20:28:18+02:00</time>
      </trkpt>
      <trkpt lat="49.047" lon="-0.45921">
        <ele>20</ele>
        <time>2021-10-06T20:28:18+02:00</time>
      </trkpt>
      <trkpt lat="49.04723" lon="-0.459">
        <ele>20</ele>
        <time>2021-10-06T20:28:18+02:00</time>
      </trkpt>
      <trkpt lat="49.04745" lon="-0.45882">
        <ele>20</ele>
        <time>2021-10-06T20:28:18+02:00</time>
      </trkpt>
      <trkpt lat="49.04768" lon="-0.45863">
        <ele>20</ele>
        <time>2021-10-06T20:28:18+02:00</time>
      </trkpt>
      <trkpt lat="49.04789" lon="-0.45848">
        <ele>19</ele>
        <time>2021-10-06T20:28:18+02:00</time>
      </trkpt>
      <trkpt lat="49.04815" lon="-0.45839">
        <ele>19</ele>
        <time>2021-10-06T20:28:18+02:00</time>
      </trkpt>
      <trkpt lat="49.04837" lon="-0.45831">
        <ele>18</ele>
        <time>2021-10-06T20:28:18+02:00</time>
      </trkpt>
      <trkpt lat="49.04862" lon="-0.45827">
        <ele>18</ele>
        <time>2021-10-06T20:28:18+02:00</time>
      </trkpt>
      <trkpt lat="49.0489" lon="-0.45824">
        <ele>17</ele>
        <time>2021-10-06T20:28:18+02:00</time>
      </trkpt>
      <trkpt lat="49.04912" lon="-0.45822">
        <ele>17</ele>
        <time>2021-10-06T20:28:18+02:00</time>
      </trkpt>
      <trkpt lat="49.04937" lon="-0.45822">
        <ele>17</ele>
        <time>2021-10-06T20:28:18+02:00</time>
      </trkpt>
      <trkpt lat="49.04962" lon="-0.45823">
        <ele>17</ele>
        <time>2021-10-06T20:28:18+02:00</time>
      </trkpt>
      <trkpt lat="49.04989" lon="-0.45824">
        <ele>17</ele>
        <time>2021-10-06T20:28:18+02:00</time>
      </trkpt>
      <trkpt lat="49.05016" lon="-0.45825">
        <ele>18</ele>
        <time>2021-10-06T20:28:18+02:00</time>
      </trkpt>
      <trkpt lat="49.05044" lon="-0.45826">
        <ele>19</ele>
        <time>2021-10-06T20:28:18+02:00</time>
      </trkpt>
      <trkpt lat="49.05071" lon="-0.45829">
        <ele>19</ele>
        <time>2021-10-06T20:28:18+02:00</time>
      </trkpt>
      <trkpt lat="49.05096" lon="-0.45833">
        <ele>19</ele>
        <time>2021-10-06T20:28:18+02:00</time>
      </trkpt>
      <trkpt lat="49.05122" lon="-0.45836">
        <ele>20</ele>
        <time>2021-10-06T20:28:18+02:00</time>
      </trkpt>
      <trkpt lat="49.05148" lon="-0.45843">
        <ele>20</ele>
        <time>2021-10-06T20:28:18+02:00</time>
      </trkpt>
      <trkpt lat="49.05173" lon="-0.45846">
        <ele>21</ele>
        <time>2021-10-06T20:28:18+02:00</time>
      </trkpt>
      <trkpt lat="49.05199" lon="-0.45854">
        <ele>20</ele>
        <time>2021-10-06T20:28:18+02:00</time>
      </trkpt>
      <trkpt lat="49.05224" lon="-0.45855">
        <ele>20</ele>
        <time>2021-10-06T20:28:18+02:00</time>
      </trkpt>
      <trkpt lat="49.05251" lon="-0.45859">
        <ele>20</ele>
        <time>2021-10-06T20:28:18+02:00</time>
      </trkpt>
      <trkpt lat="49.05275" lon="-0.45866">
        <ele>19</ele>
        <time>2021-10-06T20:28:18+02:00</time>
      </trkpt>
      <trkpt lat="49.05299" lon="-0.45869">
        <ele>18</ele>
        <time>2021-10-06T20:28:18+02:00</time>
      </trkpt>
      <trkpt lat="49.05325" lon="-0.45875">
        <ele>19</ele>
        <time>2021-10-06T20:28:18+02:00</time>
      </trkpt>
      <trkpt lat="49.05351" lon="-0.45887">
        <ele>17</ele>
        <time>2021-10-06T20:28:18+02:00</time>
      </trkpt>
      <trkpt lat="49.05373" lon="-0.4589">
        <ele>17</ele>
        <time>2021-10-06T20:28:18+02:00</time>
      </trkpt>
      <trkpt lat="49.05397" lon="-0.45893">
        <ele>17</ele>
        <time>2021-10-06T20:28:18+02:00</time>
      </trkpt>
      <trkpt lat="49.05424" lon="-0.45901">
        <ele>18</ele>
        <time>2021-10-06T20:28:18+02:00</time>
      </trkpt>
      <trkpt lat="49.05447" lon="-0.45908">
        <ele>17</ele>
        <time>2021-10-06T20:28:18+02:00</time>
      </trkpt>
      <trkpt lat="49.05474" lon="-0.45907">
        <ele>17</ele>
        <time>2021-10-06T20:28:18+02:00</time>
      </trkpt>
      <trkpt lat="49.055" lon="-0.45915">
        <ele>18</ele>
        <time>2021-10-06T20:28:18+02:00</time>
      </trkpt>
      <trkpt lat="49.05524" lon="-0.45921">
        <ele>17</ele>
        <time>2021-10-06T20:28:18+02:00</time>
      </trkpt>
      <trkpt lat="49.05547" lon="-0.45928">
        <ele>17</ele>
        <time>2021-10-06T20:28:18+02:00</time>
      </trkpt>
      <trkpt lat="49.05573" lon="-0.45935">
        <ele>17</ele>
        <time>2021-10-06T20:28:18+02:00</time>
      </trkpt>
      <trkpt lat="49.05595" lon="-0.45942">
        <ele>17</ele>
        <time>2021-10-06T20:28:18+02:00</time>
      </trkpt>
      <trkpt lat="49.05621" lon="-0.45949">
        <ele>17</ele>
        <time>2021-10-06T20:28:18+02:00</time>
      </trkpt>
      <trkpt lat="49.05646" lon="-0.45953">
        <ele>16</ele>
        <time>2021-10-06T20:28:18+02:00</time>
      </trkpt>
      <trkpt lat="49.05672" lon="-0.45956">
        <ele>16</ele>
        <time>2021-10-06T20:28:18+02:00</time>
      </trkpt>
      <trkpt lat="49.05697" lon="-0.45961">
        <ele>16</ele>
        <time>2021-10-06T20:28:18+02:00</time>
      </trkpt>
      <trkpt lat="49.05725" lon="-0.45963">
        <ele>17</ele>
        <time>2021-10-06T20:28:18+02:00</time>
      </trkpt>
      <trkpt lat="49.05752" lon="-0.45969">
        <ele>17</ele>
        <time>2021-10-06T20:28:18+02:00</time>
      </trkpt>
      <trkpt lat="49.05776" lon="-0.4597">
        <ele>17</ele>
        <time>2021-10-06T20:28:18+02:00</time>
      </trkpt>
      <trkpt lat="49.05799" lon="-0.45973">
        <ele>17</ele>
        <time>2021-10-06T20:28:18+02:00</time>
      </trkpt>
      <trkpt lat="49.05822" lon="-0.45974">
        <ele>17</ele>
        <time>2021-10-06T20:28:18+02:00</time>
      </trkpt>
      <trkpt lat="49.05848" lon="-0.45974">
        <ele>17</ele>
        <time>2021-10-06T20:28:18+02:00</time>
      </trkpt>
      <trkpt lat="49.05874" lon="-0.4597">
        <ele>17</ele>
        <time>2021-10-06T20:28:18+02:00</time>
      </trkpt>
      <trkpt lat="49.05902" lon="-0.45967">
        <ele>17</ele>
        <time>2021-10-06T20:28:18+02:00</time>
      </trkpt>
      <trkpt lat="49.05924" lon="-0.45962">
        <ele>17</ele>
        <time>2021-10-06T20:28:18+02:00</time>
      </trkpt>
      <trkpt lat="49.05948" lon="-0.45958">
        <ele>17</ele>
        <time>2021-10-06T20:28:18+02:00</time>
      </trkpt>
      <trkpt lat="49.05974" lon="-0.45951">
        <ele>17</ele>
        <time>2021-10-06T20:28:18+02:00</time>
      </trkpt>
      <trkpt lat="49.05999" lon="-0.45942">
        <ele>17</ele>
        <time>2021-10-06T20:28:18+02:00</time>
      </trkpt>
      <trkpt lat="49.06022" lon="-0.45933">
        <ele>17</ele>
        <time>2021-10-06T20:28:18+02:00</time>
      </trkpt>
      <trkpt lat="49.06048" lon="-0.45926">
        <ele>17</ele>
        <time>2021-10-06T20:28:18+02:00</time>
      </trkpt>
      <trkpt lat="49.06072" lon="-0.45917">
        <ele>17</ele>
        <time>2021-10-06T20:28:18+02:00</time>
      </trkpt>
      <trkpt lat="49.06096" lon="-0.45904">
        <ele>17</ele>
        <time>2021-10-06T20:28:18+02:00</time>
      </trkpt>
      <trkpt lat="49.06121" lon="-0.4589">
        <ele>17</ele>
        <time>2021-10-06T20:28:18+02:00</time>
      </trkpt>
      <trkpt lat="49.06141" lon="-0.45864">
        <ele>17</ele>
        <time>2021-10-06T20:28:18+02:00</time>
      </trkpt>
      <trkpt lat="49.06168" lon="-0.45849">
        <ele>17</ele>
        <time>2021-10-06T20:28:18+02:00</time>
      </trkpt>
      <trkpt lat="49.06191" lon="-0.4583">
        <ele>17</ele>
        <time>2021-10-06T20:28:18+02:00</time>
      </trkpt>
      <trkpt lat="49.06214" lon="-0.45809">
        <ele>17</ele>
        <time>2021-10-06T20:28:18+02:00</time>
      </trkpt>
      <trkpt lat="49.06234" lon="-0.45789">
        <ele>18</ele>
        <time>2021-10-06T20:28:18+02:00</time>
      </trkpt>
      <trkpt lat="49.06256" lon="-0.45777">
        <ele>18</ele>
        <time>2021-10-06T20:28:18+02:00</time>
      </trkpt>
      <trkpt lat="49.06275" lon="-0.4575">
        <ele>19</ele>
        <time>2021-10-06T20:28:18+02:00</time>
      </trkpt>
      <trkpt lat="49.0629" lon="-0.45718">
        <ele>20</ele>
        <time>2021-10-06T20:28:18+02:00</time>
      </trkpt>
      <trkpt lat="49.06306" lon="-0.45691">
        <ele>20</ele>
        <time>2021-10-06T20:28:18+02:00</time>
      </trkpt>
      <trkpt lat="49.0632" lon="-0.45661">
        <ele>21</ele>
        <time>2021-10-06T20:28:18+02:00</time>
      </trkpt>
      <trkpt lat="49.06332" lon="-0.45627">
        <ele>21</ele>
        <time>2021-10-06T20:28:18+02:00</time>
      </trkpt>
      <trkpt lat="49.06345" lon="-0.45593">
        <ele>22</ele>
        <time>2021-10-06T20:28:18+02:00</time>
      </trkpt>
      <trkpt lat="49.0637" lon="-0.45572">
        <ele>22</ele>
        <time>2021-10-06T20:28:18+02:00</time>
      </trkpt>
      <trkpt lat="49.06379" lon="-0.45538">
        <ele>22</ele>
        <time>2021-10-06T20:28:18+02:00</time>
      </trkpt>
      <trkpt lat="49.06391" lon="-0.45504">
        <ele>22</ele>
        <time>2021-10-06T20:28:18+02:00</time>
      </trkpt>
      <trkpt lat="49.06402" lon="-0.4547">
        <ele>23</ele>
        <time>2021-10-06T20:28:18+02:00</time>
      </trkpt>
      <trkpt lat="49.06412" lon="-0.45433">
        <ele>23</ele>
        <time>2021-10-06T20:28:18+02:00</time>
      </trkpt>
      <trkpt lat="49.0642" lon="-0.45401">
        <ele>22</ele>
        <time>2021-10-06T20:28:18+02:00</time>
      </trkpt>
      <trkpt lat="49.06431" lon="-0.45365">
        <ele>21</ele>
        <time>2021-10-06T20:28:18+02:00</time>
      </trkpt>
      <trkpt lat="49.06444" lon="-0.45331">
        <ele>18</ele>
        <time>2021-10-06T20:28:18+02:00</time>
      </trkpt>
      <trkpt lat="49.06453" lon="-0.45298">
        <ele>19</ele>
        <time>2021-10-06T20:28:18+02:00</time>
      </trkpt>
      <trkpt lat="49.06463" lon="-0.45262">
        <ele>18</ele>
        <time>2021-10-06T20:28:18+02:00</time>
      </trkpt>
      <trkpt lat="49.06473" lon="-0.45227">
        <ele>17</ele>
        <time>2021-10-06T20:28:18+02:00</time>
      </trkpt>
      <trkpt lat="49.06485" lon="-0.45191">
        <ele>18</ele>
        <time>2021-10-06T20:28:18+02:00</time>
      </trkpt>
      <trkpt lat="49.06489" lon="-0.45152">
        <ele>18</ele>
        <time>2021-10-06T20:28:18+02:00</time>
      </trkpt>
      <trkpt lat="49.06498" lon="-0.45115">
        <ele>20</ele>
        <time>2021-10-06T20:28:18+02:00</time>
      </trkpt>
      <trkpt lat="49.06504" lon="-0.45079">
        <ele>21</ele>
        <time>2021-10-06T20:28:18+02:00</time>
      </trkpt>
      <trkpt lat="49.06507" lon="-0.45039">
        <ele>24</ele>
        <time>2021-10-06T20:28:18+02:00</time>
      </trkpt>
      <trkpt lat="49.06507" lon="-0.45004">
        <ele>26</ele>
        <time>2021-10-06T20:28:18+02:00</time>
      </trkpt>
      <trkpt lat="49.06508" lon="-0.44966">
        <ele>27</ele>
        <time>2021-10-06T20:28:18+02:00</time>
      </trkpt>
      <trkpt lat="49.06508" lon="-0.44926">
        <ele>26</ele>
        <time>2021-10-06T20:28:18+02:00</time>
      </trkpt>
      <trkpt lat="49.06506" lon="-0.4489">
        <ele>25</ele>
        <time>2021-10-06T20:28:18+02:00</time>
      </trkpt>
      <trkpt lat="49.065" lon="-0.44852">
        <ele>25</ele>
        <time>2021-10-06T20:28:18+02:00</time>
      </trkpt>
      <trkpt lat="49.06494" lon="-0.44813">
        <ele>24</ele>
        <time>2021-10-06T20:28:18+02:00</time>
      </trkpt>
      <trkpt lat="49.06488" lon="-0.44774">
        <ele>22</ele>
        <time>2021-10-06T20:28:18+02:00</time>
      </trkpt>
      <trkpt lat="49.06481" lon="-0.4474">
        <ele>20</ele>
        <time>2021-10-06T20:28:18+02:00</time>
      </trkpt>
      <trkpt lat="49.06474" lon="-0.44704">
        <ele>17</ele>
        <time>2021-10-06T20:28:18+02:00</time>
      </trkpt>
      <trkpt lat="49.06465" lon="-0.44651">
        <ele>12</ele>
        <time>2021-10-06T20:28:18+02:00</time>
      </trkpt>
      <trkpt lat="49.06464" lon="-0.44615">
        <ele>10</ele>
        <time>2021-10-06T20:28:18+02:00</time>
      </trkpt>
      <trkpt lat="49.0646" lon="-0.44577">
        <ele>12</ele>
        <time>2021-10-06T20:28:18+02:00</time>
      </trkpt>
      <trkpt lat="49.06456" lon="-0.4454">
        <ele>21</ele>
        <time>2021-10-06T20:28:18+02:00</time>
      </trkpt>
      <trkpt lat="49.06454" lon="-0.44502">
        <ele>27</ele>
        <time>2021-10-06T20:28:18+02:00</time>
      </trkpt>
      <trkpt lat="49.06453" lon="-0.44465">
        <ele>29</ele>
        <time>2021-10-06T20:28:18+02:00</time>
      </trkpt>
      <trkpt lat="49.06456" lon="-0.44425">
        <ele>30</ele>
        <time>2021-10-06T20:28:18+02:00</time>
      </trkpt>
      <trkpt lat="49.06456" lon="-0.44386">
        <ele>30</ele>
        <time>2021-10-06T20:28:18+02:00</time>
      </trkpt>
      <trkpt lat="49.06445" lon="-0.44342">
        <ele>29</ele>
        <time>2021-10-06T20:28:18+02:00</time>
      </trkpt>
      <trkpt lat="49.0645" lon="-0.44304">
        <ele>30</ele>
        <time>2021-10-06T20:28:18+02:00</time>
      </trkpt>
      <trkpt lat="49.06455" lon="-0.4427">
        <ele>30</ele>
        <time>2021-10-06T20:28:18+02:00</time>
      </trkpt>
      <trkpt lat="49.0646" lon="-0.44234">
        <ele>28</ele>
        <time>2021-10-06T20:28:18+02:00</time>
      </trkpt>
      <trkpt lat="49.06469" lon="-0.44198">
        <ele>26</ele>
        <time>2021-10-06T20:28:18+02:00</time>
      </trkpt>
      <trkpt lat="49.0648" lon="-0.4416">
        <ele>26</ele>
        <time>2021-10-06T20:28:18+02:00</time>
      </trkpt>
      <trkpt lat="49.06493" lon="-0.44127">
        <ele>25</ele>
        <time>2021-10-06T20:28:18+02:00</time>
      </trkpt>
      <trkpt lat="49.06511" lon="-0.44097">
        <ele>23</ele>
        <time>2021-10-06T20:28:18+02:00</time>
      </trkpt>
      <trkpt lat="49.06524" lon="-0.44066">
        <ele>22</ele>
        <time>2021-10-06T20:28:18+02:00</time>
      </trkpt>
      <trkpt lat="49.06535" lon="-0.44033">
        <ele>21</ele>
        <time>2021-10-06T20:28:18+02:00</time>
      </trkpt>
      <trkpt lat="49.06549" lon="-0.44006">
        <ele>18</ele>
        <time>2021-10-06T20:28:18+02:00</time>
      </trkpt>
      <trkpt lat="49.06566" lon="-0.43973">
        <ele>10</ele>
        <time>2021-10-06T20:28:18+02:00</time>
      </trkpt>
      <trkpt lat="49.06582" lon="-0.43941">
        <ele>10</ele>
        <time>2021-10-06T20:28:18+02:00</time>
      </trkpt>
      <trkpt lat="49.066" lon="-0.43912">
        <ele>14</ele>
        <time>2021-10-06T20:28:18+02:00</time>
      </trkpt>
      <trkpt lat="49.06615" lon="-0.43885">
        <ele>18</ele>
        <time>2021-10-06T20:28:18+02:00</time>
      </trkpt>
      <trkpt lat="49.06633" lon="-0.43855">
        <ele>20</ele>
        <time>2021-10-06T20:28:18+02:00</time>
      </trkpt>
      <trkpt lat="49.06649" lon="-0.43829">
        <ele>21</ele>
        <time>2021-10-06T20:28:18+02:00</time>
      </trkpt>
      <trkpt lat="49.06665" lon="-0.43801">
        <ele>22</ele>
        <time>2021-10-06T20:28:18+02:00</time>
      </trkpt>
      <trkpt lat="49.06686" lon="-0.43766">
        <ele>22</ele>
        <time>2021-10-06T20:28:18+02:00</time>
      </trkpt>
      <trkpt lat="49.06703" lon="-0.4374">
        <ele>22</ele>
        <time>2021-10-06T20:28:18+02:00</time>
      </trkpt>
      <trkpt lat="49.06719" lon="-0.43715">
        <ele>22</ele>
        <time>2021-10-06T20:28:18+02:00</time>
      </trkpt>
      <trkpt lat="49.0674" lon="-0.43684">
        <ele>20</ele>
        <time>2021-10-06T20:28:18+02:00</time>
      </trkpt>
      <trkpt lat="49.06757" lon="-0.43658">
        <ele>20</ele>
        <time>2021-10-06T20:28:18+02:00</time>
      </trkpt>
      <trkpt lat="49.06774" lon="-0.43632">
        <ele>19</ele>
        <time>2021-10-06T20:28:18+02:00</time>
      </trkpt>
      <trkpt lat="49.06791" lon="-0.43608">
        <ele>21</ele>
        <time>2021-10-06T20:28:18+02:00</time>
      </trkpt>
      <trkpt lat="49.06811" lon="-0.43579">
        <ele>21</ele>
        <time>2021-10-06T20:28:18+02:00</time>
      </trkpt>
      <trkpt lat="49.06829" lon="-0.43552">
        <ele>21</ele>
        <time>2021-10-06T20:28:18+02:00</time>
      </trkpt>
      <trkpt lat="49.06848" lon="-0.43529">
        <ele>22</ele>
        <time>2021-10-06T20:28:18+02:00</time>
      </trkpt>
      <trkpt lat="49.0687" lon="-0.43504">
        <ele>23</ele>
        <time>2021-10-06T20:28:18+02:00</time>
      </trkpt>
      <trkpt lat="49.06892" lon="-0.43479">
        <ele>24</ele>
        <time>2021-10-06T20:28:18+02:00</time>
      </trkpt>
      <trkpt lat="49.06911" lon="-0.43457">
        <ele>23</ele>
        <time>2021-10-06T20:28:18+02:00</time>
      </trkpt>
      <trkpt lat="49.06931" lon="-0.43436">
        <ele>21</ele>
        <time>2021-10-06T20:28:18+02:00</time>
      </trkpt>
      <trkpt lat="49.06952" lon="-0.43414">
        <ele>19</ele>
        <time>2021-10-06T20:28:18+02:00</time>
      </trkpt>
      <trkpt lat="49.06974" lon="-0.4339">
        <ele>18</ele>
        <time>2021-10-06T20:28:18+02:00</time>
      </trkpt>
      <trkpt lat="49.06995" lon="-0.43369">
        <ele>18</ele>
        <time>2021-10-06T20:28:18+02:00</time>
      </trkpt>
      <trkpt lat="49.07013" lon="-0.43349">
        <ele>18</ele>
        <time>2021-10-06T20:28:18+02:00</time>
      </trkpt>
      <trkpt lat="49.07035" lon="-0.43325">
        <ele>16</ele>
        <time>2021-10-06T20:28:18+02:00</time>
      </trkpt>
      <trkpt lat="49.07054" lon="-0.43305">
        <ele>16</ele>
        <time>2021-10-06T20:28:18+02:00</time>
      </trkpt>
      <trkpt lat="49.07072" lon="-0.43285">
        <ele>16</ele>
        <time>2021-10-06T20:28:18+02:00</time>
      </trkpt>
      <trkpt lat="49.07096" lon="-0.4326">
        <ele>15</ele>
        <time>2021-10-06T20:28:18+02:00</time>
      </trkpt>
      <trkpt lat="49.07117" lon="-0.43237">
        <ele>15</ele>
        <time>2021-10-06T20:28:18+02:00</time>
      </trkpt>
      <trkpt lat="49.07139" lon="-0.43214">
        <ele>15</ele>
        <time>2021-10-06T20:28:18+02:00</time>
      </trkpt>
      <trkpt lat="49.0716" lon="-0.43193">
        <ele>14</ele>
        <time>2021-10-06T20:28:18+02:00</time>
      </trkpt>
      <trkpt lat="49.07182" lon="-0.43171">
        <ele>15</ele>
        <time>2021-10-06T20:28:18+02:00</time>
      </trkpt>
      <trkpt lat="49.07203" lon="-0.43151">
        <ele>16</ele>
        <time>2021-10-06T20:28:18+02:00</time>
      </trkpt>
      <trkpt lat="49.07224" lon="-0.43131">
        <ele>16</ele>
        <time>2021-10-06T20:28:18+02:00</time>
      </trkpt>
      <trkpt lat="49.07245" lon="-0.43112">
        <ele>16</ele>
        <time>2021-10-06T20:28:18+02:00</time>
      </trkpt>
      <trkpt lat="49.07269" lon="-0.4309">
        <ele>15</ele>
        <time>2021-10-06T20:28:18+02:00</time>
      </trkpt>
      <trkpt lat="49.07294" lon="-0.43068">
        <ele>15</ele>
        <time>2021-10-06T20:28:18+02:00</time>
      </trkpt>
      <trkpt lat="49.07317" lon="-0.4305">
        <ele>16</ele>
        <time>2021-10-06T20:28:18+02:00</time>
      </trkpt>
      <trkpt lat="49.07341" lon="-0.43033">
        <ele>17</ele>
        <time>2021-10-06T20:28:18+02:00</time>
      </trkpt>
      <trkpt lat="49.07367" lon="-0.43016">
        <ele>17</ele>
        <time>2021-10-06T20:28:18+02:00</time>
      </trkpt>
      <trkpt lat="49.07389" lon="-0.43">
        <ele>17</ele>
        <time>2021-10-06T20:28:18+02:00</time>
      </trkpt>
      <trkpt lat="49.07413" lon="-0.42984">
        <ele>17</ele>
        <time>2021-10-06T20:28:18+02:00</time>
      </trkpt>
      <trkpt lat="49.07434" lon="-0.42969">
        <ele>17</ele>
        <time>2021-10-06T20:28:18+02:00</time>
      </trkpt>
      <trkpt lat="49.07456" lon="-0.42955">
        <ele>17</ele>
        <time>2021-10-06T20:28:18+02:00</time>
      </trkpt>
      <trkpt lat="49.07482" lon="-0.42956">
        <ele>17</ele>
        <time>2021-10-06T20:28:18+02:00</time>
      </trkpt>
      <trkpt lat="49.07498" lon="-0.42927">
        <ele>17</ele>
        <time>2021-10-06T20:28:18+02:00</time>
      </trkpt>
      <trkpt lat="49.0752" lon="-0.42913">
        <ele>17</ele>
        <time>2021-10-06T20:28:18+02:00</time>
      </trkpt>
      <trkpt lat="49.07542" lon="-0.42898">
        <ele>16</ele>
        <time>2021-10-06T20:28:18+02:00</time>
      </trkpt>
      <trkpt lat="49.07565" lon="-0.42883">
        <ele>15</ele>
        <time>2021-10-06T20:28:18+02:00</time>
      </trkpt>
      <trkpt lat="49.07588" lon="-0.42868">
        <ele>14</ele>
        <time>2021-10-06T20:28:18+02:00</time>
      </trkpt>
      <trkpt lat="49.07609" lon="-0.42854">
        <ele>15</ele>
        <time>2021-10-06T20:28:18+02:00</time>
      </trkpt>
      <trkpt lat="49.07634" lon="-0.42838">
        <ele>16</ele>
        <time>2021-10-06T20:28:18+02:00</time>
      </trkpt>
      <trkpt lat="49.07655" lon="-0.42826">
        <ele>16</ele>
        <time>2021-10-06T20:28:18+02:00</time>
      </trkpt>
      <trkpt lat="49.07677" lon="-0.42812">
        <ele>15</ele>
        <time>2021-10-06T20:28:18+02:00</time>
      </trkpt>
      <trkpt lat="49.07703" lon="-0.42796">
        <ele>14</ele>
        <time>2021-10-06T20:28:18+02:00</time>
      </trkpt>
      <trkpt lat="49.07726" lon="-0.42782">
        <ele>14</ele>
        <time>2021-10-06T20:28:18+02:00</time>
      </trkpt>
      <trkpt lat="49.07751" lon="-0.42767">
        <ele>14</ele>
        <time>2021-10-06T20:28:18+02:00</time>
      </trkpt>
      <trkpt lat="49.07775" lon="-0.42752">
        <ele>13</ele>
        <time>2021-10-06T20:28:18+02:00</time>
      </trkpt>
      <trkpt lat="49.07796" lon="-0.42739">
        <ele>13</ele>
        <time>2021-10-06T20:28:18+02:00</time>
      </trkpt>
      <trkpt lat="49.07822" lon="-0.42724">
        <ele>13</ele>
        <time>2021-10-06T20:28:18+02:00</time>
      </trkpt>
      <trkpt lat="49.07846" lon="-0.42711">
        <ele>13</ele>
        <time>2021-10-06T20:28:18+02:00</time>
      </trkpt>
      <trkpt lat="49.07868" lon="-0.42698">
        <ele>12</ele>
        <time>2021-10-06T20:28:18+02:00</time>
      </trkpt>
      <trkpt lat="49.0789" lon="-0.42686">
        <ele>13</ele>
        <time>2021-10-06T20:28:18+02:00</time>
      </trkpt>
      <trkpt lat="49.07913" lon="-0.42673">
        <ele>13</ele>
        <time>2021-10-06T20:28:18+02:00</time>
      </trkpt>
      <trkpt lat="49.07938" lon="-0.42658">
        <ele>13</ele>
        <time>2021-10-06T20:28:18+02:00</time>
      </trkpt>
      <trkpt lat="49.07963" lon="-0.42644">
        <ele>13</ele>
        <time>2021-10-06T20:28:18+02:00</time>
      </trkpt>
      <trkpt lat="49.07986" lon="-0.4265">
        <ele>14</ele>
        <time>2021-10-06T20:28:18+02:00</time>
      </trkpt>
      <trkpt lat="49.08005" lon="-0.4262">
        <ele>14</ele>
        <time>2021-10-06T20:28:18+02:00</time>
      </trkpt>
      <trkpt lat="49.08027" lon="-0.42608">
        <ele>15</ele>
        <time>2021-10-06T20:28:18+02:00</time>
      </trkpt>
      <trkpt lat="49.08053" lon="-0.42593">
        <ele>16</ele>
        <time>2021-10-06T20:28:18+02:00</time>
      </trkpt>
      <trkpt lat="49.08076" lon="-0.4258">
        <ele>16</ele>
        <time>2021-10-06T20:28:18+02:00</time>
      </trkpt>
      <trkpt lat="49.08099" lon="-0.42567">
        <ele>16</ele>
        <time>2021-10-06T20:28:18+02:00</time>
      </trkpt>
      <trkpt lat="49.08122" lon="-0.42554">
        <ele>16</ele>
        <time>2021-10-06T20:28:18+02:00</time>
      </trkpt>
      <trkpt lat="49.08145" lon="-0.42542">
        <ele>15</ele>
        <time>2021-10-06T20:28:18+02:00</time>
      </trkpt>
      <trkpt lat="49.08169" lon="-0.42533">
        <ele>15</ele>
        <time>2021-10-06T20:28:18+02:00</time>
      </trkpt>
      <trkpt lat="49.08195" lon="-0.42521">
        <ele>14</ele>
        <time>2021-10-06T20:28:18+02:00</time>
      </trkpt>
      <trkpt lat="49.08217" lon="-0.42513">
        <ele>13</ele>
        <time>2021-10-06T20:28:18+02:00</time>
      </trkpt>
      <trkpt lat="49.08239" lon="-0.42496">
        <ele>12</ele>
        <time>2021-10-06T20:28:18+02:00</time>
      </trkpt>
      <trkpt lat="49.08263" lon="-0.42486">
        <ele>12</ele>
        <time>2021-10-06T20:28:18+02:00</time>
      </trkpt>
      <trkpt lat="49.08289" lon="-0.42475">
        <ele>12</ele>
        <time>2021-10-06T20:28:18+02:00</time>
      </trkpt>
      <trkpt lat="49.08314" lon="-0.42464">
        <ele>11</ele>
        <time>2021-10-06T20:28:18+02:00</time>
      </trkpt>
      <trkpt lat="49.08339" lon="-0.42454">
        <ele>11</ele>
        <time>2021-10-06T20:28:18+02:00</time>
      </trkpt>
      <trkpt lat="49.08361" lon="-0.42441">
        <ele>11</ele>
        <time>2021-10-06T20:28:18+02:00</time>
      </trkpt>
      <trkpt lat="49.08386" lon="-0.4243">
        <ele>11</ele>
        <time>2021-10-06T20:28:18+02:00</time>
      </trkpt>
      <trkpt lat="49.08412" lon="-0.4242">
        <ele>11</ele>
        <time>2021-10-06T20:28:18+02:00</time>
      </trkpt>
      <trkpt lat="49.08433" lon="-0.4241">
        <ele>11</ele>
        <time>2021-10-06T20:28:18+02:00</time>
      </trkpt>
      <trkpt lat="49.08457" lon="-0.42409">
        <ele>11</ele>
        <time>2021-10-06T20:28:18+02:00</time>
      </trkpt>
      <trkpt lat="49.08494" lon="-0.42397">
        <ele>12</ele>
        <time>2021-10-06T20:28:18+02:00</time>
      </trkpt>
      <trkpt lat="49.08517" lon="-0.42389">
        <ele>13</ele>
        <time>2021-10-06T20:28:18+02:00</time>
      </trkpt>
      <trkpt lat="49.0854" lon="-0.42382">
        <ele>17</ele>
        <time>2021-10-06T20:28:18+02:00</time>
      </trkpt>
      <trkpt lat="49.08563" lon="-0.42374">
        <ele>18</ele>
        <time>2021-10-06T20:28:18+02:00</time>
      </trkpt>
      <trkpt lat="49.08586" lon="-0.42367">
        <ele>20</ele>
        <time>2021-10-06T20:28:18+02:00</time>
      </trkpt>
      <trkpt lat="49.08612" lon="-0.42357">
        <ele>21</ele>
        <time>2021-10-06T20:28:18+02:00</time>
      </trkpt>
      <trkpt lat="49.08636" lon="-0.42348">
        <ele>12</ele>
        <time>2021-10-06T20:28:18+02:00</time>
      </trkpt>
      <trkpt lat="49.08662" lon="-0.4234">
        <ele>12</ele>
        <time>2021-10-06T20:28:18+02:00</time>
      </trkpt>
      <trkpt lat="49.08688" lon="-0.42329">
        <ele>13</ele>
        <time>2021-10-06T20:28:18+02:00</time>
      </trkpt>
      <trkpt lat="49.08713" lon="-0.42321">
        <ele>13</ele>
        <time>2021-10-06T20:28:18+02:00</time>
      </trkpt>
      <trkpt lat="49.08736" lon="-0.42315">
        <ele>12</ele>
        <time>2021-10-06T20:28:18+02:00</time>
      </trkpt>
      <trkpt lat="49.08759" lon="-0.42305">
        <ele>12</ele>
        <time>2021-10-06T20:28:18+02:00</time>
      </trkpt>
      <trkpt lat="49.08784" lon="-0.42292">
        <ele>13</ele>
        <time>2021-10-06T20:28:18+02:00</time>
      </trkpt>
      <trkpt lat="49.08802" lon="-0.42267">
        <ele>13</ele>
        <time>2021-10-06T20:28:18+02:00</time>
      </trkpt>
      <trkpt lat="49.08825" lon="-0.42254">
        <ele>14</ele>
        <time>2021-10-06T20:28:18+02:00</time>
      </trkpt>
      <trkpt lat="49.0885" lon="-0.42239">
        <ele>14</ele>
        <time>2021-10-06T20:28:18+02:00</time>
      </trkpt>
      <trkpt lat="49.08873" lon="-0.42225">
        <ele>14</ele>
        <time>2021-10-06T20:28:18+02:00</time>
      </trkpt>
      <trkpt lat="49.08898" lon="-0.42208">
        <ele>14</ele>
        <time>2021-10-06T20:28:18+02:00</time>
      </trkpt>
      <trkpt lat="49.08921" lon="-0.42193">
        <ele>15</ele>
        <time>2021-10-06T20:28:18+02:00</time>
      </trkpt>
      <trkpt lat="49.08944" lon="-0.42186">
        <ele>15</ele>
        <time>2021-10-06T20:28:18+02:00</time>
      </trkpt>
      <trkpt lat="49.08967" lon="-0.42166">
        <ele>15</ele>
        <time>2021-10-06T20:28:18+02:00</time>
      </trkpt>
      <trkpt lat="49.08988" lon="-0.42143">
        <ele>15</ele>
        <time>2021-10-06T20:28:18+02:00</time>
      </trkpt>
      <trkpt lat="49.09008" lon="-0.42117">
        <ele>15</ele>
        <time>2021-10-06T20:28:18+02:00</time>
      </trkpt>
      <trkpt lat="49.09019" lon="-0.42086">
        <ele>15</ele>
        <time>2021-10-06T20:28:18+02:00</time>
      </trkpt>
      <trkpt lat="49.09036" lon="-0.42062">
        <ele>14</ele>
        <time>2021-10-06T20:28:18+02:00</time>
      </trkpt>
      <trkpt lat="49.09056" lon="-0.42034">
        <ele>14</ele>
        <time>2021-10-06T20:28:18+02:00</time>
      </trkpt>
      <trkpt lat="49.09072" lon="-0.4201">
        <ele>13</ele>
        <time>2021-10-06T20:28:18+02:00</time>
      </trkpt>
      <trkpt lat="49.0909" lon="-0.41984">
        <ele>13</ele>
        <time>2021-10-06T20:28:18+02:00</time>
      </trkpt>
      <trkpt lat="49.09107" lon="-0.41957">
        <ele>13</ele>
        <time>2021-10-06T20:28:18+02:00</time>
      </trkpt>
      <trkpt lat="49.09129" lon="-0.4195">
        <ele>13</ele>
        <time>2021-10-06T20:28:18+02:00</time>
      </trkpt>
      <trkpt lat="49.09144" lon="-0.41919">
        <ele>13</ele>
        <time>2021-10-06T20:28:18+02:00</time>
      </trkpt>
      <trkpt lat="49.09153" lon="-0.41887">
        <ele>14</ele>
        <time>2021-10-06T20:28:18+02:00</time>
      </trkpt>
      <trkpt lat="49.09173" lon="-0.41856">
        <ele>14</ele>
        <time>2021-10-06T20:28:18+02:00</time>
      </trkpt>
      <trkpt lat="49.0919" lon="-0.41829">
        <ele>15</ele>
        <time>2021-10-06T20:28:18+02:00</time>
      </trkpt>
      <trkpt lat="49.09208" lon="-0.41801">
        <ele>14</ele>
        <time>2021-10-06T20:28:18+02:00</time>
      </trkpt>
      <trkpt lat="49.09224" lon="-0.41776">
        <ele>13</ele>
        <time>2021-10-06T20:28:18+02:00</time>
      </trkpt>
      <trkpt lat="49.09242" lon="-0.41748">
        <ele>12</ele>
        <time>2021-10-06T20:28:18+02:00</time>
      </trkpt>
      <trkpt lat="49.09261" lon="-0.41719">
        <ele>13</ele>
        <time>2021-10-06T20:28:18+02:00</time>
      </trkpt>
      <trkpt lat="49.09278" lon="-0.41691">
        <ele>14</ele>
        <time>2021-10-06T20:28:18+02:00</time>
      </trkpt>
      <trkpt lat="49.09296" lon="-0.41663">
        <ele>14</ele>
        <time>2021-10-06T20:28:18+02:00</time>
      </trkpt>
      <trkpt lat="49.09311" lon="-0.41637">
        <ele>14</ele>
        <time>2021-10-06T20:28:18+02:00</time>
      </trkpt>
      <trkpt lat="49.09327" lon="-0.41609">
        <ele>14</ele>
        <time>2021-10-06T20:28:18+02:00</time>
      </trkpt>
      <trkpt lat="49.09344" lon="-0.41577">
        <ele>14</ele>
        <time>2021-10-06T20:28:18+02:00</time>
      </trkpt>
      <trkpt lat="49.09361" lon="-0.41547">
        <ele>13</ele>
        <time>2021-10-06T20:28:18+02:00</time>
      </trkpt>
      <trkpt lat="49.09381" lon="-0.41525">
        <ele>13</ele>
        <time>2021-10-06T20:28:18+02:00</time>
      </trkpt>
      <trkpt lat="49.09396" lon="-0.41496">
        <ele>13</ele>
        <time>2021-10-06T20:28:18+02:00</time>
      </trkpt>
      <trkpt lat="49.09415" lon="-0.41467">
        <ele>13</ele>
        <time>2021-10-06T20:28:18+02:00</time>
      </trkpt>
      <trkpt lat="49.09434" lon="-0.41435">
        <ele>14</ele>
        <time>2021-10-06T20:28:18+02:00</time>
      </trkpt>
      <trkpt lat="49.09448" lon="-0.41403">
        <ele>15</ele>
        <time>2021-10-06T20:28:18+02:00</time>
      </trkpt>
      <trkpt lat="49.09459" lon="-0.41367">
        <ele>16</ele>
        <time>2021-10-06T20:28:18+02:00</time>
      </trkpt>
      <trkpt lat="49.09473" lon="-0.4134">
        <ele>16</ele>
        <time>2021-10-06T20:28:18+02:00</time>
      </trkpt>
      <trkpt lat="49.09489" lon="-0.41309">
        <ele>17</ele>
        <time>2021-10-06T20:28:18+02:00</time>
      </trkpt>
      <trkpt lat="49.09505" lon="-0.4128">
        <ele>16</ele>
        <time>2021-10-06T20:28:18+02:00</time>
      </trkpt>
      <trkpt lat="49.09521" lon="-0.41248">
        <ele>16</ele>
        <time>2021-10-06T20:28:18+02:00</time>
      </trkpt>
      <trkpt lat="49.09539" lon="-0.41215">
        <ele>16</ele>
        <time>2021-10-06T20:28:18+02:00</time>
      </trkpt>
      <trkpt lat="49.0956" lon="-0.412">
        <ele>15</ele>
        <time>2021-10-06T20:28:18+02:00</time>
      </trkpt>
      <trkpt lat="49.09577" lon="-0.41168">
        <ele>15</ele>
        <time>2021-10-06T20:28:18+02:00</time>
      </trkpt>
      <trkpt lat="49.09591" lon="-0.41134">
        <ele>16</ele>
        <time>2021-10-06T20:28:18+02:00</time>
      </trkpt>
      <trkpt lat="49.09593" lon="-0.41099">
        <ele>16</ele>
        <time>2021-10-06T20:28:18+02:00</time>
      </trkpt>
      <trkpt lat="49.09607" lon="-0.41064">
        <ele>16</ele>
        <time>2021-10-06T20:28:18+02:00</time>
      </trkpt>
      <trkpt lat="49.09619" lon="-0.41034">
        <ele>16</ele>
        <time>2021-10-06T20:28:18+02:00</time>
      </trkpt>
      <trkpt lat="49.09631" lon="-0.41001">
        <ele>16</ele>
        <time>2021-10-06T20:28:18+02:00</time>
      </trkpt>
      <trkpt lat="49.09644" lon="-0.40967">
        <ele>16</ele>
        <time>2021-10-06T20:28:18+02:00</time>
      </trkpt>
      <trkpt lat="49.09656" lon="-0.40934">
        <ele>17</ele>
        <time>2021-10-06T20:28:18+02:00</time>
      </trkpt>
      <trkpt lat="49.09671" lon="-0.40908">
        <ele>17</ele>
        <time>2021-10-06T20:28:18+02:00</time>
      </trkpt>
      <trkpt lat="49.09683" lon="-0.40877">
        <ele>16</ele>
        <time>2021-10-06T20:28:18+02:00</time>
      </trkpt>
      <trkpt lat="49.09694" lon="-0.40842">
        <ele>15</ele>
        <time>2021-10-06T20:28:18+02:00</time>
      </trkpt>
      <trkpt lat="49.09702" lon="-0.40805">
        <ele>15</ele>
        <time>2021-10-06T20:28:18+02:00</time>
      </trkpt>
      <trkpt lat="49.09709" lon="-0.40765">
        <ele>15</ele>
        <time>2021-10-06T20:28:18+02:00</time>
      </trkpt>
      <trkpt lat="49.09714" lon="-0.40728">
        <ele>15</ele>
        <time>2021-10-06T20:28:18+02:00</time>
      </trkpt>
      <trkpt lat="49.09721" lon="-0.4069">
        <ele>15</ele>
        <time>2021-10-06T20:28:18+02:00</time>
      </trkpt>
      <trkpt lat="49.09711" lon="-0.40654">
        <ele>14</ele>
        <time>2021-10-06T20:28:18+02:00</time>
      </trkpt>
      <trkpt lat="49.09715" lon="-0.40618">
        <ele>14</ele>
        <time>2021-10-06T20:28:18+02:00</time>
      </trkpt>
      <trkpt lat="49.09719" lon="-0.40578">
        <ele>14</ele>
        <time>2021-10-06T20:28:18+02:00</time>
      </trkpt>
      <trkpt lat="49.0972" lon="-0.40543">
        <ele>15</ele>
        <time>2021-10-06T20:28:18+02:00</time>
      </trkpt>
      <trkpt lat="49.09722" lon="-0.40503">
        <ele>15</ele>
        <time>2021-10-06T20:28:18+02:00</time>
      </trkpt>
      <trkpt lat="49.09724" lon="-0.40468">
        <ele>14</ele>
        <time>2021-10-06T20:28:18+02:00</time>
      </trkpt>
      <trkpt lat="49.0973" lon="-0.40428">
        <ele>14</ele>
        <time>2021-10-06T20:28:18+02:00</time>
      </trkpt>
      <trkpt lat="49.09729" lon="-0.40388">
        <ele>14</ele>
        <time>2021-10-06T20:28:18+02:00</time>
      </trkpt>
      <trkpt lat="49.09727" lon="-0.40346">
        <ele>14</ele>
        <time>2021-10-06T20:28:18+02:00</time>
      </trkpt>
      <trkpt lat="49.09726" lon="-0.40311">
        <ele>14</ele>
        <time>2021-10-06T20:28:18+02:00</time>
      </trkpt>
      <trkpt lat="49.09726" lon="-0.40275">
        <ele>14</ele>
        <time>2021-10-06T20:28:18+02:00</time>
      </trkpt>
      <trkpt lat="49.09726" lon="-0.40235">
        <ele>14</ele>
        <time>2021-10-06T20:28:18+02:00</time>
      </trkpt>
      <trkpt lat="49.09726" lon="-0.40194">
        <ele>15</ele>
        <time>2021-10-06T20:28:18+02:00</time>
      </trkpt>
      <trkpt lat="49.09726" lon="-0.40152">
        <ele>16</ele>
        <time>2021-10-06T20:28:18+02:00</time>
      </trkpt>
      <trkpt lat="49.09726" lon="-0.40114">
        <ele>16</ele>
        <time>2021-10-06T20:28:18+02:00</time>
      </trkpt>
      <trkpt lat="49.09725" lon="-0.40072">
        <ele>16</ele>
        <time>2021-10-06T20:28:18+02:00</time>
      </trkpt>
      <trkpt lat="49.09725" lon="-0.4003">
        <ele>15</ele>
        <time>2021-10-06T20:28:18+02:00</time>
      </trkpt>
      <trkpt lat="49.09726" lon="-0.39991">
        <ele>15</ele>
        <time>2021-10-06T20:28:18+02:00</time>
      </trkpt>
      <trkpt lat="49.09728" lon="-0.39951">
        <ele>15</ele>
        <time>2021-10-06T20:28:18+02:00</time>
      </trkpt>
      <trkpt lat="49.09729" lon="-0.39916">
        <ele>15</ele>
        <time>2021-10-06T20:28:18+02:00</time>
      </trkpt>
      <trkpt lat="49.09732" lon="-0.39876">
        <ele>16</ele>
        <time>2021-10-06T20:28:18+02:00</time>
      </trkpt>
      <trkpt lat="49.09736" lon="-0.39837">
        <ele>16</ele>
        <time>2021-10-06T20:28:18+02:00</time>
      </trkpt>
      <trkpt lat="49.09742" lon="-0.39793">
        <ele>13</ele>
        <time>2021-10-06T20:28:18+02:00</time>
      </trkpt>
      <trkpt lat="49.0975" lon="-0.3976">
        <ele>13</ele>
        <time>2021-10-06T20:28:18+02:00</time>
      </trkpt>
      <trkpt lat="49.0976" lon="-0.39718">
        <ele>14</ele>
        <time>2021-10-06T20:28:18+02:00</time>
      </trkpt>
      <trkpt lat="49.09769" lon="-0.39682">
        <ele>8</ele>
        <time>2021-10-06T20:28:18+02:00</time>
      </trkpt>
      <trkpt lat="49.09776" lon="-0.39647">
        <ele>8</ele>
        <time>2021-10-06T20:28:18+02:00</time>
      </trkpt>
      <trkpt lat="49.09796" lon="-0.39594">
        <ele>10</ele>
        <time>2021-10-06T20:28:18+02:00</time>
      </trkpt>
      <trkpt lat="49.09807" lon="-0.39554">
        <ele>11</ele>
        <time>2021-10-06T20:28:18+02:00</time>
      </trkpt>
      <trkpt lat="49.09817" lon="-0.39522">
        <ele>13</ele>
        <time>2021-10-06T20:28:18+02:00</time>
      </trkpt>
      <trkpt lat="49.09826" lon="-0.39486">
        <ele>16</ele>
        <time>2021-10-06T20:28:18+02:00</time>
      </trkpt>
      <trkpt lat="49.09848" lon="-0.39479">
        <ele>16</ele>
        <time>2021-10-06T20:28:18+02:00</time>
      </trkpt>
      <trkpt lat="49.09856" lon="-0.3944">
        <ele>17</ele>
        <time>2021-10-06T20:28:18+02:00</time>
      </trkpt>
      <trkpt lat="49.09865" lon="-0.39405">
        <ele>16</ele>
        <time>2021-10-06T20:28:18+02:00</time>
      </trkpt>
      <trkpt lat="49.09874" lon="-0.39368">
        <ele>15</ele>
        <time>2021-10-06T20:28:18+02:00</time>
      </trkpt>
      <trkpt lat="49.09862" lon="-0.39335">
        <ele>15</ele>
        <time>2021-10-06T20:28:18+02:00</time>
      </trkpt>
      <trkpt lat="49.09873" lon="-0.39301">
        <ele>16</ele>
        <time>2021-10-06T20:28:18+02:00</time>
      </trkpt>
      <trkpt lat="49.09884" lon="-0.39267">
        <ele>15</ele>
        <time>2021-10-06T20:28:18+02:00</time>
      </trkpt>
      <trkpt lat="49.09892" lon="-0.39229">
        <ele>15</ele>
        <time>2021-10-06T20:28:18+02:00</time>
      </trkpt>
      <trkpt lat="49.09902" lon="-0.3919">
        <ele>14</ele>
        <time>2021-10-06T20:28:18+02:00</time>
      </trkpt>
      <trkpt lat="49.09913" lon="-0.39157">
        <ele>14</ele>
        <time>2021-10-06T20:28:18+02:00</time>
      </trkpt>
      <trkpt lat="49.09936" lon="-0.39166">
        <ele>14</ele>
        <time>2021-10-06T20:28:18+02:00</time>
      </trkpt>
      <trkpt lat="49.09947" lon="-0.39135">
        <ele>14</ele>
        <time>2021-10-06T20:28:18+02:00</time>
      </trkpt>
      <trkpt lat="49.09958" lon="-0.39103">
        <ele>14</ele>
        <time>2021-10-06T20:28:18+02:00</time>
      </trkpt>
      <trkpt lat="49.09971" lon="-0.39067">
        <ele>13</ele>
        <time>2021-10-06T20:28:18+02:00</time>
      </trkpt>
      <trkpt lat="49.09986" lon="-0.3903">
        <ele>13</ele>
        <time>2021-10-06T20:28:18+02:00</time>
      </trkpt>
      <trkpt lat="49.1" lon="-0.38995">
        <ele>13</ele>
        <time>2021-10-06T20:28:18+02:00</time>
      </trkpt>
      <trkpt lat="49.10014" lon="-0.38967">
        <ele>12</ele>
        <time>2021-10-06T20:28:18+02:00</time>
      </trkpt>
      <trkpt lat="49.10015" lon="-0.38928">
        <ele>12</ele>
        <time>2021-10-06T20:28:18+02:00</time>
      </trkpt>
      <trkpt lat="49.10029" lon="-0.38894">
        <ele>11</ele>
        <time>2021-10-06T20:28:18+02:00</time>
      </trkpt>
      <trkpt lat="49.10047" lon="-0.38869">
        <ele>11</ele>
        <time>2021-10-06T20:28:18+02:00</time>
      </trkpt>
      <trkpt lat="49.10064" lon="-0.38845">
        <ele>11</ele>
        <time>2021-10-06T20:28:18+02:00</time>
      </trkpt>
      <trkpt lat="49.10085" lon="-0.38856">
        <ele>11</ele>
        <time>2021-10-06T20:28:18+02:00</time>
      </trkpt>
      <trkpt lat="49.10104" lon="-0.38831">
        <ele>10</ele>
        <time>2021-10-06T20:28:18+02:00</time>
      </trkpt>
      <trkpt lat="49.10122" lon="-0.38808">
        <ele>10</ele>
        <time>2021-10-06T20:28:18+02:00</time>
      </trkpt>
      <trkpt lat="49.10143" lon="-0.38783">
        <ele>10</ele>
        <time>2021-10-06T20:28:18+02:00</time>
      </trkpt>
      <trkpt lat="49.10164" lon="-0.3876">
        <ele>10</ele>
        <time>2021-10-06T20:28:18+02:00</time>
      </trkpt>
      <trkpt lat="49.1017" lon="-0.38721">
        <ele>10</ele>
        <time>2021-10-06T20:28:18+02:00</time>
      </trkpt>
      <trkpt lat="49.10171" lon="-0.38686">
        <ele>9</ele>
        <time>2021-10-06T20:28:18+02:00</time>
      </trkpt>
      <trkpt lat="49.10192" lon="-0.38663">
        <ele>9</ele>
        <time>2021-10-06T20:28:18+02:00</time>
      </trkpt>
      <trkpt lat="49.10214" lon="-0.38638">
        <ele>9</ele>
        <time>2021-10-06T20:28:18+02:00</time>
      </trkpt>
      <trkpt lat="49.10236" lon="-0.38619">
        <ele>9</ele>
        <time>2021-10-06T20:28:18+02:00</time>
      </trkpt>
      <trkpt lat="49.1026" lon="-0.38601">
        <ele>9</ele>
        <time>2021-10-06T20:28:18+02:00</time>
      </trkpt>
      <trkpt lat="49.10285" lon="-0.38585">
        <ele>10</ele>
        <time>2021-10-06T20:28:18+02:00</time>
      </trkpt>
      <trkpt lat="49.10307" lon="-0.38571">
        <ele>10</ele>
        <time>2021-10-06T20:28:18+02:00</time>
      </trkpt>
      <trkpt lat="49.10331" lon="-0.38558">
        <ele>10</ele>
        <time>2021-10-06T20:28:18+02:00</time>
      </trkpt>
      <trkpt lat="49.10358" lon="-0.38545">
        <ele>11</ele>
        <time>2021-10-06T20:28:18+02:00</time>
      </trkpt>
      <trkpt lat="49.10381" lon="-0.38536">
        <ele>11</ele>
        <time>2021-10-06T20:28:18+02:00</time>
      </trkpt>
      <trkpt lat="49.10406" lon="-0.38528">
        <ele>10</ele>
        <time>2021-10-06T20:28:18+02:00</time>
      </trkpt>
      <trkpt lat="49.1043" lon="-0.38521">
        <ele>9</ele>
        <time>2021-10-06T20:28:18+02:00</time>
      </trkpt>
      <trkpt lat="49.10453" lon="-0.38517">
        <ele>8</ele>
        <time>2021-10-06T20:28:18+02:00</time>
      </trkpt>
      <trkpt lat="49.10479" lon="-0.38513">
        <ele>8</ele>
        <time>2021-10-06T20:28:18+02:00</time>
      </trkpt>
      <trkpt lat="49.10487" lon="-0.38475">
        <ele>8</ele>
        <time>2021-10-06T20:28:18+02:00</time>
      </trkpt>
      <trkpt lat="49.10512" lon="-0.38477">
        <ele>8</ele>
        <time>2021-10-06T20:28:18+02:00</time>
      </trkpt>
      <trkpt lat="49.10543" lon="-0.38509">
        <ele>8</ele>
        <time>2021-10-06T20:28:18+02:00</time>
      </trkpt>
      <trkpt lat="49.10567" lon="-0.3851">
        <ele>8</ele>
        <time>2021-10-06T20:28:18+02:00</time>
      </trkpt>
      <trkpt lat="49.10591" lon="-0.38514">
        <ele>8</ele>
        <time>2021-10-06T20:28:18+02:00</time>
      </trkpt>
      <trkpt lat="49.10615" lon="-0.38519">
        <ele>9</ele>
        <time>2021-10-06T20:28:18+02:00</time>
      </trkpt>
      <trkpt lat="49.10642" lon="-0.38502">
        <ele>9</ele>
        <time>2021-10-06T20:28:18+02:00</time>
      </trkpt>
      <trkpt lat="49.10663" lon="-0.38494">
        <ele>8</ele>
        <time>2021-10-06T20:28:18+02:00</time>
      </trkpt>
      <trkpt lat="49.10684" lon="-0.38509">
        <ele>7</ele>
        <time>2021-10-06T20:28:18+02:00</time>
      </trkpt>
      <trkpt lat="49.10702" lon="-0.38531">
        <ele>8</ele>
        <time>2021-10-06T20:28:18+02:00</time>
      </trkpt>
      <trkpt lat="49.10726" lon="-0.38546">
        <ele>9</ele>
        <time>2021-10-06T20:28:18+02:00</time>
      </trkpt>
      <trkpt lat="49.1075" lon="-0.38552">
        <ele>9</ele>
        <time>2021-10-06T20:28:18+02:00</time>
      </trkpt>
      <trkpt lat="49.10775" lon="-0.38558">
        <ele>10</ele>
        <time>2021-10-06T20:28:18+02:00</time>
      </trkpt>
      <trkpt lat="49.10799" lon="-0.38558">
        <ele>10</ele>
        <time>2021-10-06T20:28:18+02:00</time>
      </trkpt>
      <trkpt lat="49.10821" lon="-0.38562">
        <ele>10</ele>
        <time>2021-10-06T20:28:18+02:00</time>
      </trkpt>
      <trkpt lat="49.10847" lon="-0.3857">
        <ele>11</ele>
        <time>2021-10-06T20:28:18+02:00</time>
      </trkpt>
      <trkpt lat="49.10874" lon="-0.38576">
        <ele>10</ele>
        <time>2021-10-06T20:28:18+02:00</time>
      </trkpt>
      <trkpt lat="49.10898" lon="-0.38591">
        <ele>10</ele>
        <time>2021-10-06T20:28:18+02:00</time>
      </trkpt>
      <trkpt lat="49.10919" lon="-0.38603">
        <ele>9</ele>
        <time>2021-10-06T20:28:18+02:00</time>
      </trkpt>
      <trkpt lat="49.10943" lon="-0.38603">
        <ele>9</ele>
        <time>2021-10-06T20:28:18+02:00</time>
      </trkpt>
      <trkpt lat="49.10969" lon="-0.38612">
        <ele>8</ele>
        <time>2021-10-06T20:28:18+02:00</time>
      </trkpt>
      <trkpt lat="49.10993" lon="-0.38618">
        <ele>8</ele>
        <time>2021-10-06T20:28:18+02:00</time>
      </trkpt>
      <trkpt lat="49.11015" lon="-0.38633">
        <ele>8</ele>
        <time>2021-10-06T20:28:18+02:00</time>
      </trkpt>
      <trkpt lat="49.11034" lon="-0.38653">
        <ele>8</ele>
        <time>2021-10-06T20:28:18+02:00</time>
      </trkpt>
      <trkpt lat="49.11056" lon="-0.38667">
        <ele>8</ele>
        <time>2021-10-06T20:28:18+02:00</time>
      </trkpt>
      <trkpt lat="49.11084" lon="-0.38678">
        <ele>8</ele>
        <time>2021-10-06T20:28:18+02:00</time>
      </trkpt>
      <trkpt lat="49.11107" lon="-0.38691">
        <ele>8</ele>
        <time>2021-10-06T20:28:18+02:00</time>
      </trkpt>
      <trkpt lat="49.11132" lon="-0.38704">
        <ele>8</ele>
        <time>2021-10-06T20:28:18+02:00</time>
      </trkpt>
      <trkpt lat="49.11157" lon="-0.38718">
        <ele>7</ele>
        <time>2021-10-06T20:28:18+02:00</time>
      </trkpt>
      <trkpt lat="49.11181" lon="-0.38732">
        <ele>7</ele>
        <time>2021-10-06T20:28:18+02:00</time>
      </trkpt>
      <trkpt lat="49.11207" lon="-0.38747">
        <ele>7</ele>
        <time>2021-10-06T20:28:18+02:00</time>
      </trkpt>
      <trkpt lat="49.1123" lon="-0.38764">
        <ele>7</ele>
        <time>2021-10-06T20:28:18+02:00</time>
      </trkpt>
      <trkpt lat="49.11253" lon="-0.38777">
        <ele>7</ele>
        <time>2021-10-06T20:28:18+02:00</time>
      </trkpt>
      <trkpt lat="49.11275" lon="-0.38793">
        <ele>7</ele>
        <time>2021-10-06T20:28:18+02:00</time>
      </trkpt>
      <trkpt lat="49.11296" lon="-0.38811">
        <ele>7</ele>
        <time>2021-10-06T20:28:18+02:00</time>
      </trkpt>
      <trkpt lat="49.11316" lon="-0.38828">
        <ele>7</ele>
        <time>2021-10-06T20:28:18+02:00</time>
      </trkpt>
      <trkpt lat="49.11334" lon="-0.3885">
        <ele>7</ele>
        <time>2021-10-06T20:28:18+02:00</time>
      </trkpt>
      <trkpt lat="49.11356" lon="-0.38865">
        <ele>7</ele>
        <time>2021-10-06T20:28:18+02:00</time>
      </trkpt>
      <trkpt lat="49.11378" lon="-0.38879">
        <ele>7</ele>
        <time>2021-10-06T20:28:18+02:00</time>
      </trkpt>
      <trkpt lat="49.11398" lon="-0.38896">
        <ele>7</ele>
        <time>2021-10-06T20:28:18+02:00</time>
      </trkpt>
      <trkpt lat="49.1142" lon="-0.38917">
        <ele>7</ele>
        <time>2021-10-06T20:28:18+02:00</time>
      </trkpt>
      <trkpt lat="49.11445" lon="-0.38922">
        <ele>7</ele>
        <time>2021-10-06T20:28:18+02:00</time>
      </trkpt>
      <trkpt lat="49.11467" lon="-0.38937">
        <ele>7</ele>
        <time>2021-10-06T20:28:18+02:00</time>
      </trkpt>
      <trkpt lat="49.11489" lon="-0.38949">
        <ele>8</ele>
        <time>2021-10-06T20:28:18+02:00</time>
      </trkpt>
      <trkpt lat="49.11509" lon="-0.38972">
        <ele>9</ele>
        <time>2021-10-06T20:28:18+02:00</time>
      </trkpt>
      <trkpt lat="49.1153" lon="-0.38998">
        <ele>8</ele>
        <time>2021-10-06T20:28:18+02:00</time>
      </trkpt>
      <trkpt lat="49.11557" lon="-0.39004">
        <ele>7</ele>
        <time>2021-10-06T20:28:18+02:00</time>
      </trkpt>
      <trkpt lat="49.11578" lon="-0.39023">
        <ele>6</ele>
        <time>2021-10-06T20:28:18+02:00</time>
      </trkpt>
      <trkpt lat="49.11598" lon="-0.39041">
        <ele>6</ele>
        <time>2021-10-06T20:28:18+02:00</time>
      </trkpt>
      <trkpt lat="49.11617" lon="-0.3906">
        <ele>6</ele>
        <time>2021-10-06T20:28:18+02:00</time>
      </trkpt>
      <trkpt lat="49.11636" lon="-0.3908">
        <ele>7</ele>
        <time>2021-10-06T20:28:18+02:00</time>
      </trkpt>
      <trkpt lat="49.11656" lon="-0.39101">
        <ele>7</ele>
        <time>2021-10-06T20:28:18+02:00</time>
      </trkpt>
      <trkpt lat="49.11669" lon="-0.39138">
        <ele>7</ele>
        <time>2021-10-06T20:28:18+02:00</time>
      </trkpt>
      <trkpt lat="49.11693" lon="-0.39145">
        <ele>8</ele>
        <time>2021-10-06T20:28:18+02:00</time>
      </trkpt>
      <trkpt lat="49.11712" lon="-0.39168">
        <ele>8</ele>
        <time>2021-10-06T20:28:18+02:00</time>
      </trkpt>
      <trkpt lat="49.11733" lon="-0.39193">
        <ele>10</ele>
        <time>2021-10-06T20:28:18+02:00</time>
      </trkpt>
      <trkpt lat="49.11751" lon="-0.39215">
        <ele>13</ele>
        <time>2021-10-06T20:28:18+02:00</time>
      </trkpt>
      <trkpt lat="49.11771" lon="-0.39239">
        <ele>15</ele>
        <time>2021-10-06T20:28:18+02:00</time>
      </trkpt>
      <trkpt lat="49.11787" lon="-0.39272">
        <ele>16</ele>
        <time>2021-10-06T20:28:18+02:00</time>
      </trkpt>
      <trkpt lat="49.11806" lon="-0.39298">
        <ele>16</ele>
        <time>2021-10-06T20:28:18+02:00</time>
      </trkpt>
      <trkpt lat="49.11826" lon="-0.39327">
        <ele>17</ele>
        <time>2021-10-06T20:28:18+02:00</time>
      </trkpt>
      <trkpt lat="49.11843" lon="-0.39352">
        <ele>18</ele>
        <time>2021-10-06T20:28:18+02:00</time>
      </trkpt>
      <trkpt lat="49.11862" lon="-0.39373">
        <ele>18</ele>
        <time>2021-10-06T20:28:18+02:00</time>
      </trkpt>
      <trkpt lat="49.11878" lon="-0.39399">
        <ele>19</ele>
        <time>2021-10-06T20:28:18+02:00</time>
      </trkpt>
      <trkpt lat="49.11893" lon="-0.39425">
        <ele>20</ele>
        <time>2021-10-06T20:28:18+02:00</time>
      </trkpt>
      <trkpt lat="49.11909" lon="-0.39454">
        <ele>20</ele>
        <time>2021-10-06T20:28:18+02:00</time>
      </trkpt>
      <trkpt lat="49.11925" lon="-0.39481">
        <ele>20</ele>
        <time>2021-10-06T20:28:18+02:00</time>
      </trkpt>
      <trkpt lat="49.11943" lon="-0.39505">
        <ele>20</ele>
        <time>2021-10-06T20:28:18+02:00</time>
      </trkpt>
      <trkpt lat="49.11959" lon="-0.39531">
        <ele>20</ele>
        <time>2021-10-06T20:28:18+02:00</time>
      </trkpt>
      <trkpt lat="49.11977" lon="-0.39555">
        <ele>20</ele>
        <time>2021-10-06T20:28:18+02:00</time>
      </trkpt>
      <trkpt lat="49.11996" lon="-0.39583">
        <ele>19</ele>
        <time>2021-10-06T20:28:18+02:00</time>
      </trkpt>
      <trkpt lat="49.12014" lon="-0.39613">
        <ele>18</ele>
        <time>2021-10-06T20:28:18+02:00</time>
      </trkpt>
      <trkpt lat="49.12034" lon="-0.39639">
        <ele>19</ele>
        <time>2021-10-06T20:28:18+02:00</time>
      </trkpt>
      <trkpt lat="49.12052" lon="-0.39666">
        <ele>20</ele>
        <time>2021-10-06T20:28:18+02:00</time>
      </trkpt>
      <trkpt lat="49.1207" lon="-0.3969">
        <ele>20</ele>
        <time>2021-10-06T20:28:18+02:00</time>
      </trkpt>
      <trkpt lat="49.12088" lon="-0.39717">
        <ele>21</ele>
        <time>2021-10-06T20:28:18+02:00</time>
      </trkpt>
      <trkpt lat="49.12108" lon="-0.3974">
        <ele>21</ele>
        <time>2021-10-06T20:28:18+02:00</time>
      </trkpt>
      <trkpt lat="49.12127" lon="-0.39761">
        <ele>21</ele>
        <time>2021-10-06T20:28:18+02:00</time>
      </trkpt>
      <trkpt lat="49.12147" lon="-0.39784">
        <ele>21</ele>
        <time>2021-10-06T20:28:18+02:00</time>
      </trkpt>
      <trkpt lat="49.1217" lon="-0.39807">
        <ele>21</ele>
        <time>2021-10-06T20:28:18+02:00</time>
      </trkpt>
      <trkpt lat="49.12189" lon="-0.39832">
        <ele>20</ele>
        <time>2021-10-06T20:28:18+02:00</time>
      </trkpt>
      <trkpt lat="49.12211" lon="-0.39855">
        <ele>20</ele>
        <time>2021-10-06T20:28:18+02:00</time>
      </trkpt>
      <trkpt lat="49.12233" lon="-0.39878">
        <ele>20</ele>
        <time>2021-10-06T20:28:18+02:00</time>
      </trkpt>
      <trkpt lat="49.12253" lon="-0.39898">
        <ele>19</ele>
        <time>2021-10-06T20:28:18+02:00</time>
      </trkpt>
      <trkpt lat="49.12276" lon="-0.39921">
        <ele>19</ele>
        <time>2021-10-06T20:28:18+02:00</time>
      </trkpt>
      <trkpt lat="49.12295" lon="-0.3995">
        <ele>17</ele>
        <time>2021-10-06T20:28:18+02:00</time>
      </trkpt>
      <trkpt lat="49.12319" lon="-0.3996">
        <ele>16</ele>
        <time>2021-10-06T20:28:18+02:00</time>
      </trkpt>
      <trkpt lat="49.12342" lon="-0.3998">
        <ele>15</ele>
        <time>2021-10-06T20:28:18+02:00</time>
      </trkpt>
      <trkpt lat="49.12366" lon="-0.40001">
        <ele>14</ele>
        <time>2021-10-06T20:28:18+02:00</time>
      </trkpt>
      <trkpt lat="49.12387" lon="-0.40017">
        <ele>14</ele>
        <time>2021-10-06T20:28:18+02:00</time>
      </trkpt>
      <trkpt lat="49.12411" lon="-0.40034">
        <ele>13</ele>
        <time>2021-10-06T20:28:18+02:00</time>
      </trkpt>
      <trkpt lat="49.12432" lon="-0.40048">
        <ele>13</ele>
        <time>2021-10-06T20:28:18+02:00</time>
      </trkpt>
      <trkpt lat="49.12453" lon="-0.4007">
        <ele>13</ele>
        <time>2021-10-06T20:28:18+02:00</time>
      </trkpt>
      <trkpt lat="49.12476" lon="-0.40086">
        <ele>12</ele>
        <time>2021-10-06T20:28:18+02:00</time>
      </trkpt>
      <trkpt lat="49.12501" lon="-0.40097">
        <ele>10</ele>
        <time>2021-10-06T20:28:18+02:00</time>
      </trkpt>
      <trkpt lat="49.12522" lon="-0.40112">
        <ele>8</ele>
        <time>2021-10-06T20:28:18+02:00</time>
      </trkpt>
      <trkpt lat="49.12548" lon="-0.40128">
        <ele>7</ele>
        <time>2021-10-06T20:28:18+02:00</time>
      </trkpt>
      <trkpt lat="49.12571" lon="-0.40142">
        <ele>9</ele>
        <time>2021-10-06T20:28:18+02:00</time>
      </trkpt>
      <trkpt lat="49.12592" lon="-0.40155">
        <ele>9</ele>
        <time>2021-10-06T20:28:18+02:00</time>
      </trkpt>
      <trkpt lat="49.12615" lon="-0.40168">
        <ele>9</ele>
        <time>2021-10-06T20:28:18+02:00</time>
      </trkpt>
      <trkpt lat="49.12633" lon="-0.40191">
        <ele>9</ele>
        <time>2021-10-06T20:28:18+02:00</time>
      </trkpt>
      <trkpt lat="49.12658" lon="-0.40201">
        <ele>9</ele>
        <time>2021-10-06T20:28:18+02:00</time>
      </trkpt>
      <trkpt lat="49.12683" lon="-0.40211">
        <ele>9</ele>
        <time>2021-10-06T20:28:18+02:00</time>
      </trkpt>
      <trkpt lat="49.12707" lon="-0.40213">
        <ele>9</ele>
        <time>2021-10-06T20:28:18+02:00</time>
      </trkpt>
      <trkpt lat="49.12733" lon="-0.40217">
        <ele>10</ele>
        <time>2021-10-06T20:28:18+02:00</time>
      </trkpt>
      <trkpt lat="49.12755" lon="-0.40223">
        <ele>10</ele>
        <time>2021-10-06T20:28:18+02:00</time>
      </trkpt>
      <trkpt lat="49.12778" lon="-0.40229">
        <ele>10</ele>
        <time>2021-10-06T20:28:18+02:00</time>
      </trkpt>
      <trkpt lat="49.12806" lon="-0.4023">
        <ele>10</ele>
        <time>2021-10-06T20:28:18+02:00</time>
      </trkpt>
      <trkpt lat="49.12828" lon="-0.40234">
        <ele>9</ele>
        <time>2021-10-06T20:28:18+02:00</time>
      </trkpt>
      <trkpt lat="49.1285" lon="-0.40248">
        <ele>9</ele>
        <time>2021-10-06T20:28:18+02:00</time>
      </trkpt>
      <trkpt lat="49.12878" lon="-0.40248">
        <ele>9</ele>
        <time>2021-10-06T20:28:18+02:00</time>
      </trkpt>
      <trkpt lat="49.12904" lon="-0.40245">
        <ele>9</ele>
        <time>2021-10-06T20:28:18+02:00</time>
      </trkpt>
      <trkpt lat="49.1293" lon="-0.40241">
        <ele>8</ele>
        <time>2021-10-06T20:28:18+02:00</time>
      </trkpt>
      <trkpt lat="49.12956" lon="-0.40236">
        <ele>8</ele>
        <time>2021-10-06T20:28:18+02:00</time>
      </trkpt>
      <trkpt lat="49.12981" lon="-0.4023">
        <ele>8</ele>
        <time>2021-10-06T20:28:18+02:00</time>
      </trkpt>
      <trkpt lat="49.13005" lon="-0.40221">
        <ele>9</ele>
        <time>2021-10-06T20:28:18+02:00</time>
      </trkpt>
      <trkpt lat="49.13032" lon="-0.40212">
        <ele>8</ele>
        <time>2021-10-06T20:28:18+02:00</time>
      </trkpt>
      <trkpt lat="49.13056" lon="-0.40204">
        <ele>8</ele>
        <time>2021-10-06T20:28:18+02:00</time>
      </trkpt>
      <trkpt lat="49.13082" lon="-0.40197">
        <ele>8</ele>
        <time>2021-10-06T20:28:18+02:00</time>
      </trkpt>
      <trkpt lat="49.13106" lon="-0.40187">
        <ele>8</ele>
        <time>2021-10-06T20:28:18+02:00</time>
      </trkpt>
      <trkpt lat="49.13129" lon="-0.40174">
        <ele>8</ele>
        <time>2021-10-06T20:28:18+02:00</time>
      </trkpt>
      <trkpt lat="49.13152" lon="-0.40157">
        <ele>8</ele>
        <time>2021-10-06T20:28:18+02:00</time>
      </trkpt>
      <trkpt lat="49.13175" lon="-0.40142">
        <ele>8</ele>
        <time>2021-10-06T20:28:18+02:00</time>
      </trkpt>
      <trkpt lat="49.13196" lon="-0.40126">
        <ele>9</ele>
        <time>2021-10-06T20:28:18+02:00</time>
      </trkpt>
      <trkpt lat="49.1322" lon="-0.40107">
        <ele>9</ele>
        <time>2021-10-06T20:28:18+02:00</time>
      </trkpt>
      <trkpt lat="49.13241" lon="-0.40087">
        <ele>9</ele>
        <time>2021-10-06T20:28:18+02:00</time>
      </trkpt>
      <trkpt lat="49.13261" lon="-0.40066">
        <ele>10</ele>
        <time>2021-10-06T20:28:18+02:00</time>
      </trkpt>
      <trkpt lat="49.13281" lon="-0.40047">
        <ele>10</ele>
        <time>2021-10-06T20:28:18+02:00</time>
      </trkpt>
      <trkpt lat="49.13298" lon="-0.40023">
        <ele>10</ele>
        <time>2021-10-06T20:28:18+02:00</time>
      </trkpt>
      <trkpt lat="49.1332" lon="-0.39999">
        <ele>10</ele>
        <time>2021-10-06T20:28:18+02:00</time>
      </trkpt>
      <trkpt lat="49.13341" lon="-0.3998">
        <ele>11</ele>
        <time>2021-10-06T20:28:18+02:00</time>
      </trkpt>
      <trkpt lat="49.1336" lon="-0.3996">
        <ele>11</ele>
        <time>2021-10-06T20:28:18+02:00</time>
      </trkpt>
      <trkpt lat="49.13381" lon="-0.3994">
        <ele>11</ele>
        <time>2021-10-06T20:28:18+02:00</time>
      </trkpt>
      <trkpt lat="49.13401" lon="-0.39916">
        <ele>12</ele>
        <time>2021-10-06T20:28:18+02:00</time>
      </trkpt>
      <trkpt lat="49.1342" lon="-0.39894">
        <ele>12</ele>
        <time>2021-10-06T20:28:18+02:00</time>
      </trkpt>
      <trkpt lat="49.13439" lon="-0.39875">
        <ele>11</ele>
        <time>2021-10-06T20:28:18+02:00</time>
      </trkpt>
      <trkpt lat="49.13462" lon="-0.39856">
        <ele>11</ele>
        <time>2021-10-06T20:28:18+02:00</time>
      </trkpt>
      <trkpt lat="49.13485" lon="-0.39835">
        <ele>10</ele>
        <time>2021-10-06T20:28:18+02:00</time>
      </trkpt>
      <trkpt lat="49.13508" lon="-0.39815">
        <ele>10</ele>
        <time>2021-10-06T20:28:18+02:00</time>
      </trkpt>
      <trkpt lat="49.13527" lon="-0.3979">
        <ele>9</ele>
        <time>2021-10-06T20:28:18+02:00</time>
      </trkpt>
      <trkpt lat="49.13546" lon="-0.39767">
        <ele>9</ele>
        <time>2021-10-06T20:28:18+02:00</time>
      </trkpt>
      <trkpt lat="49.13569" lon="-0.39741">
        <ele>9</ele>
        <time>2021-10-06T20:28:18+02:00</time>
      </trkpt>
      <trkpt lat="49.13588" lon="-0.39722">
        <ele>9</ele>
        <time>2021-10-06T20:28:18+02:00</time>
      </trkpt>
      <trkpt lat="49.13606" lon="-0.39701">
        <ele>9</ele>
        <time>2021-10-06T20:28:18+02:00</time>
      </trkpt>
      <trkpt lat="49.13625" lon="-0.39682">
        <ele>9</ele>
        <time>2021-10-06T20:28:18+02:00</time>
      </trkpt>
      <trkpt lat="49.13646" lon="-0.39662">
        <ele>9</ele>
        <time>2021-10-06T20:28:18+02:00</time>
      </trkpt>
      <trkpt lat="49.13664" lon="-0.39641">
        <ele>8</ele>
        <time>2021-10-06T20:28:18+02:00</time>
      </trkpt>
      <trkpt lat="49.13686" lon="-0.39617">
        <ele>8</ele>
        <time>2021-10-06T20:28:18+02:00</time>
      </trkpt>
      <trkpt lat="49.13708" lon="-0.39594">
        <ele>8</ele>
        <time>2021-10-06T20:28:18+02:00</time>
      </trkpt>
      <trkpt lat="49.13731" lon="-0.39574">
        <ele>8</ele>
        <time>2021-10-06T20:28:18+02:00</time>
      </trkpt>
      <trkpt lat="49.13749" lon="-0.39549">
        <ele>8</ele>
        <time>2021-10-06T20:28:18+02:00</time>
      </trkpt>
      <trkpt lat="49.1377" lon="-0.39528">
        <ele>8</ele>
        <time>2021-10-06T20:28:18+02:00</time>
      </trkpt>
      <trkpt lat="49.1379" lon="-0.39511">
        <ele>8</ele>
        <time>2021-10-06T20:28:18+02:00</time>
      </trkpt>
      <trkpt lat="49.13814" lon="-0.395">
        <ele>8</ele>
        <time>2021-10-06T20:28:18+02:00</time>
      </trkpt>
      <trkpt lat="49.1383" lon="-0.39469">
        <ele>9</ele>
        <time>2021-10-06T20:28:18+02:00</time>
      </trkpt>
      <trkpt lat="49.13848" lon="-0.39449">
        <ele>9</ele>
        <time>2021-10-06T20:28:18+02:00</time>
      </trkpt>
      <trkpt lat="49.13867" lon="-0.39429">
        <ele>10</ele>
        <time>2021-10-06T20:28:18+02:00</time>
      </trkpt>
      <trkpt lat="49.13887" lon="-0.39408">
        <ele>12</ele>
        <time>2021-10-06T20:28:18+02:00</time>
      </trkpt>
      <trkpt lat="49.13907" lon="-0.39387">
        <ele>11</ele>
        <time>2021-10-06T20:28:18+02:00</time>
      </trkpt>
      <trkpt lat="49.13931" lon="-0.39362">
        <ele>11</ele>
        <time>2021-10-06T20:28:18+02:00</time>
      </trkpt>
      <trkpt lat="49.13953" lon="-0.39339">
        <ele>7</ele>
        <time>2021-10-06T20:28:18+02:00</time>
      </trkpt>
      <trkpt lat="49.13977" lon="-0.39327">
        <ele>7</ele>
        <time>2021-10-06T20:28:18+02:00</time>
      </trkpt>
      <trkpt lat="49.14002" lon="-0.39307">
        <ele>8</ele>
        <time>2021-10-06T20:28:18+02:00</time>
      </trkpt>
      <trkpt lat="49.14023" lon="-0.39282">
        <ele>7</ele>
        <time>2021-10-06T20:28:18+02:00</time>
      </trkpt>
      <trkpt lat="49.14044" lon="-0.39261">
        <ele>7</ele>
        <time>2021-10-06T20:28:18+02:00</time>
      </trkpt>
      <trkpt lat="49.14064" lon="-0.39238">
        <ele>7</ele>
        <time>2021-10-06T20:28:18+02:00</time>
      </trkpt>
      <trkpt lat="49.14087" lon="-0.39219">
        <ele>6</ele>
        <time>2021-10-06T20:28:18+02:00</time>
      </trkpt>
      <trkpt lat="49.14109" lon="-0.39202">
        <ele>6</ele>
        <time>2021-10-06T20:28:18+02:00</time>
      </trkpt>
      <trkpt lat="49.14131" lon="-0.39181">
        <ele>5</ele>
        <time>2021-10-06T20:28:18+02:00</time>
      </trkpt>
      <trkpt lat="49.14152" lon="-0.39156">
        <ele>5</ele>
        <time>2021-10-06T20:28:18+02:00</time>
      </trkpt>
      <trkpt lat="49.14173" lon="-0.39131">
        <ele>5</ele>
        <time>2021-10-06T20:28:18+02:00</time>
      </trkpt>
      <trkpt lat="49.14195" lon="-0.39111">
        <ele>6</ele>
        <time>2021-10-06T20:28:18+02:00</time>
      </trkpt>
      <trkpt lat="49.14216" lon="-0.39087">
        <ele>6</ele>
        <time>2021-10-06T20:28:18+02:00</time>
      </trkpt>
      <trkpt lat="49.14237" lon="-0.39065">
        <ele>6</ele>
        <time>2021-10-06T20:28:18+02:00</time>
      </trkpt>
      <trkpt lat="49.14256" lon="-0.39043">
        <ele>6</ele>
        <time>2021-10-06T20:28:18+02:00</time>
      </trkpt>
      <trkpt lat="49.14276" lon="-0.39021">
        <ele>6</ele>
        <time>2021-10-06T20:28:18+02:00</time>
      </trkpt>
      <trkpt lat="49.14299" lon="-0.38997">
        <ele>6</ele>
        <time>2021-10-06T20:28:18+02:00</time>
      </trkpt>
      <trkpt lat="49.1432" lon="-0.38973">
        <ele>6</ele>
        <time>2021-10-06T20:28:18+02:00</time>
      </trkpt>
      <trkpt lat="49.14339" lon="-0.38951">
        <ele>6</ele>
        <time>2021-10-06T20:28:18+02:00</time>
      </trkpt>
      <trkpt lat="49.1436" lon="-0.38928">
        <ele>7</ele>
        <time>2021-10-06T20:28:18+02:00</time>
      </trkpt>
      <trkpt lat="49.14384" lon="-0.3891">
        <ele>7</ele>
        <time>2021-10-06T20:28:18+02:00</time>
      </trkpt>
      <trkpt lat="49.14406" lon="-0.38895">
        <ele>6</ele>
        <time>2021-10-06T20:28:18+02:00</time>
      </trkpt>
      <trkpt lat="49.1443" lon="-0.38878">
        <ele>5</ele>
        <time>2021-10-06T20:28:18+02:00</time>
      </trkpt>
      <trkpt lat="49.14445" lon="-0.38852">
        <ele>5</ele>
        <time>2021-10-06T20:28:18+02:00</time>
      </trkpt>
      <trkpt lat="49.14469" lon="-0.38824">
        <ele>6</ele>
        <time>2021-10-06T20:28:18+02:00</time>
      </trkpt>
      <trkpt lat="49.14489" lon="-0.38807">
        <ele>6</ele>
        <time>2021-10-06T20:28:18+02:00</time>
      </trkpt>
      <trkpt lat="49.14509" lon="-0.38789">
        <ele>6</ele>
        <time>2021-10-06T20:28:18+02:00</time>
      </trkpt>
      <trkpt lat="49.14531" lon="-0.3877">
        <ele>7</ele>
        <time>2021-10-06T20:28:18+02:00</time>
      </trkpt>
      <trkpt lat="49.14553" lon="-0.38751">
        <ele>6</ele>
        <time>2021-10-06T20:28:18+02:00</time>
      </trkpt>
      <trkpt lat="49.14574" lon="-0.38732">
        <ele>7</ele>
        <time>2021-10-06T20:28:18+02:00</time>
      </trkpt>
      <trkpt lat="49.14596" lon="-0.38714">
        <ele>7</ele>
        <time>2021-10-06T20:28:18+02:00</time>
      </trkpt>
      <trkpt lat="49.14617" lon="-0.38697">
        <ele>6</ele>
        <time>2021-10-06T20:28:18+02:00</time>
      </trkpt>
      <trkpt lat="49.14643" lon="-0.38687">
        <ele>6</ele>
        <time>2021-10-06T20:28:18+02:00</time>
      </trkpt>
      <trkpt lat="49.14661" lon="-0.38663">
        <ele>6</ele>
        <time>2021-10-06T20:28:18+02:00</time>
      </trkpt>
      <trkpt lat="49.14684" lon="-0.38646">
        <ele>7</ele>
        <time>2021-10-06T20:28:18+02:00</time>
      </trkpt>
      <trkpt lat="49.14708" lon="-0.38628">
        <ele>7</ele>
        <time>2021-10-06T20:28:18+02:00</time>
      </trkpt>
      <trkpt lat="49.14733" lon="-0.3861">
        <ele>7</ele>
        <time>2021-10-06T20:28:18+02:00</time>
      </trkpt>
      <trkpt lat="49.14755" lon="-0.38594">
        <ele>6</ele>
        <time>2021-10-06T20:28:18+02:00</time>
      </trkpt>
      <trkpt lat="49.14779" lon="-0.38577">
        <ele>7</ele>
        <time>2021-10-06T20:28:18+02:00</time>
      </trkpt>
      <trkpt lat="49.14805" lon="-0.38561">
        <ele>6</ele>
        <time>2021-10-06T20:28:18+02:00</time>
      </trkpt>
      <trkpt lat="49.1483" lon="-0.38546">
        <ele>5</ele>
        <time>2021-10-06T20:28:18+02:00</time>
      </trkpt>
      <trkpt lat="49.1485" lon="-0.3853">
        <ele>6</ele>
        <time>2021-10-06T20:28:18+02:00</time>
      </trkpt>
      <trkpt lat="49.14874" lon="-0.3852">
        <ele>6</ele>
        <time>2021-10-06T20:28:18+02:00</time>
      </trkpt>
      <trkpt lat="49.149" lon="-0.38511">
        <ele>6</ele>
        <time>2021-10-06T20:28:18+02:00</time>
      </trkpt>
      <trkpt lat="49.14924" lon="-0.38498">
        <ele>5</ele>
        <time>2021-10-06T20:28:18+02:00</time>
      </trkpt>
      <trkpt lat="49.14946" lon="-0.38482">
        <ele>6</ele>
        <time>2021-10-06T20:28:18+02:00</time>
      </trkpt>
      <trkpt lat="49.14971" lon="-0.3847">
        <ele>6</ele>
        <time>2021-10-06T20:28:18+02:00</time>
      </trkpt>
      <trkpt lat="49.14993" lon="-0.38457">
        <ele>6</ele>
        <time>2021-10-06T20:28:18+02:00</time>
      </trkpt>
      <trkpt lat="49.15015" lon="-0.38442">
        <ele>6</ele>
        <time>2021-10-06T20:28:18+02:00</time>
      </trkpt>
      <trkpt lat="49.15037" lon="-0.38424">
        <ele>7</ele>
        <time>2021-10-06T20:28:18+02:00</time>
      </trkpt>
      <trkpt lat="49.15056" lon="-0.38406">
        <ele>7</ele>
        <time>2021-10-06T20:28:18+02:00</time>
      </trkpt>
      <trkpt lat="49.15079" lon="-0.38391">
        <ele>7</ele>
        <time>2021-10-06T20:28:18+02:00</time>
      </trkpt>
      <trkpt lat="49.15102" lon="-0.38378">
        <ele>7</ele>
        <time>2021-10-06T20:28:18+02:00</time>
      </trkpt>
      <trkpt lat="49.15125" lon="-0.38362">
        <ele>9</ele>
        <time>2021-10-06T20:28:18+02:00</time>
      </trkpt>
      <trkpt lat="49.15147" lon="-0.38348">
        <ele>8</ele>
        <time>2021-10-06T20:28:18+02:00</time>
      </trkpt>
      <trkpt lat="49.1517" lon="-0.3833">
        <ele>10</ele>
        <time>2021-10-06T20:28:18+02:00</time>
      </trkpt>
      <trkpt lat="49.1519" lon="-0.3831">
        <ele>9</ele>
        <time>2021-10-06T20:28:18+02:00</time>
      </trkpt>
      <trkpt lat="49.15211" lon="-0.38295">
        <ele>9</ele>
        <time>2021-10-06T20:28:18+02:00</time>
      </trkpt>
      <trkpt lat="49.15234" lon="-0.38281">
        <ele>5</ele>
        <time>2021-10-06T20:28:18+02:00</time>
      </trkpt>
      <trkpt lat="49.15258" lon="-0.38267">
        <ele>6</ele>
        <time>2021-10-06T20:28:18+02:00</time>
      </trkpt>
      <trkpt lat="49.15283" lon="-0.38254">
        <ele>9</ele>
        <time>2021-10-06T20:28:18+02:00</time>
      </trkpt>
      <trkpt lat="49.15308" lon="-0.38239">
        <ele>9</ele>
        <time>2021-10-06T20:28:18+02:00</time>
      </trkpt>
      <trkpt lat="49.1533" lon="-0.38225">
        <ele>8</ele>
        <time>2021-10-06T20:28:18+02:00</time>
      </trkpt>
      <trkpt lat="49.15352" lon="-0.38205">
        <ele>8</ele>
        <time>2021-10-06T20:28:18+02:00</time>
      </trkpt>
      <trkpt lat="49.1538" lon="-0.38188">
        <ele>7</ele>
        <time>2021-10-06T20:28:18+02:00</time>
      </trkpt>
      <trkpt lat="49.15403" lon="-0.38174">
        <ele>7</ele>
        <time>2021-10-06T20:28:18+02:00</time>
      </trkpt>
      <trkpt lat="49.1543" lon="-0.38157">
        <ele>6</ele>
        <time>2021-10-06T20:28:18+02:00</time>
      </trkpt>
      <trkpt lat="49.15453" lon="-0.38142">
        <ele>6</ele>
        <time>2021-10-06T20:28:18+02:00</time>
      </trkpt>
      <trkpt lat="49.15472" lon="-0.38122">
        <ele>6</ele>
        <time>2021-10-06T20:28:18+02:00</time>
      </trkpt>
      <trkpt lat="49.15462" lon="-0.38067">
        <ele>5</ele>
        <time>2021-10-06T20:28:18+02:00</time>
      </trkpt>
      <trkpt lat="49.15475" lon="-0.38036">
        <ele>5</ele>
        <time>2021-10-06T20:28:18+02:00</time>
      </trkpt>
      <trkpt lat="49.1549" lon="-0.38004">
        <ele>5</ele>
        <time>2021-10-06T20:28:18+02:00</time>
      </trkpt>
      <trkpt lat="49.15504" lon="-0.37976">
        <ele>5</ele>
        <time>2021-10-06T20:28:18+02:00</time>
      </trkpt>
      <trkpt lat="49.15529" lon="-0.37988">
        <ele>5</ele>
        <time>2021-10-06T20:28:18+02:00</time>
      </trkpt>
      <trkpt lat="49.15553" lon="-0.38001">
        <ele>5</ele>
        <time>2021-10-06T20:28:18+02:00</time>
      </trkpt>
      <trkpt lat="49.15578" lon="-0.38011">
        <ele>6</ele>
        <time>2021-10-06T20:28:18+02:00</time>
      </trkpt>
      <trkpt lat="49.15604" lon="-0.38019">
        <ele>5</ele>
        <time>2021-10-06T20:28:18+02:00</time>
      </trkpt>
      <trkpt lat="49.1563" lon="-0.38029">
        <ele>6</ele>
        <time>2021-10-06T20:28:18+02:00</time>
      </trkpt>
      <trkpt lat="49.15655" lon="-0.38039">
        <ele>6</ele>
        <time>2021-10-06T20:28:18+02:00</time>
      </trkpt>
      <trkpt lat="49.15677" lon="-0.38015">
        <ele>6</ele>
        <time>2021-10-06T20:28:18+02:00</time>
      </trkpt>
      <trkpt lat="49.15692" lon="-0.37983">
        <ele>6</ele>
        <time>2021-10-06T20:28:18+02:00</time>
      </trkpt>
      <trkpt lat="49.15712" lon="-0.37959">
        <ele>6</ele>
        <time>2021-10-06T20:28:18+02:00</time>
      </trkpt>
      <trkpt lat="49.15736" lon="-0.37937">
        <ele>8</ele>
        <time>2021-10-06T20:28:18+02:00</time>
      </trkpt>
      <trkpt lat="49.15758" lon="-0.37949">
        <ele>7</ele>
        <time>2021-10-06T20:28:18+02:00</time>
      </trkpt>
      <trkpt lat="49.15772" lon="-0.37918">
        <ele>6</ele>
        <time>2021-10-06T20:28:18+02:00</time>
      </trkpt>
      <trkpt lat="49.15796" lon="-0.37908">
        <ele>7</ele>
        <time>2021-10-06T20:28:18+02:00</time>
      </trkpt>
      <trkpt lat="49.15818" lon="-0.37897">
        <ele>7</ele>
        <time>2021-10-06T20:28:18+02:00</time>
      </trkpt>
      <trkpt lat="49.15841" lon="-0.37882">
        <ele>7</ele>
        <time>2021-10-06T20:28:18+02:00</time>
      </trkpt>
      <trkpt lat="49.15862" lon="-0.37869">
        <ele>7</ele>
        <time>2021-10-06T20:28:18+02:00</time>
      </trkpt>
      <trkpt lat="49.15884" lon="-0.37877">
        <ele>7</ele>
        <time>2021-10-06T20:28:18+02:00</time>
      </trkpt>
      <trkpt lat="49.15907" lon="-0.37868">
        <ele>7</ele>
        <time>2021-10-06T20:28:18+02:00</time>
      </trkpt>
      <trkpt lat="49.15929" lon="-0.37852">
        <ele>6</ele>
        <time>2021-10-06T20:28:18+02:00</time>
      </trkpt>
      <trkpt lat="49.15951" lon="-0.37841">
        <ele>7</ele>
        <time>2021-10-06T20:28:18+02:00</time>
      </trkpt>
      <trkpt lat="49.15973" lon="-0.37827">
        <ele>7</ele>
        <time>2021-10-06T20:28:18+02:00</time>
      </trkpt>
      <trkpt lat="49.15997" lon="-0.37809">
        <ele>6</ele>
        <time>2021-10-06T20:28:18+02:00</time>
      </trkpt>
      <trkpt lat="49.16018" lon="-0.37794">
        <ele>7</ele>
        <time>2021-10-06T20:28:18+02:00</time>
      </trkpt>
      <trkpt lat="49.16044" lon="-0.37779">
        <ele>7</ele>
        <time>2021-10-06T20:28:18+02:00</time>
      </trkpt>
      <trkpt lat="49.16063" lon="-0.37762">
        <ele>7</ele>
        <time>2021-10-06T20:28:18+02:00</time>
      </trkpt>
      <trkpt lat="49.1609" lon="-0.37749">
        <ele>8</ele>
        <time>2021-10-06T20:28:18+02:00</time>
      </trkpt>
      <trkpt lat="49.16112" lon="-0.37735">
        <ele>7</ele>
        <time>2021-10-06T20:28:18+02:00</time>
      </trkpt>
      <trkpt lat="49.16137" lon="-0.37719">
        <ele>7</ele>
        <time>2021-10-06T20:28:18+02:00</time>
      </trkpt>
      <trkpt lat="49.1616" lon="-0.37705">
        <ele>7</ele>
        <time>2021-10-06T20:28:18+02:00</time>
      </trkpt>
      <trkpt lat="49.16185" lon="-0.37694">
        <ele>8</ele>
        <time>2021-10-06T20:28:18+02:00</time>
      </trkpt>
      <trkpt lat="49.1621" lon="-0.37678">
        <ele>7</ele>
        <time>2021-10-06T20:28:18+02:00</time>
      </trkpt>
      <trkpt lat="49.16231" lon="-0.37665">
        <ele>8</ele>
        <time>2021-10-06T20:28:18+02:00</time>
      </trkpt>
      <trkpt lat="49.16255" lon="-0.3765">
        <ele>7</ele>
        <time>2021-10-06T20:28:18+02:00</time>
      </trkpt>
      <trkpt lat="49.16279" lon="-0.37634">
        <ele>8</ele>
        <time>2021-10-06T20:28:18+02:00</time>
      </trkpt>
      <trkpt lat="49.16301" lon="-0.37618">
        <ele>7</ele>
        <time>2021-10-06T20:28:18+02:00</time>
      </trkpt>
      <trkpt lat="49.16324" lon="-0.37607">
        <ele>7</ele>
        <time>2021-10-06T20:28:18+02:00</time>
      </trkpt>
      <trkpt lat="49.16345" lon="-0.3759">
        <ele>7</ele>
        <time>2021-10-06T20:28:18+02:00</time>
      </trkpt>
      <trkpt lat="49.16368" lon="-0.37576">
        <ele>8</ele>
        <time>2021-10-06T20:28:18+02:00</time>
      </trkpt>
      <trkpt lat="49.1639" lon="-0.37564">
        <ele>7</ele>
        <time>2021-10-06T20:28:18+02:00</time>
      </trkpt>
      <trkpt lat="49.16415" lon="-0.37551">
        <ele>7</ele>
        <time>2021-10-06T20:28:18+02:00</time>
      </trkpt>
      <trkpt lat="49.16436" lon="-0.37537">
        <ele>7</ele>
        <time>2021-10-06T20:28:18+02:00</time>
      </trkpt>
      <trkpt lat="49.16458" lon="-0.37527">
        <ele>7</ele>
        <time>2021-10-06T20:28:18+02:00</time>
      </trkpt>
      <trkpt lat="49.16481" lon="-0.37513">
        <ele>7</ele>
        <time>2021-10-06T20:28:18+02:00</time>
      </trkpt>
      <trkpt lat="49.16505" lon="-0.37496">
        <ele>7</ele>
        <time>2021-10-06T20:28:18+02:00</time>
      </trkpt>
      <trkpt lat="49.16529" lon="-0.37481">
        <ele>7</ele>
        <time>2021-10-06T20:28:18+02:00</time>
      </trkpt>
      <trkpt lat="49.16553" lon="-0.37466">
        <ele>7</ele>
        <time>2021-10-06T20:28:18+02:00</time>
      </trkpt>
      <trkpt lat="49.16577" lon="-0.3745">
        <ele>7</ele>
        <time>2021-10-06T20:28:18+02:00</time>
      </trkpt>
      <trkpt lat="49.16599" lon="-0.37435">
        <ele>7</ele>
        <time>2021-10-06T20:28:18+02:00</time>
      </trkpt>
      <trkpt lat="49.16623" lon="-0.37415">
        <ele>7</ele>
        <time>2021-10-06T20:28:18+02:00</time>
      </trkpt>
      <trkpt lat="49.16641" lon="-0.37392">
        <ele>7</ele>
        <time>2021-10-06T20:28:18+02:00</time>
      </trkpt>
      <trkpt lat="49.16662" lon="-0.37375">
        <ele>7</ele>
        <time>2021-10-06T20:28:18+02:00</time>
      </trkpt>
      <trkpt lat="49.16682" lon="-0.37354">
        <ele>7</ele>
        <time>2021-10-06T20:28:18+02:00</time>
      </trkpt>
      <trkpt lat="49.16706" lon="-0.37331">
        <ele>7</ele>
        <time>2021-10-06T20:28:18+02:00</time>
      </trkpt>
      <trkpt lat="49.16728" lon="-0.37307">
        <ele>7</ele>
        <time>2021-10-06T20:28:18+02:00</time>
      </trkpt>
      <trkpt lat="49.16746" lon="-0.37285">
        <ele>7</ele>
        <time>2021-10-06T20:28:18+02:00</time>
      </trkpt>
      <trkpt lat="49.16764" lon="-0.3726">
        <ele>8</ele>
        <time>2021-10-06T20:28:18+02:00</time>
      </trkpt>
      <trkpt lat="49.16784" lon="-0.3723">
        <ele>8</ele>
        <time>2021-10-06T20:28:18+02:00</time>
      </trkpt>
      <trkpt lat="49.16803" lon="-0.372">
        <ele>8</ele>
        <time>2021-10-06T20:28:18+02:00</time>
      </trkpt>
      <trkpt lat="49.1682" lon="-0.37171">
        <ele>9</ele>
        <time>2021-10-06T20:28:18+02:00</time>
      </trkpt>
      <trkpt lat="49.16836" lon="-0.3714">
        <ele>10</ele>
        <time>2021-10-06T20:28:18+02:00</time>
      </trkpt>
      <trkpt lat="49.1686" lon="-0.37133">
        <ele>10</ele>
        <time>2021-10-06T20:28:18+02:00</time>
      </trkpt>
      <trkpt lat="49.16879" lon="-0.37155">
        <ele>7</ele>
        <time>2021-10-06T20:28:18+02:00</time>
      </trkpt>
      <trkpt lat="49.16903" lon="-0.37168">
        <ele>5</ele>
        <time>2021-10-06T20:28:18+02:00</time>
      </trkpt>
      <trkpt lat="49.16926" lon="-0.37173">
        <ele>6</ele>
        <time>2021-10-06T20:28:18+02:00</time>
      </trkpt>
      <trkpt lat="49.16933" lon="-0.37136">
        <ele>6</ele>
        <time>2021-10-06T20:28:18+02:00</time>
      </trkpt>
      <trkpt lat="49.16934" lon="-0.37099">
        <ele>6</ele>
        <time>2021-10-06T20:28:18+02:00</time>
      </trkpt>
      <trkpt lat="49.16936" lon="-0.3706">
        <ele>6</ele>
        <time>2021-10-06T20:28:18+02:00</time>
      </trkpt>
      <trkpt lat="49.16938" lon="-0.37022">
        <ele>7</ele>
        <time>2021-10-06T20:28:18+02:00</time>
      </trkpt>
      <trkpt lat="49.1694" lon="-0.36985">
        <ele>7</ele>
        <time>2021-10-06T20:28:18+02:00</time>
      </trkpt>
      <trkpt lat="49.16966" lon="-0.36968">
        <ele>6</ele>
        <time>2021-10-06T20:28:18+02:00</time>
      </trkpt>
      <trkpt lat="49.1696" lon="-0.36935">
        <ele>7</ele>
        <time>2021-10-06T20:28:18+02:00</time>
      </trkpt>
      <trkpt lat="49.16963" lon="-0.36898">
        <ele>7</ele>
        <time>2021-10-06T20:28:18+02:00</time>
      </trkpt>
      <trkpt lat="49.16971" lon="-0.3686">
        <ele>6</ele>
        <time>2021-10-06T20:28:18+02:00</time>
      </trkpt>
      <trkpt lat="49.16978" lon="-0.36819">
        <ele>7</ele>
        <time>2021-10-06T20:28:18+02:00</time>
      </trkpt>
      <trkpt lat="49.16985" lon="-0.3678">
        <ele>7</ele>
        <time>2021-10-06T20:28:18+02:00</time>
      </trkpt>
      <trkpt lat="49.16992" lon="-0.36747">
        <ele>7</ele>
        <time>2021-10-06T20:28:18+02:00</time>
      </trkpt>
      <trkpt lat="49.17006" lon="-0.36716">
        <ele>4</ele>
        <time>2021-10-06T20:28:18+02:00</time>
      </trkpt>
      <trkpt lat="49.17028" lon="-0.36705">
        <ele>6</ele>
        <time>2021-10-06T20:28:18+02:00</time>
      </trkpt>
      <trkpt lat="49.17052" lon="-0.36701">
        <ele>9</ele>
        <time>2021-10-06T20:28:18+02:00</time>
      </trkpt>
      <trkpt lat="49.17077" lon="-0.36699">
        <ele>9</ele>
        <time>2021-10-06T20:28:18+02:00</time>
      </trkpt>
      <trkpt lat="49.171" lon="-0.36677">
        <ele>5</ele>
        <time>2021-10-06T20:28:18+02:00</time>
      </trkpt>
      <trkpt lat="49.17115" lon="-0.36644">
        <ele>5</ele>
        <time>2021-10-06T20:28:18+02:00</time>
      </trkpt>
      <trkpt lat="49.17126" lon="-0.36613">
        <ele>5</ele>
        <time>2021-10-06T20:28:18+02:00</time>
      </trkpt>
      <trkpt lat="49.17149" lon="-0.36615">
        <ele>5</ele>
        <time>2021-10-06T20:28:18+02:00</time>
      </trkpt>
      <trkpt lat="49.17171" lon="-0.36618">
        <ele>5</ele>
        <time>2021-10-06T20:28:18+02:00</time>
      </trkpt>
      <trkpt lat="49.1718" lon="-0.36586">
        <ele>5</ele>
        <time>2021-10-06T20:28:18+02:00</time>
      </trkpt>
      <trkpt lat="49.17182" lon="-0.36547">
        <ele>5</ele>
        <time>2021-10-06T20:28:18+02:00</time>
      </trkpt>
      <trkpt lat="49.17188" lon="-0.36512">
        <ele>5</ele>
        <time>2021-10-06T20:28:18+02:00</time>
      </trkpt>
      <trkpt lat="49.17201" lon="-0.36478">
        <ele>5</ele>
        <time>2021-10-06T20:28:18+02:00</time>
      </trkpt>
      <trkpt lat="49.17212" lon="-0.36445">
        <ele>5</ele>
        <time>2021-10-06T20:28:18+02:00</time>
      </trkpt>
      <trkpt lat="49.17228" lon="-0.36418">
        <ele>5</ele>
        <time>2021-10-06T20:28:18+02:00</time>
      </trkpt>
      <trkpt lat="49.17245" lon="-0.36388">
        <ele>5</ele>
        <time>2021-10-06T20:28:18+02:00</time>
      </trkpt>
      <trkpt lat="49.17262" lon="-0.36359">
        <ele>5</ele>
        <time>2021-10-06T20:28:18+02:00</time>
      </trkpt>
      <trkpt lat="49.17281" lon="-0.36333">
        <ele>5</ele>
        <time>2021-10-06T20:28:18+02:00</time>
      </trkpt>
      <trkpt lat="49.17299" lon="-0.3631">
        <ele>5</ele>
        <time>2021-10-06T20:28:18+02:00</time>
      </trkpt>
      <trkpt lat="49.17317" lon="-0.3628">
        <ele>5</ele>
        <time>2021-10-06T20:28:18+02:00</time>
      </trkpt>
      <trkpt lat="49.17335" lon="-0.3625">
        <ele>5</ele>
        <time>2021-10-06T20:28:18+02:00</time>
      </trkpt>
      <trkpt lat="49.17353" lon="-0.36221">
        <ele>5</ele>
        <time>2021-10-06T20:28:18+02:00</time>
      </trkpt>
      <trkpt lat="49.17369" lon="-0.36196">
        <ele>5</ele>
        <time>2021-10-06T20:28:18+02:00</time>
      </trkpt>
      <trkpt lat="49.17385" lon="-0.36171">
        <ele>5</ele>
        <time>2021-10-06T20:28:18+02:00</time>
      </trkpt>
      <trkpt lat="49.17403" lon="-0.36142">
        <ele>5</ele>
        <time>2021-10-06T20:28:18+02:00</time>
      </trkpt>
      <trkpt lat="49.1742" lon="-0.36117">
        <ele>5</ele>
        <time>2021-10-06T20:28:18+02:00</time>
      </trkpt>
      <trkpt lat="49.1744" lon="-0.36089">
        <ele>5</ele>
        <time>2021-10-06T20:28:18+02:00</time>
      </trkpt>
      <trkpt lat="49.17456" lon="-0.36064">
        <ele>5</ele>
        <time>2021-10-06T20:28:18+02:00</time>
      </trkpt>
      <trkpt lat="49.17472" lon="-0.3604">
        <ele>5</ele>
        <time>2021-10-06T20:28:18+02:00</time>
      </trkpt>
      <trkpt lat="49.17491" lon="-0.36009">
        <ele>5</ele>
        <time>2021-10-06T20:28:18+02:00</time>
      </trkpt>
      <trkpt lat="49.1751" lon="-0.35979">
        <ele>5</ele>
        <time>2021-10-06T20:28:18+02:00</time>
      </trkpt>
      <trkpt lat="49.17526" lon="-0.35953">
        <ele>5</ele>
        <time>2021-10-06T20:28:18+02:00</time>
      </trkpt>
      <trkpt lat="49.17543" lon="-0.3592">
        <ele>5</ele>
        <time>2021-10-06T20:28:18+02:00</time>
      </trkpt>
      <trkpt lat="49.1756" lon="-0.35897">
        <ele>5</ele>
        <time>2021-10-06T20:28:18+02:00</time>
      </trkpt>
      <trkpt lat="49.17578" lon="-0.35869">
        <ele>5</ele>
        <time>2021-10-06T20:28:18+02:00</time>
      </trkpt>
      <trkpt lat="49.17591" lon="-0.35841">
        <ele>5</ele>
        <time>2021-10-06T20:28:18+02:00</time>
      </trkpt>
      <trkpt lat="49.17605" lon="-0.35812">
        <ele>5</ele>
        <time>2021-10-06T20:28:18+02:00</time>
      </trkpt>
      <trkpt lat="49.17619" lon="-0.35784">
        <ele>5</ele>
        <time>2021-10-06T20:28:18+02:00</time>
      </trkpt>
      <trkpt lat="49.17633" lon="-0.35753">
        <ele>5</ele>
        <time>2021-10-06T20:28:18+02:00</time>
      </trkpt>
      <trkpt lat="49.17644" lon="-0.3572">
        <ele>5</ele>
        <time>2021-10-06T20:28:18+02:00</time>
      </trkpt>
      <trkpt lat="49.17654" lon="-0.35683">
        <ele>5</ele>
        <time>2021-10-06T20:28:18+02:00</time>
      </trkpt>
      <trkpt lat="49.17667" lon="-0.35653">
        <ele>5</ele>
        <time>2021-10-06T20:28:18+02:00</time>
      </trkpt>
      <trkpt lat="49.17681" lon="-0.35622">
        <ele>5</ele>
        <time>2021-10-06T20:28:18+02:00</time>
      </trkpt>
      <trkpt lat="49.177" lon="-0.35585">
        <ele>5</ele>
        <time>2021-10-06T20:28:18+02:00</time>
      </trkpt>
      <trkpt lat="49.17716" lon="-0.3555">
        <ele>5</ele>
        <time>2021-10-06T20:28:18+02:00</time>
      </trkpt>
      <trkpt lat="49.17726" lon="-0.35518">
        <ele>5</ele>
        <time>2021-10-06T20:28:18+02:00</time>
      </trkpt>
      <trkpt lat="49.17743" lon="-0.35488">
        <ele>5</ele>
        <time>2021-10-06T20:28:18+02:00</time>
      </trkpt>
      <trkpt lat="49.17752" lon="-0.35454">
        <ele>5</ele>
        <time>2021-10-06T20:28:18+02:00</time>
      </trkpt>
      <trkpt lat="49.17764" lon="-0.35417">
        <ele>5</ele>
        <time>2021-10-06T20:28:18+02:00</time>
      </trkpt>
      <trkpt lat="49.17777" lon="-0.35382">
        <ele>5</ele>
        <time>2021-10-06T20:28:18+02:00</time>
      </trkpt>
      <trkpt lat="49.17791" lon="-0.35352">
        <ele>5</ele>
        <time>2021-10-06T20:28:18+02:00</time>
      </trkpt>
      <trkpt lat="49.1781" lon="-0.3533">
        <ele>5</ele>
        <time>2021-10-06T20:28:18+02:00</time>
      </trkpt>
      <trkpt lat="49.1783" lon="-0.3531">
        <ele>5</ele>
        <time>2021-10-06T20:28:18+02:00</time>
      </trkpt>
      <trkpt lat="49.17841" lon="-0.3528">
        <ele>5</ele>
        <time>2021-10-06T20:28:18+02:00</time>
      </trkpt>
      <trkpt lat="49.17849" lon="-0.35245">
        <ele>5</ele>
        <time>2021-10-06T20:28:18+02:00</time>
      </trkpt>
      <trkpt lat="49.17857" lon="-0.3521">
        <ele>5</ele>
        <time>2021-10-06T20:28:18+02:00</time>
      </trkpt>
      <trkpt lat="49.17865" lon="-0.35173">
        <ele>5</ele>
        <time>2021-10-06T20:28:18+02:00</time>
      </trkpt>
      <trkpt lat="49.17879" lon="-0.3514">
        <ele>5</ele>
        <time>2021-10-06T20:28:18+02:00</time>
      </trkpt>
      <trkpt lat="49.17895" lon="-0.35109">
        <ele>5</ele>
        <time>2021-10-06T20:28:18+02:00</time>
      </trkpt>
      <trkpt lat="49.1791" lon="-0.35081">
        <ele>5</ele>
        <time>2021-10-06T20:28:18+02:00</time>
      </trkpt>
      <trkpt lat="49.1793" lon="-0.35053">
        <ele>5</ele>
        <time>2021-10-06T20:28:18+02:00</time>
      </trkpt>
      <trkpt lat="49.17951" lon="-0.3502">
        <ele>5</ele>
        <time>2021-10-06T20:28:18+02:00</time>
      </trkpt>
      <trkpt lat="49.17965" lon="-0.34986">
        <ele>5</ele>
        <time>2021-10-06T20:28:18+02:00</time>
      </trkpt>
      <trkpt lat="49.17988" lon="-0.34978">
        <ele>5</ele>
        <time>2021-10-06T20:28:18+02:00</time>
      </trkpt>
      <trkpt lat="49.1801" lon="-0.34969">
        <ele>5</ele>
        <time>2021-10-06T20:28:18+02:00</time>
      </trkpt>
      <trkpt lat="49.18032" lon="-0.34976">
        <ele>8</ele>
        <time>2021-10-06T20:28:18+02:00</time>
      </trkpt>
      <trkpt lat="49.18046" lon="-0.35006">
        <ele>15</ele>
        <time>2021-10-06T20:28:18+02:00</time>
      </trkpt>
      <trkpt lat="49.18064" lon="-0.35035">
        <ele>14</ele>
        <time>2021-10-06T20:28:18+02:00</time>
      </trkpt>
      <trkpt lat="49.18078" lon="-0.35067">
        <ele>13</ele>
        <time>2021-10-06T20:28:18+02:00</time>
      </trkpt>
      <trkpt lat="49.18093" lon="-0.35097">
        <ele>5</ele>
        <time>2021-10-06T20:28:18+02:00</time>
      </trkpt>
      <trkpt lat="49.18107" lon="-0.35125">
        <ele>5</ele>
        <time>2021-10-06T20:28:18+02:00</time>
      </trkpt>
      <trkpt lat="49.18121" lon="-0.35152">
        <ele>5</ele>
        <time>2021-10-06T20:28:18+02:00</time>
      </trkpt>
      <trkpt lat="49.18138" lon="-0.35185">
        <ele>5</ele>
        <time>2021-10-06T20:28:18+02:00</time>
      </trkpt>
      <trkpt lat="49.18153" lon="-0.35215">
        <ele>5</ele>
        <time>2021-10-06T20:28:18+02:00</time>
      </trkpt>
      <trkpt lat="49.18168" lon="-0.35246">
        <ele>5</ele>
        <time>2021-10-06T20:28:18+02:00</time>
      </trkpt>
      <trkpt lat="49.18185" lon="-0.35275">
        <ele>5</ele>
        <time>2021-10-06T20:28:18+02:00</time>
      </trkpt>
      <trkpt lat="49.18199" lon="-0.35303">
        <ele>5</ele>
        <time>2021-10-06T20:28:18+02:00</time>
      </trkpt>
      <trkpt lat="49.18211" lon="-0.35332">
        <ele>5</ele>
        <time>2021-10-06T20:28:18+02:00</time>
      </trkpt>
      <trkpt lat="49.18223" lon="-0.35362">
        <ele>5</ele>
        <time>2021-10-06T20:28:18+02:00</time>
      </trkpt>
      <trkpt lat="49.1824" lon="-0.35386">
        <ele>5</ele>
        <time>2021-10-06T20:28:18+02:00</time>
      </trkpt>
      <trkpt lat="49.18257" lon="-0.35414">
        <ele>6</ele>
        <time>2021-10-06T20:28:18+02:00</time>
      </trkpt>
      <trkpt lat="49.18269" lon="-0.35445">
        <ele>6</ele>
        <time>2021-10-06T20:28:18+02:00</time>
      </trkpt>
      <trkpt lat="49.18284" lon="-0.35472">
        <ele>6</ele>
        <time>2021-10-06T20:28:18+02:00</time>
      </trkpt>
      <trkpt lat="49.18301" lon="-0.35503">
        <ele>6</ele>
        <time>2021-10-06T20:28:18+02:00</time>
      </trkpt>
      <trkpt lat="49.18317" lon="-0.3553">
        <ele>6</ele>
        <time>2021-10-06T20:28:18+02:00</time>
      </trkpt>
      <trkpt lat="49.18331" lon="-0.3556">
        <ele>6</ele>
        <time>2021-10-06T20:28:18+02:00</time>
      </trkpt>
      <trkpt lat="49.18347" lon="-0.35587">
        <ele>6</ele>
        <time>2021-10-06T20:28:18+02:00</time>
      </trkpt>
      <trkpt lat="49.18361" lon="-0.35617">
        <ele>6</ele>
        <time>2021-10-06T20:28:18+02:00</time>
      </trkpt>
      <trkpt lat="49.1837" lon="-0.35651">
        <ele>6</ele>
        <time>2021-10-06T20:28:18+02:00</time>
      </trkpt>
      <trkpt lat="49.18379" lon="-0.35683">
        <ele>6</ele>
        <time>2021-10-06T20:28:18+02:00</time>
      </trkpt>
      <trkpt lat="49.18391" lon="-0.35712">
        <ele>6</ele>
        <time>2021-10-06T20:28:18+02:00</time>
      </trkpt>
      <trkpt lat="49.18405" lon="-0.35739">
        <ele>6</ele>
        <time>2021-10-06T20:28:18+02:00</time>
      </trkpt>
      <trkpt lat="49.18418" lon="-0.35774">
        <ele>6</ele>
        <time>2021-10-06T20:28:18+02:00</time>
      </trkpt>
      <trkpt lat="49.18431" lon="-0.35808">
        <ele>6</ele>
        <time>2021-10-06T20:28:18+02:00</time>
      </trkpt>
      <trkpt lat="49.18433" lon="-0.35844">
        <ele>7</ele>
        <time>2021-10-06T20:28:18+02:00</time>
      </trkpt>
      <trkpt lat="49.18437" lon="-0.35881">
        <ele>6</ele>
        <time>2021-10-06T20:28:18+02:00</time>
      </trkpt>
      <trkpt lat="49.18432" lon="-0.35915">
        <ele>6</ele>
        <time>2021-10-06T20:28:18+02:00</time>
      </trkpt>
      <trkpt lat="49.18422" lon="-0.35952">
        <ele>6</ele>
        <time>2021-10-06T20:28:18+02:00</time>
      </trkpt>
      <trkpt lat="49.1844" lon="-0.35976">
        <ele>7</ele>
        <time>2021-10-06T20:28:18+02:00</time>
      </trkpt>
      <trkpt lat="49.18459" lon="-0.35996">
        <ele>8</ele>
        <time>2021-10-06T20:28:18+02:00</time>
      </trkpt>
      <trkpt lat="49.18479" lon="-0.36014">
        <ele>10</ele>
        <time>2021-10-06T20:28:18+02:00</time>
      </trkpt>
      <trkpt lat="49.18499" lon="-0.36035">
        <ele>11</ele>
        <time>2021-10-06T20:28:18+02:00</time>
      </trkpt>
      <trkpt lat="49.18518" lon="-0.36054">
        <ele>14</ele>
        <time>2021-10-06T20:28:18+02:00</time>
      </trkpt>
      <trkpt lat="49.18541" lon="-0.36053">
        <ele>16</ele>
        <time>2021-10-06T20:28:18+02:00</time>
      </trkpt>
      <trkpt lat="49.18561" lon="-0.36036">
        <ele>16</ele>
        <time>2021-10-06T20:28:18+02:00</time>
      </trkpt>
      <trkpt lat="49.18584" lon="-0.36027">
        <ele>17</ele>
        <time>2021-10-06T20:28:18+02:00</time>
      </trkpt>
      <trkpt lat="49.1861" lon="-0.36013">
        <ele>17</ele>
        <time>2021-10-06T20:28:18+02:00</time>
      </trkpt>
      <trkpt lat="49.18631" lon="-0.36001">
        <ele>17</ele>
        <time>2021-10-06T20:28:18+02:00</time>
      </trkpt>
      <trkpt lat="49.18652" lon="-0.35986">
        <ele>18</ele>
        <time>2021-10-06T20:28:18+02:00</time>
      </trkpt>
      <trkpt lat="49.18671" lon="-0.35967">
        <ele>19</ele>
        <time>2021-10-06T20:28:18+02:00</time>
      </trkpt>
      <trkpt lat="49.18692" lon="-0.35944">
        <ele>21</ele>
        <time>2021-10-06T20:28:18+02:00</time>
      </trkpt>
      <trkpt lat="49.18708" lon="-0.35918">
        <ele>23</ele>
        <time>2021-10-06T20:28:18+02:00</time>
      </trkpt>
      <trkpt lat="49.18721" lon="-0.35889">
        <ele>25</ele>
        <time>2021-10-06T20:28:18+02:00</time>
      </trkpt>
      <trkpt lat="49.18705" lon="-0.35862">
        <ele>26</ele>
        <time>2021-10-06T20:28:18+02:00</time>
      </trkpt>
      <trkpt lat="49.18685" lon="-0.35844">
        <ele>26</ele>
        <time>2021-10-06T20:28:18+02:00</time>
      </trkpt>
      <trkpt lat="49.18683" lon="-0.3581">
        <ele>27</ele>
        <time>2021-10-06T20:28:18+02:00</time>
      </trkpt>
    </trkseg>
  </trk>
</gpx>